<?xml version="1.0" encoding="UTF-8" standalone="no" ?>
<gpx xmlns="http://www.topografix.com/GPX/1/1" xmlns:xsi="http://www.w3.org/2001/XMLSchema-instance" xsi:schemaLocation="http://www.topografix.com/GPX/1/1 http://www.topografix.com/GPX/1/1/gpx.xsd" version="1.1" creator="VisuGPX - https://www.visugpx.com">
  <metadata>
    <name>Champagnat Cyclisme sur route</name>
  </metadata>
  <trk>
    <name><![CDATA[Champagnat Cyclisme sur route_1]]></name>
    <trkseg>
      <trkpt lat="46.48273" lon="5.36842">
        <ele>269.6</ele>
        <time>2021-11-06T11:14:15Z</time>
      </trkpt>
      <trkpt lat="46.48264" lon="5.3683">
        <ele>268.8</ele>
        <time>2021-11-06T11:14:16Z</time>
      </trkpt>
      <trkpt lat="46.48254" lon="5.36819">
        <ele>268.2</ele>
        <time>2021-11-06T11:14:17Z</time>
      </trkpt>
      <trkpt lat="46.48244" lon="5.36809">
        <ele>267.2</ele>
        <time>2021-11-06T11:14:18Z</time>
      </trkpt>
      <trkpt lat="46.48234" lon="5.368">
        <ele>266</ele>
        <time>2021-11-06T11:14:19Z</time>
      </trkpt>
      <trkpt lat="46.48212" lon="5.36783">
        <ele>264.6</ele>
        <time>2021-11-06T11:14:21Z</time>
      </trkpt>
      <trkpt lat="46.48201" lon="5.36773">
        <ele>262.8</ele>
        <time>2021-11-06T11:14:23Z</time>
      </trkpt>
      <trkpt lat="46.48168" lon="5.36747">
        <ele>261</ele>
        <time>2021-11-06T11:14:25Z</time>
      </trkpt>
      <trkpt lat="46.48158" lon="5.36738">
        <ele>260</ele>
        <time>2021-11-06T11:14:26Z</time>
      </trkpt>
      <trkpt lat="46.48138" lon="5.36723">
        <ele>259</ele>
        <time>2021-11-06T11:14:28Z</time>
      </trkpt>
      <trkpt lat="46.48129" lon="5.36717">
        <ele>258.6</ele>
        <time>2021-11-06T11:14:29Z</time>
      </trkpt>
      <trkpt lat="46.48121" lon="5.36711">
        <ele>257.2</ele>
        <time>2021-11-06T11:14:30Z</time>
      </trkpt>
      <trkpt lat="46.48109" lon="5.367">
        <ele>256</ele>
        <time>2021-11-06T11:14:32Z</time>
      </trkpt>
      <trkpt lat="46.48108" lon="5.36683">
        <ele>254.2</ele>
        <time>2021-11-06T11:14:34Z</time>
      </trkpt>
      <trkpt lat="46.48111" lon="5.36675">
        <ele>253</ele>
        <time>2021-11-06T11:14:35Z</time>
      </trkpt>
      <trkpt lat="46.48122" lon="5.36662">
        <ele>251.8</ele>
        <time>2021-11-06T11:14:37Z</time>
      </trkpt>
      <trkpt lat="46.4815" lon="5.36637">
        <ele>250.8</ele>
        <time>2021-11-06T11:14:41Z</time>
      </trkpt>
      <trkpt lat="46.48164" lon="5.36624">
        <ele>250</ele>
        <time>2021-11-06T11:14:44Z</time>
      </trkpt>
      <trkpt lat="46.48176" lon="5.36613">
        <ele>250</ele>
        <time>2021-11-06T11:14:45Z</time>
      </trkpt>
      <trkpt lat="46.48184" lon="5.36608">
        <ele>249.6</ele>
        <time>2021-11-06T11:14:46Z</time>
      </trkpt>
      <trkpt lat="46.48192" lon="5.36606">
        <ele>249.6</ele>
        <time>2021-11-06T11:14:47Z</time>
      </trkpt>
      <trkpt lat="46.48204" lon="5.36601">
        <ele>249.4</ele>
        <time>2021-11-06T11:14:49Z</time>
      </trkpt>
      <trkpt lat="46.48217" lon="5.36588">
        <ele>249.2</ele>
        <time>2021-11-06T11:14:51Z</time>
      </trkpt>
      <trkpt lat="46.48226" lon="5.36563">
        <ele>249</ele>
        <time>2021-11-06T11:14:54Z</time>
      </trkpt>
      <trkpt lat="46.48236" lon="5.36549">
        <ele>248.6</ele>
        <time>2021-11-06T11:14:56Z</time>
      </trkpt>
      <trkpt lat="46.48242" lon="5.36543">
        <ele>248.4</ele>
        <time>2021-11-06T11:14:57Z</time>
      </trkpt>
      <trkpt lat="46.48281" lon="5.36499">
        <ele>247.4</ele>
        <time>2021-11-06T11:15:04Z</time>
      </trkpt>
      <trkpt lat="46.48311" lon="5.36467">
        <ele>246.6</ele>
        <time>2021-11-06T11:15:09Z</time>
      </trkpt>
      <trkpt lat="46.48323" lon="5.36454">
        <ele>246.4</ele>
        <time>2021-11-06T11:15:11Z</time>
      </trkpt>
      <trkpt lat="46.48339" lon="5.36435">
        <ele>245.6</ele>
        <time>2021-11-06T11:15:14Z</time>
      </trkpt>
      <trkpt lat="46.48353" lon="5.36421">
        <ele>245.2</ele>
        <time>2021-11-06T11:15:16Z</time>
      </trkpt>
      <trkpt lat="46.4837" lon="5.36401">
        <ele>244.2</ele>
        <time>2021-11-06T11:15:19Z</time>
      </trkpt>
      <trkpt lat="46.48376" lon="5.36394">
        <ele>244</ele>
        <time>2021-11-06T11:15:20Z</time>
      </trkpt>
      <trkpt lat="46.48412" lon="5.36361">
        <ele>242.8</ele>
        <time>2021-11-06T11:15:26Z</time>
      </trkpt>
      <trkpt lat="46.48418" lon="5.36357">
        <ele>242.4</ele>
        <time>2021-11-06T11:15:27Z</time>
      </trkpt>
      <trkpt lat="46.48451" lon="5.36347">
        <ele>241.8</ele>
        <time>2021-11-06T11:15:32Z</time>
      </trkpt>
      <trkpt lat="46.48457" lon="5.36346">
        <ele>241.6</ele>
        <time>2021-11-06T11:15:33Z</time>
      </trkpt>
      <trkpt lat="46.48489" lon="5.36341">
        <ele>241.4</ele>
        <time>2021-11-06T11:15:38Z</time>
      </trkpt>
      <trkpt lat="46.48532" lon="5.36333">
        <ele>240.8</ele>
        <time>2021-11-06T11:15:45Z</time>
      </trkpt>
      <trkpt lat="46.48545" lon="5.36331">
        <ele>240.8</ele>
        <time>2021-11-06T11:15:47Z</time>
      </trkpt>
      <trkpt lat="46.48593" lon="5.36323">
        <ele>240.2</ele>
        <time>2021-11-06T11:15:54Z</time>
      </trkpt>
      <trkpt lat="46.48608" lon="5.36321">
        <ele>240</ele>
        <time>2021-11-06T11:15:56Z</time>
      </trkpt>
      <trkpt lat="46.48615" lon="5.36317">
        <ele>239.6</ele>
        <time>2021-11-06T11:15:57Z</time>
      </trkpt>
      <trkpt lat="46.48621" lon="5.36311">
        <ele>239.6</ele>
        <time>2021-11-06T11:15:58Z</time>
      </trkpt>
      <trkpt lat="46.48631" lon="5.36292">
        <ele>239.2</ele>
        <time>2021-11-06T11:16:00Z</time>
      </trkpt>
      <trkpt lat="46.48634" lon="5.3628">
        <ele>238.8</ele>
        <time>2021-11-06T11:16:01Z</time>
      </trkpt>
      <trkpt lat="46.48635" lon="5.36268">
        <ele>238.4</ele>
        <time>2021-11-06T11:16:02Z</time>
      </trkpt>
      <trkpt lat="46.48638" lon="5.36243">
        <ele>237.4</ele>
        <time>2021-11-06T11:16:04Z</time>
      </trkpt>
      <trkpt lat="46.48641" lon="5.36206">
        <ele>236.2</ele>
        <time>2021-11-06T11:16:07Z</time>
      </trkpt>
      <trkpt lat="46.48644" lon="5.36169">
        <ele>235</ele>
        <time>2021-11-06T11:16:10Z</time>
      </trkpt>
      <trkpt lat="46.48653" lon="5.36111">
        <ele>233.8</ele>
        <time>2021-11-06T11:16:15Z</time>
      </trkpt>
      <trkpt lat="46.48669" lon="5.3604">
        <ele>233.2</ele>
        <time>2021-11-06T11:16:22Z</time>
      </trkpt>
      <trkpt lat="46.48673" lon="5.36013">
        <ele>233.2</ele>
        <time>2021-11-06T11:16:25Z</time>
      </trkpt>
      <trkpt lat="46.48676" lon="5.35997">
        <ele>233.2</ele>
        <time>2021-11-06T11:16:27Z</time>
      </trkpt>
      <trkpt lat="46.48684" lon="5.35944">
        <ele>234.6</ele>
        <time>2021-11-06T11:16:33Z</time>
      </trkpt>
      <trkpt lat="46.48689" lon="5.35916">
        <ele>234.8</ele>
        <time>2021-11-06T11:16:36Z</time>
      </trkpt>
      <trkpt lat="46.48691" lon="5.35907">
        <ele>234.8</ele>
        <time>2021-11-06T11:16:37Z</time>
      </trkpt>
      <trkpt lat="46.48694" lon="5.35897">
        <ele>234.8</ele>
        <time>2021-11-06T11:16:38Z</time>
      </trkpt>
      <trkpt lat="46.4872" lon="5.35832">
        <ele>234.2</ele>
        <time>2021-11-06T11:16:45Z</time>
      </trkpt>
      <trkpt lat="46.48728" lon="5.35814">
        <ele>233.8</ele>
        <time>2021-11-06T11:16:47Z</time>
      </trkpt>
      <trkpt lat="46.48747" lon="5.3577">
        <ele>232.6</ele>
        <time>2021-11-06T11:16:52Z</time>
      </trkpt>
      <trkpt lat="46.4877" lon="5.35717">
        <ele>231.8</ele>
        <time>2021-11-06T11:16:58Z</time>
      </trkpt>
      <trkpt lat="46.48778" lon="5.357">
        <ele>231.6</ele>
        <time>2021-11-06T11:17:00Z</time>
      </trkpt>
      <trkpt lat="46.48782" lon="5.35691">
        <ele>231.6</ele>
        <time>2021-11-06T11:17:01Z</time>
      </trkpt>
      <trkpt lat="46.48814" lon="5.35618">
        <ele>231.2</ele>
        <time>2021-11-06T11:17:10Z</time>
      </trkpt>
      <trkpt lat="46.48836" lon="5.35572">
        <ele>231.4</ele>
        <time>2021-11-06T11:17:16Z</time>
      </trkpt>
      <trkpt lat="46.48841" lon="5.35566">
        <ele>231.4</ele>
        <time>2021-11-06T11:17:17Z</time>
      </trkpt>
      <trkpt lat="46.48847" lon="5.35563">
        <ele>231.4</ele>
        <time>2021-11-06T11:17:18Z</time>
      </trkpt>
      <trkpt lat="46.4886" lon="5.3556">
        <ele>231.4</ele>
        <time>2021-11-06T11:17:20Z</time>
      </trkpt>
      <trkpt lat="46.48904" lon="5.35558">
        <ele>230.8</ele>
        <time>2021-11-06T11:17:26Z</time>
      </trkpt>
      <trkpt lat="46.48928" lon="5.35557">
        <ele>230.4</ele>
        <time>2021-11-06T11:17:29Z</time>
      </trkpt>
      <trkpt lat="46.48984" lon="5.35555">
        <ele>229.4</ele>
        <time>2021-11-06T11:17:36Z</time>
      </trkpt>
      <trkpt lat="46.48984" lon="5.35555">
        <ele>229.2</ele>
        <time>2021-11-06T11:17:37Z</time>
      </trkpt>
      <trkpt lat="46.49051" lon="5.35551">
        <ele>228.4</ele>
        <time>2021-11-06T11:17:45Z</time>
      </trkpt>
      <trkpt lat="46.49058" lon="5.35551">
        <ele>228.4</ele>
        <time>2021-11-06T11:17:46Z</time>
      </trkpt>
      <trkpt lat="46.49089" lon="5.35549">
        <ele>229</ele>
        <time>2021-11-06T11:17:51Z</time>
      </trkpt>
      <trkpt lat="46.49127" lon="5.35548">
        <ele>229.8</ele>
        <time>2021-11-06T11:17:58Z</time>
      </trkpt>
      <trkpt lat="46.49167" lon="5.35547">
        <ele>230.6</ele>
        <time>2021-11-06T11:18:05Z</time>
      </trkpt>
      <trkpt lat="46.49192" lon="5.35544">
        <ele>231.4</ele>
        <time>2021-11-06T11:18:10Z</time>
      </trkpt>
      <trkpt lat="46.49198" lon="5.35543">
        <ele>231.6</ele>
        <time>2021-11-06T11:18:11Z</time>
      </trkpt>
      <trkpt lat="46.4921" lon="5.35542">
        <ele>231.8</ele>
        <time>2021-11-06T11:18:13Z</time>
      </trkpt>
      <trkpt lat="46.49246" lon="5.35539">
        <ele>232.4</ele>
        <time>2021-11-06T11:18:18Z</time>
      </trkpt>
      <trkpt lat="46.49252" lon="5.35538">
        <ele>232.6</ele>
        <time>2021-11-06T11:18:19Z</time>
      </trkpt>
      <trkpt lat="46.49266" lon="5.35538">
        <ele>232.6</ele>
        <time>2021-11-06T11:18:21Z</time>
      </trkpt>
      <trkpt lat="46.49315" lon="5.35535">
        <ele>232.2</ele>
        <time>2021-11-06T11:18:28Z</time>
      </trkpt>
      <trkpt lat="46.49376" lon="5.35537">
        <ele>231.8</ele>
        <time>2021-11-06T11:18:36Z</time>
      </trkpt>
      <trkpt lat="46.49382" lon="5.35538">
        <ele>231.8</ele>
        <time>2021-11-06T11:18:37Z</time>
      </trkpt>
      <trkpt lat="46.4941" lon="5.35547">
        <ele>231.4</ele>
        <time>2021-11-06T11:18:41Z</time>
      </trkpt>
      <trkpt lat="46.49431" lon="5.35555">
        <ele>230.8</ele>
        <time>2021-11-06T11:18:44Z</time>
      </trkpt>
      <trkpt lat="46.49464" lon="5.35568">
        <ele>230.4</ele>
        <time>2021-11-06T11:18:49Z</time>
      </trkpt>
      <trkpt lat="46.49477" lon="5.35573">
        <ele>230.4</ele>
        <time>2021-11-06T11:18:51Z</time>
      </trkpt>
      <trkpt lat="46.49535" lon="5.35596">
        <ele>229.8</ele>
        <time>2021-11-06T11:19:00Z</time>
      </trkpt>
      <trkpt lat="46.49548" lon="5.35601">
        <ele>229.8</ele>
        <time>2021-11-06T11:19:02Z</time>
      </trkpt>
      <trkpt lat="46.49569" lon="5.35608">
        <ele>229.4</ele>
        <time>2021-11-06T11:19:05Z</time>
      </trkpt>
      <trkpt lat="46.4961" lon="5.35622">
        <ele>228.2</ele>
        <time>2021-11-06T11:19:11Z</time>
      </trkpt>
      <trkpt lat="46.49659" lon="5.35636">
        <ele>227.2</ele>
        <time>2021-11-06T11:19:18Z</time>
      </trkpt>
      <trkpt lat="46.49673" lon="5.35641">
        <ele>226.8</ele>
        <time>2021-11-06T11:19:20Z</time>
      </trkpt>
      <trkpt lat="46.49694" lon="5.35648">
        <ele>226.4</ele>
        <time>2021-11-06T11:19:24Z</time>
      </trkpt>
      <trkpt lat="46.49697" lon="5.35647">
        <ele>226</ele>
        <time>2021-11-06T11:19:25Z</time>
      </trkpt>
      <trkpt lat="46.49701" lon="5.35643">
        <ele>225.8</ele>
        <time>2021-11-06T11:19:26Z</time>
      </trkpt>
      <trkpt lat="46.49703" lon="5.35638">
        <ele>225</ele>
        <time>2021-11-06T11:19:28Z</time>
      </trkpt>
      <trkpt lat="46.49706" lon="5.35623">
        <ele>224.8</ele>
        <time>2021-11-06T11:19:29Z</time>
      </trkpt>
      <trkpt lat="46.49711" lon="5.35568">
        <ele>224.2</ele>
        <time>2021-11-06T11:19:35Z</time>
      </trkpt>
      <trkpt lat="46.4972" lon="5.35495">
        <ele>224</ele>
        <time>2021-11-06T11:19:42Z</time>
      </trkpt>
      <trkpt lat="46.49727" lon="5.35442">
        <ele>224.2</ele>
        <time>2021-11-06T11:19:47Z</time>
      </trkpt>
      <trkpt lat="46.4973" lon="5.35421">
        <ele>224.2</ele>
        <time>2021-11-06T11:19:49Z</time>
      </trkpt>
      <trkpt lat="46.49731" lon="5.3541">
        <ele>223.6</ele>
        <time>2021-11-06T11:19:51Z</time>
      </trkpt>
      <trkpt lat="46.49734" lon="5.35343">
        <ele>223</ele>
        <time>2021-11-06T11:19:56Z</time>
      </trkpt>
      <trkpt lat="46.49734" lon="5.35343">
        <ele>222.6</ele>
        <time>2021-11-06T11:19:57Z</time>
      </trkpt>
      <trkpt lat="46.49726" lon="5.35285">
        <ele>222.4</ele>
        <time>2021-11-06T11:20:02Z</time>
      </trkpt>
      <trkpt lat="46.49715" lon="5.35234">
        <ele>222.4</ele>
        <time>2021-11-06T11:20:08Z</time>
      </trkpt>
      <trkpt lat="46.49699" lon="5.3515">
        <ele>223.4</ele>
        <time>2021-11-06T11:20:17Z</time>
      </trkpt>
      <trkpt lat="46.49697" lon="5.3514">
        <ele>223.6</ele>
        <time>2021-11-06T11:20:18Z</time>
      </trkpt>
      <trkpt lat="46.4968" lon="5.35057">
        <ele>222.8</ele>
        <time>2021-11-06T11:20:26Z</time>
      </trkpt>
      <trkpt lat="46.49665" lon="5.34982">
        <ele>222.8</ele>
        <time>2021-11-06T11:20:34Z</time>
      </trkpt>
      <trkpt lat="46.49657" lon="5.34939">
        <ele>223.6</ele>
        <time>2021-11-06T11:20:40Z</time>
      </trkpt>
      <trkpt lat="46.49651" lon="5.34912">
        <ele>223.8</ele>
        <time>2021-11-06T11:20:43Z</time>
      </trkpt>
      <trkpt lat="46.49637" lon="5.34837">
        <ele>224.6</ele>
        <time>2021-11-06T11:20:50Z</time>
      </trkpt>
      <trkpt lat="46.49628" lon="5.34776">
        <ele>224.6</ele>
        <time>2021-11-06T11:20:56Z</time>
      </trkpt>
      <trkpt lat="46.49628" lon="5.34764">
        <ele>224.6</ele>
        <time>2021-11-06T11:20:57Z</time>
      </trkpt>
      <trkpt lat="46.49628" lon="5.34715">
        <ele>223.8</ele>
        <time>2021-11-06T11:21:01Z</time>
      </trkpt>
      <trkpt lat="46.49629" lon="5.34702">
        <ele>223.4</ele>
        <time>2021-11-06T11:21:02Z</time>
      </trkpt>
      <trkpt lat="46.49631" lon="5.34677">
        <ele>222.6</ele>
        <time>2021-11-06T11:21:04Z</time>
      </trkpt>
      <trkpt lat="46.49635" lon="5.34637">
        <ele>221.4</ele>
        <time>2021-11-06T11:21:07Z</time>
      </trkpt>
      <trkpt lat="46.49638" lon="5.3461">
        <ele>220.4</ele>
        <time>2021-11-06T11:21:09Z</time>
      </trkpt>
      <trkpt lat="46.49647" lon="5.34555">
        <ele>219.4</ele>
        <time>2021-11-06T11:21:13Z</time>
      </trkpt>
      <trkpt lat="46.49651" lon="5.3453">
        <ele>218.6</ele>
        <time>2021-11-06T11:21:15Z</time>
      </trkpt>
      <trkpt lat="46.49654" lon="5.34519">
        <ele>218</ele>
        <time>2021-11-06T11:21:16Z</time>
      </trkpt>
      <trkpt lat="46.49665" lon="5.34478">
        <ele>217.8</ele>
        <time>2021-11-06T11:21:20Z</time>
      </trkpt>
      <trkpt lat="46.49682" lon="5.34417">
        <ele>218.4</ele>
        <time>2021-11-06T11:21:27Z</time>
      </trkpt>
      <trkpt lat="46.49691" lon="5.3438">
        <ele>219.2</ele>
        <time>2021-11-06T11:21:32Z</time>
      </trkpt>
      <trkpt lat="46.49695" lon="5.34366">
        <ele>219.4</ele>
        <time>2021-11-06T11:21:34Z</time>
      </trkpt>
      <trkpt lat="46.49702" lon="5.3434">
        <ele>220.2</ele>
        <time>2021-11-06T11:21:38Z</time>
      </trkpt>
      <trkpt lat="46.49706" lon="5.34327">
        <ele>220.4</ele>
        <time>2021-11-06T11:21:40Z</time>
      </trkpt>
      <trkpt lat="46.49711" lon="5.34313">
        <ele>221.2</ele>
        <time>2021-11-06T11:21:43Z</time>
      </trkpt>
      <trkpt lat="46.49722" lon="5.34291">
        <ele>221.6</ele>
        <time>2021-11-06T11:21:46Z</time>
      </trkpt>
      <trkpt lat="46.49751" lon="5.34239">
        <ele>222</ele>
        <time>2021-11-06T11:21:52Z</time>
      </trkpt>
      <trkpt lat="46.49781" lon="5.34192">
        <ele>222.2</ele>
        <time>2021-11-06T11:21:59Z</time>
      </trkpt>
      <trkpt lat="46.49789" lon="5.34179">
        <ele>222.2</ele>
        <time>2021-11-06T11:22:01Z</time>
      </trkpt>
      <trkpt lat="46.49825" lon="5.3412">
        <ele>222.6</ele>
        <time>2021-11-06T11:22:10Z</time>
      </trkpt>
      <trkpt lat="46.49829" lon="5.34113">
        <ele>222.8</ele>
        <time>2021-11-06T11:22:11Z</time>
      </trkpt>
      <trkpt lat="46.49867" lon="5.34057">
        <ele>222.6</ele>
        <time>2021-11-06T11:22:19Z</time>
      </trkpt>
      <trkpt lat="46.49906" lon="5.34013">
        <ele>222.2</ele>
        <time>2021-11-06T11:22:27Z</time>
      </trkpt>
      <trkpt lat="46.49936" lon="5.33981">
        <ele>223</ele>
        <time>2021-11-06T11:22:34Z</time>
      </trkpt>
      <trkpt lat="46.49941" lon="5.33976">
        <ele>223</ele>
        <time>2021-11-06T11:22:35Z</time>
      </trkpt>
      <trkpt lat="46.49962" lon="5.33953">
        <ele>223.8</ele>
        <time>2021-11-06T11:22:40Z</time>
      </trkpt>
      <trkpt lat="46.49966" lon="5.33949">
        <ele>223.8</ele>
        <time>2021-11-06T11:22:41Z</time>
      </trkpt>
      <trkpt lat="46.49976" lon="5.3394">
        <ele>224</ele>
        <time>2021-11-06T11:22:43Z</time>
      </trkpt>
      <trkpt lat="46.49997" lon="5.33919">
        <ele>224.6</ele>
        <time>2021-11-06T11:22:47Z</time>
      </trkpt>
      <trkpt lat="46.50023" lon="5.3389">
        <ele>224.8</ele>
        <time>2021-11-06T11:22:52Z</time>
      </trkpt>
      <trkpt lat="46.50045" lon="5.33866">
        <ele>225</ele>
        <time>2021-11-06T11:22:56Z</time>
      </trkpt>
      <trkpt lat="46.50063" lon="5.33846">
        <ele>224.8</ele>
        <time>2021-11-06T11:23:00Z</time>
      </trkpt>
      <trkpt lat="46.50082" lon="5.33823">
        <ele>224.4</ele>
        <time>2021-11-06T11:23:02Z</time>
      </trkpt>
      <trkpt lat="46.50096" lon="5.33808">
        <ele>223.8</ele>
        <time>2021-11-06T11:23:04Z</time>
      </trkpt>
      <trkpt lat="46.50127" lon="5.33774">
        <ele>222.6</ele>
        <time>2021-11-06T11:23:09Z</time>
      </trkpt>
      <trkpt lat="46.50133" lon="5.33767">
        <ele>222.4</ele>
        <time>2021-11-06T11:23:10Z</time>
      </trkpt>
      <trkpt lat="46.50169" lon="5.33731">
        <ele>222.4</ele>
        <time>2021-11-06T11:23:16Z</time>
      </trkpt>
      <trkpt lat="46.50211" lon="5.33685">
        <ele>222.6</ele>
        <time>2021-11-06T11:23:24Z</time>
      </trkpt>
      <trkpt lat="46.5025" lon="5.33644">
        <ele>223.2</ele>
        <time>2021-11-06T11:23:31Z</time>
      </trkpt>
      <trkpt lat="46.50289" lon="5.33602">
        <ele>222.6</ele>
        <time>2021-11-06T11:23:38Z</time>
      </trkpt>
      <trkpt lat="46.50334" lon="5.33553">
        <ele>221.6</ele>
        <time>2021-11-06T11:23:46Z</time>
      </trkpt>
      <trkpt lat="46.50375" lon="5.3351">
        <ele>221.2</ele>
        <time>2021-11-06T11:23:53Z</time>
      </trkpt>
      <trkpt lat="46.50417" lon="5.33464">
        <ele>220.2</ele>
        <time>2021-11-06T11:24:00Z</time>
      </trkpt>
      <trkpt lat="46.50422" lon="5.33457">
        <ele>220.2</ele>
        <time>2021-11-06T11:24:01Z</time>
      </trkpt>
      <trkpt lat="46.50453" lon="5.33409">
        <ele>219.6</ele>
        <time>2021-11-06T11:24:07Z</time>
      </trkpt>
      <trkpt lat="46.50459" lon="5.33388">
        <ele>219</ele>
        <time>2021-11-06T11:24:09Z</time>
      </trkpt>
      <trkpt lat="46.50462" lon="5.33378">
        <ele>219</ele>
        <time>2021-11-06T11:24:10Z</time>
      </trkpt>
      <trkpt lat="46.50463" lon="5.33367">
        <ele>218.6</ele>
        <time>2021-11-06T11:24:11Z</time>
      </trkpt>
      <trkpt lat="46.50466" lon="5.33314">
        <ele>218.2</ele>
        <time>2021-11-06T11:24:16Z</time>
      </trkpt>
      <trkpt lat="46.50467" lon="5.33254">
        <ele>218.2</ele>
        <time>2021-11-06T11:24:22Z</time>
      </trkpt>
      <trkpt lat="46.50467" lon="5.33209">
        <ele>218.6</ele>
        <time>2021-11-06T11:24:27Z</time>
      </trkpt>
      <trkpt lat="46.50468" lon="5.33169">
        <ele>218.6</ele>
        <time>2021-11-06T11:24:31Z</time>
      </trkpt>
      <trkpt lat="46.50468" lon="5.33117">
        <ele>218.2</ele>
        <time>2021-11-06T11:24:36Z</time>
      </trkpt>
      <trkpt lat="46.50469" lon="5.33066">
        <ele>217.8</ele>
        <time>2021-11-06T11:24:40Z</time>
      </trkpt>
      <trkpt lat="46.5047" lon="5.33039">
        <ele>217</ele>
        <time>2021-11-06T11:24:42Z</time>
      </trkpt>
      <trkpt lat="46.50471" lon="5.33025">
        <ele>216.4</ele>
        <time>2021-11-06T11:24:43Z</time>
      </trkpt>
      <trkpt lat="46.50471" lon="5.32969">
        <ele>215</ele>
        <time>2021-11-06T11:24:47Z</time>
      </trkpt>
      <trkpt lat="46.50471" lon="5.32936">
        <ele>214.2</ele>
        <time>2021-11-06T11:24:49Z</time>
      </trkpt>
      <trkpt lat="46.50472" lon="5.32921">
        <ele>213.4</ele>
        <time>2021-11-06T11:24:50Z</time>
      </trkpt>
      <trkpt lat="46.50473" lon="5.32877">
        <ele>212.4</ele>
        <time>2021-11-06T11:24:53Z</time>
      </trkpt>
      <trkpt lat="46.50474" lon="5.32832">
        <ele>210.8</ele>
        <time>2021-11-06T11:24:56Z</time>
      </trkpt>
      <trkpt lat="46.50475" lon="5.32788">
        <ele>209</ele>
        <time>2021-11-06T11:24:59Z</time>
      </trkpt>
      <trkpt lat="46.50475" lon="5.3276">
        <ele>207.8</ele>
        <time>2021-11-06T11:25:01Z</time>
      </trkpt>
      <trkpt lat="46.50476" lon="5.32706">
        <ele>206.6</ele>
        <time>2021-11-06T11:25:05Z</time>
      </trkpt>
      <trkpt lat="46.50477" lon="5.32654">
        <ele>206</ele>
        <time>2021-11-06T11:25:09Z</time>
      </trkpt>
      <trkpt lat="46.50477" lon="5.32615">
        <ele>205.4</ele>
        <time>2021-11-06T11:25:12Z</time>
      </trkpt>
      <trkpt lat="46.50475" lon="5.32552">
        <ele>204.8</ele>
        <time>2021-11-06T11:25:17Z</time>
      </trkpt>
      <trkpt lat="46.50473" lon="5.32527">
        <ele>204.4</ele>
        <time>2021-11-06T11:25:19Z</time>
      </trkpt>
      <trkpt lat="46.50467" lon="5.32444">
        <ele>203.4</ele>
        <time>2021-11-06T11:25:26Z</time>
      </trkpt>
      <trkpt lat="46.50465" lon="5.32433">
        <ele>203.4</ele>
        <time>2021-11-06T11:25:27Z</time>
      </trkpt>
      <trkpt lat="46.50449" lon="5.32356">
        <ele>202.6</ele>
        <time>2021-11-06T11:25:34Z</time>
      </trkpt>
      <trkpt lat="46.50445" lon="5.32335">
        <ele>202.4</ele>
        <time>2021-11-06T11:25:36Z</time>
      </trkpt>
      <trkpt lat="46.50434" lon="5.32284">
        <ele>201.8</ele>
        <time>2021-11-06T11:25:41Z</time>
      </trkpt>
      <trkpt lat="46.50433" lon="5.32274">
        <ele>201.8</ele>
        <time>2021-11-06T11:25:42Z</time>
      </trkpt>
      <trkpt lat="46.50431" lon="5.32211">
        <ele>201.8</ele>
        <time>2021-11-06T11:25:48Z</time>
      </trkpt>
      <trkpt lat="46.50439" lon="5.32193">
        <ele>201.6</ele>
        <time>2021-11-06T11:25:50Z</time>
      </trkpt>
      <trkpt lat="46.50444" lon="5.32187">
        <ele>201.6</ele>
        <time>2021-11-06T11:25:51Z</time>
      </trkpt>
      <trkpt lat="46.5045" lon="5.32183">
        <ele>201.6</ele>
        <time>2021-11-06T11:25:52Z</time>
      </trkpt>
      <trkpt lat="46.5046" lon="5.3217">
        <ele>201.4</ele>
        <time>2021-11-06T11:25:54Z</time>
      </trkpt>
      <trkpt lat="46.50472" lon="5.32133">
        <ele>201.4</ele>
        <time>2021-11-06T11:25:58Z</time>
      </trkpt>
      <trkpt lat="46.50493" lon="5.32081">
        <ele>201.4</ele>
        <time>2021-11-06T11:26:04Z</time>
      </trkpt>
      <trkpt lat="46.5052" lon="5.32033">
        <ele>201.4</ele>
        <time>2021-11-06T11:26:10Z</time>
      </trkpt>
      <trkpt lat="46.50548" lon="5.31992">
        <ele>201.6</ele>
        <time>2021-11-06T11:26:16Z</time>
      </trkpt>
      <trkpt lat="46.5055" lon="5.31986">
        <ele>201.6</ele>
        <time>2021-11-06T11:26:17Z</time>
      </trkpt>
      <trkpt lat="46.50565" lon="5.31944">
        <ele>202.8</ele>
        <time>2021-11-06T11:26:23Z</time>
      </trkpt>
      <trkpt lat="46.5057" lon="5.31931">
        <ele>203.4</ele>
        <time>2021-11-06T11:26:25Z</time>
      </trkpt>
      <trkpt lat="46.50575" lon="5.31913">
        <ele>204</ele>
        <time>2021-11-06T11:26:28Z</time>
      </trkpt>
      <trkpt lat="46.50578" lon="5.31908">
        <ele>204.2</ele>
        <time>2021-11-06T11:26:29Z</time>
      </trkpt>
      <trkpt lat="46.5058" lon="5.31902">
        <ele>204.6</ele>
        <time>2021-11-06T11:26:30Z</time>
      </trkpt>
      <trkpt lat="46.50581" lon="5.31897">
        <ele>204.8</ele>
        <time>2021-11-06T11:26:31Z</time>
      </trkpt>
      <trkpt lat="46.50587" lon="5.31885">
        <ele>205.6</ele>
        <time>2021-11-06T11:26:33Z</time>
      </trkpt>
      <trkpt lat="46.50591" lon="5.31874">
        <ele>206</ele>
        <time>2021-11-06T11:26:35Z</time>
      </trkpt>
      <trkpt lat="46.50595" lon="5.31865">
        <ele>206.6</ele>
        <time>2021-11-06T11:26:37Z</time>
      </trkpt>
      <trkpt lat="46.50597" lon="5.31859">
        <ele>206.8</ele>
        <time>2021-11-06T11:26:38Z</time>
      </trkpt>
      <trkpt lat="46.50605" lon="5.31837">
        <ele>207.8</ele>
        <time>2021-11-06T11:26:42Z</time>
      </trkpt>
      <trkpt lat="46.50607" lon="5.3183">
        <ele>208.2</ele>
        <time>2021-11-06T11:26:43Z</time>
      </trkpt>
      <trkpt lat="46.50616" lon="5.31804">
        <ele>209</ele>
        <time>2021-11-06T11:26:47Z</time>
      </trkpt>
      <trkpt lat="46.50619" lon="5.31797">
        <ele>209.2</ele>
        <time>2021-11-06T11:26:48Z</time>
      </trkpt>
      <trkpt lat="46.50636" lon="5.31755">
        <ele>210.2</ele>
        <time>2021-11-06T11:26:54Z</time>
      </trkpt>
      <trkpt lat="46.50639" lon="5.31748">
        <ele>210.4</ele>
        <time>2021-11-06T11:26:55Z</time>
      </trkpt>
      <trkpt lat="46.5065" lon="5.3173">
        <ele>210.6</ele>
        <time>2021-11-06T11:26:58Z</time>
      </trkpt>
      <trkpt lat="46.50656" lon="5.31724">
        <ele>210.6</ele>
        <time>2021-11-06T11:26:59Z</time>
      </trkpt>
      <trkpt lat="46.50662" lon="5.31721">
        <ele>210.6</ele>
        <time>2021-11-06T11:27:00Z</time>
      </trkpt>
      <trkpt lat="46.50677" lon="5.31713">
        <ele>210.8</ele>
        <time>2021-11-06T11:27:03Z</time>
      </trkpt>
      <trkpt lat="46.50685" lon="5.31712">
        <ele>210.8</ele>
        <time>2021-11-06T11:27:04Z</time>
      </trkpt>
      <trkpt lat="46.50733" lon="5.31705">
        <ele>211</ele>
        <time>2021-11-06T11:27:12Z</time>
      </trkpt>
      <trkpt lat="46.50766" lon="5.31705">
        <ele>211</ele>
        <time>2021-11-06T11:27:17Z</time>
      </trkpt>
      <trkpt lat="46.50772" lon="5.31707">
        <ele>211</ele>
        <time>2021-11-06T11:27:18Z</time>
      </trkpt>
      <trkpt lat="46.50791" lon="5.31719">
        <ele>211</ele>
        <time>2021-11-06T11:27:21Z</time>
      </trkpt>
      <trkpt lat="46.5083" lon="5.31746">
        <ele>211.2</ele>
        <time>2021-11-06T11:27:28Z</time>
      </trkpt>
      <trkpt lat="46.50836" lon="5.31747">
        <ele>211.2</ele>
        <time>2021-11-06T11:27:29Z</time>
      </trkpt>
      <trkpt lat="46.50841" lon="5.31747">
        <ele>211.4</ele>
        <time>2021-11-06T11:27:30Z</time>
      </trkpt>
      <trkpt lat="46.50847" lon="5.31744">
        <ele>211.4</ele>
        <time>2021-11-06T11:27:31Z</time>
      </trkpt>
      <trkpt lat="46.50851" lon="5.31741">
        <ele>211.4</ele>
        <time>2021-11-06T11:27:32Z</time>
      </trkpt>
      <trkpt lat="46.50879" lon="5.31713">
        <ele>212.4</ele>
        <time>2021-11-06T11:27:38Z</time>
      </trkpt>
      <trkpt lat="46.50918" lon="5.31673">
        <ele>212.8</ele>
        <time>2021-11-06T11:27:45Z</time>
      </trkpt>
      <trkpt lat="46.50963" lon="5.31627">
        <ele>212.2</ele>
        <time>2021-11-06T11:27:52Z</time>
      </trkpt>
      <trkpt lat="46.50987" lon="5.31602">
        <ele>211.4</ele>
        <time>2021-11-06T11:27:56Z</time>
      </trkpt>
      <trkpt lat="46.51009" lon="5.3158">
        <ele>211.4</ele>
        <time>2021-11-06T11:28:00Z</time>
      </trkpt>
      <trkpt lat="46.51024" lon="5.31563">
        <ele>211.6</ele>
        <time>2021-11-06T11:28:03Z</time>
      </trkpt>
      <trkpt lat="46.51033" lon="5.31549">
        <ele>211.8</ele>
        <time>2021-11-06T11:28:05Z</time>
      </trkpt>
      <trkpt lat="46.51039" lon="5.31532">
        <ele>212</ele>
        <time>2021-11-06T11:28:07Z</time>
      </trkpt>
      <trkpt lat="46.51044" lon="5.31512">
        <ele>212</ele>
        <time>2021-11-06T11:28:09Z</time>
      </trkpt>
      <trkpt lat="46.51062" lon="5.31434">
        <ele>210.6</ele>
        <time>2021-11-06T11:28:16Z</time>
      </trkpt>
      <trkpt lat="46.51064" lon="5.31423">
        <ele>210.4</ele>
        <time>2021-11-06T11:28:17Z</time>
      </trkpt>
      <trkpt lat="46.51068" lon="5.31399">
        <ele>209.8</ele>
        <time>2021-11-06T11:28:19Z</time>
      </trkpt>
      <trkpt lat="46.51069" lon="5.31387">
        <ele>209.4</ele>
        <time>2021-11-06T11:28:20Z</time>
      </trkpt>
      <trkpt lat="46.5107" lon="5.31374">
        <ele>209.4</ele>
        <time>2021-11-06T11:28:21Z</time>
      </trkpt>
      <trkpt lat="46.51069" lon="5.31362">
        <ele>209</ele>
        <time>2021-11-06T11:28:22Z</time>
      </trkpt>
      <trkpt lat="46.51069" lon="5.31338">
        <ele>208.2</ele>
        <time>2021-11-06T11:28:24Z</time>
      </trkpt>
      <trkpt lat="46.51071" lon="5.31315">
        <ele>207.6</ele>
        <time>2021-11-06T11:28:26Z</time>
      </trkpt>
      <trkpt lat="46.51076" lon="5.31304">
        <ele>207.2</ele>
        <time>2021-11-06T11:28:27Z</time>
      </trkpt>
      <trkpt lat="46.51082" lon="5.31294">
        <ele>207.2</ele>
        <time>2021-11-06T11:28:28Z</time>
      </trkpt>
      <trkpt lat="46.51104" lon="5.31265">
        <ele>206.4</ele>
        <time>2021-11-06T11:28:31Z</time>
      </trkpt>
      <trkpt lat="46.51111" lon="5.31256">
        <ele>205.8</ele>
        <time>2021-11-06T11:28:32Z</time>
      </trkpt>
      <trkpt lat="46.5114" lon="5.31221">
        <ele>204.4</ele>
        <time>2021-11-06T11:28:36Z</time>
      </trkpt>
      <trkpt lat="46.51153" lon="5.31203">
        <ele>203.8</ele>
        <time>2021-11-06T11:28:38Z</time>
      </trkpt>
      <trkpt lat="46.51167" lon="5.31186">
        <ele>203.2</ele>
        <time>2021-11-06T11:28:40Z</time>
      </trkpt>
      <trkpt lat="46.51187" lon="5.31164">
        <ele>202.4</ele>
        <time>2021-11-06T11:28:43Z</time>
      </trkpt>
      <trkpt lat="46.51206" lon="5.31141">
        <ele>202</ele>
        <time>2021-11-06T11:28:46Z</time>
      </trkpt>
      <trkpt lat="46.51225" lon="5.31118">
        <ele>201.6</ele>
        <time>2021-11-06T11:28:49Z</time>
      </trkpt>
      <trkpt lat="46.51245" lon="5.31096">
        <ele>201</ele>
        <time>2021-11-06T11:28:52Z</time>
      </trkpt>
      <trkpt lat="46.51262" lon="5.31086">
        <ele>200.4</ele>
        <time>2021-11-06T11:28:54Z</time>
      </trkpt>
      <trkpt lat="46.51288" lon="5.31083">
        <ele>199.8</ele>
        <time>2021-11-06T11:28:57Z</time>
      </trkpt>
      <trkpt lat="46.51296" lon="5.31082">
        <ele>199.6</ele>
        <time>2021-11-06T11:28:58Z</time>
      </trkpt>
      <trkpt lat="46.51352" lon="5.31077">
        <ele>199.4</ele>
        <time>2021-11-06T11:29:05Z</time>
      </trkpt>
      <trkpt lat="46.51367" lon="5.31076">
        <ele>199.4</ele>
        <time>2021-11-06T11:29:07Z</time>
      </trkpt>
      <trkpt lat="46.51426" lon="5.31072">
        <ele>199.6</ele>
        <time>2021-11-06T11:29:15Z</time>
      </trkpt>
      <trkpt lat="46.51482" lon="5.31071">
        <ele>199.4</ele>
        <time>2021-11-06T11:29:23Z</time>
      </trkpt>
      <trkpt lat="46.5154" lon="5.31074">
        <ele>199.4</ele>
        <time>2021-11-06T11:29:32Z</time>
      </trkpt>
      <trkpt lat="46.51589" lon="5.31082">
        <ele>199.8</ele>
        <time>2021-11-06T11:29:40Z</time>
      </trkpt>
      <trkpt lat="46.51622" lon="5.31098">
        <ele>199.8</ele>
        <time>2021-11-06T11:29:46Z</time>
      </trkpt>
      <trkpt lat="46.5164" lon="5.31104">
        <ele>200.2</ele>
        <time>2021-11-06T11:29:50Z</time>
      </trkpt>
      <trkpt lat="46.51645" lon="5.31105">
        <ele>200.4</ele>
        <time>2021-11-06T11:29:51Z</time>
      </trkpt>
      <trkpt lat="46.51665" lon="5.31104">
        <ele>201.2</ele>
        <time>2021-11-06T11:29:55Z</time>
      </trkpt>
      <trkpt lat="46.51669" lon="5.31107">
        <ele>201.2</ele>
        <time>2021-11-06T11:29:56Z</time>
      </trkpt>
      <trkpt lat="46.51673" lon="5.31112">
        <ele>201.4</ele>
        <time>2021-11-06T11:29:57Z</time>
      </trkpt>
      <trkpt lat="46.51683" lon="5.31132">
        <ele>201.4</ele>
        <time>2021-11-06T11:30:00Z</time>
      </trkpt>
      <trkpt lat="46.51687" lon="5.31139">
        <ele>201.4</ele>
        <time>2021-11-06T11:30:01Z</time>
      </trkpt>
      <trkpt lat="46.51702" lon="5.31157">
        <ele>201.6</ele>
        <time>2021-11-06T11:30:04Z</time>
      </trkpt>
      <trkpt lat="46.51714" lon="5.31168">
        <ele>201.6</ele>
        <time>2021-11-06T11:30:06Z</time>
      </trkpt>
      <trkpt lat="46.51735" lon="5.31178">
        <ele>201.6</ele>
        <time>2021-11-06T11:30:09Z</time>
      </trkpt>
      <trkpt lat="46.51776" lon="5.31182">
        <ele>200.2</ele>
        <time>2021-11-06T11:30:14Z</time>
      </trkpt>
      <trkpt lat="46.51785" lon="5.31182">
        <ele>200</ele>
        <time>2021-11-06T11:30:15Z</time>
      </trkpt>
      <trkpt lat="46.51821" lon="5.31184">
        <ele>199</ele>
        <time>2021-11-06T11:30:19Z</time>
      </trkpt>
      <trkpt lat="46.5183" lon="5.31187">
        <ele>198.4</ele>
        <time>2021-11-06T11:30:20Z</time>
      </trkpt>
      <trkpt lat="46.51839" lon="5.3119">
        <ele>198.2</ele>
        <time>2021-11-06T11:30:21Z</time>
      </trkpt>
      <trkpt lat="46.51856" lon="5.31201">
        <ele>197</ele>
        <time>2021-11-06T11:30:23Z</time>
      </trkpt>
      <trkpt lat="46.51864" lon="5.31208">
        <ele>196.6</ele>
        <time>2021-11-06T11:30:24Z</time>
      </trkpt>
      <trkpt lat="46.51871" lon="5.31216">
        <ele>196</ele>
        <time>2021-11-06T11:30:25Z</time>
      </trkpt>
      <trkpt lat="46.51895" lon="5.31252">
        <ele>194.8</ele>
        <time>2021-11-06T11:30:29Z</time>
      </trkpt>
      <trkpt lat="46.51934" lon="5.3131">
        <ele>194.4</ele>
        <time>2021-11-06T11:30:36Z</time>
      </trkpt>
      <trkpt lat="46.51969" lon="5.31363">
        <ele>194.8</ele>
        <time>2021-11-06T11:30:43Z</time>
      </trkpt>
      <trkpt lat="46.52009" lon="5.31423">
        <ele>195.2</ele>
        <time>2021-11-06T11:30:52Z</time>
      </trkpt>
      <trkpt lat="46.52035" lon="5.31461">
        <ele>195.8</ele>
        <time>2021-11-06T11:30:58Z</time>
      </trkpt>
      <trkpt lat="46.52046" lon="5.31479">
        <ele>196.2</ele>
        <time>2021-11-06T11:31:01Z</time>
      </trkpt>
      <trkpt lat="46.52066" lon="5.31506">
        <ele>196.8</ele>
        <time>2021-11-06T11:31:06Z</time>
      </trkpt>
      <trkpt lat="46.5208" lon="5.31526">
        <ele>197.4</ele>
        <time>2021-11-06T11:31:10Z</time>
      </trkpt>
      <trkpt lat="46.52094" lon="5.31547">
        <ele>197.8</ele>
        <time>2021-11-06T11:31:14Z</time>
      </trkpt>
      <trkpt lat="46.521" lon="5.31557">
        <ele>198</ele>
        <time>2021-11-06T11:31:16Z</time>
      </trkpt>
      <trkpt lat="46.52119" lon="5.31583">
        <ele>198.8</ele>
        <time>2021-11-06T11:31:21Z</time>
      </trkpt>
      <trkpt lat="46.52123" lon="5.31588">
        <ele>198.8</ele>
        <time>2021-11-06T11:31:22Z</time>
      </trkpt>
      <trkpt lat="46.5213" lon="5.31598">
        <ele>199.2</ele>
        <time>2021-11-06T11:31:24Z</time>
      </trkpt>
      <trkpt lat="46.52141" lon="5.31614">
        <ele>199.8</ele>
        <time>2021-11-06T11:31:27Z</time>
      </trkpt>
      <trkpt lat="46.52145" lon="5.3162">
        <ele>200</ele>
        <time>2021-11-06T11:31:28Z</time>
      </trkpt>
      <trkpt lat="46.52162" lon="5.31647">
        <ele>201</ele>
        <time>2021-11-06T11:31:33Z</time>
      </trkpt>
      <trkpt lat="46.5217" lon="5.31656">
        <ele>201</ele>
        <time>2021-11-06T11:31:35Z</time>
      </trkpt>
      <trkpt lat="46.52184" lon="5.31675">
        <ele>202</ele>
        <time>2021-11-06T11:31:39Z</time>
      </trkpt>
      <trkpt lat="46.52204" lon="5.31704">
        <ele>202.8</ele>
        <time>2021-11-06T11:31:45Z</time>
      </trkpt>
      <trkpt lat="46.52207" lon="5.31709">
        <ele>203</ele>
        <time>2021-11-06T11:31:46Z</time>
      </trkpt>
      <trkpt lat="46.52234" lon="5.3175">
        <ele>204</ele>
        <time>2021-11-06T11:31:54Z</time>
      </trkpt>
      <trkpt lat="46.52252" lon="5.31774">
        <ele>205.2</ele>
        <time>2021-11-06T11:31:59Z</time>
      </trkpt>
      <trkpt lat="46.52265" lon="5.31794">
        <ele>206</ele>
        <time>2021-11-06T11:32:03Z</time>
      </trkpt>
      <trkpt lat="46.52272" lon="5.31804">
        <ele>206.2</ele>
        <time>2021-11-06T11:32:05Z</time>
      </trkpt>
      <trkpt lat="46.523" lon="5.31843">
        <ele>207.2</ele>
        <time>2021-11-06T11:32:13Z</time>
      </trkpt>
      <trkpt lat="46.52307" lon="5.31852">
        <ele>207.6</ele>
        <time>2021-11-06T11:32:15Z</time>
      </trkpt>
      <trkpt lat="46.5232" lon="5.31871">
        <ele>208.2</ele>
        <time>2021-11-06T11:32:19Z</time>
      </trkpt>
      <trkpt lat="46.52333" lon="5.31889">
        <ele>209.2</ele>
        <time>2021-11-06T11:32:23Z</time>
      </trkpt>
      <trkpt lat="46.5234" lon="5.31899">
        <ele>209.4</ele>
        <time>2021-11-06T11:32:25Z</time>
      </trkpt>
      <trkpt lat="46.5235" lon="5.31913">
        <ele>209.6</ele>
        <time>2021-11-06T11:32:28Z</time>
      </trkpt>
      <trkpt lat="46.52358" lon="5.31923">
        <ele>210</ele>
        <time>2021-11-06T11:32:30Z</time>
      </trkpt>
      <trkpt lat="46.52371" lon="5.3194">
        <ele>210.2</ele>
        <time>2021-11-06T11:32:33Z</time>
      </trkpt>
      <trkpt lat="46.52386" lon="5.31961">
        <ele>210.2</ele>
        <time>2021-11-06T11:32:36Z</time>
      </trkpt>
      <trkpt lat="46.52421" lon="5.32013">
        <ele>209</ele>
        <time>2021-11-06T11:32:43Z</time>
      </trkpt>
      <trkpt lat="46.52448" lon="5.32051">
        <ele>207.8</ele>
        <time>2021-11-06T11:32:48Z</time>
      </trkpt>
      <trkpt lat="46.52475" lon="5.3209">
        <ele>206.8</ele>
        <time>2021-11-06T11:32:53Z</time>
      </trkpt>
      <trkpt lat="46.52481" lon="5.32098">
        <ele>206.4</ele>
        <time>2021-11-06T11:32:54Z</time>
      </trkpt>
      <trkpt lat="46.52497" lon="5.32122">
        <ele>205.2</ele>
        <time>2021-11-06T11:32:57Z</time>
      </trkpt>
      <trkpt lat="46.52514" lon="5.32145">
        <ele>204.6</ele>
        <time>2021-11-06T11:33:00Z</time>
      </trkpt>
      <trkpt lat="46.52532" lon="5.32166">
        <ele>204</ele>
        <time>2021-11-06T11:33:03Z</time>
      </trkpt>
      <trkpt lat="46.52551" lon="5.32184">
        <ele>202.8</ele>
        <time>2021-11-06T11:33:06Z</time>
      </trkpt>
      <trkpt lat="46.52557" lon="5.32188">
        <ele>202.6</ele>
        <time>2021-11-06T11:33:07Z</time>
      </trkpt>
      <trkpt lat="46.52563" lon="5.3219">
        <ele>202</ele>
        <time>2021-11-06T11:33:08Z</time>
      </trkpt>
      <trkpt lat="46.52569" lon="5.32188">
        <ele>202</ele>
        <time>2021-11-06T11:33:09Z</time>
      </trkpt>
      <trkpt lat="46.52575" lon="5.32184">
        <ele>201.6</ele>
        <time>2021-11-06T11:33:10Z</time>
      </trkpt>
      <trkpt lat="46.52582" lon="5.32171">
        <ele>200.6</ele>
        <time>2021-11-06T11:33:12Z</time>
      </trkpt>
      <trkpt lat="46.52585" lon="5.32164">
        <ele>200.4</ele>
        <time>2021-11-06T11:33:13Z</time>
      </trkpt>
      <trkpt lat="46.52602" lon="5.32127">
        <ele>200</ele>
        <time>2021-11-06T11:33:19Z</time>
      </trkpt>
      <trkpt lat="46.52619" lon="5.32088">
        <ele>201.4</ele>
        <time>2021-11-06T11:33:26Z</time>
      </trkpt>
      <trkpt lat="46.5262" lon="5.32083">
        <ele>201.6</ele>
        <time>2021-11-06T11:33:27Z</time>
      </trkpt>
      <trkpt lat="46.52624" lon="5.32072">
        <ele>201.8</ele>
        <time>2021-11-06T11:33:29Z</time>
      </trkpt>
      <trkpt lat="46.52633" lon="5.32044">
        <ele>202.4</ele>
        <time>2021-11-06T11:33:34Z</time>
      </trkpt>
      <trkpt lat="46.52635" lon="5.32037">
        <ele>202.8</ele>
        <time>2021-11-06T11:33:35Z</time>
      </trkpt>
      <trkpt lat="46.5264" lon="5.32023">
        <ele>203.4</ele>
        <time>2021-11-06T11:33:38Z</time>
      </trkpt>
      <trkpt lat="46.52644" lon="5.32012">
        <ele>204.2</ele>
        <time>2021-11-06T11:33:40Z</time>
      </trkpt>
      <trkpt lat="46.52647" lon="5.32002">
        <ele>204.6</ele>
        <time>2021-11-06T11:33:42Z</time>
      </trkpt>
      <trkpt lat="46.52654" lon="5.31981">
        <ele>205.2</ele>
        <time>2021-11-06T11:33:46Z</time>
      </trkpt>
      <trkpt lat="46.52656" lon="5.31972">
        <ele>205.8</ele>
        <time>2021-11-06T11:33:48Z</time>
      </trkpt>
      <trkpt lat="46.52659" lon="5.31956">
        <ele>206.4</ele>
        <time>2021-11-06T11:33:51Z</time>
      </trkpt>
      <trkpt lat="46.52663" lon="5.31934">
        <ele>207.4</ele>
        <time>2021-11-06T11:33:55Z</time>
      </trkpt>
      <trkpt lat="46.52666" lon="5.31918">
        <ele>208.6</ele>
        <time>2021-11-06T11:33:58Z</time>
      </trkpt>
      <trkpt lat="46.52669" lon="5.31903">
        <ele>209.2</ele>
        <time>2021-11-06T11:34:01Z</time>
      </trkpt>
      <trkpt lat="46.52672" lon="5.31894">
        <ele>209.8</ele>
        <time>2021-11-06T11:34:03Z</time>
      </trkpt>
      <trkpt lat="46.52678" lon="5.31874">
        <ele>210.8</ele>
        <time>2021-11-06T11:34:07Z</time>
      </trkpt>
      <trkpt lat="46.52691" lon="5.31839">
        <ele>212.2</ele>
        <time>2021-11-06T11:34:14Z</time>
      </trkpt>
      <trkpt lat="46.52702" lon="5.3182">
        <ele>213.6</ele>
        <time>2021-11-06T11:34:18Z</time>
      </trkpt>
      <trkpt lat="46.5271" lon="5.3181">
        <ele>214</ele>
        <time>2021-11-06T11:34:20Z</time>
      </trkpt>
      <trkpt lat="46.5272" lon="5.31801">
        <ele>214.2</ele>
        <time>2021-11-06T11:34:23Z</time>
      </trkpt>
      <trkpt lat="46.52733" lon="5.31792">
        <ele>214.4</ele>
        <time>2021-11-06T11:34:26Z</time>
      </trkpt>
      <trkpt lat="46.52737" lon="5.31791">
        <ele>214.4</ele>
        <time>2021-11-06T11:34:27Z</time>
      </trkpt>
      <trkpt lat="46.52771" lon="5.31776">
        <ele>214.6</ele>
        <time>2021-11-06T11:34:34Z</time>
      </trkpt>
      <trkpt lat="46.52777" lon="5.31773">
        <ele>214.6</ele>
        <time>2021-11-06T11:34:35Z</time>
      </trkpt>
      <trkpt lat="46.52789" lon="5.31767">
        <ele>214.8</ele>
        <time>2021-11-06T11:34:38Z</time>
      </trkpt>
      <trkpt lat="46.52804" lon="5.31761">
        <ele>214.8</ele>
        <time>2021-11-06T11:34:41Z</time>
      </trkpt>
      <trkpt lat="46.52836" lon="5.31747">
        <ele>214.8</ele>
        <time>2021-11-06T11:34:47Z</time>
      </trkpt>
      <trkpt lat="46.52862" lon="5.31736">
        <ele>214.6</ele>
        <time>2021-11-06T11:34:51Z</time>
      </trkpt>
      <trkpt lat="46.5288" lon="5.3173">
        <ele>214.6</ele>
        <time>2021-11-06T11:34:54Z</time>
      </trkpt>
      <trkpt lat="46.52888" lon="5.31729">
        <ele>214.6</ele>
        <time>2021-11-06T11:34:55Z</time>
      </trkpt>
      <trkpt lat="46.52905" lon="5.31732">
        <ele>214.2</ele>
        <time>2021-11-06T11:34:58Z</time>
      </trkpt>
      <trkpt lat="46.52918" lon="5.31741">
        <ele>214.2</ele>
        <time>2021-11-06T11:35:00Z</time>
      </trkpt>
      <trkpt lat="46.52928" lon="5.31749">
        <ele>214</ele>
        <time>2021-11-06T11:35:02Z</time>
      </trkpt>
      <trkpt lat="46.52956" lon="5.31776">
        <ele>214</ele>
        <time>2021-11-06T11:35:07Z</time>
      </trkpt>
      <trkpt lat="46.5296" lon="5.3178">
        <ele>214</ele>
        <time>2021-11-06T11:35:08Z</time>
      </trkpt>
      <trkpt lat="46.52968" lon="5.31783">
        <ele>214</ele>
        <time>2021-11-06T11:35:09Z</time>
      </trkpt>
      <trkpt lat="46.52982" lon="5.31785">
        <ele>213.8</ele>
        <time>2021-11-06T11:35:11Z</time>
      </trkpt>
      <trkpt lat="46.52996" lon="5.3178">
        <ele>213.8</ele>
        <time>2021-11-06T11:35:13Z</time>
      </trkpt>
      <trkpt lat="46.52996" lon="5.3178">
        <ele>213.8</ele>
        <time>2021-11-06T11:35:14Z</time>
      </trkpt>
      <trkpt lat="46.5301" lon="5.31767">
        <ele>213.8</ele>
        <time>2021-11-06T11:35:15Z</time>
      </trkpt>
      <trkpt lat="46.53018" lon="5.31751">
        <ele>213.6</ele>
        <time>2021-11-06T11:35:17Z</time>
      </trkpt>
      <trkpt lat="46.53022" lon="5.31742">
        <ele>213.6</ele>
        <time>2021-11-06T11:35:18Z</time>
      </trkpt>
      <trkpt lat="46.53037" lon="5.31695">
        <ele>213</ele>
        <time>2021-11-06T11:35:23Z</time>
      </trkpt>
      <trkpt lat="46.53045" lon="5.31676">
        <ele>212.6</ele>
        <time>2021-11-06T11:35:25Z</time>
      </trkpt>
      <trkpt lat="46.53055" lon="5.31658">
        <ele>212.2</ele>
        <time>2021-11-06T11:35:27Z</time>
      </trkpt>
      <trkpt lat="46.53061" lon="5.3165">
        <ele>212</ele>
        <time>2021-11-06T11:35:28Z</time>
      </trkpt>
      <trkpt lat="46.53068" lon="5.31645">
        <ele>211.6</ele>
        <time>2021-11-06T11:35:29Z</time>
      </trkpt>
      <trkpt lat="46.53077" lon="5.31641">
        <ele>211.4</ele>
        <time>2021-11-06T11:35:30Z</time>
      </trkpt>
      <trkpt lat="46.53085" lon="5.31638">
        <ele>210.8</ele>
        <time>2021-11-06T11:35:31Z</time>
      </trkpt>
      <trkpt lat="46.53103" lon="5.31631">
        <ele>210</ele>
        <time>2021-11-06T11:35:33Z</time>
      </trkpt>
      <trkpt lat="46.5313" lon="5.31619">
        <ele>208.6</ele>
        <time>2021-11-06T11:35:36Z</time>
      </trkpt>
      <trkpt lat="46.53139" lon="5.31616">
        <ele>208.2</ele>
        <time>2021-11-06T11:35:37Z</time>
      </trkpt>
      <trkpt lat="46.53165" lon="5.31604">
        <ele>207.2</ele>
        <time>2021-11-06T11:35:40Z</time>
      </trkpt>
      <trkpt lat="46.532" lon="5.31591">
        <ele>205.8</ele>
        <time>2021-11-06T11:35:44Z</time>
      </trkpt>
      <trkpt lat="46.53209" lon="5.31587">
        <ele>205</ele>
        <time>2021-11-06T11:35:45Z</time>
      </trkpt>
      <trkpt lat="46.53218" lon="5.31583">
        <ele>204.6</ele>
        <time>2021-11-06T11:35:46Z</time>
      </trkpt>
      <trkpt lat="46.53243" lon="5.31569">
        <ele>203.6</ele>
        <time>2021-11-06T11:35:49Z</time>
      </trkpt>
      <trkpt lat="46.53252" lon="5.31564">
        <ele>203</ele>
        <time>2021-11-06T11:35:50Z</time>
      </trkpt>
      <trkpt lat="46.53269" lon="5.3155">
        <ele>201.8</ele>
        <time>2021-11-06T11:35:52Z</time>
      </trkpt>
      <trkpt lat="46.53285" lon="5.31536">
        <ele>200.6</ele>
        <time>2021-11-06T11:35:54Z</time>
      </trkpt>
      <trkpt lat="46.53293" lon="5.31529">
        <ele>200.2</ele>
        <time>2021-11-06T11:35:55Z</time>
      </trkpt>
      <trkpt lat="46.53302" lon="5.31522">
        <ele>199.6</ele>
        <time>2021-11-06T11:35:56Z</time>
      </trkpt>
      <trkpt lat="46.53323" lon="5.31502">
        <ele>198.4</ele>
        <time>2021-11-06T11:35:59Z</time>
      </trkpt>
      <trkpt lat="46.53344" lon="5.31484">
        <ele>197.6</ele>
        <time>2021-11-06T11:36:02Z</time>
      </trkpt>
      <trkpt lat="46.53351" lon="5.31478">
        <ele>197.2</ele>
        <time>2021-11-06T11:36:03Z</time>
      </trkpt>
      <trkpt lat="46.53378" lon="5.31447">
        <ele>196.6</ele>
        <time>2021-11-06T11:36:08Z</time>
      </trkpt>
      <trkpt lat="46.53395" lon="5.3141">
        <ele>196.6</ele>
        <time>2021-11-06T11:36:13Z</time>
      </trkpt>
      <trkpt lat="46.53415" lon="5.3136">
        <ele>196.4</ele>
        <time>2021-11-06T11:36:19Z</time>
      </trkpt>
      <trkpt lat="46.53423" lon="5.31343">
        <ele>195.8</ele>
        <time>2021-11-06T11:36:21Z</time>
      </trkpt>
      <trkpt lat="46.53432" lon="5.31325">
        <ele>195.2</ele>
        <time>2021-11-06T11:36:23Z</time>
      </trkpt>
      <trkpt lat="46.53456" lon="5.31274">
        <ele>194.6</ele>
        <time>2021-11-06T11:36:29Z</time>
      </trkpt>
      <trkpt lat="46.53478" lon="5.31223">
        <ele>195</ele>
        <time>2021-11-06T11:36:35Z</time>
      </trkpt>
      <trkpt lat="46.53483" lon="5.31207">
        <ele>195</ele>
        <time>2021-11-06T11:36:37Z</time>
      </trkpt>
      <trkpt lat="46.53486" lon="5.31185">
        <ele>195.2</ele>
        <time>2021-11-06T11:36:40Z</time>
      </trkpt>
      <trkpt lat="46.53493" lon="5.31141">
        <ele>196.4</ele>
        <time>2021-11-06T11:36:46Z</time>
      </trkpt>
      <trkpt lat="46.53497" lon="5.31128">
        <ele>196.6</ele>
        <time>2021-11-06T11:36:48Z</time>
      </trkpt>
      <trkpt lat="46.53503" lon="5.31117">
        <ele>197.2</ele>
        <time>2021-11-06T11:36:50Z</time>
      </trkpt>
      <trkpt lat="46.53507" lon="5.31112">
        <ele>197.2</ele>
        <time>2021-11-06T11:36:51Z</time>
      </trkpt>
      <trkpt lat="46.53511" lon="5.31109">
        <ele>197.6</ele>
        <time>2021-11-06T11:36:52Z</time>
      </trkpt>
      <trkpt lat="46.53524" lon="5.31099">
        <ele>198.6</ele>
        <time>2021-11-06T11:36:55Z</time>
      </trkpt>
      <trkpt lat="46.5353" lon="5.31095">
        <ele>199</ele>
        <time>2021-11-06T11:36:56Z</time>
      </trkpt>
      <trkpt lat="46.53544" lon="5.31086">
        <ele>199.8</ele>
        <time>2021-11-06T11:36:59Z</time>
      </trkpt>
      <trkpt lat="46.53571" lon="5.31073">
        <ele>200.6</ele>
        <time>2021-11-06T11:37:04Z</time>
      </trkpt>
      <trkpt lat="46.53615" lon="5.31047">
        <ele>201.2</ele>
        <time>2021-11-06T11:37:12Z</time>
      </trkpt>
      <trkpt lat="46.53649" lon="5.31028">
        <ele>201</ele>
        <time>2021-11-06T11:37:18Z</time>
      </trkpt>
      <trkpt lat="46.53662" lon="5.31025">
        <ele>201</ele>
        <time>2021-11-06T11:37:20Z</time>
      </trkpt>
      <trkpt lat="46.53696" lon="5.31031">
        <ele>200.6</ele>
        <time>2021-11-06T11:37:26Z</time>
      </trkpt>
      <trkpt lat="46.53726" lon="5.31034">
        <ele>200.6</ele>
        <time>2021-11-06T11:37:31Z</time>
      </trkpt>
      <trkpt lat="46.53738" lon="5.31032">
        <ele>200.4</ele>
        <time>2021-11-06T11:37:33Z</time>
      </trkpt>
      <trkpt lat="46.53778" lon="5.3102">
        <ele>200.4</ele>
        <time>2021-11-06T11:37:39Z</time>
      </trkpt>
      <trkpt lat="46.53793" lon="5.31014">
        <ele>200.2</ele>
        <time>2021-11-06T11:37:41Z</time>
      </trkpt>
      <trkpt lat="46.53805" lon="5.30999">
        <ele>200</ele>
        <time>2021-11-06T11:37:43Z</time>
      </trkpt>
      <trkpt lat="46.53809" lon="5.3099">
        <ele>199.8</ele>
        <time>2021-11-06T11:37:44Z</time>
      </trkpt>
      <trkpt lat="46.53822" lon="5.3096">
        <ele>198.6</ele>
        <time>2021-11-06T11:37:47Z</time>
      </trkpt>
      <trkpt lat="46.53845" lon="5.30903">
        <ele>197.4</ele>
        <time>2021-11-06T11:37:53Z</time>
      </trkpt>
      <trkpt lat="46.53856" lon="5.30877">
        <ele>197.4</ele>
        <time>2021-11-06T11:37:56Z</time>
      </trkpt>
      <trkpt lat="46.53872" lon="5.30836">
        <ele>197.6</ele>
        <time>2021-11-06T11:38:01Z</time>
      </trkpt>
      <trkpt lat="46.53881" lon="5.30812">
        <ele>198.6</ele>
        <time>2021-11-06T11:38:05Z</time>
      </trkpt>
      <trkpt lat="46.53885" lon="5.308">
        <ele>199</ele>
        <time>2021-11-06T11:38:07Z</time>
      </trkpt>
      <trkpt lat="46.53891" lon="5.30769">
        <ele>200</ele>
        <time>2021-11-06T11:38:12Z</time>
      </trkpt>
      <trkpt lat="46.53893" lon="5.30755">
        <ele>200.2</ele>
        <time>2021-11-06T11:38:14Z</time>
      </trkpt>
      <trkpt lat="46.53894" lon="5.30731">
        <ele>201</ele>
        <time>2021-11-06T11:38:18Z</time>
      </trkpt>
      <trkpt lat="46.53896" lon="5.30696">
        <ele>202.2</ele>
        <time>2021-11-06T11:38:23Z</time>
      </trkpt>
      <trkpt lat="46.53899" lon="5.30668">
        <ele>203.2</ele>
        <time>2021-11-06T11:38:27Z</time>
      </trkpt>
      <trkpt lat="46.53901" lon="5.30662">
        <ele>203.6</ele>
        <time>2021-11-06T11:38:28Z</time>
      </trkpt>
      <trkpt lat="46.53904" lon="5.30649">
        <ele>203.8</ele>
        <time>2021-11-06T11:38:30Z</time>
      </trkpt>
      <trkpt lat="46.53914" lon="5.30616">
        <ele>204.2</ele>
        <time>2021-11-06T11:38:35Z</time>
      </trkpt>
      <trkpt lat="46.53923" lon="5.30592">
        <ele>205</ele>
        <time>2021-11-06T11:38:39Z</time>
      </trkpt>
      <trkpt lat="46.53929" lon="5.3058">
        <ele>205.2</ele>
        <time>2021-11-06T11:38:41Z</time>
      </trkpt>
      <trkpt lat="46.53945" lon="5.30556">
        <ele>206.4</ele>
        <time>2021-11-06T11:38:46Z</time>
      </trkpt>
      <trkpt lat="46.53961" lon="5.30543">
        <ele>207.4</ele>
        <time>2021-11-06T11:38:51Z</time>
      </trkpt>
      <trkpt lat="46.53982" lon="5.30535">
        <ele>208.4</ele>
        <time>2021-11-06T11:38:57Z</time>
      </trkpt>
      <trkpt lat="46.53987" lon="5.30533">
        <ele>208.6</ele>
        <time>2021-11-06T11:38:58Z</time>
      </trkpt>
      <trkpt lat="46.53998" lon="5.30524">
        <ele>209.6</ele>
        <time>2021-11-06T11:39:01Z</time>
      </trkpt>
      <trkpt lat="46.54002" lon="5.30521">
        <ele>209.8</ele>
        <time>2021-11-06T11:39:02Z</time>
      </trkpt>
      <trkpt lat="46.54013" lon="5.3051">
        <ele>210.4</ele>
        <time>2021-11-06T11:39:05Z</time>
      </trkpt>
      <trkpt lat="46.54021" lon="5.305">
        <ele>210.8</ele>
        <time>2021-11-06T11:39:07Z</time>
      </trkpt>
      <trkpt lat="46.54029" lon="5.30488">
        <ele>211.4</ele>
        <time>2021-11-06T11:39:09Z</time>
      </trkpt>
      <trkpt lat="46.5404" lon="5.30468">
        <ele>211.8</ele>
        <time>2021-11-06T11:39:12Z</time>
      </trkpt>
      <trkpt lat="46.54046" lon="5.30454">
        <ele>211.8</ele>
        <time>2021-11-06T11:39:14Z</time>
      </trkpt>
      <trkpt lat="46.54049" lon="5.30445">
        <ele>212</ele>
        <time>2021-11-06T11:39:15Z</time>
      </trkpt>
      <trkpt lat="46.54055" lon="5.30419">
        <ele>212.2</ele>
        <time>2021-11-06T11:39:18Z</time>
      </trkpt>
      <trkpt lat="46.54074" lon="5.3034">
        <ele>212.4</ele>
        <time>2021-11-06T11:39:28Z</time>
      </trkpt>
      <trkpt lat="46.54093" lon="5.30279">
        <ele>213</ele>
        <time>2021-11-06T11:39:36Z</time>
      </trkpt>
      <trkpt lat="46.54101" lon="5.30256">
        <ele>213.2</ele>
        <time>2021-11-06T11:39:39Z</time>
      </trkpt>
      <trkpt lat="46.54121" lon="5.30197">
        <ele>213.2</ele>
        <time>2021-11-06T11:39:47Z</time>
      </trkpt>
      <trkpt lat="46.54146" lon="5.30121">
        <ele>213.2</ele>
        <time>2021-11-06T11:39:57Z</time>
      </trkpt>
      <trkpt lat="46.54156" lon="5.30108">
        <ele>213</ele>
        <time>2021-11-06T11:39:59Z</time>
      </trkpt>
      <trkpt lat="46.54161" lon="5.30106">
        <ele>213</ele>
        <time>2021-11-06T11:40:00Z</time>
      </trkpt>
      <trkpt lat="46.542" lon="5.30093">
        <ele>212.8</ele>
        <time>2021-11-06T11:40:07Z</time>
      </trkpt>
      <trkpt lat="46.54246" lon="5.30098">
        <ele>212.8</ele>
        <time>2021-11-06T11:40:14Z</time>
      </trkpt>
      <trkpt lat="46.54306" lon="5.30106">
        <ele>212.2</ele>
        <time>2021-11-06T11:40:23Z</time>
      </trkpt>
      <trkpt lat="46.54318" lon="5.30108">
        <ele>212.2</ele>
        <time>2021-11-06T11:40:25Z</time>
      </trkpt>
      <trkpt lat="46.5434" lon="5.30116">
        <ele>211.8</ele>
        <time>2021-11-06T11:40:28Z</time>
      </trkpt>
      <trkpt lat="46.5437" lon="5.30129">
        <ele>210.8</ele>
        <time>2021-11-06T11:40:32Z</time>
      </trkpt>
      <trkpt lat="46.54376" lon="5.30132">
        <ele>210.4</ele>
        <time>2021-11-06T11:40:33Z</time>
      </trkpt>
      <trkpt lat="46.54407" lon="5.30144">
        <ele>209.4</ele>
        <time>2021-11-06T11:40:37Z</time>
      </trkpt>
      <trkpt lat="46.54424" lon="5.30148">
        <ele>208.4</ele>
        <time>2021-11-06T11:40:39Z</time>
      </trkpt>
      <trkpt lat="46.54433" lon="5.30149">
        <ele>208</ele>
        <time>2021-11-06T11:40:40Z</time>
      </trkpt>
      <trkpt lat="46.54466" lon="5.30145">
        <ele>207</ele>
        <time>2021-11-06T11:40:44Z</time>
      </trkpt>
      <trkpt lat="46.54474" lon="5.30143">
        <ele>206.8</ele>
        <time>2021-11-06T11:40:45Z</time>
      </trkpt>
      <trkpt lat="46.54507" lon="5.30129">
        <ele>205.4</ele>
        <time>2021-11-06T11:40:49Z</time>
      </trkpt>
      <trkpt lat="46.54515" lon="5.30124">
        <ele>205</ele>
        <time>2021-11-06T11:40:50Z</time>
      </trkpt>
      <trkpt lat="46.54539" lon="5.3011">
        <ele>203.8</ele>
        <time>2021-11-06T11:40:53Z</time>
      </trkpt>
      <trkpt lat="46.54564" lon="5.30095">
        <ele>202.6</ele>
        <time>2021-11-06T11:40:56Z</time>
      </trkpt>
      <trkpt lat="46.54581" lon="5.30084">
        <ele>201.6</ele>
        <time>2021-11-06T11:40:58Z</time>
      </trkpt>
      <trkpt lat="46.54592" lon="5.30078">
        <ele>201.2</ele>
        <time>2021-11-06T11:40:59Z</time>
      </trkpt>
      <trkpt lat="46.54608" lon="5.30068">
        <ele>200.6</ele>
        <time>2021-11-06T11:41:01Z</time>
      </trkpt>
      <trkpt lat="46.54636" lon="5.30051">
        <ele>199</ele>
        <time>2021-11-06T11:41:04Z</time>
      </trkpt>
      <trkpt lat="46.54664" lon="5.30034">
        <ele>197.2</ele>
        <time>2021-11-06T11:41:07Z</time>
      </trkpt>
      <trkpt lat="46.54673" lon="5.30029">
        <ele>196.8</ele>
        <time>2021-11-06T11:41:08Z</time>
      </trkpt>
      <trkpt lat="46.54683" lon="5.30023">
        <ele>196</ele>
        <time>2021-11-06T11:41:09Z</time>
      </trkpt>
      <trkpt lat="46.54709" lon="5.30005">
        <ele>194.6</ele>
        <time>2021-11-06T11:41:12Z</time>
      </trkpt>
      <trkpt lat="46.54726" lon="5.29993">
        <ele>193.2</ele>
        <time>2021-11-06T11:41:14Z</time>
      </trkpt>
      <trkpt lat="46.54733" lon="5.29986">
        <ele>193</ele>
        <time>2021-11-06T11:41:15Z</time>
      </trkpt>
      <trkpt lat="46.54756" lon="5.29967">
        <ele>192</ele>
        <time>2021-11-06T11:41:18Z</time>
      </trkpt>
      <trkpt lat="46.54784" lon="5.29941">
        <ele>191</ele>
        <time>2021-11-06T11:41:22Z</time>
      </trkpt>
      <trkpt lat="46.54816" lon="5.29903">
        <ele>189.8</ele>
        <time>2021-11-06T11:41:27Z</time>
      </trkpt>
      <trkpt lat="46.54834" lon="5.29879">
        <ele>189.6</ele>
        <time>2021-11-06T11:41:30Z</time>
      </trkpt>
      <trkpt lat="46.54865" lon="5.2984">
        <ele>189.2</ele>
        <time>2021-11-06T11:41:36Z</time>
      </trkpt>
      <trkpt lat="46.54872" lon="5.29832">
        <ele>189.2</ele>
        <time>2021-11-06T11:41:39Z</time>
      </trkpt>
      <trkpt lat="46.54872" lon="5.29832">
        <ele>189</ele>
        <time>2021-11-06T11:41:42Z</time>
      </trkpt>
      <trkpt lat="46.54874" lon="5.29828">
        <ele>190.6</ele>
        <time>2021-11-06T11:42:28Z</time>
      </trkpt>
      <trkpt lat="46.54885" lon="5.29813">
        <ele>189</ele>
        <time>2021-11-06T11:42:34Z</time>
      </trkpt>
      <trkpt lat="46.549" lon="5.29788">
        <ele>189</ele>
        <time>2021-11-06T11:42:38Z</time>
      </trkpt>
      <trkpt lat="46.54925" lon="5.29743">
        <ele>189</ele>
        <time>2021-11-06T11:42:44Z</time>
      </trkpt>
      <trkpt lat="46.5494" lon="5.29711">
        <ele>188.8</ele>
        <time>2021-11-06T11:42:48Z</time>
      </trkpt>
      <trkpt lat="46.54943" lon="5.29703">
        <ele>188.8</ele>
        <time>2021-11-06T11:42:49Z</time>
      </trkpt>
      <trkpt lat="46.54949" lon="5.29685">
        <ele>188.8</ele>
        <time>2021-11-06T11:42:51Z</time>
      </trkpt>
      <trkpt lat="46.5495" lon="5.29677">
        <ele>188.8</ele>
        <time>2021-11-06T11:42:52Z</time>
      </trkpt>
      <trkpt lat="46.54957" lon="5.29635">
        <ele>189</ele>
        <time>2021-11-06T11:42:57Z</time>
      </trkpt>
      <trkpt lat="46.54967" lon="5.296">
        <ele>190</ele>
        <time>2021-11-06T11:43:02Z</time>
      </trkpt>
      <trkpt lat="46.54972" lon="5.29587">
        <ele>190.4</ele>
        <time>2021-11-06T11:43:04Z</time>
      </trkpt>
      <trkpt lat="46.54975" lon="5.29582">
        <ele>190.6</ele>
        <time>2021-11-06T11:43:05Z</time>
      </trkpt>
      <trkpt lat="46.54987" lon="5.29562">
        <ele>191.2</ele>
        <time>2021-11-06T11:43:09Z</time>
      </trkpt>
      <trkpt lat="46.55" lon="5.29541">
        <ele>192.4</ele>
        <time>2021-11-06T11:43:13Z</time>
      </trkpt>
      <trkpt lat="46.5501" lon="5.29527">
        <ele>192.8</ele>
        <time>2021-11-06T11:43:16Z</time>
      </trkpt>
      <trkpt lat="46.55014" lon="5.29523">
        <ele>192.8</ele>
        <time>2021-11-06T11:43:17Z</time>
      </trkpt>
      <trkpt lat="46.55018" lon="5.29519">
        <ele>193</ele>
        <time>2021-11-06T11:43:18Z</time>
      </trkpt>
      <trkpt lat="46.55026" lon="5.29512">
        <ele>193.2</ele>
        <time>2021-11-06T11:43:20Z</time>
      </trkpt>
      <trkpt lat="46.55034" lon="5.29508">
        <ele>193.2</ele>
        <time>2021-11-06T11:43:22Z</time>
      </trkpt>
      <trkpt lat="46.55038" lon="5.29506">
        <ele>193.8</ele>
        <time>2021-11-06T11:43:23Z</time>
      </trkpt>
      <trkpt lat="46.55054" lon="5.29501">
        <ele>194.8</ele>
        <time>2021-11-06T11:43:27Z</time>
      </trkpt>
      <trkpt lat="46.55062" lon="5.29499">
        <ele>195.2</ele>
        <time>2021-11-06T11:43:29Z</time>
      </trkpt>
      <trkpt lat="46.55074" lon="5.29501">
        <ele>196</ele>
        <time>2021-11-06T11:43:32Z</time>
      </trkpt>
      <trkpt lat="46.55084" lon="5.29505">
        <ele>196.8</ele>
        <time>2021-11-06T11:43:35Z</time>
      </trkpt>
      <trkpt lat="46.55088" lon="5.29506">
        <ele>197.2</ele>
        <time>2021-11-06T11:43:36Z</time>
      </trkpt>
      <trkpt lat="46.55106" lon="5.29514">
        <ele>198</ele>
        <time>2021-11-06T11:43:40Z</time>
      </trkpt>
      <trkpt lat="46.55117" lon="5.29518">
        <ele>198.4</ele>
        <time>2021-11-06T11:43:42Z</time>
      </trkpt>
      <trkpt lat="46.55143" lon="5.29529">
        <ele>199.2</ele>
        <time>2021-11-06T11:43:47Z</time>
      </trkpt>
      <trkpt lat="46.55148" lon="5.29531">
        <ele>199.4</ele>
        <time>2021-11-06T11:43:48Z</time>
      </trkpt>
      <trkpt lat="46.5518" lon="5.29541">
        <ele>199.8</ele>
        <time>2021-11-06T11:43:55Z</time>
      </trkpt>
      <trkpt lat="46.55185" lon="5.29541">
        <ele>199.8</ele>
        <time>2021-11-06T11:43:56Z</time>
      </trkpt>
      <trkpt lat="46.55208" lon="5.29535">
        <ele>200.6</ele>
        <time>2021-11-06T11:44:01Z</time>
      </trkpt>
      <trkpt lat="46.55212" lon="5.29532">
        <ele>200.8</ele>
        <time>2021-11-06T11:44:02Z</time>
      </trkpt>
      <trkpt lat="46.55232" lon="5.29521">
        <ele>201.8</ele>
        <time>2021-11-06T11:44:07Z</time>
      </trkpt>
      <trkpt lat="46.55244" lon="5.29513">
        <ele>202.6</ele>
        <time>2021-11-06T11:44:10Z</time>
      </trkpt>
      <trkpt lat="46.55248" lon="5.2951">
        <ele>202.8</ele>
        <time>2021-11-06T11:44:11Z</time>
      </trkpt>
      <trkpt lat="46.55265" lon="5.295">
        <ele>203.8</ele>
        <time>2021-11-06T11:44:15Z</time>
      </trkpt>
      <trkpt lat="46.5527" lon="5.29499">
        <ele>203.8</ele>
        <time>2021-11-06T11:44:16Z</time>
      </trkpt>
      <trkpt lat="46.55275" lon="5.29497">
        <ele>204</ele>
        <time>2021-11-06T11:44:17Z</time>
      </trkpt>
      <trkpt lat="46.55285" lon="5.29499">
        <ele>204</ele>
        <time>2021-11-06T11:44:19Z</time>
      </trkpt>
      <trkpt lat="46.55296" lon="5.29504">
        <ele>204.2</ele>
        <time>2021-11-06T11:44:21Z</time>
      </trkpt>
      <trkpt lat="46.55314" lon="5.2951">
        <ele>204</ele>
        <time>2021-11-06T11:44:24Z</time>
      </trkpt>
      <trkpt lat="46.55328" lon="5.29511">
        <ele>203.6</ele>
        <time>2021-11-06T11:44:26Z</time>
      </trkpt>
      <trkpt lat="46.55373" lon="5.29521">
        <ele>202.8</ele>
        <time>2021-11-06T11:44:33Z</time>
      </trkpt>
      <trkpt lat="46.55379" lon="5.29523">
        <ele>202.8</ele>
        <time>2021-11-06T11:44:34Z</time>
      </trkpt>
      <trkpt lat="46.5542" lon="5.29544">
        <ele>202.6</ele>
        <time>2021-11-06T11:44:41Z</time>
      </trkpt>
      <trkpt lat="46.55461" lon="5.29574">
        <ele>202.6</ele>
        <time>2021-11-06T11:44:49Z</time>
      </trkpt>
      <trkpt lat="46.55511" lon="5.2961">
        <ele>202.6</ele>
        <time>2021-11-06T11:44:59Z</time>
      </trkpt>
      <trkpt lat="46.55544" lon="5.29635">
        <ele>202.4</ele>
        <time>2021-11-06T11:45:06Z</time>
      </trkpt>
      <trkpt lat="46.55588" lon="5.29663">
        <ele>203</ele>
        <time>2021-11-06T11:45:15Z</time>
      </trkpt>
      <trkpt lat="46.55639" lon="5.29688">
        <ele>203.8</ele>
        <time>2021-11-06T11:45:25Z</time>
      </trkpt>
      <trkpt lat="46.55644" lon="5.2969">
        <ele>203.8</ele>
        <time>2021-11-06T11:45:26Z</time>
      </trkpt>
      <trkpt lat="46.55674" lon="5.29696">
        <ele>204.2</ele>
        <time>2021-11-06T11:45:32Z</time>
      </trkpt>
      <trkpt lat="46.55714" lon="5.297">
        <ele>205</ele>
        <time>2021-11-06T11:45:41Z</time>
      </trkpt>
      <trkpt lat="46.55719" lon="5.29701">
        <ele>205</ele>
        <time>2021-11-06T11:45:42Z</time>
      </trkpt>
      <trkpt lat="46.55739" lon="5.2971">
        <ele>206</ele>
        <time>2021-11-06T11:45:47Z</time>
      </trkpt>
      <trkpt lat="46.55753" lon="5.29719">
        <ele>207</ele>
        <time>2021-11-06T11:45:51Z</time>
      </trkpt>
      <trkpt lat="46.55763" lon="5.29729">
        <ele>207.6</ele>
        <time>2021-11-06T11:45:54Z</time>
      </trkpt>
      <trkpt lat="46.5577" lon="5.29736">
        <ele>208.2</ele>
        <time>2021-11-06T11:45:56Z</time>
      </trkpt>
      <trkpt lat="46.55783" lon="5.29754">
        <ele>208.8</ele>
        <time>2021-11-06T11:46:00Z</time>
      </trkpt>
      <trkpt lat="46.5579" lon="5.29764">
        <ele>209.2</ele>
        <time>2021-11-06T11:46:02Z</time>
      </trkpt>
      <trkpt lat="46.55812" lon="5.29794">
        <ele>210</ele>
        <time>2021-11-06T11:46:08Z</time>
      </trkpt>
      <trkpt lat="46.55826" lon="5.29813">
        <ele>210.2</ele>
        <time>2021-11-06T11:46:12Z</time>
      </trkpt>
      <trkpt lat="46.55845" lon="5.29837">
        <ele>210.4</ele>
        <time>2021-11-06T11:46:17Z</time>
      </trkpt>
      <trkpt lat="46.55876" lon="5.2988">
        <ele>210.2</ele>
        <time>2021-11-06T11:46:24Z</time>
      </trkpt>
      <trkpt lat="46.5592" lon="5.29936">
        <ele>209.2</ele>
        <time>2021-11-06T11:46:32Z</time>
      </trkpt>
      <trkpt lat="46.55937" lon="5.29959">
        <ele>208.2</ele>
        <time>2021-11-06T11:46:35Z</time>
      </trkpt>
      <trkpt lat="46.55954" lon="5.29983">
        <ele>207</ele>
        <time>2021-11-06T11:46:38Z</time>
      </trkpt>
      <trkpt lat="46.55965" lon="5.29997">
        <ele>206.4</ele>
        <time>2021-11-06T11:46:40Z</time>
      </trkpt>
      <trkpt lat="46.55993" lon="5.30036">
        <ele>206.4</ele>
        <time>2021-11-06T11:46:46Z</time>
      </trkpt>
      <trkpt lat="46.56021" lon="5.30071">
        <ele>207.6</ele>
        <time>2021-11-06T11:46:53Z</time>
      </trkpt>
      <trkpt lat="46.56031" lon="5.30085">
        <ele>208</ele>
        <time>2021-11-06T11:46:56Z</time>
      </trkpt>
      <trkpt lat="46.56048" lon="5.30109">
        <ele>208.6</ele>
        <time>2021-11-06T11:47:01Z</time>
      </trkpt>
      <trkpt lat="46.56055" lon="5.30118">
        <ele>209.2</ele>
        <time>2021-11-06T11:47:03Z</time>
      </trkpt>
      <trkpt lat="46.56071" lon="5.30143">
        <ele>210</ele>
        <time>2021-11-06T11:47:08Z</time>
      </trkpt>
      <trkpt lat="46.56075" lon="5.30148">
        <ele>210.2</ele>
        <time>2021-11-06T11:47:09Z</time>
      </trkpt>
      <trkpt lat="46.56091" lon="5.30169">
        <ele>211</ele>
        <time>2021-11-06T11:47:13Z</time>
      </trkpt>
      <trkpt lat="46.561" lon="5.3018">
        <ele>211.4</ele>
        <time>2021-11-06T11:47:15Z</time>
      </trkpt>
      <trkpt lat="46.56129" lon="5.30218">
        <ele>211.8</ele>
        <time>2021-11-06T11:47:22Z</time>
      </trkpt>
      <trkpt lat="46.56151" lon="5.30245">
        <ele>211.8</ele>
        <time>2021-11-06T11:47:27Z</time>
      </trkpt>
      <trkpt lat="46.56177" lon="5.30279">
        <ele>212.2</ele>
        <time>2021-11-06T11:47:33Z</time>
      </trkpt>
      <trkpt lat="46.56203" lon="5.30317">
        <ele>212.2</ele>
        <time>2021-11-06T11:47:39Z</time>
      </trkpt>
      <trkpt lat="46.5621" lon="5.3033">
        <ele>212.2</ele>
        <time>2021-11-06T11:47:41Z</time>
      </trkpt>
      <trkpt lat="46.56245" lon="5.30393">
        <ele>212.4</ele>
        <time>2021-11-06T11:47:50Z</time>
      </trkpt>
      <trkpt lat="46.56249" lon="5.30399">
        <ele>212.4</ele>
        <time>2021-11-06T11:47:51Z</time>
      </trkpt>
      <trkpt lat="46.5629" lon="5.30454">
        <ele>212.6</ele>
        <time>2021-11-06T11:48:00Z</time>
      </trkpt>
      <trkpt lat="46.56329" lon="5.30508">
        <ele>212.8</ele>
        <time>2021-11-06T11:48:09Z</time>
      </trkpt>
      <trkpt lat="46.56338" lon="5.3052">
        <ele>212.8</ele>
        <time>2021-11-06T11:48:11Z</time>
      </trkpt>
      <trkpt lat="46.56379" lon="5.30576">
        <ele>212.4</ele>
        <time>2021-11-06T11:48:20Z</time>
      </trkpt>
      <trkpt lat="46.56383" lon="5.30582">
        <ele>212.4</ele>
        <time>2021-11-06T11:48:21Z</time>
      </trkpt>
      <trkpt lat="46.56404" lon="5.30612">
        <ele>211.8</ele>
        <time>2021-11-06T11:48:27Z</time>
      </trkpt>
      <trkpt lat="46.56409" lon="5.30627">
        <ele>211.6</ele>
        <time>2021-11-06T11:48:31Z</time>
      </trkpt>
      <trkpt lat="46.56421" lon="5.30629">
        <ele>211.4</ele>
        <time>2021-11-06T11:48:34Z</time>
      </trkpt>
      <trkpt lat="46.56438" lon="5.3063">
        <ele>211.2</ele>
        <time>2021-11-06T11:48:37Z</time>
      </trkpt>
      <trkpt lat="46.56444" lon="5.30629">
        <ele>211.2</ele>
        <time>2021-11-06T11:48:38Z</time>
      </trkpt>
      <trkpt lat="46.56489" lon="5.30616">
        <ele>211.2</ele>
        <time>2021-11-06T11:48:45Z</time>
      </trkpt>
      <trkpt lat="46.56547" lon="5.30606">
        <ele>211</ele>
        <time>2021-11-06T11:48:54Z</time>
      </trkpt>
      <trkpt lat="46.5656" lon="5.30604">
        <ele>211</ele>
        <time>2021-11-06T11:48:56Z</time>
      </trkpt>
      <trkpt lat="46.56609" lon="5.30606">
        <ele>210.8</ele>
        <time>2021-11-06T11:49:04Z</time>
      </trkpt>
      <trkpt lat="46.56653" lon="5.30618">
        <ele>211.2</ele>
        <time>2021-11-06T11:49:11Z</time>
      </trkpt>
      <trkpt lat="46.56688" lon="5.30643">
        <ele>211.2</ele>
        <time>2021-11-06T11:49:17Z</time>
      </trkpt>
      <trkpt lat="46.56726" lon="5.30687">
        <ele>211</ele>
        <time>2021-11-06T11:49:24Z</time>
      </trkpt>
      <trkpt lat="46.56744" lon="5.30719">
        <ele>210.4</ele>
        <time>2021-11-06T11:49:28Z</time>
      </trkpt>
      <trkpt lat="46.56757" lon="5.30745">
        <ele>209.8</ele>
        <time>2021-11-06T11:49:31Z</time>
      </trkpt>
      <trkpt lat="46.56766" lon="5.30763">
        <ele>209.4</ele>
        <time>2021-11-06T11:49:33Z</time>
      </trkpt>
      <trkpt lat="46.56787" lon="5.30812">
        <ele>208</ele>
        <time>2021-11-06T11:49:38Z</time>
      </trkpt>
      <trkpt lat="46.5679" lon="5.30822">
        <ele>207.8</ele>
        <time>2021-11-06T11:49:39Z</time>
      </trkpt>
      <trkpt lat="46.56802" lon="5.30878">
        <ele>206.8</ele>
        <time>2021-11-06T11:49:44Z</time>
      </trkpt>
      <trkpt lat="46.56803" lon="5.30889">
        <ele>206.8</ele>
        <time>2021-11-06T11:49:45Z</time>
      </trkpt>
      <trkpt lat="46.56809" lon="5.30956">
        <ele>206.2</ele>
        <time>2021-11-06T11:49:51Z</time>
      </trkpt>
      <trkpt lat="46.56805" lon="5.31028">
        <ele>205.8</ele>
        <time>2021-11-06T11:49:58Z</time>
      </trkpt>
      <trkpt lat="46.56805" lon="5.31038">
        <ele>205.8</ele>
        <time>2021-11-06T11:49:59Z</time>
      </trkpt>
      <trkpt lat="46.56806" lon="5.31056">
        <ele>205.8</ele>
        <time>2021-11-06T11:50:01Z</time>
      </trkpt>
      <trkpt lat="46.5681" lon="5.31075">
        <ele>206</ele>
        <time>2021-11-06T11:50:03Z</time>
      </trkpt>
      <trkpt lat="46.56812" lon="5.31084">
        <ele>206</ele>
        <time>2021-11-06T11:50:04Z</time>
      </trkpt>
      <trkpt lat="46.56822" lon="5.31108">
        <ele>206.4</ele>
        <time>2021-11-06T11:50:07Z</time>
      </trkpt>
      <trkpt lat="46.5683" lon="5.31123">
        <ele>206.6</ele>
        <time>2021-11-06T11:50:09Z</time>
      </trkpt>
      <trkpt lat="46.56839" lon="5.31135">
        <ele>206.6</ele>
        <time>2021-11-06T11:50:11Z</time>
      </trkpt>
      <trkpt lat="46.56855" lon="5.3115">
        <ele>206.8</ele>
        <time>2021-11-06T11:50:14Z</time>
      </trkpt>
      <trkpt lat="46.56878" lon="5.3116">
        <ele>206.8</ele>
        <time>2021-11-06T11:50:18Z</time>
      </trkpt>
      <trkpt lat="46.56884" lon="5.31161">
        <ele>207</ele>
        <time>2021-11-06T11:50:19Z</time>
      </trkpt>
      <trkpt lat="46.56917" lon="5.31164">
        <ele>207.8</ele>
        <time>2021-11-06T11:50:25Z</time>
      </trkpt>
      <trkpt lat="46.56948" lon="5.3118">
        <ele>208</ele>
        <time>2021-11-06T11:50:31Z</time>
      </trkpt>
      <trkpt lat="46.56952" lon="5.31184">
        <ele>208.2</ele>
        <time>2021-11-06T11:50:32Z</time>
      </trkpt>
      <trkpt lat="46.56987" lon="5.31217">
        <ele>208.8</ele>
        <time>2021-11-06T11:50:40Z</time>
      </trkpt>
      <trkpt lat="46.57009" lon="5.31236">
        <ele>209.2</ele>
        <time>2021-11-06T11:50:45Z</time>
      </trkpt>
      <trkpt lat="46.57044" lon="5.31268">
        <ele>209.4</ele>
        <time>2021-11-06T11:50:53Z</time>
      </trkpt>
      <trkpt lat="46.57081" lon="5.31295">
        <ele>209.8</ele>
        <time>2021-11-06T11:51:01Z</time>
      </trkpt>
      <trkpt lat="46.57111" lon="5.31301">
        <ele>210</ele>
        <time>2021-11-06T11:51:07Z</time>
      </trkpt>
      <trkpt lat="46.57131" lon="5.31301">
        <ele>210.2</ele>
        <time>2021-11-06T11:51:11Z</time>
      </trkpt>
      <trkpt lat="46.57154" lon="5.31303">
        <ele>211.2</ele>
        <time>2021-11-06T11:51:16Z</time>
      </trkpt>
      <trkpt lat="46.57159" lon="5.31304">
        <ele>211.4</ele>
        <time>2021-11-06T11:51:17Z</time>
      </trkpt>
      <trkpt lat="46.57168" lon="5.31308">
        <ele>211.6</ele>
        <time>2021-11-06T11:51:19Z</time>
      </trkpt>
      <trkpt lat="46.57176" lon="5.31314">
        <ele>212</ele>
        <time>2021-11-06T11:51:21Z</time>
      </trkpt>
      <trkpt lat="46.57188" lon="5.31326">
        <ele>212.6</ele>
        <time>2021-11-06T11:51:24Z</time>
      </trkpt>
      <trkpt lat="46.57202" lon="5.31344">
        <ele>213.4</ele>
        <time>2021-11-06T11:51:28Z</time>
      </trkpt>
      <trkpt lat="46.57209" lon="5.31354">
        <ele>213.8</ele>
        <time>2021-11-06T11:51:30Z</time>
      </trkpt>
      <trkpt lat="46.57219" lon="5.31373">
        <ele>214</ele>
        <time>2021-11-06T11:51:33Z</time>
      </trkpt>
      <trkpt lat="46.57222" lon="5.31379">
        <ele>214.2</ele>
        <time>2021-11-06T11:51:34Z</time>
      </trkpt>
      <trkpt lat="46.57233" lon="5.31421">
        <ele>214.8</ele>
        <time>2021-11-06T11:51:40Z</time>
      </trkpt>
      <trkpt lat="46.57235" lon="5.31428">
        <ele>215</ele>
        <time>2021-11-06T11:51:41Z</time>
      </trkpt>
      <trkpt lat="46.57251" lon="5.31475">
        <ele>215.6</ele>
        <time>2021-11-06T11:51:48Z</time>
      </trkpt>
      <trkpt lat="46.57258" lon="5.31487">
        <ele>216</ele>
        <time>2021-11-06T11:51:50Z</time>
      </trkpt>
      <trkpt lat="46.57278" lon="5.31517">
        <ele>216.2</ele>
        <time>2021-11-06T11:51:55Z</time>
      </trkpt>
      <trkpt lat="46.57317" lon="5.31578">
        <ele>216.4</ele>
        <time>2021-11-06T11:52:05Z</time>
      </trkpt>
      <trkpt lat="46.57321" lon="5.31584">
        <ele>216.4</ele>
        <time>2021-11-06T11:52:06Z</time>
      </trkpt>
      <trkpt lat="46.57346" lon="5.3161">
        <ele>216.6</ele>
        <time>2021-11-06T11:52:11Z</time>
      </trkpt>
      <trkpt lat="46.57352" lon="5.31613">
        <ele>216.6</ele>
        <time>2021-11-06T11:52:12Z</time>
      </trkpt>
      <trkpt lat="46.57364" lon="5.31618">
        <ele>216.6</ele>
        <time>2021-11-06T11:52:14Z</time>
      </trkpt>
      <trkpt lat="46.57382" lon="5.31621">
        <ele>216.4</ele>
        <time>2021-11-06T11:52:17Z</time>
      </trkpt>
      <trkpt lat="46.57427" lon="5.3162">
        <ele>216</ele>
        <time>2021-11-06T11:52:24Z</time>
      </trkpt>
      <trkpt lat="46.57483" lon="5.31616">
        <ele>216</ele>
        <time>2021-11-06T11:52:33Z</time>
      </trkpt>
      <trkpt lat="46.57489" lon="5.31616">
        <ele>216</ele>
        <time>2021-11-06T11:52:34Z</time>
      </trkpt>
      <trkpt lat="46.57545" lon="5.31607">
        <ele>215.8</ele>
        <time>2021-11-06T11:52:43Z</time>
      </trkpt>
      <trkpt lat="46.57564" lon="5.31604">
        <ele>215.6</ele>
        <time>2021-11-06T11:52:46Z</time>
      </trkpt>
      <trkpt lat="46.57619" lon="5.31597">
        <ele>215.8</ele>
        <time>2021-11-06T11:52:55Z</time>
      </trkpt>
      <trkpt lat="46.57626" lon="5.31597">
        <ele>215.8</ele>
        <time>2021-11-06T11:52:56Z</time>
      </trkpt>
      <trkpt lat="46.57682" lon="5.31586">
        <ele>216</ele>
        <time>2021-11-06T11:53:05Z</time>
      </trkpt>
      <trkpt lat="46.57688" lon="5.31585">
        <ele>216</ele>
        <time>2021-11-06T11:53:06Z</time>
      </trkpt>
      <trkpt lat="46.57732" lon="5.31563">
        <ele>215.4</ele>
        <time>2021-11-06T11:53:13Z</time>
      </trkpt>
      <trkpt lat="46.57782" lon="5.31525">
        <ele>215.2</ele>
        <time>2021-11-06T11:53:21Z</time>
      </trkpt>
      <trkpt lat="46.57821" lon="5.31499">
        <ele>215</ele>
        <time>2021-11-06T11:53:27Z</time>
      </trkpt>
      <trkpt lat="46.57828" lon="5.31495">
        <ele>215</ele>
        <time>2021-11-06T11:53:28Z</time>
      </trkpt>
      <trkpt lat="46.57869" lon="5.31481">
        <ele>214</ele>
        <time>2021-11-06T11:53:34Z</time>
      </trkpt>
      <trkpt lat="46.57882" lon="5.31476">
        <ele>213.4</ele>
        <time>2021-11-06T11:53:36Z</time>
      </trkpt>
      <trkpt lat="46.57921" lon="5.31464">
        <ele>212.8</ele>
        <time>2021-11-06T11:53:42Z</time>
      </trkpt>
      <trkpt lat="46.5794" lon="5.31458">
        <ele>212.8</ele>
        <time>2021-11-06T11:53:45Z</time>
      </trkpt>
      <trkpt lat="46.57994" lon="5.31442">
        <ele>212</ele>
        <time>2021-11-06T11:53:54Z</time>
      </trkpt>
      <trkpt lat="46.58001" lon="5.3144">
        <ele>212</ele>
        <time>2021-11-06T11:53:55Z</time>
      </trkpt>
      <trkpt lat="46.58012" lon="5.31436">
        <ele>211.8</ele>
        <time>2021-11-06T11:53:57Z</time>
      </trkpt>
      <trkpt lat="46.58047" lon="5.3143">
        <ele>211.6</ele>
        <time>2021-11-06T11:54:03Z</time>
      </trkpt>
      <trkpt lat="46.58098" lon="5.31434">
        <ele>211.6</ele>
        <time>2021-11-06T11:54:12Z</time>
      </trkpt>
      <trkpt lat="46.58115" lon="5.31435">
        <ele>211.6</ele>
        <time>2021-11-06T11:54:15Z</time>
      </trkpt>
      <trkpt lat="46.58131" lon="5.31431">
        <ele>211.8</ele>
        <time>2021-11-06T11:54:18Z</time>
      </trkpt>
      <trkpt lat="46.58147" lon="5.31423">
        <ele>211.8</ele>
        <time>2021-11-06T11:54:21Z</time>
      </trkpt>
      <trkpt lat="46.58163" lon="5.31411">
        <ele>211.8</ele>
        <time>2021-11-06T11:54:24Z</time>
      </trkpt>
      <trkpt lat="46.58209" lon="5.31374">
        <ele>211.6</ele>
        <time>2021-11-06T11:54:32Z</time>
      </trkpt>
      <trkpt lat="46.58227" lon="5.31359">
        <ele>210.6</ele>
        <time>2021-11-06T11:54:35Z</time>
      </trkpt>
      <trkpt lat="46.58263" lon="5.31331">
        <ele>209.8</ele>
        <time>2021-11-06T11:54:41Z</time>
      </trkpt>
      <trkpt lat="46.58269" lon="5.31326">
        <ele>209.6</ele>
        <time>2021-11-06T11:54:42Z</time>
      </trkpt>
      <trkpt lat="46.58322" lon="5.31284">
        <ele>209</ele>
        <time>2021-11-06T11:54:51Z</time>
      </trkpt>
      <trkpt lat="46.58329" lon="5.3128">
        <ele>208.8</ele>
        <time>2021-11-06T11:54:52Z</time>
      </trkpt>
      <trkpt lat="46.58341" lon="5.31272">
        <ele>208.6</ele>
        <time>2021-11-06T11:54:54Z</time>
      </trkpt>
      <trkpt lat="46.58384" lon="5.31252">
        <ele>208.2</ele>
        <time>2021-11-06T11:55:01Z</time>
      </trkpt>
      <trkpt lat="46.58437" lon="5.31228">
        <ele>208.2</ele>
        <time>2021-11-06T11:55:10Z</time>
      </trkpt>
      <trkpt lat="46.58443" lon="5.31226">
        <ele>208.2</ele>
        <time>2021-11-06T11:55:11Z</time>
      </trkpt>
      <trkpt lat="46.58496" lon="5.31202">
        <ele>208</ele>
        <time>2021-11-06T11:55:20Z</time>
      </trkpt>
      <trkpt lat="46.58514" lon="5.31195">
        <ele>208</ele>
        <time>2021-11-06T11:55:23Z</time>
      </trkpt>
      <trkpt lat="46.58555" lon="5.31169">
        <ele>208</ele>
        <time>2021-11-06T11:55:30Z</time>
      </trkpt>
      <trkpt lat="46.5859" lon="5.31136">
        <ele>207.6</ele>
        <time>2021-11-06T11:55:36Z</time>
      </trkpt>
      <trkpt lat="46.58607" lon="5.31119">
        <ele>207.4</ele>
        <time>2021-11-06T11:55:39Z</time>
      </trkpt>
      <trkpt lat="46.58646" lon="5.31079">
        <ele>206.8</ele>
        <time>2021-11-06T11:55:46Z</time>
      </trkpt>
      <trkpt lat="46.58662" lon="5.31062">
        <ele>206.6</ele>
        <time>2021-11-06T11:55:49Z</time>
      </trkpt>
      <trkpt lat="46.58708" lon="5.31015">
        <ele>206.2</ele>
        <time>2021-11-06T11:55:58Z</time>
      </trkpt>
      <trkpt lat="46.58718" lon="5.31005">
        <ele>206.2</ele>
        <time>2021-11-06T11:56:00Z</time>
      </trkpt>
      <trkpt lat="46.58764" lon="5.30955">
        <ele>207</ele>
        <time>2021-11-06T11:56:10Z</time>
      </trkpt>
      <trkpt lat="46.58789" lon="5.30928">
        <ele>208</ele>
        <time>2021-11-06T11:56:16Z</time>
      </trkpt>
      <trkpt lat="46.58802" lon="5.30916">
        <ele>208.4</ele>
        <time>2021-11-06T11:56:19Z</time>
      </trkpt>
      <trkpt lat="46.58806" lon="5.30912">
        <ele>208.6</ele>
        <time>2021-11-06T11:56:20Z</time>
      </trkpt>
      <trkpt lat="46.58816" lon="5.30907">
        <ele>209</ele>
        <time>2021-11-06T11:56:22Z</time>
      </trkpt>
      <trkpt lat="46.58826" lon="5.30904">
        <ele>209.4</ele>
        <time>2021-11-06T11:56:24Z</time>
      </trkpt>
      <trkpt lat="46.58859" lon="5.30899">
        <ele>210</ele>
        <time>2021-11-06T11:56:30Z</time>
      </trkpt>
      <trkpt lat="46.58864" lon="5.30899">
        <ele>210.2</ele>
        <time>2021-11-06T11:56:31Z</time>
      </trkpt>
      <trkpt lat="46.58919" lon="5.30892">
        <ele>210.8</ele>
        <time>2021-11-06T11:56:41Z</time>
      </trkpt>
      <trkpt lat="46.58931" lon="5.30891">
        <ele>210.6</ele>
        <time>2021-11-06T11:56:43Z</time>
      </trkpt>
      <trkpt lat="46.58989" lon="5.30884">
        <ele>209.8</ele>
        <time>2021-11-06T11:56:52Z</time>
      </trkpt>
      <trkpt lat="46.58996" lon="5.30883">
        <ele>209.6</ele>
        <time>2021-11-06T11:56:53Z</time>
      </trkpt>
      <trkpt lat="46.59018" lon="5.3088">
        <ele>208.8</ele>
        <time>2021-11-06T11:56:56Z</time>
      </trkpt>
      <trkpt lat="46.59048" lon="5.30876">
        <ele>207.8</ele>
        <time>2021-11-06T11:57:00Z</time>
      </trkpt>
      <trkpt lat="46.59056" lon="5.30875">
        <ele>207.6</ele>
        <time>2021-11-06T11:57:01Z</time>
      </trkpt>
      <trkpt lat="46.59079" lon="5.30871">
        <ele>206.6</ele>
        <time>2021-11-06T11:57:04Z</time>
      </trkpt>
      <trkpt lat="46.59104" lon="5.30868">
        <ele>205</ele>
        <time>2021-11-06T11:57:07Z</time>
      </trkpt>
      <trkpt lat="46.59137" lon="5.30864">
        <ele>203.6</ele>
        <time>2021-11-06T11:57:11Z</time>
      </trkpt>
      <trkpt lat="46.59163" lon="5.3086">
        <ele>202.2</ele>
        <time>2021-11-06T11:57:14Z</time>
      </trkpt>
      <trkpt lat="46.59197" lon="5.30856">
        <ele>201</ele>
        <time>2021-11-06T11:57:18Z</time>
      </trkpt>
      <trkpt lat="46.59239" lon="5.30851">
        <ele>199.8</ele>
        <time>2021-11-06T11:57:23Z</time>
      </trkpt>
      <trkpt lat="46.59282" lon="5.30845">
        <ele>198.8</ele>
        <time>2021-11-06T11:57:28Z</time>
      </trkpt>
      <trkpt lat="46.59307" lon="5.30842">
        <ele>197.2</ele>
        <time>2021-11-06T11:57:31Z</time>
      </trkpt>
      <trkpt lat="46.59324" lon="5.3084">
        <ele>196.4</ele>
        <time>2021-11-06T11:57:33Z</time>
      </trkpt>
      <trkpt lat="46.59332" lon="5.30839">
        <ele>196</ele>
        <time>2021-11-06T11:57:34Z</time>
      </trkpt>
      <trkpt lat="46.59366" lon="5.30835">
        <ele>194.6</ele>
        <time>2021-11-06T11:57:38Z</time>
      </trkpt>
      <trkpt lat="46.59399" lon="5.3083">
        <ele>193.6</ele>
        <time>2021-11-06T11:57:42Z</time>
      </trkpt>
      <trkpt lat="46.59415" lon="5.30827">
        <ele>193.2</ele>
        <time>2021-11-06T11:57:44Z</time>
      </trkpt>
      <trkpt lat="46.59439" lon="5.30824">
        <ele>192.6</ele>
        <time>2021-11-06T11:57:47Z</time>
      </trkpt>
      <trkpt lat="46.59477" lon="5.30819">
        <ele>191.6</ele>
        <time>2021-11-06T11:57:52Z</time>
      </trkpt>
      <trkpt lat="46.59534" lon="5.30812">
        <ele>190.6</ele>
        <time>2021-11-06T11:58:00Z</time>
      </trkpt>
      <trkpt lat="46.59587" lon="5.30804">
        <ele>190.4</ele>
        <time>2021-11-06T11:58:08Z</time>
      </trkpt>
      <trkpt lat="46.59644" lon="5.30798">
        <ele>190.4</ele>
        <time>2021-11-06T11:58:17Z</time>
      </trkpt>
      <trkpt lat="46.59683" lon="5.30793">
        <ele>190.4</ele>
        <time>2021-11-06T11:58:24Z</time>
      </trkpt>
      <trkpt lat="46.59711" lon="5.30792">
        <ele>191.2</ele>
        <time>2021-11-06T11:58:30Z</time>
      </trkpt>
      <trkpt lat="46.59719" lon="5.30792">
        <ele>191.6</ele>
        <time>2021-11-06T11:58:32Z</time>
      </trkpt>
      <trkpt lat="46.5974" lon="5.3079">
        <ele>192.8</ele>
        <time>2021-11-06T11:58:37Z</time>
      </trkpt>
      <trkpt lat="46.59759" lon="5.30786">
        <ele>193.8</ele>
        <time>2021-11-06T11:58:42Z</time>
      </trkpt>
      <trkpt lat="46.59768" lon="5.30786">
        <ele>194.2</ele>
        <time>2021-11-06T11:58:44Z</time>
      </trkpt>
      <trkpt lat="46.5978" lon="5.30788">
        <ele>195</ele>
        <time>2021-11-06T11:58:47Z</time>
      </trkpt>
      <trkpt lat="46.59796" lon="5.30794">
        <ele>196</ele>
        <time>2021-11-06T11:58:51Z</time>
      </trkpt>
      <trkpt lat="46.59822" lon="5.30806">
        <ele>196.8</ele>
        <time>2021-11-06T11:58:57Z</time>
      </trkpt>
      <trkpt lat="46.59826" lon="5.30808">
        <ele>197.2</ele>
        <time>2021-11-06T11:58:58Z</time>
      </trkpt>
      <trkpt lat="46.59854" lon="5.30818">
        <ele>198.2</ele>
        <time>2021-11-06T11:59:04Z</time>
      </trkpt>
      <trkpt lat="46.59858" lon="5.3082">
        <ele>198.4</ele>
        <time>2021-11-06T11:59:05Z</time>
      </trkpt>
      <trkpt lat="46.59899" lon="5.3083">
        <ele>199.4</ele>
        <time>2021-11-06T11:59:14Z</time>
      </trkpt>
      <trkpt lat="46.59904" lon="5.30831">
        <ele>199.4</ele>
        <time>2021-11-06T11:59:15Z</time>
      </trkpt>
      <trkpt lat="46.59941" lon="5.30837">
        <ele>200.4</ele>
        <time>2021-11-06T11:59:24Z</time>
      </trkpt>
      <trkpt lat="46.59951" lon="5.30839">
        <ele>200.6</ele>
        <time>2021-11-06T11:59:26Z</time>
      </trkpt>
      <trkpt lat="46.59955" lon="5.30841">
        <ele>200.8</ele>
        <time>2021-11-06T11:59:27Z</time>
      </trkpt>
      <trkpt lat="46.5996" lon="5.30843">
        <ele>200.8</ele>
        <time>2021-11-06T11:59:28Z</time>
      </trkpt>
      <trkpt lat="46.59968" lon="5.30849">
        <ele>201</ele>
        <time>2021-11-06T11:59:30Z</time>
      </trkpt>
      <trkpt lat="46.59975" lon="5.30858">
        <ele>201.2</ele>
        <time>2021-11-06T11:59:32Z</time>
      </trkpt>
      <trkpt lat="46.59983" lon="5.30866">
        <ele>201.4</ele>
        <time>2021-11-06T11:59:34Z</time>
      </trkpt>
      <trkpt lat="46.60005" lon="5.3089">
        <ele>202.6</ele>
        <time>2021-11-06T11:59:40Z</time>
      </trkpt>
      <trkpt lat="46.60008" lon="5.30894">
        <ele>202.6</ele>
        <time>2021-11-06T11:59:41Z</time>
      </trkpt>
      <trkpt lat="46.60031" lon="5.3092">
        <ele>203.6</ele>
        <time>2021-11-06T11:59:47Z</time>
      </trkpt>
      <trkpt lat="46.60038" lon="5.30928">
        <ele>204</ele>
        <time>2021-11-06T11:59:49Z</time>
      </trkpt>
      <trkpt lat="46.6006" lon="5.30954">
        <ele>204.8</ele>
        <time>2021-11-06T11:59:55Z</time>
      </trkpt>
      <trkpt lat="46.60082" lon="5.30979">
        <ele>205.6</ele>
        <time>2021-11-06T12:00:01Z</time>
      </trkpt>
      <trkpt lat="46.60086" lon="5.30983">
        <ele>205.8</ele>
        <time>2021-11-06T12:00:02Z</time>
      </trkpt>
      <trkpt lat="46.60103" lon="5.31004">
        <ele>206.2</ele>
        <time>2021-11-06T12:00:08Z</time>
      </trkpt>
      <trkpt lat="46.60106" lon="5.31008">
        <ele>206.4</ele>
        <time>2021-11-06T12:00:10Z</time>
      </trkpt>
      <trkpt lat="46.60109" lon="5.31013">
        <ele>206.4</ele>
        <time>2021-11-06T12:00:12Z</time>
      </trkpt>
      <trkpt lat="46.60121" lon="5.31013">
        <ele>206.4</ele>
        <time>2021-11-06T12:00:15Z</time>
      </trkpt>
      <trkpt lat="46.60126" lon="5.31014">
        <ele>206.4</ele>
        <time>2021-11-06T12:00:16Z</time>
      </trkpt>
      <trkpt lat="46.60158" lon="5.31023">
        <ele>206.2</ele>
        <time>2021-11-06T12:00:22Z</time>
      </trkpt>
      <trkpt lat="46.60197" lon="5.31034">
        <ele>205.6</ele>
        <time>2021-11-06T12:00:29Z</time>
      </trkpt>
      <trkpt lat="46.60245" lon="5.31052">
        <ele>204.6</ele>
        <time>2021-11-06T12:00:37Z</time>
      </trkpt>
      <trkpt lat="46.60252" lon="5.31056">
        <ele>204.6</ele>
        <time>2021-11-06T12:00:38Z</time>
      </trkpt>
      <trkpt lat="46.60298" lon="5.31082">
        <ele>204</ele>
        <time>2021-11-06T12:00:45Z</time>
      </trkpt>
      <trkpt lat="46.60311" lon="5.31089">
        <ele>203.6</ele>
        <time>2021-11-06T12:00:47Z</time>
      </trkpt>
      <trkpt lat="46.60329" lon="5.31103">
        <ele>203</ele>
        <time>2021-11-06T12:00:50Z</time>
      </trkpt>
      <trkpt lat="46.60335" lon="5.31109">
        <ele>203</ele>
        <time>2021-11-06T12:00:51Z</time>
      </trkpt>
      <trkpt lat="46.60349" lon="5.31129">
        <ele>202.6</ele>
        <time>2021-11-06T12:00:54Z</time>
      </trkpt>
      <trkpt lat="46.60353" lon="5.31136">
        <ele>202.6</ele>
        <time>2021-11-06T12:00:55Z</time>
      </trkpt>
      <trkpt lat="46.60357" lon="5.31144">
        <ele>202.6</ele>
        <time>2021-11-06T12:00:56Z</time>
      </trkpt>
      <trkpt lat="46.60366" lon="5.3117">
        <ele>202.4</ele>
        <time>2021-11-06T12:00:59Z</time>
      </trkpt>
      <trkpt lat="46.6037" lon="5.31189">
        <ele>202.4</ele>
        <time>2021-11-06T12:01:01Z</time>
      </trkpt>
      <trkpt lat="46.60372" lon="5.31198">
        <ele>202.4</ele>
        <time>2021-11-06T12:01:02Z</time>
      </trkpt>
      <trkpt lat="46.60372" lon="5.31218">
        <ele>202.4</ele>
        <time>2021-11-06T12:01:04Z</time>
      </trkpt>
      <trkpt lat="46.60372" lon="5.31227">
        <ele>202.4</ele>
        <time>2021-11-06T12:01:05Z</time>
      </trkpt>
      <trkpt lat="46.60365" lon="5.31298">
        <ele>202.4</ele>
        <time>2021-11-06T12:01:13Z</time>
      </trkpt>
      <trkpt lat="46.6036" lon="5.3135">
        <ele>202.8</ele>
        <time>2021-11-06T12:01:19Z</time>
      </trkpt>
      <trkpt lat="46.6036" lon="5.31359">
        <ele>203.2</ele>
        <time>2021-11-06T12:01:20Z</time>
      </trkpt>
      <trkpt lat="46.60362" lon="5.31377">
        <ele>203.4</ele>
        <time>2021-11-06T12:01:22Z</time>
      </trkpt>
      <trkpt lat="46.60366" lon="5.31395">
        <ele>203.8</ele>
        <time>2021-11-06T12:01:24Z</time>
      </trkpt>
      <trkpt lat="46.6037" lon="5.31403">
        <ele>203.8</ele>
        <time>2021-11-06T12:01:25Z</time>
      </trkpt>
      <trkpt lat="46.60379" lon="5.31418">
        <ele>203.6</ele>
        <time>2021-11-06T12:01:27Z</time>
      </trkpt>
      <trkpt lat="46.60385" lon="5.31424">
        <ele>203.6</ele>
        <time>2021-11-06T12:01:28Z</time>
      </trkpt>
      <trkpt lat="46.6043" lon="5.31472">
        <ele>203</ele>
        <time>2021-11-06T12:01:36Z</time>
      </trkpt>
      <trkpt lat="46.60466" lon="5.31529">
        <ele>203</ele>
        <time>2021-11-06T12:01:44Z</time>
      </trkpt>
      <trkpt lat="46.60496" lon="5.31561">
        <ele>203.2</ele>
        <time>2021-11-06T12:01:50Z</time>
      </trkpt>
      <trkpt lat="46.60544" lon="5.31607">
        <ele>203.6</ele>
        <time>2021-11-06T12:02:00Z</time>
      </trkpt>
      <trkpt lat="46.60585" lon="5.31645">
        <ele>204.8</ele>
        <time>2021-11-06T12:02:09Z</time>
      </trkpt>
      <trkpt lat="46.60619" lon="5.31668">
        <ele>206</ele>
        <time>2021-11-06T12:02:16Z</time>
      </trkpt>
      <trkpt lat="46.60667" lon="5.31687">
        <ele>207</ele>
        <time>2021-11-06T12:02:25Z</time>
      </trkpt>
      <trkpt lat="46.60721" lon="5.31709">
        <ele>206.2</ele>
        <time>2021-11-06T12:02:34Z</time>
      </trkpt>
      <trkpt lat="46.60737" lon="5.31719">
        <ele>205.8</ele>
        <time>2021-11-06T12:02:37Z</time>
      </trkpt>
      <trkpt lat="46.60747" lon="5.31729">
        <ele>205.6</ele>
        <time>2021-11-06T12:02:39Z</time>
      </trkpt>
      <trkpt lat="46.60765" lon="5.31754">
        <ele>205.4</ele>
        <time>2021-11-06T12:02:43Z</time>
      </trkpt>
      <trkpt lat="46.60774" lon="5.31771">
        <ele>205</ele>
        <time>2021-11-06T12:02:45Z</time>
      </trkpt>
      <trkpt lat="46.60783" lon="5.31789">
        <ele>205</ele>
        <time>2021-11-06T12:02:47Z</time>
      </trkpt>
      <trkpt lat="46.60798" lon="5.3183">
        <ele>204.6</ele>
        <time>2021-11-06T12:02:51Z</time>
      </trkpt>
      <trkpt lat="46.60804" lon="5.31851">
        <ele>204</ele>
        <time>2021-11-06T12:02:53Z</time>
      </trkpt>
      <trkpt lat="46.60814" lon="5.3189">
        <ele>203.6</ele>
        <time>2021-11-06T12:02:57Z</time>
      </trkpt>
      <trkpt lat="46.60822" lon="5.31933">
        <ele>203.8</ele>
        <time>2021-11-06T12:03:02Z</time>
      </trkpt>
      <trkpt lat="46.60827" lon="5.31996">
        <ele>204.8</ele>
        <time>2021-11-06T12:03:09Z</time>
      </trkpt>
      <trkpt lat="46.60833" lon="5.32059">
        <ele>204.8</ele>
        <time>2021-11-06T12:03:15Z</time>
      </trkpt>
      <trkpt lat="46.60835" lon="5.3207">
        <ele>204.6</ele>
        <time>2021-11-06T12:03:16Z</time>
      </trkpt>
      <trkpt lat="46.6084" lon="5.32091">
        <ele>204.4</ele>
        <time>2021-11-06T12:03:18Z</time>
      </trkpt>
      <trkpt lat="46.60844" lon="5.321">
        <ele>204.2</ele>
        <time>2021-11-06T12:03:19Z</time>
      </trkpt>
      <trkpt lat="46.60849" lon="5.32108">
        <ele>204.2</ele>
        <time>2021-11-06T12:03:20Z</time>
      </trkpt>
      <trkpt lat="46.60865" lon="5.32129">
        <ele>203.8</ele>
        <time>2021-11-06T12:03:23Z</time>
      </trkpt>
      <trkpt lat="46.6089" lon="5.3216">
        <ele>203.8</ele>
        <time>2021-11-06T12:03:28Z</time>
      </trkpt>
      <trkpt lat="46.60921" lon="5.32194">
        <ele>204.2</ele>
        <time>2021-11-06T12:03:35Z</time>
      </trkpt>
      <trkpt lat="46.60954" lon="5.32221">
        <ele>205</ele>
        <time>2021-11-06T12:03:42Z</time>
      </trkpt>
      <trkpt lat="46.60958" lon="5.32222">
        <ele>205</ele>
        <time>2021-11-06T12:03:43Z</time>
      </trkpt>
      <trkpt lat="46.60989" lon="5.32224">
        <ele>205.6</ele>
        <time>2021-11-06T12:03:48Z</time>
      </trkpt>
      <trkpt lat="46.61021" lon="5.32224">
        <ele>206</ele>
        <time>2021-11-06T12:03:53Z</time>
      </trkpt>
      <trkpt lat="46.61042" lon="5.32224">
        <ele>206</ele>
        <time>2021-11-06T12:03:56Z</time>
      </trkpt>
      <trkpt lat="46.611" lon="5.32225">
        <ele>205</ele>
        <time>2021-11-06T12:04:04Z</time>
      </trkpt>
      <trkpt lat="46.61107" lon="5.32225">
        <ele>204.4</ele>
        <time>2021-11-06T12:04:05Z</time>
      </trkpt>
      <trkpt lat="46.61121" lon="5.32225">
        <ele>203.8</ele>
        <time>2021-11-06T12:04:07Z</time>
      </trkpt>
      <trkpt lat="46.61171" lon="5.3222">
        <ele>202.8</ele>
        <time>2021-11-06T12:04:14Z</time>
      </trkpt>
      <trkpt lat="46.61177" lon="5.32217">
        <ele>202.8</ele>
        <time>2021-11-06T12:04:15Z</time>
      </trkpt>
      <trkpt lat="46.61189" lon="5.3221">
        <ele>202.6</ele>
        <time>2021-11-06T12:04:17Z</time>
      </trkpt>
      <trkpt lat="46.61194" lon="5.32205">
        <ele>202.6</ele>
        <time>2021-11-06T12:04:18Z</time>
      </trkpt>
      <trkpt lat="46.61221" lon="5.32183">
        <ele>202.6</ele>
        <time>2021-11-06T12:04:23Z</time>
      </trkpt>
      <trkpt lat="46.61227" lon="5.3218">
        <ele>202.8</ele>
        <time>2021-11-06T12:04:24Z</time>
      </trkpt>
      <trkpt lat="46.61259" lon="5.32173">
        <ele>202.8</ele>
        <time>2021-11-06T12:04:29Z</time>
      </trkpt>
      <trkpt lat="46.61298" lon="5.32183">
        <ele>202.4</ele>
        <time>2021-11-06T12:04:35Z</time>
      </trkpt>
      <trkpt lat="46.6134" lon="5.32201">
        <ele>201.6</ele>
        <time>2021-11-06T12:04:41Z</time>
      </trkpt>
      <trkpt lat="46.61354" lon="5.32205">
        <ele>201.2</ele>
        <time>2021-11-06T12:04:43Z</time>
      </trkpt>
      <trkpt lat="46.61369" lon="5.32206">
        <ele>200.8</ele>
        <time>2021-11-06T12:04:45Z</time>
      </trkpt>
      <trkpt lat="46.61376" lon="5.32205">
        <ele>200.4</ele>
        <time>2021-11-06T12:04:46Z</time>
      </trkpt>
      <trkpt lat="46.6139" lon="5.32202">
        <ele>200.2</ele>
        <time>2021-11-06T12:04:48Z</time>
      </trkpt>
      <trkpt lat="46.61424" lon="5.32186">
        <ele>199.6</ele>
        <time>2021-11-06T12:04:53Z</time>
      </trkpt>
      <trkpt lat="46.6143" lon="5.32181">
        <ele>199.4</ele>
        <time>2021-11-06T12:04:54Z</time>
      </trkpt>
      <trkpt lat="46.61455" lon="5.32162">
        <ele>198.4</ele>
        <time>2021-11-06T12:04:58Z</time>
      </trkpt>
      <trkpt lat="46.61461" lon="5.32158">
        <ele>198.4</ele>
        <time>2021-11-06T12:04:59Z</time>
      </trkpt>
      <trkpt lat="46.61468" lon="5.32155">
        <ele>198.2</ele>
        <time>2021-11-06T12:05:00Z</time>
      </trkpt>
      <trkpt lat="46.61489" lon="5.32148">
        <ele>197.8</ele>
        <time>2021-11-06T12:05:03Z</time>
      </trkpt>
      <trkpt lat="46.61496" lon="5.32145">
        <ele>197.8</ele>
        <time>2021-11-06T12:05:04Z</time>
      </trkpt>
      <trkpt lat="46.61509" lon="5.32136">
        <ele>197.6</ele>
        <time>2021-11-06T12:05:06Z</time>
      </trkpt>
      <trkpt lat="46.61515" lon="5.3213">
        <ele>197.4</ele>
        <time>2021-11-06T12:05:07Z</time>
      </trkpt>
      <trkpt lat="46.61515" lon="5.3213">
        <ele>197.2</ele>
        <time>2021-11-06T12:05:08Z</time>
      </trkpt>
      <trkpt lat="46.61527" lon="5.32117">
        <ele>197.2</ele>
        <time>2021-11-06T12:05:09Z</time>
      </trkpt>
      <trkpt lat="46.61546" lon="5.32088">
        <ele>196.4</ele>
        <time>2021-11-06T12:05:13Z</time>
      </trkpt>
      <trkpt lat="46.61551" lon="5.32081">
        <ele>196.2</ele>
        <time>2021-11-06T12:05:14Z</time>
      </trkpt>
      <trkpt lat="46.6157" lon="5.32054">
        <ele>195.8</ele>
        <time>2021-11-06T12:05:18Z</time>
      </trkpt>
      <trkpt lat="46.61576" lon="5.32049">
        <ele>195.8</ele>
        <time>2021-11-06T12:05:19Z</time>
      </trkpt>
      <trkpt lat="46.61582" lon="5.32046">
        <ele>195.8</ele>
        <time>2021-11-06T12:05:20Z</time>
      </trkpt>
      <trkpt lat="46.61606" lon="5.32038">
        <ele>195.8</ele>
        <time>2021-11-06T12:05:24Z</time>
      </trkpt>
      <trkpt lat="46.6164" lon="5.32025">
        <ele>196</ele>
        <time>2021-11-06T12:05:30Z</time>
      </trkpt>
      <trkpt lat="46.61667" lon="5.32005">
        <ele>197</ele>
        <time>2021-11-06T12:05:36Z</time>
      </trkpt>
      <trkpt lat="46.61686" lon="5.31986">
        <ele>197.6</ele>
        <time>2021-11-06T12:05:41Z</time>
      </trkpt>
      <trkpt lat="46.61693" lon="5.31976">
        <ele>198.2</ele>
        <time>2021-11-06T12:05:43Z</time>
      </trkpt>
      <trkpt lat="46.61699" lon="5.31966">
        <ele>198.8</ele>
        <time>2021-11-06T12:05:45Z</time>
      </trkpt>
      <trkpt lat="46.61705" lon="5.31955">
        <ele>199</ele>
        <time>2021-11-06T12:05:47Z</time>
      </trkpt>
      <trkpt lat="46.61711" lon="5.31936">
        <ele>199.8</ele>
        <time>2021-11-06T12:05:50Z</time>
      </trkpt>
      <trkpt lat="46.61712" lon="5.3193">
        <ele>200</ele>
        <time>2021-11-06T12:05:51Z</time>
      </trkpt>
      <trkpt lat="46.6172" lon="5.31903">
        <ele>200.8</ele>
        <time>2021-11-06T12:05:55Z</time>
      </trkpt>
      <trkpt lat="46.61726" lon="5.31883">
        <ele>201.6</ele>
        <time>2021-11-06T12:05:58Z</time>
      </trkpt>
      <trkpt lat="46.61737" lon="5.31848">
        <ele>202.6</ele>
        <time>2021-11-06T12:06:03Z</time>
      </trkpt>
      <trkpt lat="46.61742" lon="5.31832">
        <ele>202.8</ele>
        <time>2021-11-06T12:06:05Z</time>
      </trkpt>
      <trkpt lat="46.61765" lon="5.31757">
        <ele>203</ele>
        <time>2021-11-06T12:06:15Z</time>
      </trkpt>
      <trkpt lat="46.61788" lon="5.31679">
        <ele>203</ele>
        <time>2021-11-06T12:06:25Z</time>
      </trkpt>
      <trkpt lat="46.61792" lon="5.31665">
        <ele>203</ele>
        <time>2021-11-06T12:06:27Z</time>
      </trkpt>
      <trkpt lat="46.61815" lon="5.31586">
        <ele>203.4</ele>
        <time>2021-11-06T12:06:37Z</time>
      </trkpt>
      <trkpt lat="46.61819" lon="5.31571">
        <ele>203.4</ele>
        <time>2021-11-06T12:06:39Z</time>
      </trkpt>
      <trkpt lat="46.61829" lon="5.31539">
        <ele>203.6</ele>
        <time>2021-11-06T12:06:43Z</time>
      </trkpt>
      <trkpt lat="46.61847" lon="5.31478">
        <ele>203.4</ele>
        <time>2021-11-06T12:06:51Z</time>
      </trkpt>
      <trkpt lat="46.61858" lon="5.31447">
        <ele>203.4</ele>
        <time>2021-11-06T12:06:55Z</time>
      </trkpt>
      <trkpt lat="46.61866" lon="5.31434">
        <ele>203.6</ele>
        <time>2021-11-06T12:06:57Z</time>
      </trkpt>
      <trkpt lat="46.61876" lon="5.31424">
        <ele>203.6</ele>
        <time>2021-11-06T12:06:59Z</time>
      </trkpt>
      <trkpt lat="46.61888" lon="5.31419">
        <ele>203.6</ele>
        <time>2021-11-06T12:07:01Z</time>
      </trkpt>
      <trkpt lat="46.61905" lon="5.31417">
        <ele>203.4</ele>
        <time>2021-11-06T12:07:04Z</time>
      </trkpt>
      <trkpt lat="46.61917" lon="5.31418">
        <ele>203.6</ele>
        <time>2021-11-06T12:07:06Z</time>
      </trkpt>
      <trkpt lat="46.61971" lon="5.3142">
        <ele>203.6</ele>
        <time>2021-11-06T12:07:15Z</time>
      </trkpt>
      <trkpt lat="46.62026" lon="5.31423">
        <ele>203.8</ele>
        <time>2021-11-06T12:07:24Z</time>
      </trkpt>
      <trkpt lat="46.62038" lon="5.31424">
        <ele>204</ele>
        <time>2021-11-06T12:07:26Z</time>
      </trkpt>
      <trkpt lat="46.62093" lon="5.31426">
        <ele>203.4</ele>
        <time>2021-11-06T12:07:35Z</time>
      </trkpt>
      <trkpt lat="46.62148" lon="5.31429">
        <ele>203.2</ele>
        <time>2021-11-06T12:07:43Z</time>
      </trkpt>
      <trkpt lat="46.62171" lon="5.3143">
        <ele>202.6</ele>
        <time>2021-11-06T12:07:46Z</time>
      </trkpt>
      <trkpt lat="46.62195" lon="5.31429">
        <ele>201.8</ele>
        <time>2021-11-06T12:07:49Z</time>
      </trkpt>
      <trkpt lat="46.62203" lon="5.31428">
        <ele>201.4</ele>
        <time>2021-11-06T12:07:50Z</time>
      </trkpt>
      <trkpt lat="46.62212" lon="5.31426">
        <ele>201.2</ele>
        <time>2021-11-06T12:07:51Z</time>
      </trkpt>
      <trkpt lat="46.62229" lon="5.31419">
        <ele>200.6</ele>
        <time>2021-11-06T12:07:53Z</time>
      </trkpt>
      <trkpt lat="46.62236" lon="5.31414">
        <ele>199.6</ele>
        <time>2021-11-06T12:07:54Z</time>
      </trkpt>
      <trkpt lat="46.62252" lon="5.31402">
        <ele>198.2</ele>
        <time>2021-11-06T12:07:56Z</time>
      </trkpt>
      <trkpt lat="46.62268" lon="5.31388">
        <ele>197.2</ele>
        <time>2021-11-06T12:07:58Z</time>
      </trkpt>
      <trkpt lat="46.62284" lon="5.31373">
        <ele>196</ele>
        <time>2021-11-06T12:08:00Z</time>
      </trkpt>
      <trkpt lat="46.62299" lon="5.3136">
        <ele>194.6</ele>
        <time>2021-11-06T12:08:02Z</time>
      </trkpt>
      <trkpt lat="46.62329" lon="5.31333">
        <ele>193.6</ele>
        <time>2021-11-06T12:08:06Z</time>
      </trkpt>
      <trkpt lat="46.62343" lon="5.31322">
        <ele>192.6</ele>
        <time>2021-11-06T12:08:08Z</time>
      </trkpt>
      <trkpt lat="46.62365" lon="5.31309">
        <ele>192</ele>
        <time>2021-11-06T12:08:11Z</time>
      </trkpt>
      <trkpt lat="46.62379" lon="5.31299">
        <ele>191.6</ele>
        <time>2021-11-06T12:08:13Z</time>
      </trkpt>
      <trkpt lat="46.62385" lon="5.31293">
        <ele>191.4</ele>
        <time>2021-11-06T12:08:14Z</time>
      </trkpt>
      <trkpt lat="46.62391" lon="5.31286">
        <ele>191.2</ele>
        <time>2021-11-06T12:08:15Z</time>
      </trkpt>
      <trkpt lat="46.62398" lon="5.31268">
        <ele>191</ele>
        <time>2021-11-06T12:08:17Z</time>
      </trkpt>
      <trkpt lat="46.624" lon="5.31259">
        <ele>191</ele>
        <time>2021-11-06T12:08:18Z</time>
      </trkpt>
      <trkpt lat="46.62402" lon="5.3124">
        <ele>191</ele>
        <time>2021-11-06T12:08:20Z</time>
      </trkpt>
      <trkpt lat="46.62401" lon="5.3122">
        <ele>190.8</ele>
        <time>2021-11-06T12:08:22Z</time>
      </trkpt>
      <trkpt lat="46.62403" lon="5.31144">
        <ele>191.6</ele>
        <time>2021-11-06T12:08:30Z</time>
      </trkpt>
      <trkpt lat="46.6241" lon="5.31122">
        <ele>191.6</ele>
        <time>2021-11-06T12:08:33Z</time>
      </trkpt>
      <trkpt lat="46.62413" lon="5.31114">
        <ele>191.8</ele>
        <time>2021-11-06T12:08:34Z</time>
      </trkpt>
      <trkpt lat="46.62425" lon="5.31097">
        <ele>192</ele>
        <time>2021-11-06T12:08:37Z</time>
      </trkpt>
      <trkpt lat="46.62434" lon="5.3109">
        <ele>192.2</ele>
        <time>2021-11-06T12:08:39Z</time>
      </trkpt>
      <trkpt lat="46.62439" lon="5.31086">
        <ele>192.4</ele>
        <time>2021-11-06T12:08:40Z</time>
      </trkpt>
      <trkpt lat="46.62458" lon="5.3107">
        <ele>193.6</ele>
        <time>2021-11-06T12:08:45Z</time>
      </trkpt>
      <trkpt lat="46.6247" lon="5.31057">
        <ele>194.6</ele>
        <time>2021-11-06T12:08:49Z</time>
      </trkpt>
      <trkpt lat="46.62473" lon="5.31053">
        <ele>194.8</ele>
        <time>2021-11-06T12:08:50Z</time>
      </trkpt>
      <trkpt lat="46.62479" lon="5.31043">
        <ele>195.4</ele>
        <time>2021-11-06T12:08:52Z</time>
      </trkpt>
      <trkpt lat="46.62481" lon="5.31037">
        <ele>196</ele>
        <time>2021-11-06T12:08:53Z</time>
      </trkpt>
      <trkpt lat="46.62482" lon="5.3103">
        <ele>196</ele>
        <time>2021-11-06T12:08:54Z</time>
      </trkpt>
      <trkpt lat="46.62482" lon="5.31016">
        <ele>196.6</ele>
        <time>2021-11-06T12:08:56Z</time>
      </trkpt>
      <trkpt lat="46.62479" lon="5.31001">
        <ele>196.8</ele>
        <time>2021-11-06T12:08:58Z</time>
      </trkpt>
      <trkpt lat="46.62475" lon="5.30978">
        <ele>197</ele>
        <time>2021-11-06T12:09:01Z</time>
      </trkpt>
      <trkpt lat="46.62468" lon="5.3094">
        <ele>198</ele>
        <time>2021-11-06T12:09:06Z</time>
      </trkpt>
      <trkpt lat="46.62467" lon="5.30933">
        <ele>198</ele>
        <time>2021-11-06T12:09:07Z</time>
      </trkpt>
      <trkpt lat="46.62455" lon="5.30858">
        <ele>198.8</ele>
        <time>2021-11-06T12:09:17Z</time>
      </trkpt>
      <trkpt lat="46.62452" lon="5.30837">
        <ele>199.2</ele>
        <time>2021-11-06T12:09:20Z</time>
      </trkpt>
      <trkpt lat="46.62441" lon="5.30776">
        <ele>199.8</ele>
        <time>2021-11-06T12:09:29Z</time>
      </trkpt>
      <trkpt lat="46.62438" lon="5.3076">
        <ele>200.2</ele>
        <time>2021-11-06T12:09:31Z</time>
      </trkpt>
      <trkpt lat="46.62428" lon="5.30722">
        <ele>200.8</ele>
        <time>2021-11-06T12:09:36Z</time>
      </trkpt>
      <trkpt lat="46.6241" lon="5.30674">
        <ele>200.8</ele>
        <time>2021-11-06T12:09:42Z</time>
      </trkpt>
      <trkpt lat="46.62391" lon="5.30629">
        <ele>199</ele>
        <time>2021-11-06T12:09:47Z</time>
      </trkpt>
      <trkpt lat="46.62388" lon="5.30619">
        <ele>198.4</ele>
        <time>2021-11-06T12:09:48Z</time>
      </trkpt>
      <trkpt lat="46.62384" lon="5.30598">
        <ele>198</ele>
        <time>2021-11-06T12:09:50Z</time>
      </trkpt>
      <trkpt lat="46.62385" lon="5.30576">
        <ele>197.6</ele>
        <time>2021-11-06T12:09:52Z</time>
      </trkpt>
      <trkpt lat="46.62393" lon="5.30544">
        <ele>196.8</ele>
        <time>2021-11-06T12:09:55Z</time>
      </trkpt>
      <trkpt lat="46.62404" lon="5.30502">
        <ele>196.2</ele>
        <time>2021-11-06T12:09:59Z</time>
      </trkpt>
      <trkpt lat="46.62409" lon="5.30481">
        <ele>195.6</ele>
        <time>2021-11-06T12:10:01Z</time>
      </trkpt>
      <trkpt lat="46.62419" lon="5.30449">
        <ele>194.8</ele>
        <time>2021-11-06T12:10:04Z</time>
      </trkpt>
      <trkpt lat="46.62423" lon="5.30439">
        <ele>194.8</ele>
        <time>2021-11-06T12:10:05Z</time>
      </trkpt>
      <trkpt lat="46.6243" lon="5.30432">
        <ele>194.4</ele>
        <time>2021-11-06T12:10:06Z</time>
      </trkpt>
      <trkpt lat="46.62443" lon="5.30424">
        <ele>194.2</ele>
        <time>2021-11-06T12:10:08Z</time>
      </trkpt>
      <trkpt lat="46.62464" lon="5.30411">
        <ele>194.2</ele>
        <time>2021-11-06T12:10:12Z</time>
      </trkpt>
      <trkpt lat="46.62491" lon="5.30393">
        <ele>195.6</ele>
        <time>2021-11-06T12:10:18Z</time>
      </trkpt>
      <trkpt lat="46.62499" lon="5.30387">
        <ele>196.2</ele>
        <time>2021-11-06T12:10:20Z</time>
      </trkpt>
      <trkpt lat="46.62506" lon="5.30379">
        <ele>196.8</ele>
        <time>2021-11-06T12:10:22Z</time>
      </trkpt>
      <trkpt lat="46.62518" lon="5.30361">
        <ele>198</ele>
        <time>2021-11-06T12:10:26Z</time>
      </trkpt>
      <trkpt lat="46.62528" lon="5.30346">
        <ele>199</ele>
        <time>2021-11-06T12:10:29Z</time>
      </trkpt>
      <trkpt lat="46.62541" lon="5.30326">
        <ele>200.2</ele>
        <time>2021-11-06T12:10:33Z</time>
      </trkpt>
      <trkpt lat="46.62545" lon="5.30321">
        <ele>200.2</ele>
        <time>2021-11-06T12:10:34Z</time>
      </trkpt>
      <trkpt lat="46.62573" lon="5.30281">
        <ele>200.8</ele>
        <time>2021-11-06T12:10:40Z</time>
      </trkpt>
      <trkpt lat="46.62608" lon="5.30232">
        <ele>199.4</ele>
        <time>2021-11-06T12:10:46Z</time>
      </trkpt>
      <trkpt lat="46.62614" lon="5.30224">
        <ele>198.8</ele>
        <time>2021-11-06T12:10:47Z</time>
      </trkpt>
      <trkpt lat="46.6264" lon="5.30192">
        <ele>197.4</ele>
        <time>2021-11-06T12:10:51Z</time>
      </trkpt>
      <trkpt lat="46.62659" lon="5.30169">
        <ele>196.4</ele>
        <time>2021-11-06T12:10:54Z</time>
      </trkpt>
      <trkpt lat="46.62698" lon="5.30121">
        <ele>196</ele>
        <time>2021-11-06T12:11:01Z</time>
      </trkpt>
      <trkpt lat="46.62725" lon="5.30076">
        <ele>197</ele>
        <time>2021-11-06T12:11:08Z</time>
      </trkpt>
      <trkpt lat="46.62732" lon="5.30064">
        <ele>197.6</ele>
        <time>2021-11-06T12:11:10Z</time>
      </trkpt>
      <trkpt lat="46.62748" lon="5.3004">
        <ele>198.2</ele>
        <time>2021-11-06T12:11:14Z</time>
      </trkpt>
      <trkpt lat="46.62761" lon="5.30019">
        <ele>198.6</ele>
        <time>2021-11-06T12:11:17Z</time>
      </trkpt>
      <trkpt lat="46.62771" lon="5.30002">
        <ele>199</ele>
        <time>2021-11-06T12:11:19Z</time>
      </trkpt>
      <trkpt lat="46.6281" lon="5.29942">
        <ele>197.4</ele>
        <time>2021-11-06T12:11:26Z</time>
      </trkpt>
      <trkpt lat="46.62831" lon="5.29908">
        <ele>196.2</ele>
        <time>2021-11-06T12:11:30Z</time>
      </trkpt>
      <trkpt lat="46.62848" lon="5.29875">
        <ele>195.8</ele>
        <time>2021-11-06T12:11:34Z</time>
      </trkpt>
      <trkpt lat="46.62853" lon="5.29857">
        <ele>195.2</ele>
        <time>2021-11-06T12:11:36Z</time>
      </trkpt>
      <trkpt lat="46.62856" lon="5.29849">
        <ele>195</ele>
        <time>2021-11-06T12:11:37Z</time>
      </trkpt>
      <trkpt lat="46.62863" lon="5.29836">
        <ele>194.8</ele>
        <time>2021-11-06T12:11:39Z</time>
      </trkpt>
      <trkpt lat="46.62874" lon="5.29833">
        <ele>194.6</ele>
        <time>2021-11-06T12:11:41Z</time>
      </trkpt>
      <trkpt lat="46.6288" lon="5.29835">
        <ele>194.6</ele>
        <time>2021-11-06T12:11:42Z</time>
      </trkpt>
      <trkpt lat="46.62903" lon="5.29852">
        <ele>194.8</ele>
        <time>2021-11-06T12:11:46Z</time>
      </trkpt>
      <trkpt lat="46.62919" lon="5.29865">
        <ele>195.2</ele>
        <time>2021-11-06T12:11:49Z</time>
      </trkpt>
      <trkpt lat="46.62957" lon="5.2989">
        <ele>196.4</ele>
        <time>2021-11-06T12:11:56Z</time>
      </trkpt>
      <trkpt lat="46.62962" lon="5.29893">
        <ele>196.6</ele>
        <time>2021-11-06T12:11:57Z</time>
      </trkpt>
      <trkpt lat="46.62977" lon="5.29904">
        <ele>197.4</ele>
        <time>2021-11-06T12:12:00Z</time>
      </trkpt>
      <trkpt lat="46.62996" lon="5.29919">
        <ele>198.4</ele>
        <time>2021-11-06T12:12:04Z</time>
      </trkpt>
      <trkpt lat="46.63005" lon="5.29926">
        <ele>198.8</ele>
        <time>2021-11-06T12:12:06Z</time>
      </trkpt>
      <trkpt lat="46.63038" lon="5.29952">
        <ele>199.6</ele>
        <time>2021-11-06T12:12:13Z</time>
      </trkpt>
      <trkpt lat="46.63043" lon="5.29955">
        <ele>199.6</ele>
        <time>2021-11-06T12:12:14Z</time>
      </trkpt>
      <trkpt lat="46.63086" lon="5.29984">
        <ele>200.6</ele>
        <time>2021-11-06T12:12:23Z</time>
      </trkpt>
      <trkpt lat="46.63091" lon="5.29987">
        <ele>200.6</ele>
        <time>2021-11-06T12:12:24Z</time>
      </trkpt>
      <trkpt lat="46.63121" lon="5.29992">
        <ele>201.8</ele>
        <time>2021-11-06T12:12:30Z</time>
      </trkpt>
      <trkpt lat="46.63132" lon="5.29992">
        <ele>202</ele>
        <time>2021-11-06T12:12:32Z</time>
      </trkpt>
      <trkpt lat="46.63153" lon="5.29991">
        <ele>202.6</ele>
        <time>2021-11-06T12:12:36Z</time>
      </trkpt>
      <trkpt lat="46.63158" lon="5.2999">
        <ele>202.8</ele>
        <time>2021-11-06T12:12:37Z</time>
      </trkpt>
      <trkpt lat="46.63213" lon="5.29982">
        <ele>203.6</ele>
        <time>2021-11-06T12:12:47Z</time>
      </trkpt>
      <trkpt lat="46.63218" lon="5.29981">
        <ele>203.8</ele>
        <time>2021-11-06T12:12:48Z</time>
      </trkpt>
      <trkpt lat="46.63224" lon="5.29981">
        <ele>203.8</ele>
        <time>2021-11-06T12:12:49Z</time>
      </trkpt>
      <trkpt lat="46.63273" lon="5.29978">
        <ele>204.2</ele>
        <time>2021-11-06T12:12:58Z</time>
      </trkpt>
      <trkpt lat="46.63327" lon="5.29977">
        <ele>204.4</ele>
        <time>2021-11-06T12:13:07Z</time>
      </trkpt>
      <trkpt lat="46.63378" lon="5.29979">
        <ele>204.4</ele>
        <time>2021-11-06T12:13:15Z</time>
      </trkpt>
      <trkpt lat="46.63421" lon="5.29996">
        <ele>204</ele>
        <time>2021-11-06T12:13:22Z</time>
      </trkpt>
      <trkpt lat="46.63467" lon="5.30015">
        <ele>203.6</ele>
        <time>2021-11-06T12:13:29Z</time>
      </trkpt>
      <trkpt lat="46.63474" lon="5.30016">
        <ele>203.6</ele>
        <time>2021-11-06T12:13:30Z</time>
      </trkpt>
      <trkpt lat="46.63481" lon="5.30016">
        <ele>203.2</ele>
        <time>2021-11-06T12:13:31Z</time>
      </trkpt>
      <trkpt lat="46.63502" lon="5.30009">
        <ele>203</ele>
        <time>2021-11-06T12:13:34Z</time>
      </trkpt>
      <trkpt lat="46.63516" lon="5.30001">
        <ele>202.6</ele>
        <time>2021-11-06T12:13:36Z</time>
      </trkpt>
      <trkpt lat="46.63552" lon="5.29983">
        <ele>201.6</ele>
        <time>2021-11-06T12:13:41Z</time>
      </trkpt>
      <trkpt lat="46.63559" lon="5.29979">
        <ele>201.4</ele>
        <time>2021-11-06T12:13:42Z</time>
      </trkpt>
      <trkpt lat="46.63609" lon="5.29955">
        <ele>200.2</ele>
        <time>2021-11-06T12:13:49Z</time>
      </trkpt>
      <trkpt lat="46.63629" lon="5.29945">
        <ele>200</ele>
        <time>2021-11-06T12:13:52Z</time>
      </trkpt>
      <trkpt lat="46.63673" lon="5.29922">
        <ele>199</ele>
        <time>2021-11-06T12:13:58Z</time>
      </trkpt>
      <trkpt lat="46.63699" lon="5.29908">
        <ele>197.8</ele>
        <time>2021-11-06T12:14:01Z</time>
      </trkpt>
      <trkpt lat="46.63738" lon="5.29882">
        <ele>196.8</ele>
        <time>2021-11-06T12:14:06Z</time>
      </trkpt>
      <trkpt lat="46.63748" lon="5.29874">
        <ele>196.4</ele>
        <time>2021-11-06T12:14:07Z</time>
      </trkpt>
      <trkpt lat="46.63754" lon="5.29868">
        <ele>195.6</ele>
        <time>2021-11-06T12:14:08Z</time>
      </trkpt>
      <trkpt lat="46.6377" lon="5.29853">
        <ele>194.4</ele>
        <time>2021-11-06T12:14:10Z</time>
      </trkpt>
      <trkpt lat="46.638" lon="5.29824">
        <ele>193</ele>
        <time>2021-11-06T12:14:14Z</time>
      </trkpt>
      <trkpt lat="46.63831" lon="5.29794">
        <ele>192</ele>
        <time>2021-11-06T12:14:18Z</time>
      </trkpt>
      <trkpt lat="46.63837" lon="5.29789">
        <ele>191.6</ele>
        <time>2021-11-06T12:14:19Z</time>
      </trkpt>
      <trkpt lat="46.63856" lon="5.2978">
        <ele>191.2</ele>
        <time>2021-11-06T12:14:21Z</time>
      </trkpt>
      <trkpt lat="46.63873" lon="5.29776">
        <ele>190.8</ele>
        <time>2021-11-06T12:14:23Z</time>
      </trkpt>
      <trkpt lat="46.63888" lon="5.29776">
        <ele>190.4</ele>
        <time>2021-11-06T12:14:25Z</time>
      </trkpt>
      <trkpt lat="46.63905" lon="5.2978">
        <ele>190</ele>
        <time>2021-11-06T12:14:27Z</time>
      </trkpt>
      <trkpt lat="46.6392" lon="5.29788">
        <ele>189.6</ele>
        <time>2021-11-06T12:14:29Z</time>
      </trkpt>
      <trkpt lat="46.63936" lon="5.298">
        <ele>189.4</ele>
        <time>2021-11-06T12:14:31Z</time>
      </trkpt>
      <trkpt lat="46.63967" lon="5.29824">
        <ele>189.4</ele>
        <time>2021-11-06T12:14:36Z</time>
      </trkpt>
      <trkpt lat="46.63996" lon="5.29844">
        <ele>190</ele>
        <time>2021-11-06T12:14:41Z</time>
      </trkpt>
      <trkpt lat="46.64003" lon="5.29846">
        <ele>190</ele>
        <time>2021-11-06T12:14:42Z</time>
      </trkpt>
      <trkpt lat="46.6402" lon="5.29847">
        <ele>190.2</ele>
        <time>2021-11-06T12:14:45Z</time>
      </trkpt>
      <trkpt lat="46.64031" lon="5.29843">
        <ele>190.6</ele>
        <time>2021-11-06T12:14:47Z</time>
      </trkpt>
      <trkpt lat="46.64035" lon="5.29841">
        <ele>190.8</ele>
        <time>2021-11-06T12:14:48Z</time>
      </trkpt>
      <trkpt lat="46.64044" lon="5.29836">
        <ele>191.2</ele>
        <time>2021-11-06T12:14:50Z</time>
      </trkpt>
      <trkpt lat="46.64057" lon="5.29828">
        <ele>192</ele>
        <time>2021-11-06T12:14:53Z</time>
      </trkpt>
      <trkpt lat="46.6407" lon="5.29819">
        <ele>192.6</ele>
        <time>2021-11-06T12:14:56Z</time>
      </trkpt>
      <trkpt lat="46.64079" lon="5.29813">
        <ele>193.2</ele>
        <time>2021-11-06T12:14:58Z</time>
      </trkpt>
      <trkpt lat="46.64096" lon="5.29801">
        <ele>194.4</ele>
        <time>2021-11-06T12:15:02Z</time>
      </trkpt>
      <trkpt lat="46.64113" lon="5.29788">
        <ele>195.4</ele>
        <time>2021-11-06T12:15:06Z</time>
      </trkpt>
      <trkpt lat="46.64117" lon="5.29786">
        <ele>195.8</ele>
        <time>2021-11-06T12:15:07Z</time>
      </trkpt>
      <trkpt lat="46.64129" lon="5.29779">
        <ele>196.6</ele>
        <time>2021-11-06T12:15:10Z</time>
      </trkpt>
      <trkpt lat="46.64138" lon="5.29772">
        <ele>197.2</ele>
        <time>2021-11-06T12:15:12Z</time>
      </trkpt>
      <trkpt lat="46.64146" lon="5.29767">
        <ele>197.8</ele>
        <time>2021-11-06T12:15:14Z</time>
      </trkpt>
      <trkpt lat="46.64171" lon="5.2975">
        <ele>198.8</ele>
        <time>2021-11-06T12:15:20Z</time>
      </trkpt>
      <trkpt lat="46.64175" lon="5.29747">
        <ele>199.4</ele>
        <time>2021-11-06T12:15:21Z</time>
      </trkpt>
      <trkpt lat="46.64183" lon="5.29741">
        <ele>199.8</ele>
        <time>2021-11-06T12:15:23Z</time>
      </trkpt>
      <trkpt lat="46.64209" lon="5.29726">
        <ele>200.8</ele>
        <time>2021-11-06T12:15:29Z</time>
      </trkpt>
      <trkpt lat="46.64225" lon="5.2972">
        <ele>201.8</ele>
        <time>2021-11-06T12:15:32Z</time>
      </trkpt>
      <trkpt lat="46.64229" lon="5.29719">
        <ele>202</ele>
        <time>2021-11-06T12:15:33Z</time>
      </trkpt>
      <trkpt lat="46.64233" lon="5.29718">
        <ele>202</ele>
        <time>2021-11-06T12:15:34Z</time>
      </trkpt>
      <trkpt lat="46.64269" lon="5.29718">
        <ele>202.4</ele>
        <time>2021-11-06T12:15:41Z</time>
      </trkpt>
      <trkpt lat="46.64312" lon="5.29716">
        <ele>202.6</ele>
        <time>2021-11-06T12:15:50Z</time>
      </trkpt>
      <trkpt lat="46.64323" lon="5.29727">
        <ele>202.6</ele>
        <time>2021-11-06T12:15:54Z</time>
      </trkpt>
      <trkpt lat="46.64327" lon="5.29732">
        <ele>202.6</ele>
        <time>2021-11-06T12:15:55Z</time>
      </trkpt>
      <trkpt lat="46.64336" lon="5.29731">
        <ele>202.6</ele>
        <time>2021-11-06T12:15:57Z</time>
      </trkpt>
      <trkpt lat="46.64349" lon="5.29721">
        <ele>202.6</ele>
        <time>2021-11-06T12:16:00Z</time>
      </trkpt>
      <trkpt lat="46.64362" lon="5.29706">
        <ele>202.4</ele>
        <time>2021-11-06T12:16:03Z</time>
      </trkpt>
      <trkpt lat="46.64385" lon="5.29675">
        <ele>202</ele>
        <time>2021-11-06T12:16:08Z</time>
      </trkpt>
      <trkpt lat="46.64414" lon="5.29646">
        <ele>201.2</ele>
        <time>2021-11-06T12:16:13Z</time>
      </trkpt>
      <trkpt lat="46.6442" lon="5.2963">
        <ele>200.8</ele>
        <time>2021-11-06T12:16:15Z</time>
      </trkpt>
      <trkpt lat="46.64419" lon="5.29622">
        <ele>200.6</ele>
        <time>2021-11-06T12:16:16Z</time>
      </trkpt>
      <trkpt lat="46.64416" lon="5.29614">
        <ele>200.4</ele>
        <time>2021-11-06T12:16:17Z</time>
      </trkpt>
      <trkpt lat="46.64407" lon="5.29574">
        <ele>200.6</ele>
        <time>2021-11-06T12:16:22Z</time>
      </trkpt>
      <trkpt lat="46.64397" lon="5.29536">
        <ele>202</ele>
        <time>2021-11-06T12:16:27Z</time>
      </trkpt>
      <trkpt lat="46.64392" lon="5.29524">
        <ele>202.4</ele>
        <time>2021-11-06T12:16:29Z</time>
      </trkpt>
      <trkpt lat="46.64377" lon="5.29501">
        <ele>203.2</ele>
        <time>2021-11-06T12:16:33Z</time>
      </trkpt>
      <trkpt lat="46.64374" lon="5.29495">
        <ele>203.4</ele>
        <time>2021-11-06T12:16:34Z</time>
      </trkpt>
      <trkpt lat="46.6437" lon="5.29488">
        <ele>203.8</ele>
        <time>2021-11-06T12:16:35Z</time>
      </trkpt>
      <trkpt lat="46.64361" lon="5.29468">
        <ele>204.2</ele>
        <time>2021-11-06T12:16:38Z</time>
      </trkpt>
      <trkpt lat="46.64351" lon="5.29437">
        <ele>204.8</ele>
        <time>2021-11-06T12:16:42Z</time>
      </trkpt>
      <trkpt lat="46.64341" lon="5.29399">
        <ele>205.2</ele>
        <time>2021-11-06T12:16:47Z</time>
      </trkpt>
      <trkpt lat="46.64336" lon="5.29375">
        <ele>205.4</ele>
        <time>2021-11-06T12:16:50Z</time>
      </trkpt>
      <trkpt lat="46.64318" lon="5.29307">
        <ele>205.6</ele>
        <time>2021-11-06T12:16:59Z</time>
      </trkpt>
      <trkpt lat="46.64316" lon="5.293">
        <ele>205.6</ele>
        <time>2021-11-06T12:17:00Z</time>
      </trkpt>
      <trkpt lat="46.64317" lon="5.29286">
        <ele>205.8</ele>
        <time>2021-11-06T12:17:02Z</time>
      </trkpt>
      <trkpt lat="46.64325" lon="5.29276">
        <ele>205.8</ele>
        <time>2021-11-06T12:17:04Z</time>
      </trkpt>
      <trkpt lat="46.64331" lon="5.29272">
        <ele>205.8</ele>
        <time>2021-11-06T12:17:05Z</time>
      </trkpt>
      <trkpt lat="46.64367" lon="5.29242">
        <ele>205.8</ele>
        <time>2021-11-06T12:17:12Z</time>
      </trkpt>
      <trkpt lat="46.64407" lon="5.29211">
        <ele>206.2</ele>
        <time>2021-11-06T12:17:19Z</time>
      </trkpt>
      <trkpt lat="46.64452" lon="5.29177">
        <ele>206</ele>
        <time>2021-11-06T12:17:26Z</time>
      </trkpt>
      <trkpt lat="46.64503" lon="5.29146">
        <ele>204</ele>
        <time>2021-11-06T12:17:33Z</time>
      </trkpt>
      <trkpt lat="46.6455" lon="5.29129">
        <ele>203.6</ele>
        <time>2021-11-06T12:17:40Z</time>
      </trkpt>
      <trkpt lat="46.64595" lon="5.29113">
        <ele>203.8</ele>
        <time>2021-11-06T12:17:48Z</time>
      </trkpt>
      <trkpt lat="46.64638" lon="5.29096">
        <ele>204.4</ele>
        <time>2021-11-06T12:17:57Z</time>
      </trkpt>
      <trkpt lat="46.64663" lon="5.29087">
        <ele>205.4</ele>
        <time>2021-11-06T12:18:02Z</time>
      </trkpt>
      <trkpt lat="46.64689" lon="5.29079">
        <ele>206.2</ele>
        <time>2021-11-06T12:18:07Z</time>
      </trkpt>
      <trkpt lat="46.64704" lon="5.29073">
        <ele>206.4</ele>
        <time>2021-11-06T12:18:10Z</time>
      </trkpt>
      <trkpt lat="46.64731" lon="5.2906">
        <ele>207</ele>
        <time>2021-11-06T12:18:15Z</time>
      </trkpt>
      <trkpt lat="46.64769" lon="5.2903">
        <ele>206.8</ele>
        <time>2021-11-06T12:18:22Z</time>
      </trkpt>
      <trkpt lat="46.64818" lon="5.28993">
        <ele>206.4</ele>
        <time>2021-11-06T12:18:31Z</time>
      </trkpt>
      <trkpt lat="46.64824" lon="5.2899">
        <ele>206.4</ele>
        <time>2021-11-06T12:18:32Z</time>
      </trkpt>
      <trkpt lat="46.64879" lon="5.28967">
        <ele>206.4</ele>
        <time>2021-11-06T12:18:41Z</time>
      </trkpt>
      <trkpt lat="46.64885" lon="5.28965">
        <ele>206.4</ele>
        <time>2021-11-06T12:18:42Z</time>
      </trkpt>
      <trkpt lat="46.6494" lon="5.28941">
        <ele>205.8</ele>
        <time>2021-11-06T12:18:51Z</time>
      </trkpt>
      <trkpt lat="46.64947" lon="5.28938">
        <ele>205.8</ele>
        <time>2021-11-06T12:18:52Z</time>
      </trkpt>
      <trkpt lat="46.64969" lon="5.28933">
        <ele>205.6</ele>
        <time>2021-11-06T12:18:55Z</time>
      </trkpt>
      <trkpt lat="46.64977" lon="5.28933">
        <ele>205.6</ele>
        <time>2021-11-06T12:18:56Z</time>
      </trkpt>
      <trkpt lat="46.64984" lon="5.28935">
        <ele>205.4</ele>
        <time>2021-11-06T12:18:57Z</time>
      </trkpt>
      <trkpt lat="46.64999" lon="5.28944">
        <ele>204.6</ele>
        <time>2021-11-06T12:18:59Z</time>
      </trkpt>
      <trkpt lat="46.65006" lon="5.28951">
        <ele>204.4</ele>
        <time>2021-11-06T12:19:00Z</time>
      </trkpt>
      <trkpt lat="46.65025" lon="5.28975">
        <ele>203.2</ele>
        <time>2021-11-06T12:19:03Z</time>
      </trkpt>
      <trkpt lat="46.65039" lon="5.28984">
        <ele>202.6</ele>
        <time>2021-11-06T12:19:05Z</time>
      </trkpt>
      <trkpt lat="46.65047" lon="5.28985">
        <ele>202</ele>
        <time>2021-11-06T12:19:06Z</time>
      </trkpt>
      <trkpt lat="46.65055" lon="5.28985">
        <ele>201.8</ele>
        <time>2021-11-06T12:19:07Z</time>
      </trkpt>
      <trkpt lat="46.65076" lon="5.28978">
        <ele>201.6</ele>
        <time>2021-11-06T12:19:10Z</time>
      </trkpt>
      <trkpt lat="46.65113" lon="5.28956">
        <ele>201.6</ele>
        <time>2021-11-06T12:19:16Z</time>
      </trkpt>
      <trkpt lat="46.65137" lon="5.28922">
        <ele>202.4</ele>
        <time>2021-11-06T12:19:21Z</time>
      </trkpt>
      <trkpt lat="46.65156" lon="5.28893">
        <ele>203</ele>
        <time>2021-11-06T12:19:25Z</time>
      </trkpt>
      <trkpt lat="46.65172" lon="5.28873">
        <ele>203.4</ele>
        <time>2021-11-06T12:19:28Z</time>
      </trkpt>
      <trkpt lat="46.65188" lon="5.28854">
        <ele>203.4</ele>
        <time>2021-11-06T12:19:31Z</time>
      </trkpt>
      <trkpt lat="46.65205" lon="5.28839">
        <ele>203.4</ele>
        <time>2021-11-06T12:19:34Z</time>
      </trkpt>
      <trkpt lat="46.65217" lon="5.28831">
        <ele>203.4</ele>
        <time>2021-11-06T12:19:36Z</time>
      </trkpt>
      <trkpt lat="46.65229" lon="5.28826">
        <ele>203.4</ele>
        <time>2021-11-06T12:19:38Z</time>
      </trkpt>
      <trkpt lat="46.65235" lon="5.28826">
        <ele>203.4</ele>
        <time>2021-11-06T12:19:39Z</time>
      </trkpt>
      <trkpt lat="46.65241" lon="5.28827">
        <ele>203.4</ele>
        <time>2021-11-06T12:19:40Z</time>
      </trkpt>
      <trkpt lat="46.65272" lon="5.28833">
        <ele>203</ele>
        <time>2021-11-06T12:19:45Z</time>
      </trkpt>
      <trkpt lat="46.65319" lon="5.28843">
        <ele>202.8</ele>
        <time>2021-11-06T12:19:53Z</time>
      </trkpt>
      <trkpt lat="46.65359" lon="5.28865">
        <ele>202.8</ele>
        <time>2021-11-06T12:20:00Z</time>
      </trkpt>
      <trkpt lat="46.6541" lon="5.28893">
        <ele>203</ele>
        <time>2021-11-06T12:20:09Z</time>
      </trkpt>
      <trkpt lat="46.65422" lon="5.28892">
        <ele>203.2</ele>
        <time>2021-11-06T12:20:11Z</time>
      </trkpt>
      <trkpt lat="46.65428" lon="5.28888">
        <ele>203.2</ele>
        <time>2021-11-06T12:20:12Z</time>
      </trkpt>
      <trkpt lat="46.65433" lon="5.28882">
        <ele>203.2</ele>
        <time>2021-11-06T12:20:13Z</time>
      </trkpt>
      <trkpt lat="46.65452" lon="5.28856">
        <ele>203</ele>
        <time>2021-11-06T12:20:17Z</time>
      </trkpt>
      <trkpt lat="46.65465" lon="5.28846">
        <ele>202.6</ele>
        <time>2021-11-06T12:20:19Z</time>
      </trkpt>
      <trkpt lat="46.65479" lon="5.28838">
        <ele>202</ele>
        <time>2021-11-06T12:20:21Z</time>
      </trkpt>
      <trkpt lat="46.65503" lon="5.28832">
        <ele>201.2</ele>
        <time>2021-11-06T12:20:24Z</time>
      </trkpt>
      <trkpt lat="46.65511" lon="5.28832">
        <ele>200.8</ele>
        <time>2021-11-06T12:20:25Z</time>
      </trkpt>
      <trkpt lat="46.65538" lon="5.28834">
        <ele>199.2</ele>
        <time>2021-11-06T12:20:28Z</time>
      </trkpt>
      <trkpt lat="46.65564" lon="5.2884">
        <ele>198.4</ele>
        <time>2021-11-06T12:20:31Z</time>
      </trkpt>
      <trkpt lat="46.65573" lon="5.28843">
        <ele>198.2</ele>
        <time>2021-11-06T12:20:32Z</time>
      </trkpt>
      <trkpt lat="46.65619" lon="5.28854">
        <ele>196.4</ele>
        <time>2021-11-06T12:20:37Z</time>
      </trkpt>
      <trkpt lat="46.65638" lon="5.28858">
        <ele>195.4</ele>
        <time>2021-11-06T12:20:39Z</time>
      </trkpt>
      <trkpt lat="46.65656" lon="5.28863">
        <ele>194.8</ele>
        <time>2021-11-06T12:20:41Z</time>
      </trkpt>
      <trkpt lat="46.65674" lon="5.28867">
        <ele>194</ele>
        <time>2021-11-06T12:20:43Z</time>
      </trkpt>
      <trkpt lat="46.65699" lon="5.28875">
        <ele>193.4</ele>
        <time>2021-11-06T12:20:46Z</time>
      </trkpt>
      <trkpt lat="46.65706" lon="5.28879">
        <ele>193.2</ele>
        <time>2021-11-06T12:20:47Z</time>
      </trkpt>
      <trkpt lat="46.65736" lon="5.28903">
        <ele>193.4</ele>
        <time>2021-11-06T12:20:52Z</time>
      </trkpt>
      <trkpt lat="46.65763" lon="5.28931">
        <ele>194.2</ele>
        <time>2021-11-06T12:20:58Z</time>
      </trkpt>
      <trkpt lat="46.65775" lon="5.28944">
        <ele>195.2</ele>
        <time>2021-11-06T12:21:01Z</time>
      </trkpt>
      <trkpt lat="46.65794" lon="5.28966">
        <ele>195.8</ele>
        <time>2021-11-06T12:21:06Z</time>
      </trkpt>
      <trkpt lat="46.65802" lon="5.28973">
        <ele>196.2</ele>
        <time>2021-11-06T12:21:08Z</time>
      </trkpt>
      <trkpt lat="46.6582" lon="5.2899">
        <ele>197.2</ele>
        <time>2021-11-06T12:21:13Z</time>
      </trkpt>
      <trkpt lat="46.65835" lon="5.29004">
        <ele>198.4</ele>
        <time>2021-11-06T12:21:17Z</time>
      </trkpt>
      <trkpt lat="46.65849" lon="5.29019">
        <ele>199.4</ele>
        <time>2021-11-06T12:21:21Z</time>
      </trkpt>
      <trkpt lat="46.65865" lon="5.29038">
        <ele>200.6</ele>
        <time>2021-11-06T12:21:26Z</time>
      </trkpt>
      <trkpt lat="46.65879" lon="5.29053">
        <ele>201.4</ele>
        <time>2021-11-06T12:21:30Z</time>
      </trkpt>
      <trkpt lat="46.65887" lon="5.29061">
        <ele>201.8</ele>
        <time>2021-11-06T12:21:32Z</time>
      </trkpt>
      <trkpt lat="46.6589" lon="5.29065">
        <ele>202.2</ele>
        <time>2021-11-06T12:21:33Z</time>
      </trkpt>
      <trkpt lat="46.65903" lon="5.29084">
        <ele>203</ele>
        <time>2021-11-06T12:21:37Z</time>
      </trkpt>
      <trkpt lat="46.65922" lon="5.29114">
        <ele>204.2</ele>
        <time>2021-11-06T12:21:43Z</time>
      </trkpt>
      <trkpt lat="46.65929" lon="5.29123">
        <ele>204.4</ele>
        <time>2021-11-06T12:21:45Z</time>
      </trkpt>
      <trkpt lat="46.65943" lon="5.29139">
        <ele>205</ele>
        <time>2021-11-06T12:21:49Z</time>
      </trkpt>
      <trkpt lat="46.65951" lon="5.29144">
        <ele>205.2</ele>
        <time>2021-11-06T12:21:51Z</time>
      </trkpt>
      <trkpt lat="46.65958" lon="5.29144">
        <ele>205.4</ele>
        <time>2021-11-06T12:21:53Z</time>
      </trkpt>
      <trkpt lat="46.65961" lon="5.29142">
        <ele>205.4</ele>
        <time>2021-11-06T12:21:54Z</time>
      </trkpt>
      <trkpt lat="46.65964" lon="5.29137">
        <ele>205.4</ele>
        <time>2021-11-06T12:21:55Z</time>
      </trkpt>
      <trkpt lat="46.65967" lon="5.29131">
        <ele>205.4</ele>
        <time>2021-11-06T12:21:56Z</time>
      </trkpt>
      <trkpt lat="46.65972" lon="5.29119">
        <ele>205.6</ele>
        <time>2021-11-06T12:21:58Z</time>
      </trkpt>
      <trkpt lat="46.65991" lon="5.29065">
        <ele>205</ele>
        <time>2021-11-06T12:22:05Z</time>
      </trkpt>
      <trkpt lat="46.6601" lon="5.29016">
        <ele>204.2</ele>
        <time>2021-11-06T12:22:11Z</time>
      </trkpt>
      <trkpt lat="46.66018" lon="5.2901">
        <ele>203.6</ele>
        <time>2021-11-06T12:22:13Z</time>
      </trkpt>
      <trkpt lat="46.66021" lon="5.29013">
        <ele>203</ele>
        <time>2021-11-06T12:22:14Z</time>
      </trkpt>
      <trkpt lat="46.66024" lon="5.29018">
        <ele>202.8</ele>
        <time>2021-11-06T12:22:15Z</time>
      </trkpt>
      <trkpt lat="46.6603" lon="5.29029">
        <ele>201.8</ele>
        <time>2021-11-06T12:22:17Z</time>
      </trkpt>
      <trkpt lat="46.66033" lon="5.29035">
        <ele>201.6</ele>
        <time>2021-11-06T12:22:18Z</time>
      </trkpt>
      <trkpt lat="46.66043" lon="5.29054">
        <ele>201</ele>
        <time>2021-11-06T12:22:21Z</time>
      </trkpt>
      <trkpt lat="46.66063" lon="5.29085">
        <ele>201.2</ele>
        <time>2021-11-06T12:22:26Z</time>
      </trkpt>
      <trkpt lat="46.66099" lon="5.29145">
        <ele>202.6</ele>
        <time>2021-11-06T12:22:35Z</time>
      </trkpt>
      <trkpt lat="46.66106" lon="5.29158">
        <ele>202.8</ele>
        <time>2021-11-06T12:22:37Z</time>
      </trkpt>
      <trkpt lat="46.66127" lon="5.29194">
        <ele>203.2</ele>
        <time>2021-11-06T12:22:43Z</time>
      </trkpt>
      <trkpt lat="46.66144" lon="5.29224">
        <ele>204</ele>
        <time>2021-11-06T12:22:48Z</time>
      </trkpt>
      <trkpt lat="46.66158" lon="5.29248">
        <ele>204.4</ele>
        <time>2021-11-06T12:22:52Z</time>
      </trkpt>
      <trkpt lat="46.66192" lon="5.29291">
        <ele>205</ele>
        <time>2021-11-06T12:23:00Z</time>
      </trkpt>
      <trkpt lat="46.66202" lon="5.29303">
        <ele>205.2</ele>
        <time>2021-11-06T12:23:02Z</time>
      </trkpt>
      <trkpt lat="46.6622" lon="5.29331">
        <ele>205</ele>
        <time>2021-11-06T12:23:06Z</time>
      </trkpt>
      <trkpt lat="46.66233" lon="5.29353">
        <ele>205</ele>
        <time>2021-11-06T12:23:09Z</time>
      </trkpt>
      <trkpt lat="46.66248" lon="5.29371">
        <ele>204.8</ele>
        <time>2021-11-06T12:23:12Z</time>
      </trkpt>
      <trkpt lat="46.66267" lon="5.29397">
        <ele>204.8</ele>
        <time>2021-11-06T12:23:16Z</time>
      </trkpt>
      <trkpt lat="46.6627" lon="5.29405">
        <ele>204.8</ele>
        <time>2021-11-06T12:23:17Z</time>
      </trkpt>
      <trkpt lat="46.66284" lon="5.29458">
        <ele>204.8</ele>
        <time>2021-11-06T12:23:23Z</time>
      </trkpt>
      <trkpt lat="46.66286" lon="5.29502">
        <ele>205</ele>
        <time>2021-11-06T12:23:28Z</time>
      </trkpt>
      <trkpt lat="46.66287" lon="5.2952">
        <ele>205.2</ele>
        <time>2021-11-06T12:23:30Z</time>
      </trkpt>
      <trkpt lat="46.66286" lon="5.29588">
        <ele>205.6</ele>
        <time>2021-11-06T12:23:37Z</time>
      </trkpt>
      <trkpt lat="46.6628" lon="5.29647">
        <ele>205.8</ele>
        <time>2021-11-06T12:23:43Z</time>
      </trkpt>
      <trkpt lat="46.66266" lon="5.2971">
        <ele>205.8</ele>
        <time>2021-11-06T12:23:50Z</time>
      </trkpt>
      <trkpt lat="46.66255" lon="5.29771">
        <ele>206</ele>
        <time>2021-11-06T12:23:57Z</time>
      </trkpt>
      <trkpt lat="46.66257" lon="5.29789">
        <ele>206</ele>
        <time>2021-11-06T12:23:59Z</time>
      </trkpt>
      <trkpt lat="46.66261" lon="5.29805">
        <ele>206.2</ele>
        <time>2021-11-06T12:24:01Z</time>
      </trkpt>
      <trkpt lat="46.66263" lon="5.29813">
        <ele>206.2</ele>
        <time>2021-11-06T12:24:02Z</time>
      </trkpt>
      <trkpt lat="46.66281" lon="5.29863">
        <ele>207.4</ele>
        <time>2021-11-06T12:24:08Z</time>
      </trkpt>
      <trkpt lat="46.66288" lon="5.29878">
        <ele>207.4</ele>
        <time>2021-11-06T12:24:10Z</time>
      </trkpt>
      <trkpt lat="46.66322" lon="5.29946">
        <ele>207.8</ele>
        <time>2021-11-06T12:24:19Z</time>
      </trkpt>
      <trkpt lat="46.66326" lon="5.29953">
        <ele>207.8</ele>
        <time>2021-11-06T12:24:20Z</time>
      </trkpt>
      <trkpt lat="46.6636" lon="5.3002">
        <ele>208</ele>
        <time>2021-11-06T12:24:29Z</time>
      </trkpt>
      <trkpt lat="46.6637" lon="5.30042">
        <ele>208.2</ele>
        <time>2021-11-06T12:24:32Z</time>
      </trkpt>
      <trkpt lat="46.66385" lon="5.30072">
        <ele>208.4</ele>
        <time>2021-11-06T12:24:36Z</time>
      </trkpt>
      <trkpt lat="46.66407" lon="5.30118">
        <ele>208.4</ele>
        <time>2021-11-06T12:24:42Z</time>
      </trkpt>
      <trkpt lat="46.66424" lon="5.30169">
        <ele>208.4</ele>
        <time>2021-11-06T12:24:48Z</time>
      </trkpt>
      <trkpt lat="46.66428" lon="5.30196">
        <ele>208.2</ele>
        <time>2021-11-06T12:24:51Z</time>
      </trkpt>
      <trkpt lat="46.6643" lon="5.30225">
        <ele>208.2</ele>
        <time>2021-11-06T12:24:54Z</time>
      </trkpt>
      <trkpt lat="46.66438" lon="5.30283">
        <ele>208.2</ele>
        <time>2021-11-06T12:25:00Z</time>
      </trkpt>
      <trkpt lat="46.66458" lon="5.30332">
        <ele>208.6</ele>
        <time>2021-11-06T12:25:06Z</time>
      </trkpt>
      <trkpt lat="46.66487" lon="5.30403">
        <ele>209</ele>
        <time>2021-11-06T12:25:15Z</time>
      </trkpt>
      <trkpt lat="46.66491" lon="5.30411">
        <ele>209</ele>
        <time>2021-11-06T12:25:16Z</time>
      </trkpt>
      <trkpt lat="46.66507" lon="5.3046">
        <ele>209.4</ele>
        <time>2021-11-06T12:25:22Z</time>
      </trkpt>
      <trkpt lat="46.66513" lon="5.30486">
        <ele>209.6</ele>
        <time>2021-11-06T12:25:25Z</time>
      </trkpt>
      <trkpt lat="46.66528" lon="5.30556">
        <ele>209.4</ele>
        <time>2021-11-06T12:25:33Z</time>
      </trkpt>
      <trkpt lat="46.66538" lon="5.30621">
        <ele>209.4</ele>
        <time>2021-11-06T12:25:40Z</time>
      </trkpt>
      <trkpt lat="46.66544" lon="5.3069">
        <ele>209.6</ele>
        <time>2021-11-06T12:25:47Z</time>
      </trkpt>
      <trkpt lat="46.66556" lon="5.30746">
        <ele>209.8</ele>
        <time>2021-11-06T12:25:53Z</time>
      </trkpt>
      <trkpt lat="46.66575" lon="5.30786">
        <ele>210</ele>
        <time>2021-11-06T12:25:58Z</time>
      </trkpt>
      <trkpt lat="46.66596" lon="5.30808">
        <ele>210.2</ele>
        <time>2021-11-06T12:26:02Z</time>
      </trkpt>
      <trkpt lat="46.66602" lon="5.30811">
        <ele>210.2</ele>
        <time>2021-11-06T12:26:03Z</time>
      </trkpt>
      <trkpt lat="46.66622" lon="5.30817">
        <ele>210.4</ele>
        <time>2021-11-06T12:26:06Z</time>
      </trkpt>
      <trkpt lat="46.66679" lon="5.30824">
        <ele>210.2</ele>
        <time>2021-11-06T12:26:15Z</time>
      </trkpt>
      <trkpt lat="46.66685" lon="5.30826">
        <ele>210.2</ele>
        <time>2021-11-06T12:26:16Z</time>
      </trkpt>
      <trkpt lat="46.66732" lon="5.3085">
        <ele>210</ele>
        <time>2021-11-06T12:26:24Z</time>
      </trkpt>
      <trkpt lat="46.6678" lon="5.30886">
        <ele>210</ele>
        <time>2021-11-06T12:26:33Z</time>
      </trkpt>
      <trkpt lat="46.6681" lon="5.30914">
        <ele>210.2</ele>
        <time>2021-11-06T12:26:39Z</time>
      </trkpt>
      <trkpt lat="46.66813" lon="5.3092">
        <ele>210.2</ele>
        <time>2021-11-06T12:26:40Z</time>
      </trkpt>
      <trkpt lat="46.66816" lon="5.30929">
        <ele>210.4</ele>
        <time>2021-11-06T12:26:41Z</time>
      </trkpt>
      <trkpt lat="46.66817" lon="5.30937">
        <ele>210.4</ele>
        <time>2021-11-06T12:26:42Z</time>
      </trkpt>
      <trkpt lat="46.66817" lon="5.30946">
        <ele>210.4</ele>
        <time>2021-11-06T12:26:43Z</time>
      </trkpt>
      <trkpt lat="46.66814" lon="5.30962">
        <ele>210.2</ele>
        <time>2021-11-06T12:26:45Z</time>
      </trkpt>
      <trkpt lat="46.66809" lon="5.30978">
        <ele>210.2</ele>
        <time>2021-11-06T12:26:47Z</time>
      </trkpt>
      <trkpt lat="46.66793" lon="5.31031">
        <ele>209.6</ele>
        <time>2021-11-06T12:26:53Z</time>
      </trkpt>
      <trkpt lat="46.66778" lon="5.31086">
        <ele>209.4</ele>
        <time>2021-11-06T12:26:59Z</time>
      </trkpt>
      <trkpt lat="46.66777" lon="5.31095">
        <ele>209.6</ele>
        <time>2021-11-06T12:27:00Z</time>
      </trkpt>
      <trkpt lat="46.66778" lon="5.31112">
        <ele>210</ele>
        <time>2021-11-06T12:27:02Z</time>
      </trkpt>
      <trkpt lat="46.66785" lon="5.31127">
        <ele>210.2</ele>
        <time>2021-11-06T12:27:04Z</time>
      </trkpt>
      <trkpt lat="46.6679" lon="5.31134">
        <ele>210.2</ele>
        <time>2021-11-06T12:27:05Z</time>
      </trkpt>
      <trkpt lat="46.66819" lon="5.31178">
        <ele>210</ele>
        <time>2021-11-06T12:27:11Z</time>
      </trkpt>
      <trkpt lat="46.66825" lon="5.31184">
        <ele>209.8</ele>
        <time>2021-11-06T12:27:12Z</time>
      </trkpt>
      <trkpt lat="46.66837" lon="5.31194">
        <ele>209.8</ele>
        <time>2021-11-06T12:27:14Z</time>
      </trkpt>
      <trkpt lat="46.66844" lon="5.31197">
        <ele>209.8</ele>
        <time>2021-11-06T12:27:15Z</time>
      </trkpt>
      <trkpt lat="46.66857" lon="5.31205">
        <ele>209.8</ele>
        <time>2021-11-06T12:27:17Z</time>
      </trkpt>
      <trkpt lat="46.66868" lon="5.31216">
        <ele>210</ele>
        <time>2021-11-06T12:27:19Z</time>
      </trkpt>
      <trkpt lat="46.66895" lon="5.31263">
        <ele>209.6</ele>
        <time>2021-11-06T12:27:25Z</time>
      </trkpt>
      <trkpt lat="46.66908" lon="5.31286">
        <ele>209.4</ele>
        <time>2021-11-06T12:27:28Z</time>
      </trkpt>
      <trkpt lat="46.66934" lon="5.31325">
        <ele>208.8</ele>
        <time>2021-11-06T12:27:33Z</time>
      </trkpt>
      <trkpt lat="46.66974" lon="5.31383">
        <ele>208.4</ele>
        <time>2021-11-06T12:27:41Z</time>
      </trkpt>
      <trkpt lat="46.67007" lon="5.3143">
        <ele>208.4</ele>
        <time>2021-11-06T12:27:48Z</time>
      </trkpt>
      <trkpt lat="46.67021" lon="5.31448">
        <ele>208.4</ele>
        <time>2021-11-06T12:27:51Z</time>
      </trkpt>
      <trkpt lat="46.67027" lon="5.31461">
        <ele>208.4</ele>
        <time>2021-11-06T12:27:53Z</time>
      </trkpt>
      <trkpt lat="46.67028" lon="5.31469">
        <ele>208.4</ele>
        <time>2021-11-06T12:27:54Z</time>
      </trkpt>
      <trkpt lat="46.67027" lon="5.31477">
        <ele>208.2</ele>
        <time>2021-11-06T12:27:55Z</time>
      </trkpt>
      <trkpt lat="46.67021" lon="5.31492">
        <ele>208</ele>
        <time>2021-11-06T12:27:57Z</time>
      </trkpt>
      <trkpt lat="46.67011" lon="5.31507">
        <ele>207.6</ele>
        <time>2021-11-06T12:27:59Z</time>
      </trkpt>
      <trkpt lat="46.67" lon="5.3152">
        <ele>207.4</ele>
        <time>2021-11-06T12:28:01Z</time>
      </trkpt>
      <trkpt lat="46.66993" lon="5.31526">
        <ele>207.4</ele>
        <time>2021-11-06T12:28:02Z</time>
      </trkpt>
      <trkpt lat="46.66985" lon="5.31529">
        <ele>207.2</ele>
        <time>2021-11-06T12:28:03Z</time>
      </trkpt>
      <trkpt lat="46.66977" lon="5.31531">
        <ele>207</ele>
        <time>2021-11-06T12:28:04Z</time>
      </trkpt>
      <trkpt lat="46.66935" lon="5.31537">
        <ele>206.2</ele>
        <time>2021-11-06T12:28:09Z</time>
      </trkpt>
      <trkpt lat="46.66917" lon="5.31537">
        <ele>205.6</ele>
        <time>2021-11-06T12:28:11Z</time>
      </trkpt>
      <trkpt lat="46.66898" lon="5.31535">
        <ele>205</ele>
        <time>2021-11-06T12:28:13Z</time>
      </trkpt>
      <trkpt lat="46.66888" lon="5.31535">
        <ele>204.8</ele>
        <time>2021-11-06T12:28:14Z</time>
      </trkpt>
      <trkpt lat="46.66878" lon="5.31539">
        <ele>204.6</ele>
        <time>2021-11-06T12:28:15Z</time>
      </trkpt>
      <trkpt lat="46.6687" lon="5.31547">
        <ele>204.2</ele>
        <time>2021-11-06T12:28:16Z</time>
      </trkpt>
      <trkpt lat="46.66863" lon="5.31556">
        <ele>204</ele>
        <time>2021-11-06T12:28:17Z</time>
      </trkpt>
      <trkpt lat="46.66857" lon="5.31566">
        <ele>203.4</ele>
        <time>2021-11-06T12:28:18Z</time>
      </trkpt>
      <trkpt lat="46.66843" lon="5.31599">
        <ele>202.8</ele>
        <time>2021-11-06T12:28:21Z</time>
      </trkpt>
      <trkpt lat="46.66834" lon="5.31622">
        <ele>202.8</ele>
        <time>2021-11-06T12:28:23Z</time>
      </trkpt>
      <trkpt lat="46.66814" lon="5.31672">
        <ele>203</ele>
        <time>2021-11-06T12:28:28Z</time>
      </trkpt>
      <trkpt lat="46.668" lon="5.31707">
        <ele>204</ele>
        <time>2021-11-06T12:28:32Z</time>
      </trkpt>
      <trkpt lat="46.66798" lon="5.31715">
        <ele>204</ele>
        <time>2021-11-06T12:28:33Z</time>
      </trkpt>
      <trkpt lat="46.66796" lon="5.31723">
        <ele>204.2</ele>
        <time>2021-11-06T12:28:34Z</time>
      </trkpt>
      <trkpt lat="46.66795" lon="5.31734">
        <ele>204.2</ele>
        <time>2021-11-06T12:28:35Z</time>
      </trkpt>
      <trkpt lat="46.66796" lon="5.31753">
        <ele>205</ele>
        <time>2021-11-06T12:28:37Z</time>
      </trkpt>
      <trkpt lat="46.66797" lon="5.31762">
        <ele>205.6</ele>
        <time>2021-11-06T12:28:38Z</time>
      </trkpt>
      <trkpt lat="46.668" lon="5.31781">
        <ele>206.2</ele>
        <time>2021-11-06T12:28:40Z</time>
      </trkpt>
      <trkpt lat="46.66809" lon="5.3181">
        <ele>207</ele>
        <time>2021-11-06T12:28:43Z</time>
      </trkpt>
      <trkpt lat="46.66813" lon="5.31819">
        <ele>207</ele>
        <time>2021-11-06T12:28:44Z</time>
      </trkpt>
      <trkpt lat="46.66829" lon="5.31843">
        <ele>207.2</ele>
        <time>2021-11-06T12:28:47Z</time>
      </trkpt>
      <trkpt lat="46.66859" lon="5.31877">
        <ele>207</ele>
        <time>2021-11-06T12:28:52Z</time>
      </trkpt>
      <trkpt lat="46.66868" lon="5.31895">
        <ele>207</ele>
        <time>2021-11-06T12:28:54Z</time>
      </trkpt>
      <trkpt lat="46.66875" lon="5.31916">
        <ele>206.8</ele>
        <time>2021-11-06T12:28:56Z</time>
      </trkpt>
      <trkpt lat="46.66881" lon="5.31951">
        <ele>206.4</ele>
        <time>2021-11-06T12:28:59Z</time>
      </trkpt>
      <trkpt lat="46.66881" lon="5.31964">
        <ele>206.2</ele>
        <time>2021-11-06T12:29:00Z</time>
      </trkpt>
      <trkpt lat="46.66879" lon="5.31977">
        <ele>205.8</ele>
        <time>2021-11-06T12:29:01Z</time>
      </trkpt>
      <trkpt lat="46.6687" lon="5.32003">
        <ele>204.6</ele>
        <time>2021-11-06T12:29:03Z</time>
      </trkpt>
      <trkpt lat="46.66854" lon="5.32037">
        <ele>203</ele>
        <time>2021-11-06T12:29:06Z</time>
      </trkpt>
      <trkpt lat="46.66841" lon="5.32055">
        <ele>201.6</ele>
        <time>2021-11-06T12:29:08Z</time>
      </trkpt>
      <trkpt lat="46.66822" lon="5.32077">
        <ele>200.6</ele>
        <time>2021-11-06T12:29:11Z</time>
      </trkpt>
      <trkpt lat="46.66816" lon="5.32085">
        <ele>200.4</ele>
        <time>2021-11-06T12:29:12Z</time>
      </trkpt>
      <trkpt lat="46.66809" lon="5.32096">
        <ele>200.4</ele>
        <time>2021-11-06T12:29:13Z</time>
      </trkpt>
      <trkpt lat="46.66796" lon="5.32121">
        <ele>200.2</ele>
        <time>2021-11-06T12:29:16Z</time>
      </trkpt>
      <trkpt lat="46.66793" lon="5.32129">
        <ele>200.2</ele>
        <time>2021-11-06T12:29:17Z</time>
      </trkpt>
      <trkpt lat="46.66793" lon="5.32137">
        <ele>200.4</ele>
        <time>2021-11-06T12:29:18Z</time>
      </trkpt>
      <trkpt lat="46.66796" lon="5.32152">
        <ele>200.4</ele>
        <time>2021-11-06T12:29:20Z</time>
      </trkpt>
      <trkpt lat="46.66808" lon="5.32175">
        <ele>201.2</ele>
        <time>2021-11-06T12:29:23Z</time>
      </trkpt>
      <trkpt lat="46.66812" lon="5.32185">
        <ele>201.4</ele>
        <time>2021-11-06T12:29:24Z</time>
      </trkpt>
      <trkpt lat="46.66822" lon="5.32215">
        <ele>201.6</ele>
        <time>2021-11-06T12:29:27Z</time>
      </trkpt>
      <trkpt lat="46.6683" lon="5.32235">
        <ele>201.6</ele>
        <time>2021-11-06T12:29:29Z</time>
      </trkpt>
      <trkpt lat="46.66835" lon="5.32242">
        <ele>201.6</ele>
        <time>2021-11-06T12:29:30Z</time>
      </trkpt>
      <trkpt lat="46.66842" lon="5.32253">
        <ele>201.4</ele>
        <time>2021-11-06T12:29:31Z</time>
      </trkpt>
      <trkpt lat="46.66862" lon="5.32278">
        <ele>200.8</ele>
        <time>2021-11-06T12:29:34Z</time>
      </trkpt>
      <trkpt lat="46.66869" lon="5.32286">
        <ele>200.4</ele>
        <time>2021-11-06T12:29:35Z</time>
      </trkpt>
      <trkpt lat="46.66906" lon="5.32333">
        <ele>199.4</ele>
        <time>2021-11-06T12:29:41Z</time>
      </trkpt>
      <trkpt lat="46.66911" lon="5.32341">
        <ele>199.2</ele>
        <time>2021-11-06T12:29:42Z</time>
      </trkpt>
      <trkpt lat="46.66928" lon="5.32377">
        <ele>199.2</ele>
        <time>2021-11-06T12:29:46Z</time>
      </trkpt>
      <trkpt lat="46.66936" lon="5.32407">
        <ele>199</ele>
        <time>2021-11-06T12:29:49Z</time>
      </trkpt>
      <trkpt lat="46.66938" lon="5.32428">
        <ele>199</ele>
        <time>2021-11-06T12:29:51Z</time>
      </trkpt>
      <trkpt lat="46.66933" lon="5.3249">
        <ele>198.8</ele>
        <time>2021-11-06T12:29:57Z</time>
      </trkpt>
      <trkpt lat="46.66929" lon="5.3251">
        <ele>198.8</ele>
        <time>2021-11-06T12:29:59Z</time>
      </trkpt>
      <trkpt lat="46.6692" lon="5.32528">
        <ele>198.8</ele>
        <time>2021-11-06T12:30:01Z</time>
      </trkpt>
      <trkpt lat="46.66895" lon="5.32564">
        <ele>198.6</ele>
        <time>2021-11-06T12:30:06Z</time>
      </trkpt>
      <trkpt lat="46.66871" lon="5.32613">
        <ele>198.6</ele>
        <time>2021-11-06T12:30:12Z</time>
      </trkpt>
      <trkpt lat="46.66852" lon="5.32657">
        <ele>199</ele>
        <time>2021-11-06T12:30:18Z</time>
      </trkpt>
      <trkpt lat="46.66834" lon="5.327">
        <ele>200.2</ele>
        <time>2021-11-06T12:30:24Z</time>
      </trkpt>
      <trkpt lat="46.6683" lon="5.32708">
        <ele>200.4</ele>
        <time>2021-11-06T12:30:25Z</time>
      </trkpt>
      <trkpt lat="46.6682" lon="5.32726">
        <ele>201</ele>
        <time>2021-11-06T12:30:28Z</time>
      </trkpt>
      <trkpt lat="46.66815" lon="5.32731">
        <ele>201.2</ele>
        <time>2021-11-06T12:30:29Z</time>
      </trkpt>
      <trkpt lat="46.66809" lon="5.32737">
        <ele>201.4</ele>
        <time>2021-11-06T12:30:30Z</time>
      </trkpt>
      <trkpt lat="46.66788" lon="5.32751">
        <ele>202.2</ele>
        <time>2021-11-06T12:30:34Z</time>
      </trkpt>
      <trkpt lat="46.66781" lon="5.32755">
        <ele>202.2</ele>
        <time>2021-11-06T12:30:35Z</time>
      </trkpt>
      <trkpt lat="46.66772" lon="5.32763">
        <ele>202.6</ele>
        <time>2021-11-06T12:30:37Z</time>
      </trkpt>
      <trkpt lat="46.66767" lon="5.32769">
        <ele>202.8</ele>
        <time>2021-11-06T12:30:38Z</time>
      </trkpt>
      <trkpt lat="46.66753" lon="5.32796">
        <ele>203.6</ele>
        <time>2021-11-06T12:30:42Z</time>
      </trkpt>
      <trkpt lat="46.66751" lon="5.32803">
        <ele>203.8</ele>
        <time>2021-11-06T12:30:43Z</time>
      </trkpt>
      <trkpt lat="46.66748" lon="5.32811">
        <ele>204.2</ele>
        <time>2021-11-06T12:30:44Z</time>
      </trkpt>
      <trkpt lat="46.66739" lon="5.32843">
        <ele>205</ele>
        <time>2021-11-06T12:30:48Z</time>
      </trkpt>
      <trkpt lat="46.66738" lon="5.32851">
        <ele>205</ele>
        <time>2021-11-06T12:30:49Z</time>
      </trkpt>
      <trkpt lat="46.66736" lon="5.32869">
        <ele>205.2</ele>
        <time>2021-11-06T12:30:51Z</time>
      </trkpt>
      <trkpt lat="46.66734" lon="5.32896">
        <ele>205.6</ele>
        <time>2021-11-06T12:30:54Z</time>
      </trkpt>
      <trkpt lat="46.66735" lon="5.32932">
        <ele>205.8</ele>
        <time>2021-11-06T12:30:58Z</time>
      </trkpt>
      <trkpt lat="46.66735" lon="5.32941">
        <ele>206</ele>
        <time>2021-11-06T12:30:59Z</time>
      </trkpt>
      <trkpt lat="46.66736" lon="5.32994">
        <ele>206.4</ele>
        <time>2021-11-06T12:31:05Z</time>
      </trkpt>
      <trkpt lat="46.66738" lon="5.33039">
        <ele>206.8</ele>
        <time>2021-11-06T12:31:10Z</time>
      </trkpt>
      <trkpt lat="46.66739" lon="5.33047">
        <ele>207</ele>
        <time>2021-11-06T12:31:11Z</time>
      </trkpt>
      <trkpt lat="46.66742" lon="5.33065">
        <ele>207</ele>
        <time>2021-11-06T12:31:13Z</time>
      </trkpt>
      <trkpt lat="46.66747" lon="5.33081">
        <ele>207.2</ele>
        <time>2021-11-06T12:31:15Z</time>
      </trkpt>
      <trkpt lat="46.6677" lon="5.33129">
        <ele>207</ele>
        <time>2021-11-06T12:31:21Z</time>
      </trkpt>
      <trkpt lat="46.66803" lon="5.33191">
        <ele>206.8</ele>
        <time>2021-11-06T12:31:29Z</time>
      </trkpt>
      <trkpt lat="46.6681" lon="5.33206">
        <ele>206.8</ele>
        <time>2021-11-06T12:31:31Z</time>
      </trkpt>
      <trkpt lat="46.66843" lon="5.33269">
        <ele>207.8</ele>
        <time>2021-11-06T12:31:40Z</time>
      </trkpt>
      <trkpt lat="46.66853" lon="5.33289">
        <ele>208</ele>
        <time>2021-11-06T12:31:43Z</time>
      </trkpt>
      <trkpt lat="46.66872" lon="5.33327">
        <ele>209</ele>
        <time>2021-11-06T12:31:49Z</time>
      </trkpt>
      <trkpt lat="46.66875" lon="5.33333">
        <ele>209</ele>
        <time>2021-11-06T12:31:50Z</time>
      </trkpt>
      <trkpt lat="46.66899" lon="5.33381">
        <ele>210</ele>
        <time>2021-11-06T12:31:57Z</time>
      </trkpt>
      <trkpt lat="46.66903" lon="5.33387">
        <ele>210.2</ele>
        <time>2021-11-06T12:31:58Z</time>
      </trkpt>
      <trkpt lat="46.66921" lon="5.3342">
        <ele>211.4</ele>
        <time>2021-11-06T12:32:03Z</time>
      </trkpt>
      <trkpt lat="46.66932" lon="5.3344">
        <ele>211.6</ele>
        <time>2021-11-06T12:32:06Z</time>
      </trkpt>
      <trkpt lat="46.66964" lon="5.33499">
        <ele>212.2</ele>
        <time>2021-11-06T12:32:15Z</time>
      </trkpt>
      <trkpt lat="46.66967" lon="5.33506">
        <ele>212.4</ele>
        <time>2021-11-06T12:32:16Z</time>
      </trkpt>
      <trkpt lat="46.66993" lon="5.33553">
        <ele>212.8</ele>
        <time>2021-11-06T12:32:23Z</time>
      </trkpt>
      <trkpt lat="46.67022" lon="5.3361">
        <ele>213</ele>
        <time>2021-11-06T12:32:31Z</time>
      </trkpt>
      <trkpt lat="46.67039" lon="5.33655">
        <ele>213.4</ele>
        <time>2021-11-06T12:32:37Z</time>
      </trkpt>
      <trkpt lat="46.67046" lon="5.33674">
        <ele>213.4</ele>
        <time>2021-11-06T12:32:39Z</time>
      </trkpt>
      <trkpt lat="46.67049" lon="5.33682">
        <ele>213.4</ele>
        <time>2021-11-06T12:32:40Z</time>
      </trkpt>
      <trkpt lat="46.67062" lon="5.33716">
        <ele>213.6</ele>
        <time>2021-11-06T12:32:44Z</time>
      </trkpt>
      <trkpt lat="46.6709" lon="5.33793">
        <ele>213.8</ele>
        <time>2021-11-06T12:32:53Z</time>
      </trkpt>
      <trkpt lat="46.67095" lon="5.33808">
        <ele>214</ele>
        <time>2021-11-06T12:32:55Z</time>
      </trkpt>
      <trkpt lat="46.67121" lon="5.3388">
        <ele>214</ele>
        <time>2021-11-06T12:33:04Z</time>
      </trkpt>
      <trkpt lat="46.67147" lon="5.3395">
        <ele>214</ele>
        <time>2021-11-06T12:33:13Z</time>
      </trkpt>
      <trkpt lat="46.6715" lon="5.3396">
        <ele>214.2</ele>
        <time>2021-11-06T12:33:14Z</time>
      </trkpt>
      <trkpt lat="46.67175" lon="5.34032">
        <ele>214.2</ele>
        <time>2021-11-06T12:33:23Z</time>
      </trkpt>
      <trkpt lat="46.67201" lon="5.34101">
        <ele>214</ele>
        <time>2021-11-06T12:33:31Z</time>
      </trkpt>
      <trkpt lat="46.67204" lon="5.3411">
        <ele>213.8</ele>
        <time>2021-11-06T12:33:32Z</time>
      </trkpt>
      <trkpt lat="46.67231" lon="5.34186">
        <ele>213</ele>
        <time>2021-11-06T12:33:41Z</time>
      </trkpt>
      <trkpt lat="46.67252" lon="5.34243">
        <ele>213.2</ele>
        <time>2021-11-06T12:33:48Z</time>
      </trkpt>
      <trkpt lat="46.67255" lon="5.34252">
        <ele>213.2</ele>
        <time>2021-11-06T12:33:49Z</time>
      </trkpt>
      <trkpt lat="46.6727" lon="5.34293">
        <ele>214</ele>
        <time>2021-11-06T12:33:54Z</time>
      </trkpt>
      <trkpt lat="46.67296" lon="5.34361">
        <ele>214.6</ele>
        <time>2021-11-06T12:34:02Z</time>
      </trkpt>
      <trkpt lat="46.67299" lon="5.3437">
        <ele>214.8</ele>
        <time>2021-11-06T12:34:03Z</time>
      </trkpt>
      <trkpt lat="46.67324" lon="5.34439">
        <ele>215.2</ele>
        <time>2021-11-06T12:34:11Z</time>
      </trkpt>
      <trkpt lat="46.67337" lon="5.34474">
        <ele>215.2</ele>
        <time>2021-11-06T12:34:15Z</time>
      </trkpt>
      <trkpt lat="46.67363" lon="5.34548">
        <ele>214.4</ele>
        <time>2021-11-06T12:34:23Z</time>
      </trkpt>
      <trkpt lat="46.67366" lon="5.34557">
        <ele>214.2</ele>
        <time>2021-11-06T12:34:24Z</time>
      </trkpt>
      <trkpt lat="46.67389" lon="5.34618">
        <ele>214</ele>
        <time>2021-11-06T12:34:31Z</time>
      </trkpt>
      <trkpt lat="46.67414" lon="5.34678">
        <ele>214.8</ele>
        <time>2021-11-06T12:34:39Z</time>
      </trkpt>
      <trkpt lat="46.67442" lon="5.34713">
        <ele>215.2</ele>
        <time>2021-11-06T12:34:45Z</time>
      </trkpt>
      <trkpt lat="46.67485" lon="5.34764">
        <ele>215.2</ele>
        <time>2021-11-06T12:34:54Z</time>
      </trkpt>
      <trkpt lat="46.6753" lon="5.34815">
        <ele>215.6</ele>
        <time>2021-11-06T12:35:03Z</time>
      </trkpt>
      <trkpt lat="46.67535" lon="5.34822">
        <ele>215.6</ele>
        <time>2021-11-06T12:35:04Z</time>
      </trkpt>
      <trkpt lat="46.67578" lon="5.34869">
        <ele>215.2</ele>
        <time>2021-11-06T12:35:12Z</time>
      </trkpt>
      <trkpt lat="46.67614" lon="5.34912">
        <ele>215</ele>
        <time>2021-11-06T12:35:19Z</time>
      </trkpt>
      <trkpt lat="46.67634" lon="5.34937">
        <ele>215.2</ele>
        <time>2021-11-06T12:35:23Z</time>
      </trkpt>
      <trkpt lat="46.67647" lon="5.34958">
        <ele>215.4</ele>
        <time>2021-11-06T12:35:26Z</time>
      </trkpt>
      <trkpt lat="46.67671" lon="5.35016">
        <ele>215.4</ele>
        <time>2021-11-06T12:35:33Z</time>
      </trkpt>
      <trkpt lat="46.67696" lon="5.35093">
        <ele>216</ele>
        <time>2021-11-06T12:35:42Z</time>
      </trkpt>
      <trkpt lat="46.67704" lon="5.35119">
        <ele>216.2</ele>
        <time>2021-11-06T12:35:45Z</time>
      </trkpt>
      <trkpt lat="46.67724" lon="5.35186">
        <ele>216.4</ele>
        <time>2021-11-06T12:35:53Z</time>
      </trkpt>
      <trkpt lat="46.67742" lon="5.35244">
        <ele>216</ele>
        <time>2021-11-06T12:36:00Z</time>
      </trkpt>
      <trkpt lat="46.67765" lon="5.35313">
        <ele>216.2</ele>
        <time>2021-11-06T12:36:08Z</time>
      </trkpt>
      <trkpt lat="46.67791" lon="5.35392">
        <ele>216.8</ele>
        <time>2021-11-06T12:36:17Z</time>
      </trkpt>
      <trkpt lat="46.67811" lon="5.35453">
        <ele>217.2</ele>
        <time>2021-11-06T12:36:24Z</time>
      </trkpt>
      <trkpt lat="46.67836" lon="5.35532">
        <ele>217.2</ele>
        <time>2021-11-06T12:36:33Z</time>
      </trkpt>
      <trkpt lat="46.67861" lon="5.3561">
        <ele>216.8</ele>
        <time>2021-11-06T12:36:42Z</time>
      </trkpt>
      <trkpt lat="46.67886" lon="5.3568">
        <ele>217</ele>
        <time>2021-11-06T12:36:50Z</time>
      </trkpt>
      <trkpt lat="46.67894" lon="5.35697">
        <ele>217.2</ele>
        <time>2021-11-06T12:36:52Z</time>
      </trkpt>
      <trkpt lat="46.6793" lon="5.35759">
        <ele>217.6</ele>
        <time>2021-11-06T12:37:00Z</time>
      </trkpt>
      <trkpt lat="46.67939" lon="5.35774">
        <ele>217.8</ele>
        <time>2021-11-06T12:37:02Z</time>
      </trkpt>
      <trkpt lat="46.67978" lon="5.35839">
        <ele>217.6</ele>
        <time>2021-11-06T12:37:10Z</time>
      </trkpt>
      <trkpt lat="46.67988" lon="5.35855">
        <ele>217.4</ele>
        <time>2021-11-06T12:37:12Z</time>
      </trkpt>
      <trkpt lat="46.68026" lon="5.3592">
        <ele>216.6</ele>
        <time>2021-11-06T12:37:20Z</time>
      </trkpt>
      <trkpt lat="46.68035" lon="5.35934">
        <ele>216.6</ele>
        <time>2021-11-06T12:37:22Z</time>
      </trkpt>
      <trkpt lat="46.68066" lon="5.35971">
        <ele>216.4</ele>
        <time>2021-11-06T12:37:28Z</time>
      </trkpt>
      <trkpt lat="46.68102" lon="5.35997">
        <ele>216.6</ele>
        <time>2021-11-06T12:37:34Z</time>
      </trkpt>
      <trkpt lat="46.68146" lon="5.3602">
        <ele>217.4</ele>
        <time>2021-11-06T12:37:41Z</time>
      </trkpt>
      <trkpt lat="46.68205" lon="5.36048">
        <ele>217.6</ele>
        <time>2021-11-06T12:37:50Z</time>
      </trkpt>
      <trkpt lat="46.6821" lon="5.36051">
        <ele>217.6</ele>
        <time>2021-11-06T12:37:51Z</time>
      </trkpt>
      <trkpt lat="46.68259" lon="5.36076">
        <ele>217.6</ele>
        <time>2021-11-06T12:37:59Z</time>
      </trkpt>
      <trkpt lat="46.68314" lon="5.36102">
        <ele>217.6</ele>
        <time>2021-11-06T12:38:08Z</time>
      </trkpt>
      <trkpt lat="46.68327" lon="5.3611">
        <ele>217.6</ele>
        <time>2021-11-06T12:38:10Z</time>
      </trkpt>
      <trkpt lat="46.68332" lon="5.36112">
        <ele>217.6</ele>
        <time>2021-11-06T12:38:11Z</time>
      </trkpt>
      <trkpt lat="46.68364" lon="5.36129">
        <ele>217.6</ele>
        <time>2021-11-06T12:38:16Z</time>
      </trkpt>
      <trkpt lat="46.68369" lon="5.36132">
        <ele>217.6</ele>
        <time>2021-11-06T12:38:17Z</time>
      </trkpt>
      <trkpt lat="46.68397" lon="5.36155">
        <ele>217.8</ele>
        <time>2021-11-06T12:38:22Z</time>
      </trkpt>
      <trkpt lat="46.68442" lon="5.36195">
        <ele>217.8</ele>
        <time>2021-11-06T12:38:30Z</time>
      </trkpt>
      <trkpt lat="46.6848" lon="5.36232">
        <ele>217.8</ele>
        <time>2021-11-06T12:38:37Z</time>
      </trkpt>
      <trkpt lat="46.68531" lon="5.36277">
        <ele>217.8</ele>
        <time>2021-11-06T12:38:46Z</time>
      </trkpt>
      <trkpt lat="46.68537" lon="5.36282">
        <ele>217.6</ele>
        <time>2021-11-06T12:38:47Z</time>
      </trkpt>
      <trkpt lat="46.68589" lon="5.36328">
        <ele>217.4</ele>
        <time>2021-11-06T12:38:56Z</time>
      </trkpt>
      <trkpt lat="46.68594" lon="5.36332">
        <ele>217.4</ele>
        <time>2021-11-06T12:38:57Z</time>
      </trkpt>
      <trkpt lat="46.68645" lon="5.36378">
        <ele>217</ele>
        <time>2021-11-06T12:39:06Z</time>
      </trkpt>
      <trkpt lat="46.68669" lon="5.36399">
        <ele>216.6</ele>
        <time>2021-11-06T12:39:10Z</time>
      </trkpt>
      <trkpt lat="46.687" lon="5.36426">
        <ele>216.2</ele>
        <time>2021-11-06T12:39:15Z</time>
      </trkpt>
      <trkpt lat="46.68726" lon="5.36448">
        <ele>216</ele>
        <time>2021-11-06T12:39:19Z</time>
      </trkpt>
      <trkpt lat="46.68763" lon="5.36481">
        <ele>215.2</ele>
        <time>2021-11-06T12:39:25Z</time>
      </trkpt>
      <trkpt lat="46.6879" lon="5.36505">
        <ele>215</ele>
        <time>2021-11-06T12:39:29Z</time>
      </trkpt>
      <trkpt lat="46.68814" lon="5.36526">
        <ele>214.2</ele>
        <time>2021-11-06T12:39:33Z</time>
      </trkpt>
      <trkpt lat="46.68846" lon="5.36555">
        <ele>213.6</ele>
        <time>2021-11-06T12:39:38Z</time>
      </trkpt>
      <trkpt lat="46.68879" lon="5.36583">
        <ele>213.2</ele>
        <time>2021-11-06T12:39:43Z</time>
      </trkpt>
      <trkpt lat="46.68901" lon="5.36602">
        <ele>212.8</ele>
        <time>2021-11-06T12:39:46Z</time>
      </trkpt>
      <trkpt lat="46.68914" lon="5.36614">
        <ele>212</ele>
        <time>2021-11-06T12:39:48Z</time>
      </trkpt>
      <trkpt lat="46.68948" lon="5.36649">
        <ele>211.2</ele>
        <time>2021-11-06T12:39:53Z</time>
      </trkpt>
      <trkpt lat="46.68967" lon="5.36671">
        <ele>209.8</ele>
        <time>2021-11-06T12:39:56Z</time>
      </trkpt>
      <trkpt lat="46.68987" lon="5.36695">
        <ele>208.8</ele>
        <time>2021-11-06T12:39:59Z</time>
      </trkpt>
      <trkpt lat="46.69001" lon="5.36712">
        <ele>208</ele>
        <time>2021-11-06T12:40:01Z</time>
      </trkpt>
      <trkpt lat="46.69015" lon="5.36728">
        <ele>207.4</ele>
        <time>2021-11-06T12:40:03Z</time>
      </trkpt>
      <trkpt lat="46.69035" lon="5.3675">
        <ele>206.2</ele>
        <time>2021-11-06T12:40:06Z</time>
      </trkpt>
      <trkpt lat="46.69041" lon="5.36759">
        <ele>205.8</ele>
        <time>2021-11-06T12:40:07Z</time>
      </trkpt>
      <trkpt lat="46.69047" lon="5.36779">
        <ele>205</ele>
        <time>2021-11-06T12:40:09Z</time>
      </trkpt>
      <trkpt lat="46.69048" lon="5.36814">
        <ele>204</ele>
        <time>2021-11-06T12:40:12Z</time>
      </trkpt>
      <trkpt lat="46.69049" lon="5.36838">
        <ele>203.8</ele>
        <time>2021-11-06T12:40:14Z</time>
      </trkpt>
      <trkpt lat="46.69052" lon="5.36915">
        <ele>203.8</ele>
        <time>2021-11-06T12:40:21Z</time>
      </trkpt>
      <trkpt lat="46.69054" lon="5.36947">
        <ele>204</ele>
        <time>2021-11-06T12:40:24Z</time>
      </trkpt>
      <trkpt lat="46.69058" lon="5.36965">
        <ele>204.2</ele>
        <time>2021-11-06T12:40:26Z</time>
      </trkpt>
      <trkpt lat="46.6906" lon="5.36974">
        <ele>204.2</ele>
        <time>2021-11-06T12:40:27Z</time>
      </trkpt>
      <trkpt lat="46.69063" lon="5.37011">
        <ele>204.8</ele>
        <time>2021-11-06T12:40:31Z</time>
      </trkpt>
      <trkpt lat="46.69063" lon="5.37029">
        <ele>205.4</ele>
        <time>2021-11-06T12:40:33Z</time>
      </trkpt>
      <trkpt lat="46.69061" lon="5.37074">
        <ele>206</ele>
        <time>2021-11-06T12:40:38Z</time>
      </trkpt>
      <trkpt lat="46.69059" lon="5.371">
        <ele>206.4</ele>
        <time>2021-11-06T12:40:41Z</time>
      </trkpt>
      <trkpt lat="46.69056" lon="5.3715">
        <ele>207.2</ele>
        <time>2021-11-06T12:40:47Z</time>
      </trkpt>
      <trkpt lat="46.69055" lon="5.37167">
        <ele>207.4</ele>
        <time>2021-11-06T12:40:49Z</time>
      </trkpt>
      <trkpt lat="46.69052" lon="5.37218">
        <ele>208.2</ele>
        <time>2021-11-06T12:40:55Z</time>
      </trkpt>
      <trkpt lat="46.69049" lon="5.37237">
        <ele>208.6</ele>
        <time>2021-11-06T12:40:57Z</time>
      </trkpt>
      <trkpt lat="46.69042" lon="5.37269">
        <ele>209.2</ele>
        <time>2021-11-06T12:41:01Z</time>
      </trkpt>
      <trkpt lat="46.6904" lon="5.37277">
        <ele>209.2</ele>
        <time>2021-11-06T12:41:02Z</time>
      </trkpt>
      <trkpt lat="46.69025" lon="5.37308">
        <ele>209.6</ele>
        <time>2021-11-06T12:41:06Z</time>
      </trkpt>
      <trkpt lat="46.69017" lon="5.3732">
        <ele>209.6</ele>
        <time>2021-11-06T12:41:08Z</time>
      </trkpt>
      <trkpt lat="46.68979" lon="5.37368">
        <ele>210.6</ele>
        <time>2021-11-06T12:41:17Z</time>
      </trkpt>
      <trkpt lat="46.68974" lon="5.37373">
        <ele>210.8</ele>
        <time>2021-11-06T12:41:18Z</time>
      </trkpt>
      <trkpt lat="46.68945" lon="5.37404">
        <ele>211.8</ele>
        <time>2021-11-06T12:41:25Z</time>
      </trkpt>
      <trkpt lat="46.68929" lon="5.37424">
        <ele>213</ele>
        <time>2021-11-06T12:41:30Z</time>
      </trkpt>
      <trkpt lat="46.68932" lon="5.37436">
        <ele>213.4</ele>
        <time>2021-11-06T12:41:33Z</time>
      </trkpt>
      <trkpt lat="46.68937" lon="5.37458">
        <ele>214.2</ele>
        <time>2021-11-06T12:41:37Z</time>
      </trkpt>
      <trkpt lat="46.68938" lon="5.37463">
        <ele>214.4</ele>
        <time>2021-11-06T12:41:38Z</time>
      </trkpt>
      <trkpt lat="46.68944" lon="5.3748">
        <ele>215.4</ele>
        <time>2021-11-06T12:41:41Z</time>
      </trkpt>
      <trkpt lat="46.68953" lon="5.37503">
        <ele>216.2</ele>
        <time>2021-11-06T12:41:45Z</time>
      </trkpt>
      <trkpt lat="46.68955" lon="5.37508">
        <ele>216.4</ele>
        <time>2021-11-06T12:41:46Z</time>
      </trkpt>
      <trkpt lat="46.68958" lon="5.37514">
        <ele>216.6</ele>
        <time>2021-11-06T12:41:47Z</time>
      </trkpt>
      <trkpt lat="46.68966" lon="5.37532">
        <ele>217.2</ele>
        <time>2021-11-06T12:41:50Z</time>
      </trkpt>
      <trkpt lat="46.68971" lon="5.37543">
        <ele>217.8</ele>
        <time>2021-11-06T12:41:52Z</time>
      </trkpt>
      <trkpt lat="46.68978" lon="5.37561">
        <ele>218.2</ele>
        <time>2021-11-06T12:41:55Z</time>
      </trkpt>
      <trkpt lat="46.68983" lon="5.37573">
        <ele>218.4</ele>
        <time>2021-11-06T12:41:57Z</time>
      </trkpt>
      <trkpt lat="46.68989" lon="5.37585">
        <ele>218.4</ele>
        <time>2021-11-06T12:41:59Z</time>
      </trkpt>
      <trkpt lat="46.68996" lon="5.37596">
        <ele>218.4</ele>
        <time>2021-11-06T12:42:01Z</time>
      </trkpt>
      <trkpt lat="46.69006" lon="5.37604">
        <ele>218.4</ele>
        <time>2021-11-06T12:42:03Z</time>
      </trkpt>
      <trkpt lat="46.69027" lon="5.37614">
        <ele>218</ele>
        <time>2021-11-06T12:42:07Z</time>
      </trkpt>
      <trkpt lat="46.69032" lon="5.37619">
        <ele>218</ele>
        <time>2021-11-06T12:42:08Z</time>
      </trkpt>
      <trkpt lat="46.69035" lon="5.37624">
        <ele>218</ele>
        <time>2021-11-06T12:42:09Z</time>
      </trkpt>
      <trkpt lat="46.6904" lon="5.3764">
        <ele>217.8</ele>
        <time>2021-11-06T12:42:11Z</time>
      </trkpt>
      <trkpt lat="46.69041" lon="5.37658">
        <ele>217.8</ele>
        <time>2021-11-06T12:42:13Z</time>
      </trkpt>
      <trkpt lat="46.69041" lon="5.37677">
        <ele>217.8</ele>
        <time>2021-11-06T12:42:15Z</time>
      </trkpt>
      <trkpt lat="46.69038" lon="5.37741">
        <ele>216.6</ele>
        <time>2021-11-06T12:42:21Z</time>
      </trkpt>
      <trkpt lat="46.69036" lon="5.37782">
        <ele>215.4</ele>
        <time>2021-11-06T12:42:24Z</time>
      </trkpt>
      <trkpt lat="46.69035" lon="5.3781">
        <ele>214.6</ele>
        <time>2021-11-06T12:42:26Z</time>
      </trkpt>
      <trkpt lat="46.69035" lon="5.37822">
        <ele>213.8</ele>
        <time>2021-11-06T12:42:27Z</time>
      </trkpt>
      <trkpt lat="46.69032" lon="5.37869">
        <ele>212.4</ele>
        <time>2021-11-06T12:42:30Z</time>
      </trkpt>
      <trkpt lat="46.6903" lon="5.37885">
        <ele>211.6</ele>
        <time>2021-11-06T12:42:31Z</time>
      </trkpt>
      <trkpt lat="46.69026" lon="5.37899">
        <ele>211.2</ele>
        <time>2021-11-06T12:42:32Z</time>
      </trkpt>
      <trkpt lat="46.6902" lon="5.37913">
        <ele>210.4</ele>
        <time>2021-11-06T12:42:33Z</time>
      </trkpt>
      <trkpt lat="46.69014" lon="5.37926">
        <ele>209.4</ele>
        <time>2021-11-06T12:42:34Z</time>
      </trkpt>
      <trkpt lat="46.69002" lon="5.37949">
        <ele>207.6</ele>
        <time>2021-11-06T12:42:36Z</time>
      </trkpt>
      <trkpt lat="46.68989" lon="5.37971">
        <ele>206.6</ele>
        <time>2021-11-06T12:42:38Z</time>
      </trkpt>
      <trkpt lat="46.68983" lon="5.37982">
        <ele>206.4</ele>
        <time>2021-11-06T12:42:39Z</time>
      </trkpt>
      <trkpt lat="46.68978" lon="5.37993">
        <ele>206</ele>
        <time>2021-11-06T12:42:40Z</time>
      </trkpt>
      <trkpt lat="46.68971" lon="5.38018">
        <ele>205.4</ele>
        <time>2021-11-06T12:42:42Z</time>
      </trkpt>
      <trkpt lat="46.68971" lon="5.38048">
        <ele>204.8</ele>
        <time>2021-11-06T12:42:44Z</time>
      </trkpt>
      <trkpt lat="46.68972" lon="5.38061">
        <ele>204.6</ele>
        <time>2021-11-06T12:42:45Z</time>
      </trkpt>
      <trkpt lat="46.68979" lon="5.38098">
        <ele>204.4</ele>
        <time>2021-11-06T12:42:48Z</time>
      </trkpt>
      <trkpt lat="46.68983" lon="5.38122">
        <ele>204.4</ele>
        <time>2021-11-06T12:42:50Z</time>
      </trkpt>
      <trkpt lat="46.68992" lon="5.38172">
        <ele>205</ele>
        <time>2021-11-06T12:42:55Z</time>
      </trkpt>
      <trkpt lat="46.68997" lon="5.38199">
        <ele>206</ele>
        <time>2021-11-06T12:42:58Z</time>
      </trkpt>
      <trkpt lat="46.69002" lon="5.38223">
        <ele>207.2</ele>
        <time>2021-11-06T12:43:01Z</time>
      </trkpt>
      <trkpt lat="46.69008" lon="5.38261">
        <ele>208.2</ele>
        <time>2021-11-06T12:43:06Z</time>
      </trkpt>
      <trkpt lat="46.69011" lon="5.38275">
        <ele>209.2</ele>
        <time>2021-11-06T12:43:08Z</time>
      </trkpt>
      <trkpt lat="46.69012" lon="5.38282">
        <ele>209.4</ele>
        <time>2021-11-06T12:43:09Z</time>
      </trkpt>
      <trkpt lat="46.69016" lon="5.3831">
        <ele>210.4</ele>
        <time>2021-11-06T12:43:13Z</time>
      </trkpt>
      <trkpt lat="46.69018" lon="5.38324">
        <ele>211.4</ele>
        <time>2021-11-06T12:43:15Z</time>
      </trkpt>
      <trkpt lat="46.69022" lon="5.38344">
        <ele>212.4</ele>
        <time>2021-11-06T12:43:18Z</time>
      </trkpt>
      <trkpt lat="46.69023" lon="5.38351">
        <ele>212.6</ele>
        <time>2021-11-06T12:43:19Z</time>
      </trkpt>
      <trkpt lat="46.69029" lon="5.38385">
        <ele>214</ele>
        <time>2021-11-06T12:43:24Z</time>
      </trkpt>
      <trkpt lat="46.69035" lon="5.38411">
        <ele>215</ele>
        <time>2021-11-06T12:43:28Z</time>
      </trkpt>
      <trkpt lat="46.69036" lon="5.38418">
        <ele>215.2</ele>
        <time>2021-11-06T12:43:29Z</time>
      </trkpt>
      <trkpt lat="46.69043" lon="5.38459">
        <ele>216.4</ele>
        <time>2021-11-06T12:43:35Z</time>
      </trkpt>
      <trkpt lat="46.69045" lon="5.38473">
        <ele>216.8</ele>
        <time>2021-11-06T12:43:37Z</time>
      </trkpt>
      <trkpt lat="46.69051" lon="5.38505">
        <ele>217.8</ele>
        <time>2021-11-06T12:43:42Z</time>
      </trkpt>
      <trkpt lat="46.69056" lon="5.38524">
        <ele>218.4</ele>
        <time>2021-11-06T12:43:45Z</time>
      </trkpt>
      <trkpt lat="46.6906" lon="5.38536">
        <ele>218.8</ele>
        <time>2021-11-06T12:43:47Z</time>
      </trkpt>
      <trkpt lat="46.69077" lon="5.3859">
        <ele>219.4</ele>
        <time>2021-11-06T12:43:55Z</time>
      </trkpt>
      <trkpt lat="46.69089" lon="5.38632">
        <ele>219.8</ele>
        <time>2021-11-06T12:44:01Z</time>
      </trkpt>
      <trkpt lat="46.69091" lon="5.3864">
        <ele>219.8</ele>
        <time>2021-11-06T12:44:02Z</time>
      </trkpt>
      <trkpt lat="46.69092" lon="5.3869">
        <ele>219.8</ele>
        <time>2021-11-06T12:44:08Z</time>
      </trkpt>
      <trkpt lat="46.69085" lon="5.3875">
        <ele>219.8</ele>
        <time>2021-11-06T12:44:15Z</time>
      </trkpt>
      <trkpt lat="46.6907" lon="5.388">
        <ele>219.8</ele>
        <time>2021-11-06T12:44:22Z</time>
      </trkpt>
      <trkpt lat="46.69067" lon="5.3881">
        <ele>219.8</ele>
        <time>2021-11-06T12:44:25Z</time>
      </trkpt>
      <trkpt lat="46.69067" lon="5.3881">
        <ele>220</ele>
        <time>2021-11-06T12:44:26Z</time>
      </trkpt>
      <trkpt lat="46.69067" lon="5.3881">
        <ele>220</ele>
        <time>2021-11-06T12:44:28Z</time>
      </trkpt>
      <trkpt lat="46.69066" lon="5.38816">
        <ele>220</ele>
        <time>2021-11-06T12:45:42Z</time>
      </trkpt>
      <trkpt lat="46.69065" lon="5.38819">
        <ele>220</ele>
        <time>2021-11-06T12:45:43Z</time>
      </trkpt>
      <trkpt lat="46.69059" lon="5.38839">
        <ele>220</ele>
        <time>2021-11-06T12:45:47Z</time>
      </trkpt>
      <trkpt lat="46.69044" lon="5.3889">
        <ele>220.2</ele>
        <time>2021-11-06T12:45:54Z</time>
      </trkpt>
      <trkpt lat="46.69027" lon="5.38945">
        <ele>220.4</ele>
        <time>2021-11-06T12:46:01Z</time>
      </trkpt>
      <trkpt lat="46.69011" lon="5.38997">
        <ele>220.8</ele>
        <time>2021-11-06T12:46:08Z</time>
      </trkpt>
      <trkpt lat="46.69006" lon="5.39014">
        <ele>221</ele>
        <time>2021-11-06T12:46:09Z</time>
      </trkpt>
      <trkpt lat="46.68995" lon="5.39049">
        <ele>221.4</ele>
        <time>2021-11-06T12:46:13Z</time>
      </trkpt>
      <trkpt lat="46.68982" lon="5.39093">
        <ele>221.6</ele>
        <time>2021-11-06T12:46:18Z</time>
      </trkpt>
      <trkpt lat="46.68956" lon="5.39164">
        <ele>221.6</ele>
        <time>2021-11-06T12:46:26Z</time>
      </trkpt>
      <trkpt lat="46.68921" lon="5.39214">
        <ele>221</ele>
        <time>2021-11-06T12:46:33Z</time>
      </trkpt>
      <trkpt lat="46.68904" lon="5.39234">
        <ele>220.8</ele>
        <time>2021-11-06T12:46:36Z</time>
      </trkpt>
      <trkpt lat="46.68891" lon="5.39244">
        <ele>220.8</ele>
        <time>2021-11-06T12:46:38Z</time>
      </trkpt>
      <trkpt lat="46.68838" lon="5.39281">
        <ele>221.4</ele>
        <time>2021-11-06T12:46:46Z</time>
      </trkpt>
      <trkpt lat="46.68831" lon="5.39286">
        <ele>221.4</ele>
        <time>2021-11-06T12:46:47Z</time>
      </trkpt>
      <trkpt lat="46.68784" lon="5.39321">
        <ele>220.8</ele>
        <time>2021-11-06T12:46:54Z</time>
      </trkpt>
      <trkpt lat="46.68766" lon="5.39344">
        <ele>220.2</ele>
        <time>2021-11-06T12:46:57Z</time>
      </trkpt>
      <trkpt lat="46.68761" lon="5.39356">
        <ele>220</ele>
        <time>2021-11-06T12:46:58Z</time>
      </trkpt>
      <trkpt lat="46.68758" lon="5.39368">
        <ele>219.6</ele>
        <time>2021-11-06T12:46:59Z</time>
      </trkpt>
      <trkpt lat="46.68746" lon="5.39414">
        <ele>219.4</ele>
        <time>2021-11-06T12:47:03Z</time>
      </trkpt>
      <trkpt lat="46.68735" lon="5.3946">
        <ele>219</ele>
        <time>2021-11-06T12:47:07Z</time>
      </trkpt>
      <trkpt lat="46.68718" lon="5.39519">
        <ele>217.4</ele>
        <time>2021-11-06T12:47:12Z</time>
      </trkpt>
      <trkpt lat="46.68708" lon="5.39543">
        <ele>216.4</ele>
        <time>2021-11-06T12:47:14Z</time>
      </trkpt>
      <trkpt lat="46.68697" lon="5.39565">
        <ele>215.8</ele>
        <time>2021-11-06T12:47:16Z</time>
      </trkpt>
      <trkpt lat="46.68685" lon="5.39587">
        <ele>215.2</ele>
        <time>2021-11-06T12:47:18Z</time>
      </trkpt>
      <trkpt lat="46.68661" lon="5.39629">
        <ele>214</ele>
        <time>2021-11-06T12:47:22Z</time>
      </trkpt>
      <trkpt lat="46.68655" lon="5.3964">
        <ele>213.8</ele>
        <time>2021-11-06T12:47:23Z</time>
      </trkpt>
      <trkpt lat="46.68622" lon="5.39702">
        <ele>213.8</ele>
        <time>2021-11-06T12:47:29Z</time>
      </trkpt>
      <trkpt lat="46.68617" lon="5.39713">
        <ele>213.6</ele>
        <time>2021-11-06T12:47:30Z</time>
      </trkpt>
      <trkpt lat="46.68613" lon="5.39725">
        <ele>213.6</ele>
        <time>2021-11-06T12:47:31Z</time>
      </trkpt>
      <trkpt lat="46.6861" lon="5.39736">
        <ele>213.6</ele>
        <time>2021-11-06T12:47:32Z</time>
      </trkpt>
      <trkpt lat="46.68608" lon="5.39759">
        <ele>213.8</ele>
        <time>2021-11-06T12:47:34Z</time>
      </trkpt>
      <trkpt lat="46.68603" lon="5.39802">
        <ele>214</ele>
        <time>2021-11-06T12:47:38Z</time>
      </trkpt>
      <trkpt lat="46.68601" lon="5.39811">
        <ele>214</ele>
        <time>2021-11-06T12:47:39Z</time>
      </trkpt>
      <trkpt lat="46.68586" lon="5.3985">
        <ele>215</ele>
        <time>2021-11-06T12:47:44Z</time>
      </trkpt>
      <trkpt lat="46.6858" lon="5.39866">
        <ele>216</ele>
        <time>2021-11-06T12:47:47Z</time>
      </trkpt>
      <trkpt lat="46.68579" lon="5.39871">
        <ele>216.4</ele>
        <time>2021-11-06T12:47:48Z</time>
      </trkpt>
      <trkpt lat="46.6858" lon="5.3988">
        <ele>217.4</ele>
        <time>2021-11-06T12:47:50Z</time>
      </trkpt>
      <trkpt lat="46.68582" lon="5.39884">
        <ele>217.6</ele>
        <time>2021-11-06T12:47:51Z</time>
      </trkpt>
      <trkpt lat="46.68586" lon="5.39887">
        <ele>217.8</ele>
        <time>2021-11-06T12:47:52Z</time>
      </trkpt>
      <trkpt lat="46.686" lon="5.39892">
        <ele>218.4</ele>
        <time>2021-11-06T12:47:55Z</time>
      </trkpt>
      <trkpt lat="46.6861" lon="5.39896">
        <ele>218.8</ele>
        <time>2021-11-06T12:47:57Z</time>
      </trkpt>
      <trkpt lat="46.68636" lon="5.39911">
        <ele>219.8</ele>
        <time>2021-11-06T12:48:02Z</time>
      </trkpt>
      <trkpt lat="46.68642" lon="5.39914">
        <ele>219.8</ele>
        <time>2021-11-06T12:48:03Z</time>
      </trkpt>
      <trkpt lat="46.6867" lon="5.39933">
        <ele>220.8</ele>
        <time>2021-11-06T12:48:08Z</time>
      </trkpt>
      <trkpt lat="46.68675" lon="5.39938">
        <ele>220.8</ele>
        <time>2021-11-06T12:48:09Z</time>
      </trkpt>
      <trkpt lat="46.68695" lon="5.39962">
        <ele>221</ele>
        <time>2021-11-06T12:48:13Z</time>
      </trkpt>
      <trkpt lat="46.68734" lon="5.4002">
        <ele>220</ele>
        <time>2021-11-06T12:48:22Z</time>
      </trkpt>
      <trkpt lat="46.68742" lon="5.40032">
        <ele>220</ele>
        <time>2021-11-06T12:48:24Z</time>
      </trkpt>
      <trkpt lat="46.68746" lon="5.40038">
        <ele>220</ele>
        <time>2021-11-06T12:48:25Z</time>
      </trkpt>
      <trkpt lat="46.68776" lon="5.40086">
        <ele>220.4</ele>
        <time>2021-11-06T12:48:33Z</time>
      </trkpt>
      <trkpt lat="46.68799" lon="5.40117">
        <ele>221.2</ele>
        <time>2021-11-06T12:48:39Z</time>
      </trkpt>
      <trkpt lat="46.68808" lon="5.40126">
        <ele>221.6</ele>
        <time>2021-11-06T12:48:41Z</time>
      </trkpt>
      <trkpt lat="46.68846" lon="5.4016">
        <ele>222.2</ele>
        <time>2021-11-06T12:48:49Z</time>
      </trkpt>
      <trkpt lat="46.68884" lon="5.40183">
        <ele>222.2</ele>
        <time>2021-11-06T12:48:56Z</time>
      </trkpt>
      <trkpt lat="46.6894" lon="5.40204">
        <ele>221.4</ele>
        <time>2021-11-06T12:49:05Z</time>
      </trkpt>
      <trkpt lat="46.6895" lon="5.40216">
        <ele>221.2</ele>
        <time>2021-11-06T12:49:07Z</time>
      </trkpt>
      <trkpt lat="46.68953" lon="5.40225">
        <ele>221.2</ele>
        <time>2021-11-06T12:49:08Z</time>
      </trkpt>
      <trkpt lat="46.68954" lon="5.40235">
        <ele>221</ele>
        <time>2021-11-06T12:49:09Z</time>
      </trkpt>
      <trkpt lat="46.68954" lon="5.40267">
        <ele>220.6</ele>
        <time>2021-11-06T12:49:12Z</time>
      </trkpt>
      <trkpt lat="46.68954" lon="5.40279">
        <ele>220.4</ele>
        <time>2021-11-06T12:49:13Z</time>
      </trkpt>
      <trkpt lat="46.6896" lon="5.40335">
        <ele>219.6</ele>
        <time>2021-11-06T12:49:18Z</time>
      </trkpt>
      <trkpt lat="46.68976" lon="5.40416">
        <ele>219.8</ele>
        <time>2021-11-06T12:49:26Z</time>
      </trkpt>
      <trkpt lat="46.68992" lon="5.40457">
        <ele>220.2</ele>
        <time>2021-11-06T12:49:31Z</time>
      </trkpt>
      <trkpt lat="46.69017" lon="5.40505">
        <ele>221.2</ele>
        <time>2021-11-06T12:49:38Z</time>
      </trkpt>
      <trkpt lat="46.69045" lon="5.40557">
        <ele>221.4</ele>
        <time>2021-11-06T12:49:46Z</time>
      </trkpt>
      <trkpt lat="46.69073" lon="5.40615">
        <ele>222.2</ele>
        <time>2021-11-06T12:49:54Z</time>
      </trkpt>
      <trkpt lat="46.69077" lon="5.40623">
        <ele>222.4</ele>
        <time>2021-11-06T12:49:55Z</time>
      </trkpt>
      <trkpt lat="46.69107" lon="5.40683">
        <ele>223.2</ele>
        <time>2021-11-06T12:50:03Z</time>
      </trkpt>
      <trkpt lat="46.69136" lon="5.40742">
        <ele>223.2</ele>
        <time>2021-11-06T12:50:11Z</time>
      </trkpt>
      <trkpt lat="46.69155" lon="5.40779">
        <ele>223.4</ele>
        <time>2021-11-06T12:50:16Z</time>
      </trkpt>
      <trkpt lat="46.6917" lon="5.40809">
        <ele>223.6</ele>
        <time>2021-11-06T12:50:20Z</time>
      </trkpt>
      <trkpt lat="46.69203" lon="5.40878">
        <ele>223.8</ele>
        <time>2021-11-06T12:50:29Z</time>
      </trkpt>
      <trkpt lat="46.69211" lon="5.40893">
        <ele>223.8</ele>
        <time>2021-11-06T12:50:31Z</time>
      </trkpt>
      <trkpt lat="46.69243" lon="5.40956">
        <ele>224</ele>
        <time>2021-11-06T12:50:39Z</time>
      </trkpt>
      <trkpt lat="46.69252" lon="5.40973">
        <ele>223.8</ele>
        <time>2021-11-06T12:50:41Z</time>
      </trkpt>
      <trkpt lat="46.69285" lon="5.41037">
        <ele>223.2</ele>
        <time>2021-11-06T12:50:48Z</time>
      </trkpt>
      <trkpt lat="46.6929" lon="5.41047">
        <ele>223</ele>
        <time>2021-11-06T12:50:49Z</time>
      </trkpt>
      <trkpt lat="46.6931" lon="5.41085">
        <ele>222.4</ele>
        <time>2021-11-06T12:50:53Z</time>
      </trkpt>
      <trkpt lat="46.69332" lon="5.41127">
        <ele>221.2</ele>
        <time>2021-11-06T12:50:57Z</time>
      </trkpt>
      <trkpt lat="46.69354" lon="5.41171">
        <ele>219.8</ele>
        <time>2021-11-06T12:51:01Z</time>
      </trkpt>
      <trkpt lat="46.69367" lon="5.41194">
        <ele>218.4</ele>
        <time>2021-11-06T12:51:03Z</time>
      </trkpt>
      <trkpt lat="46.69386" lon="5.41228">
        <ele>217</ele>
        <time>2021-11-06T12:51:06Z</time>
      </trkpt>
      <trkpt lat="46.69404" lon="5.41264">
        <ele>216.2</ele>
        <time>2021-11-06T12:51:09Z</time>
      </trkpt>
      <trkpt lat="46.69411" lon="5.41276">
        <ele>215.6</ele>
        <time>2021-11-06T12:51:10Z</time>
      </trkpt>
      <trkpt lat="46.69424" lon="5.413">
        <ele>214.8</ele>
        <time>2021-11-06T12:51:12Z</time>
      </trkpt>
      <trkpt lat="46.69437" lon="5.41323">
        <ele>213.8</ele>
        <time>2021-11-06T12:51:14Z</time>
      </trkpt>
      <trkpt lat="46.6945" lon="5.41346">
        <ele>212.6</ele>
        <time>2021-11-06T12:51:16Z</time>
      </trkpt>
      <trkpt lat="46.69457" lon="5.41357">
        <ele>212.2</ele>
        <time>2021-11-06T12:51:17Z</time>
      </trkpt>
      <trkpt lat="46.69475" lon="5.41389">
        <ele>211.6</ele>
        <time>2021-11-06T12:51:20Z</time>
      </trkpt>
      <trkpt lat="46.69487" lon="5.4141">
        <ele>211.4</ele>
        <time>2021-11-06T12:51:22Z</time>
      </trkpt>
      <trkpt lat="46.69525" lon="5.41478">
        <ele>210.8</ele>
        <time>2021-11-06T12:51:29Z</time>
      </trkpt>
      <trkpt lat="46.6956" lon="5.41542">
        <ele>211.2</ele>
        <time>2021-11-06T12:51:36Z</time>
      </trkpt>
      <trkpt lat="46.69569" lon="5.41559">
        <ele>211.2</ele>
        <time>2021-11-06T12:51:38Z</time>
      </trkpt>
      <trkpt lat="46.69601" lon="5.41616">
        <ele>211.6</ele>
        <time>2021-11-06T12:51:45Z</time>
      </trkpt>
      <trkpt lat="46.69627" lon="5.41668">
        <ele>212.2</ele>
        <time>2021-11-06T12:51:52Z</time>
      </trkpt>
      <trkpt lat="46.69636" lon="5.4169">
        <ele>212.6</ele>
        <time>2021-11-06T12:51:55Z</time>
      </trkpt>
      <trkpt lat="46.69642" lon="5.41706">
        <ele>213</ele>
        <time>2021-11-06T12:51:57Z</time>
      </trkpt>
      <trkpt lat="46.69644" lon="5.41714">
        <ele>213.2</ele>
        <time>2021-11-06T12:51:58Z</time>
      </trkpt>
      <trkpt lat="46.69653" lon="5.41753">
        <ele>213.8</ele>
        <time>2021-11-06T12:52:03Z</time>
      </trkpt>
      <trkpt lat="46.69657" lon="5.41779">
        <ele>214.8</ele>
        <time>2021-11-06T12:52:06Z</time>
      </trkpt>
      <trkpt lat="46.69661" lon="5.41814">
        <ele>216</ele>
        <time>2021-11-06T12:52:10Z</time>
      </trkpt>
      <trkpt lat="46.69663" lon="5.41841">
        <ele>216.6</ele>
        <time>2021-11-06T12:52:13Z</time>
      </trkpt>
      <trkpt lat="46.69665" lon="5.41868">
        <ele>217.2</ele>
        <time>2021-11-06T12:52:16Z</time>
      </trkpt>
      <trkpt lat="46.6967" lon="5.41922">
        <ele>218.2</ele>
        <time>2021-11-06T12:52:22Z</time>
      </trkpt>
      <trkpt lat="46.69678" lon="5.42008">
        <ele>218.8</ele>
        <time>2021-11-06T12:52:31Z</time>
      </trkpt>
      <trkpt lat="46.69691" lon="5.42091">
        <ele>219.2</ele>
        <time>2021-11-06T12:52:40Z</time>
      </trkpt>
      <trkpt lat="46.69693" lon="5.421">
        <ele>219.2</ele>
        <time>2021-11-06T12:52:41Z</time>
      </trkpt>
      <trkpt lat="46.69695" lon="5.42109">
        <ele>219.2</ele>
        <time>2021-11-06T12:52:42Z</time>
      </trkpt>
      <trkpt lat="46.69708" lon="5.42141">
        <ele>219.2</ele>
        <time>2021-11-06T12:52:46Z</time>
      </trkpt>
      <trkpt lat="46.69715" lon="5.42155">
        <ele>219.4</ele>
        <time>2021-11-06T12:52:48Z</time>
      </trkpt>
      <trkpt lat="46.69734" lon="5.42179">
        <ele>219.8</ele>
        <time>2021-11-06T12:52:52Z</time>
      </trkpt>
      <trkpt lat="46.69767" lon="5.42205">
        <ele>220.4</ele>
        <time>2021-11-06T12:52:58Z</time>
      </trkpt>
      <trkpt lat="46.69798" lon="5.42218">
        <ele>220.4</ele>
        <time>2021-11-06T12:53:03Z</time>
      </trkpt>
      <trkpt lat="46.6981" lon="5.42223">
        <ele>220.6</ele>
        <time>2021-11-06T12:53:05Z</time>
      </trkpt>
      <trkpt lat="46.69865" lon="5.42241">
        <ele>220.6</ele>
        <time>2021-11-06T12:53:14Z</time>
      </trkpt>
      <trkpt lat="46.69879" lon="5.42244">
        <ele>220.4</ele>
        <time>2021-11-06T12:53:16Z</time>
      </trkpt>
      <trkpt lat="46.69914" lon="5.42246">
        <ele>219.4</ele>
        <time>2021-11-06T12:53:21Z</time>
      </trkpt>
      <trkpt lat="46.69929" lon="5.42246">
        <ele>219</ele>
        <time>2021-11-06T12:53:23Z</time>
      </trkpt>
      <trkpt lat="46.69951" lon="5.42247">
        <ele>218.4</ele>
        <time>2021-11-06T12:53:26Z</time>
      </trkpt>
      <trkpt lat="46.69998" lon="5.42249">
        <ele>217.2</ele>
        <time>2021-11-06T12:53:32Z</time>
      </trkpt>
      <trkpt lat="46.70038" lon="5.42251">
        <ele>216.2</ele>
        <time>2021-11-06T12:53:37Z</time>
      </trkpt>
      <trkpt lat="46.70061" lon="5.42252">
        <ele>215.6</ele>
        <time>2021-11-06T12:53:40Z</time>
      </trkpt>
      <trkpt lat="46.70091" lon="5.42253">
        <ele>215.2</ele>
        <time>2021-11-06T12:53:44Z</time>
      </trkpt>
      <trkpt lat="46.70112" lon="5.42254">
        <ele>215</ele>
        <time>2021-11-06T12:53:47Z</time>
      </trkpt>
      <trkpt lat="46.70171" lon="5.42256">
        <ele>214.6</ele>
        <time>2021-11-06T12:53:55Z</time>
      </trkpt>
      <trkpt lat="46.70186" lon="5.42257">
        <ele>214.4</ele>
        <time>2021-11-06T12:53:57Z</time>
      </trkpt>
      <trkpt lat="46.70216" lon="5.42258">
        <ele>214.2</ele>
        <time>2021-11-06T12:54:01Z</time>
      </trkpt>
      <trkpt lat="46.70267" lon="5.42259">
        <ele>213.2</ele>
        <time>2021-11-06T12:54:08Z</time>
      </trkpt>
      <trkpt lat="46.70317" lon="5.42262">
        <ele>212</ele>
        <time>2021-11-06T12:54:15Z</time>
      </trkpt>
      <trkpt lat="46.70372" lon="5.42264">
        <ele>211.8</ele>
        <time>2021-11-06T12:54:23Z</time>
      </trkpt>
      <trkpt lat="46.70385" lon="5.42266">
        <ele>211.8</ele>
        <time>2021-11-06T12:54:25Z</time>
      </trkpt>
      <trkpt lat="46.70405" lon="5.42272">
        <ele>212</ele>
        <time>2021-11-06T12:54:28Z</time>
      </trkpt>
      <trkpt lat="46.70417" lon="5.4228">
        <ele>212.2</ele>
        <time>2021-11-06T12:54:30Z</time>
      </trkpt>
      <trkpt lat="46.70434" lon="5.42295">
        <ele>212.4</ele>
        <time>2021-11-06T12:54:33Z</time>
      </trkpt>
      <trkpt lat="46.70445" lon="5.42308">
        <ele>212.4</ele>
        <time>2021-11-06T12:54:35Z</time>
      </trkpt>
      <trkpt lat="46.70473" lon="5.42349">
        <ele>211.4</ele>
        <time>2021-11-06T12:54:40Z</time>
      </trkpt>
      <trkpt lat="46.70484" lon="5.42365">
        <ele>210.8</ele>
        <time>2021-11-06T12:54:42Z</time>
      </trkpt>
      <trkpt lat="46.70511" lon="5.42407">
        <ele>209.8</ele>
        <time>2021-11-06T12:54:47Z</time>
      </trkpt>
      <trkpt lat="46.70517" lon="5.42415">
        <ele>209.8</ele>
        <time>2021-11-06T12:54:48Z</time>
      </trkpt>
      <trkpt lat="46.70544" lon="5.42455">
        <ele>208.6</ele>
        <time>2021-11-06T12:54:53Z</time>
      </trkpt>
      <trkpt lat="46.70565" lon="5.42487">
        <ele>208.2</ele>
        <time>2021-11-06T12:54:57Z</time>
      </trkpt>
      <trkpt lat="46.70605" lon="5.42548">
        <ele>207.6</ele>
        <time>2021-11-06T12:55:05Z</time>
      </trkpt>
      <trkpt lat="46.7061" lon="5.42555">
        <ele>207.6</ele>
        <time>2021-11-06T12:55:06Z</time>
      </trkpt>
      <trkpt lat="46.70651" lon="5.42619">
        <ele>207.6</ele>
        <time>2021-11-06T12:55:15Z</time>
      </trkpt>
      <trkpt lat="46.70656" lon="5.42626">
        <ele>207.6</ele>
        <time>2021-11-06T12:55:16Z</time>
      </trkpt>
      <trkpt lat="46.70697" lon="5.42688">
        <ele>207.8</ele>
        <time>2021-11-06T12:55:25Z</time>
      </trkpt>
      <trkpt lat="46.70737" lon="5.42748">
        <ele>207.2</ele>
        <time>2021-11-06T12:55:33Z</time>
      </trkpt>
      <trkpt lat="46.70775" lon="5.42804">
        <ele>206.6</ele>
        <time>2021-11-06T12:55:40Z</time>
      </trkpt>
      <trkpt lat="46.70786" lon="5.4282">
        <ele>206.4</ele>
        <time>2021-11-06T12:55:42Z</time>
      </trkpt>
      <trkpt lat="46.70829" lon="5.42883">
        <ele>205.6</ele>
        <time>2021-11-06T12:55:50Z</time>
      </trkpt>
      <trkpt lat="46.70851" lon="5.42916">
        <ele>205.2</ele>
        <time>2021-11-06T12:55:54Z</time>
      </trkpt>
      <trkpt lat="46.70879" lon="5.42957">
        <ele>204.6</ele>
        <time>2021-11-06T12:55:59Z</time>
      </trkpt>
      <trkpt lat="46.70901" lon="5.4299">
        <ele>204</ele>
        <time>2021-11-06T12:56:03Z</time>
      </trkpt>
      <trkpt lat="46.70941" lon="5.43052">
        <ele>203.6</ele>
        <time>2021-11-06T12:56:11Z</time>
      </trkpt>
      <trkpt lat="46.70946" lon="5.4306">
        <ele>203.6</ele>
        <time>2021-11-06T12:56:12Z</time>
      </trkpt>
      <trkpt lat="46.70984" lon="5.43117">
        <ele>203.8</ele>
        <time>2021-11-06T12:56:20Z</time>
      </trkpt>
      <trkpt lat="46.70989" lon="5.43124">
        <ele>204</ele>
        <time>2021-11-06T12:56:21Z</time>
      </trkpt>
      <trkpt lat="46.71014" lon="5.43168">
        <ele>204.2</ele>
        <time>2021-11-06T12:56:27Z</time>
      </trkpt>
      <trkpt lat="46.71018" lon="5.43185">
        <ele>204.4</ele>
        <time>2021-11-06T12:56:29Z</time>
      </trkpt>
      <trkpt lat="46.71018" lon="5.43217">
        <ele>205</ele>
        <time>2021-11-06T12:56:33Z</time>
      </trkpt>
      <trkpt lat="46.71018" lon="5.43224">
        <ele>205.4</ele>
        <time>2021-11-06T12:56:34Z</time>
      </trkpt>
      <trkpt lat="46.71018" lon="5.43231">
        <ele>205.6</ele>
        <time>2021-11-06T12:56:35Z</time>
      </trkpt>
      <trkpt lat="46.71015" lon="5.4326">
        <ele>206.4</ele>
        <time>2021-11-06T12:56:39Z</time>
      </trkpt>
      <trkpt lat="46.71014" lon="5.43267">
        <ele>206.6</ele>
        <time>2021-11-06T12:56:40Z</time>
      </trkpt>
      <trkpt lat="46.71009" lon="5.43311">
        <ele>207.6</ele>
        <time>2021-11-06T12:56:46Z</time>
      </trkpt>
      <trkpt lat="46.71009" lon="5.43318">
        <ele>207.6</ele>
        <time>2021-11-06T12:56:47Z</time>
      </trkpt>
      <trkpt lat="46.71008" lon="5.43325">
        <ele>207.8</ele>
        <time>2021-11-06T12:56:48Z</time>
      </trkpt>
      <trkpt lat="46.71007" lon="5.43332">
        <ele>208</ele>
        <time>2021-11-06T12:56:49Z</time>
      </trkpt>
      <trkpt lat="46.71004" lon="5.43361">
        <ele>209</ele>
        <time>2021-11-06T12:56:53Z</time>
      </trkpt>
      <trkpt lat="46.71003" lon="5.43368">
        <ele>209.2</ele>
        <time>2021-11-06T12:56:54Z</time>
      </trkpt>
      <trkpt lat="46.71001" lon="5.43383">
        <ele>209.8</ele>
        <time>2021-11-06T12:56:56Z</time>
      </trkpt>
      <trkpt lat="46.70999" lon="5.43399">
        <ele>210.2</ele>
        <time>2021-11-06T12:56:58Z</time>
      </trkpt>
      <trkpt lat="46.70998" lon="5.43414">
        <ele>210.8</ele>
        <time>2021-11-06T12:57:00Z</time>
      </trkpt>
      <trkpt lat="46.70996" lon="5.43436">
        <ele>211.2</ele>
        <time>2021-11-06T12:57:03Z</time>
      </trkpt>
      <trkpt lat="46.70995" lon="5.43459">
        <ele>212.4</ele>
        <time>2021-11-06T12:57:06Z</time>
      </trkpt>
      <trkpt lat="46.70993" lon="5.4348">
        <ele>213</ele>
        <time>2021-11-06T12:57:09Z</time>
      </trkpt>
      <trkpt lat="46.70989" lon="5.43508">
        <ele>213.6</ele>
        <time>2021-11-06T12:57:13Z</time>
      </trkpt>
      <trkpt lat="46.70986" lon="5.43549">
        <ele>214.8</ele>
        <time>2021-11-06T12:57:19Z</time>
      </trkpt>
      <trkpt lat="46.70984" lon="5.43583">
        <ele>215.8</ele>
        <time>2021-11-06T12:57:24Z</time>
      </trkpt>
      <trkpt lat="46.70982" lon="5.43603">
        <ele>216.4</ele>
        <time>2021-11-06T12:57:27Z</time>
      </trkpt>
      <trkpt lat="46.70982" lon="5.43609">
        <ele>216.6</ele>
        <time>2021-11-06T12:57:28Z</time>
      </trkpt>
      <trkpt lat="46.70981" lon="5.43622">
        <ele>217</ele>
        <time>2021-11-06T12:57:30Z</time>
      </trkpt>
      <trkpt lat="46.70979" lon="5.43641">
        <ele>218</ele>
        <time>2021-11-06T12:57:33Z</time>
      </trkpt>
      <trkpt lat="46.70978" lon="5.43647">
        <ele>218.4</ele>
        <time>2021-11-06T12:57:34Z</time>
      </trkpt>
      <trkpt lat="46.70977" lon="5.4366">
        <ele>219</ele>
        <time>2021-11-06T12:57:36Z</time>
      </trkpt>
      <trkpt lat="46.70975" lon="5.43685">
        <ele>220</ele>
        <time>2021-11-06T12:57:40Z</time>
      </trkpt>
      <trkpt lat="46.70974" lon="5.43691">
        <ele>220.2</ele>
        <time>2021-11-06T12:57:41Z</time>
      </trkpt>
      <trkpt lat="46.7097" lon="5.43728">
        <ele>221.4</ele>
        <time>2021-11-06T12:57:47Z</time>
      </trkpt>
      <trkpt lat="46.70969" lon="5.4374">
        <ele>222</ele>
        <time>2021-11-06T12:57:49Z</time>
      </trkpt>
      <trkpt lat="46.70969" lon="5.43747">
        <ele>222.4</ele>
        <time>2021-11-06T12:57:50Z</time>
      </trkpt>
      <trkpt lat="46.70965" lon="5.43779">
        <ele>223.4</ele>
        <time>2021-11-06T12:57:55Z</time>
      </trkpt>
      <trkpt lat="46.70963" lon="5.43798">
        <ele>223.8</ele>
        <time>2021-11-06T12:57:58Z</time>
      </trkpt>
      <trkpt lat="46.70962" lon="5.43819">
        <ele>224</ele>
        <time>2021-11-06T12:58:01Z</time>
      </trkpt>
      <trkpt lat="46.7096" lon="5.4384">
        <ele>224.4</ele>
        <time>2021-11-06T12:58:04Z</time>
      </trkpt>
      <trkpt lat="46.70955" lon="5.439">
        <ele>225.6</ele>
        <time>2021-11-06T12:58:12Z</time>
      </trkpt>
      <trkpt lat="46.70954" lon="5.43916">
        <ele>226</ele>
        <time>2021-11-06T12:58:14Z</time>
      </trkpt>
      <trkpt lat="46.70948" lon="5.43982">
        <ele>226.4</ele>
        <time>2021-11-06T12:58:22Z</time>
      </trkpt>
      <trkpt lat="46.7094" lon="5.44068">
        <ele>226.4</ele>
        <time>2021-11-06T12:58:32Z</time>
      </trkpt>
      <trkpt lat="46.70932" lon="5.44118">
        <ele>226.2</ele>
        <time>2021-11-06T12:58:37Z</time>
      </trkpt>
      <trkpt lat="46.70926" lon="5.44173">
        <ele>225.4</ele>
        <time>2021-11-06T12:58:42Z</time>
      </trkpt>
      <trkpt lat="46.70931" lon="5.44236">
        <ele>224.8</ele>
        <time>2021-11-06T12:58:48Z</time>
      </trkpt>
      <trkpt lat="46.70939" lon="5.44308">
        <ele>225</ele>
        <time>2021-11-06T12:58:55Z</time>
      </trkpt>
      <trkpt lat="46.70954" lon="5.44391">
        <ele>225.2</ele>
        <time>2021-11-06T12:59:04Z</time>
      </trkpt>
      <trkpt lat="46.70966" lon="5.44448">
        <ele>226</ele>
        <time>2021-11-06T12:59:11Z</time>
      </trkpt>
      <trkpt lat="46.70968" lon="5.44491">
        <ele>226.6</ele>
        <time>2021-11-06T12:59:16Z</time>
      </trkpt>
      <trkpt lat="46.70967" lon="5.44508">
        <ele>226.8</ele>
        <time>2021-11-06T12:59:18Z</time>
      </trkpt>
      <trkpt lat="46.70966" lon="5.44524">
        <ele>227</ele>
        <time>2021-11-06T12:59:20Z</time>
      </trkpt>
      <trkpt lat="46.70961" lon="5.44538">
        <ele>227.2</ele>
        <time>2021-11-06T12:59:22Z</time>
      </trkpt>
      <trkpt lat="46.70954" lon="5.4455">
        <ele>227.2</ele>
        <time>2021-11-06T12:59:24Z</time>
      </trkpt>
      <trkpt lat="46.70944" lon="5.44559">
        <ele>227.2</ele>
        <time>2021-11-06T12:59:26Z</time>
      </trkpt>
      <trkpt lat="46.70908" lon="5.44593">
        <ele>227</ele>
        <time>2021-11-06T12:59:33Z</time>
      </trkpt>
      <trkpt lat="46.70873" lon="5.44634">
        <ele>227.4</ele>
        <time>2021-11-06T12:59:40Z</time>
      </trkpt>
      <trkpt lat="46.70826" lon="5.44689">
        <ele>227.4</ele>
        <time>2021-11-06T12:59:49Z</time>
      </trkpt>
      <trkpt lat="46.70802" lon="5.44725">
        <ele>227.4</ele>
        <time>2021-11-06T12:59:54Z</time>
      </trkpt>
      <trkpt lat="46.70779" lon="5.4479">
        <ele>227.2</ele>
        <time>2021-11-06T13:00:01Z</time>
      </trkpt>
      <trkpt lat="46.70769" lon="5.44849">
        <ele>227.4</ele>
        <time>2021-11-06T13:00:07Z</time>
      </trkpt>
      <trkpt lat="46.70761" lon="5.44928">
        <ele>227</ele>
        <time>2021-11-06T13:00:14Z</time>
      </trkpt>
      <trkpt lat="46.70757" lon="5.44977">
        <ele>225.6</ele>
        <time>2021-11-06T13:00:18Z</time>
      </trkpt>
      <trkpt lat="46.70755" lon="5.45013">
        <ele>224.4</ele>
        <time>2021-11-06T13:00:21Z</time>
      </trkpt>
      <trkpt lat="46.70754" lon="5.45025">
        <ele>224.2</ele>
        <time>2021-11-06T13:00:22Z</time>
      </trkpt>
      <trkpt lat="46.70754" lon="5.4509">
        <ele>223.8</ele>
        <time>2021-11-06T13:00:28Z</time>
      </trkpt>
      <trkpt lat="46.7076" lon="5.45133">
        <ele>224.4</ele>
        <time>2021-11-06T13:00:33Z</time>
      </trkpt>
      <trkpt lat="46.70768" lon="5.45182">
        <ele>225.8</ele>
        <time>2021-11-06T13:00:39Z</time>
      </trkpt>
      <trkpt lat="46.70769" lon="5.45199">
        <ele>226.6</ele>
        <time>2021-11-06T13:00:41Z</time>
      </trkpt>
      <trkpt lat="46.70775" lon="5.45236">
        <ele>227</ele>
        <time>2021-11-06T13:00:45Z</time>
      </trkpt>
      <trkpt lat="46.7078" lon="5.45265">
        <ele>227.2</ele>
        <time>2021-11-06T13:00:48Z</time>
      </trkpt>
      <trkpt lat="46.70791" lon="5.45342">
        <ele>227.6</ele>
        <time>2021-11-06T13:00:56Z</time>
      </trkpt>
      <trkpt lat="46.70792" lon="5.45352">
        <ele>227.6</ele>
        <time>2021-11-06T13:00:57Z</time>
      </trkpt>
      <trkpt lat="46.70801" lon="5.45409">
        <ele>227.4</ele>
        <time>2021-11-06T13:01:03Z</time>
      </trkpt>
      <trkpt lat="46.70812" lon="5.45487">
        <ele>227.4</ele>
        <time>2021-11-06T13:01:11Z</time>
      </trkpt>
      <trkpt lat="46.70815" lon="5.45505">
        <ele>227.4</ele>
        <time>2021-11-06T13:01:13Z</time>
      </trkpt>
      <trkpt lat="46.70825" lon="5.45584">
        <ele>228</ele>
        <time>2021-11-06T13:01:22Z</time>
      </trkpt>
      <trkpt lat="46.70825" lon="5.45591">
        <ele>228.2</ele>
        <time>2021-11-06T13:01:23Z</time>
      </trkpt>
      <trkpt lat="46.70825" lon="5.45607">
        <ele>228.4</ele>
        <time>2021-11-06T13:01:25Z</time>
      </trkpt>
      <trkpt lat="46.70822" lon="5.45623">
        <ele>228.6</ele>
        <time>2021-11-06T13:01:27Z</time>
      </trkpt>
      <trkpt lat="46.70815" lon="5.45657">
        <ele>229.2</ele>
        <time>2021-11-06T13:01:31Z</time>
      </trkpt>
      <trkpt lat="46.7081" lon="5.45686">
        <ele>229.6</ele>
        <time>2021-11-06T13:01:34Z</time>
      </trkpt>
      <trkpt lat="46.70796" lon="5.4575">
        <ele>229.2</ele>
        <time>2021-11-06T13:01:40Z</time>
      </trkpt>
      <trkpt lat="46.70784" lon="5.45807">
        <ele>228.2</ele>
        <time>2021-11-06T13:01:45Z</time>
      </trkpt>
      <trkpt lat="46.70778" lon="5.45829">
        <ele>227.6</ele>
        <time>2021-11-06T13:01:47Z</time>
      </trkpt>
      <trkpt lat="46.70763" lon="5.45895">
        <ele>226.8</ele>
        <time>2021-11-06T13:01:53Z</time>
      </trkpt>
      <trkpt lat="46.70759" lon="5.45916">
        <ele>226.4</ele>
        <time>2021-11-06T13:01:55Z</time>
      </trkpt>
      <trkpt lat="46.70748" lon="5.46">
        <ele>226.2</ele>
        <time>2021-11-06T13:02:03Z</time>
      </trkpt>
      <trkpt lat="46.70735" lon="5.46057">
        <ele>226.4</ele>
        <time>2021-11-06T13:02:09Z</time>
      </trkpt>
      <trkpt lat="46.70734" lon="5.46067">
        <ele>226.4</ele>
        <time>2021-11-06T13:02:10Z</time>
      </trkpt>
      <trkpt lat="46.7073" lon="5.46107">
        <ele>226.6</ele>
        <time>2021-11-06T13:02:14Z</time>
      </trkpt>
      <trkpt lat="46.70725" lon="5.46182">
        <ele>227.4</ele>
        <time>2021-11-06T13:02:22Z</time>
      </trkpt>
      <trkpt lat="46.70723" lon="5.46198">
        <ele>227.8</ele>
        <time>2021-11-06T13:02:24Z</time>
      </trkpt>
      <trkpt lat="46.70721" lon="5.46229">
        <ele>228.8</ele>
        <time>2021-11-06T13:02:28Z</time>
      </trkpt>
      <trkpt lat="46.7072" lon="5.46238">
        <ele>229</ele>
        <time>2021-11-06T13:02:29Z</time>
      </trkpt>
      <trkpt lat="46.70717" lon="5.46281">
        <ele>229.8</ele>
        <time>2021-11-06T13:02:34Z</time>
      </trkpt>
      <trkpt lat="46.70716" lon="5.46307">
        <ele>230.2</ele>
        <time>2021-11-06T13:02:37Z</time>
      </trkpt>
      <trkpt lat="46.7071" lon="5.46341">
        <ele>231</ele>
        <time>2021-11-06T13:02:41Z</time>
      </trkpt>
      <trkpt lat="46.70707" lon="5.46349">
        <ele>231</ele>
        <time>2021-11-06T13:02:42Z</time>
      </trkpt>
      <trkpt lat="46.70688" lon="5.46408">
        <ele>231.4</ele>
        <time>2021-11-06T13:02:49Z</time>
      </trkpt>
      <trkpt lat="46.70685" lon="5.46417">
        <ele>231.4</ele>
        <time>2021-11-06T13:02:50Z</time>
      </trkpt>
      <trkpt lat="46.70676" lon="5.46448">
        <ele>230.6</ele>
        <time>2021-11-06T13:02:53Z</time>
      </trkpt>
      <trkpt lat="46.70671" lon="5.46458">
        <ele>230.6</ele>
        <time>2021-11-06T13:02:54Z</time>
      </trkpt>
      <trkpt lat="46.70659" lon="5.46474">
        <ele>230</ele>
        <time>2021-11-06T13:02:56Z</time>
      </trkpt>
      <trkpt lat="46.70647" lon="5.4649">
        <ele>229.4</ele>
        <time>2021-11-06T13:02:58Z</time>
      </trkpt>
      <trkpt lat="46.70642" lon="5.46498">
        <ele>229</ele>
        <time>2021-11-06T13:02:59Z</time>
      </trkpt>
      <trkpt lat="46.70637" lon="5.46508">
        <ele>228.6</ele>
        <time>2021-11-06T13:03:00Z</time>
      </trkpt>
      <trkpt lat="46.7062" lon="5.46547">
        <ele>228.2</ele>
        <time>2021-11-06T13:03:04Z</time>
      </trkpt>
      <trkpt lat="46.70606" lon="5.46598">
        <ele>228.4</ele>
        <time>2021-11-06T13:03:09Z</time>
      </trkpt>
      <trkpt lat="46.70601" lon="5.46645">
        <ele>228.6</ele>
        <time>2021-11-06T13:03:14Z</time>
      </trkpt>
      <trkpt lat="46.70597" lon="5.467">
        <ele>230</ele>
        <time>2021-11-06T13:03:20Z</time>
      </trkpt>
      <trkpt lat="46.70595" lon="5.46718">
        <ele>230.4</ele>
        <time>2021-11-06T13:03:22Z</time>
      </trkpt>
      <trkpt lat="46.70594" lon="5.46746">
        <ele>231.2</ele>
        <time>2021-11-06T13:03:25Z</time>
      </trkpt>
      <trkpt lat="46.70596" lon="5.46774">
        <ele>231.4</ele>
        <time>2021-11-06T13:03:28Z</time>
      </trkpt>
      <trkpt lat="46.70604" lon="5.46862">
        <ele>231.8</ele>
        <time>2021-11-06T13:03:37Z</time>
      </trkpt>
      <trkpt lat="46.70605" lon="5.46885">
        <ele>232</ele>
        <time>2021-11-06T13:03:39Z</time>
      </trkpt>
      <trkpt lat="46.70602" lon="5.46906">
        <ele>231.6</ele>
        <time>2021-11-06T13:03:41Z</time>
      </trkpt>
      <trkpt lat="46.70595" lon="5.46927">
        <ele>231.6</ele>
        <time>2021-11-06T13:03:43Z</time>
      </trkpt>
      <trkpt lat="46.7059" lon="5.46936">
        <ele>231.4</ele>
        <time>2021-11-06T13:03:44Z</time>
      </trkpt>
      <trkpt lat="46.70585" lon="5.46944">
        <ele>231.2</ele>
        <time>2021-11-06T13:03:45Z</time>
      </trkpt>
      <trkpt lat="46.70573" lon="5.46957">
        <ele>230.8</ele>
        <time>2021-11-06T13:03:47Z</time>
      </trkpt>
      <trkpt lat="46.70566" lon="5.46963">
        <ele>230.8</ele>
        <time>2021-11-06T13:03:48Z</time>
      </trkpt>
      <trkpt lat="46.70519" lon="5.4699">
        <ele>230.8</ele>
        <time>2021-11-06T13:03:55Z</time>
      </trkpt>
      <trkpt lat="46.70475" lon="5.47005">
        <ele>232</ele>
        <time>2021-11-06T13:04:02Z</time>
      </trkpt>
      <trkpt lat="46.70454" lon="5.4701">
        <ele>232.4</ele>
        <time>2021-11-06T13:04:05Z</time>
      </trkpt>
      <trkpt lat="46.70405" lon="5.47023">
        <ele>232.8</ele>
        <time>2021-11-06T13:04:12Z</time>
      </trkpt>
      <trkpt lat="46.70353" lon="5.4703">
        <ele>233.2</ele>
        <time>2021-11-06T13:04:19Z</time>
      </trkpt>
      <trkpt lat="46.70307" lon="5.47035">
        <ele>232.8</ele>
        <time>2021-11-06T13:04:25Z</time>
      </trkpt>
      <trkpt lat="46.703" lon="5.47038">
        <ele>232.6</ele>
        <time>2021-11-06T13:04:26Z</time>
      </trkpt>
      <trkpt lat="46.70254" lon="5.47063">
        <ele>231.8</ele>
        <time>2021-11-06T13:04:32Z</time>
      </trkpt>
      <trkpt lat="46.70221" lon="5.47073">
        <ele>231.2</ele>
        <time>2021-11-06T13:04:36Z</time>
      </trkpt>
      <trkpt lat="46.70195" lon="5.4708">
        <ele>230.8</ele>
        <time>2021-11-06T13:04:39Z</time>
      </trkpt>
      <trkpt lat="46.70168" lon="5.47089">
        <ele>229.6</ele>
        <time>2021-11-06T13:04:42Z</time>
      </trkpt>
      <trkpt lat="46.70149" lon="5.47094">
        <ele>228.8</ele>
        <time>2021-11-06T13:04:44Z</time>
      </trkpt>
      <trkpt lat="46.70139" lon="5.47096">
        <ele>228.6</ele>
        <time>2021-11-06T13:04:45Z</time>
      </trkpt>
      <trkpt lat="46.70098" lon="5.471">
        <ele>227.4</ele>
        <time>2021-11-06T13:04:49Z</time>
      </trkpt>
      <trkpt lat="46.70065" lon="5.47102">
        <ele>226</ele>
        <time>2021-11-06T13:04:52Z</time>
      </trkpt>
      <trkpt lat="46.70044" lon="5.47104">
        <ele>224.4</ele>
        <time>2021-11-06T13:04:54Z</time>
      </trkpt>
      <trkpt lat="46.70035" lon="5.47106">
        <ele>224.2</ele>
        <time>2021-11-06T13:04:55Z</time>
      </trkpt>
      <trkpt lat="46.69998" lon="5.47118">
        <ele>223.8</ele>
        <time>2021-11-06T13:04:59Z</time>
      </trkpt>
      <trkpt lat="46.69957" lon="5.47145">
        <ele>223.6</ele>
        <time>2021-11-06T13:05:04Z</time>
      </trkpt>
      <trkpt lat="46.69922" lon="5.4718">
        <ele>223.8</ele>
        <time>2021-11-06T13:05:09Z</time>
      </trkpt>
      <trkpt lat="46.69901" lon="5.47202">
        <ele>224</ele>
        <time>2021-11-06T13:05:12Z</time>
      </trkpt>
      <trkpt lat="46.69892" lon="5.47207">
        <ele>224.2</ele>
        <time>2021-11-06T13:05:13Z</time>
      </trkpt>
      <trkpt lat="46.6987" lon="5.47223">
        <ele>224.2</ele>
        <time>2021-11-06T13:05:16Z</time>
      </trkpt>
      <trkpt lat="46.69865" lon="5.47232">
        <ele>224.2</ele>
        <time>2021-11-06T13:05:17Z</time>
      </trkpt>
      <trkpt lat="46.69852" lon="5.47261">
        <ele>224.6</ele>
        <time>2021-11-06T13:05:20Z</time>
      </trkpt>
      <trkpt lat="46.69849" lon="5.47271">
        <ele>224.6</ele>
        <time>2021-11-06T13:05:21Z</time>
      </trkpt>
      <trkpt lat="46.69845" lon="5.47281">
        <ele>224.6</ele>
        <time>2021-11-06T13:05:22Z</time>
      </trkpt>
      <trkpt lat="46.6984" lon="5.4731">
        <ele>225.2</ele>
        <time>2021-11-06T13:05:25Z</time>
      </trkpt>
      <trkpt lat="46.6984" lon="5.47319">
        <ele>225.6</ele>
        <time>2021-11-06T13:05:26Z</time>
      </trkpt>
      <trkpt lat="46.69838" lon="5.47336">
        <ele>226.2</ele>
        <time>2021-11-06T13:05:28Z</time>
      </trkpt>
      <trkpt lat="46.69837" lon="5.47344">
        <ele>226.4</ele>
        <time>2021-11-06T13:05:29Z</time>
      </trkpt>
      <trkpt lat="46.69836" lon="5.47352">
        <ele>227</ele>
        <time>2021-11-06T13:05:30Z</time>
      </trkpt>
      <trkpt lat="46.69834" lon="5.47367">
        <ele>227.8</ele>
        <time>2021-11-06T13:05:32Z</time>
      </trkpt>
      <trkpt lat="46.6983" lon="5.47381">
        <ele>228.6</ele>
        <time>2021-11-06T13:05:34Z</time>
      </trkpt>
      <trkpt lat="46.69824" lon="5.47395">
        <ele>229.6</ele>
        <time>2021-11-06T13:05:36Z</time>
      </trkpt>
      <trkpt lat="46.69821" lon="5.47402">
        <ele>230.6</ele>
        <time>2021-11-06T13:05:37Z</time>
      </trkpt>
      <trkpt lat="46.69818" lon="5.47408">
        <ele>231</ele>
        <time>2021-11-06T13:05:38Z</time>
      </trkpt>
      <trkpt lat="46.69807" lon="5.47425">
        <ele>232.4</ele>
        <time>2021-11-06T13:05:41Z</time>
      </trkpt>
      <trkpt lat="46.69798" lon="5.47436">
        <ele>233.4</ele>
        <time>2021-11-06T13:05:43Z</time>
      </trkpt>
      <trkpt lat="46.69792" lon="5.47441">
        <ele>234</ele>
        <time>2021-11-06T13:05:44Z</time>
      </trkpt>
      <trkpt lat="46.69776" lon="5.47462">
        <ele>235.2</ele>
        <time>2021-11-06T13:05:48Z</time>
      </trkpt>
      <trkpt lat="46.69764" lon="5.47478">
        <ele>235.8</ele>
        <time>2021-11-06T13:05:51Z</time>
      </trkpt>
      <trkpt lat="46.69729" lon="5.47529">
        <ele>236.2</ele>
        <time>2021-11-06T13:05:59Z</time>
      </trkpt>
      <trkpt lat="46.69723" lon="5.47535">
        <ele>236.2</ele>
        <time>2021-11-06T13:06:00Z</time>
      </trkpt>
      <trkpt lat="46.69687" lon="5.47576">
        <ele>236.6</ele>
        <time>2021-11-06T13:06:07Z</time>
      </trkpt>
      <trkpt lat="46.69657" lon="5.47615">
        <ele>236.6</ele>
        <time>2021-11-06T13:06:13Z</time>
      </trkpt>
      <trkpt lat="46.69627" lon="5.47681">
        <ele>237</ele>
        <time>2021-11-06T13:06:21Z</time>
      </trkpt>
      <trkpt lat="46.69599" lon="5.47758">
        <ele>237.2</ele>
        <time>2021-11-06T13:06:30Z</time>
      </trkpt>
      <trkpt lat="46.69587" lon="5.47791">
        <ele>237.2</ele>
        <time>2021-11-06T13:06:34Z</time>
      </trkpt>
      <trkpt lat="46.69575" lon="5.47823">
        <ele>237.4</ele>
        <time>2021-11-06T13:06:38Z</time>
      </trkpt>
      <trkpt lat="46.69558" lon="5.47874">
        <ele>237.2</ele>
        <time>2021-11-06T13:06:44Z</time>
      </trkpt>
      <trkpt lat="46.69554" lon="5.47881">
        <ele>237</ele>
        <time>2021-11-06T13:06:45Z</time>
      </trkpt>
      <trkpt lat="46.69547" lon="5.47888">
        <ele>236.6</ele>
        <time>2021-11-06T13:06:47Z</time>
      </trkpt>
      <trkpt lat="46.69541" lon="5.47889">
        <ele>236.2</ele>
        <time>2021-11-06T13:06:48Z</time>
      </trkpt>
      <trkpt lat="46.69528" lon="5.47887">
        <ele>235.8</ele>
        <time>2021-11-06T13:06:50Z</time>
      </trkpt>
      <trkpt lat="46.69499" lon="5.47877">
        <ele>235</ele>
        <time>2021-11-06T13:06:54Z</time>
      </trkpt>
      <trkpt lat="46.69491" lon="5.47875">
        <ele>234.6</ele>
        <time>2021-11-06T13:06:55Z</time>
      </trkpt>
      <trkpt lat="46.69483" lon="5.47874">
        <ele>234.6</ele>
        <time>2021-11-06T13:06:56Z</time>
      </trkpt>
      <trkpt lat="46.69459" lon="5.47876">
        <ele>233.8</ele>
        <time>2021-11-06T13:06:59Z</time>
      </trkpt>
      <trkpt lat="46.69419" lon="5.47883">
        <ele>232.8</ele>
        <time>2021-11-06T13:07:04Z</time>
      </trkpt>
      <trkpt lat="46.69396" lon="5.47886">
        <ele>232.6</ele>
        <time>2021-11-06T13:07:07Z</time>
      </trkpt>
      <trkpt lat="46.6934" lon="5.47892">
        <ele>232.4</ele>
        <time>2021-11-06T13:07:14Z</time>
      </trkpt>
      <trkpt lat="46.69332" lon="5.47893">
        <ele>232.4</ele>
        <time>2021-11-06T13:07:15Z</time>
      </trkpt>
      <trkpt lat="46.69309" lon="5.47898">
        <ele>232.4</ele>
        <time>2021-11-06T13:07:18Z</time>
      </trkpt>
      <trkpt lat="46.69302" lon="5.47901">
        <ele>232.6</ele>
        <time>2021-11-06T13:07:19Z</time>
      </trkpt>
      <trkpt lat="46.69296" lon="5.47906">
        <ele>232.6</ele>
        <time>2021-11-06T13:07:20Z</time>
      </trkpt>
      <trkpt lat="46.69278" lon="5.47923">
        <ele>232.6</ele>
        <time>2021-11-06T13:07:23Z</time>
      </trkpt>
      <trkpt lat="46.69251" lon="5.47949">
        <ele>233.2</ele>
        <time>2021-11-06T13:07:28Z</time>
      </trkpt>
      <trkpt lat="46.69245" lon="5.47953">
        <ele>233.6</ele>
        <time>2021-11-06T13:07:29Z</time>
      </trkpt>
      <trkpt lat="46.69233" lon="5.47953">
        <ele>234</ele>
        <time>2021-11-06T13:07:31Z</time>
      </trkpt>
      <trkpt lat="46.69222" lon="5.47944">
        <ele>234.2</ele>
        <time>2021-11-06T13:07:33Z</time>
      </trkpt>
      <trkpt lat="46.69218" lon="5.47938">
        <ele>234.2</ele>
        <time>2021-11-06T13:07:34Z</time>
      </trkpt>
      <trkpt lat="46.69194" lon="5.47896">
        <ele>235</ele>
        <time>2021-11-06T13:07:40Z</time>
      </trkpt>
      <trkpt lat="46.6919" lon="5.4789">
        <ele>235</ele>
        <time>2021-11-06T13:07:41Z</time>
      </trkpt>
      <trkpt lat="46.6917" lon="5.47855">
        <ele>236</ele>
        <time>2021-11-06T13:07:46Z</time>
      </trkpt>
      <trkpt lat="46.69162" lon="5.47841">
        <ele>236.4</ele>
        <time>2021-11-06T13:07:48Z</time>
      </trkpt>
      <trkpt lat="46.6915" lon="5.47821">
        <ele>237.2</ele>
        <time>2021-11-06T13:07:51Z</time>
      </trkpt>
      <trkpt lat="46.69116" lon="5.47765">
        <ele>238</ele>
        <time>2021-11-06T13:07:59Z</time>
      </trkpt>
      <trkpt lat="46.69107" lon="5.47751">
        <ele>238.2</ele>
        <time>2021-11-06T13:08:01Z</time>
      </trkpt>
      <trkpt lat="46.69079" lon="5.47707">
        <ele>238.4</ele>
        <time>2021-11-06T13:08:07Z</time>
      </trkpt>
      <trkpt lat="46.6904" lon="5.47645">
        <ele>238</ele>
        <time>2021-11-06T13:08:15Z</time>
      </trkpt>
      <trkpt lat="46.69026" lon="5.47622">
        <ele>238</ele>
        <time>2021-11-06T13:08:18Z</time>
      </trkpt>
      <trkpt lat="46.68986" lon="5.47559">
        <ele>238</ele>
        <time>2021-11-06T13:08:26Z</time>
      </trkpt>
      <trkpt lat="46.68976" lon="5.47544">
        <ele>238</ele>
        <time>2021-11-06T13:08:28Z</time>
      </trkpt>
      <trkpt lat="46.68938" lon="5.47482">
        <ele>237.8</ele>
        <time>2021-11-06T13:08:36Z</time>
      </trkpt>
      <trkpt lat="46.68928" lon="5.47466">
        <ele>237.8</ele>
        <time>2021-11-06T13:08:38Z</time>
      </trkpt>
      <trkpt lat="46.68903" lon="5.47427">
        <ele>237.4</ele>
        <time>2021-11-06T13:08:43Z</time>
      </trkpt>
      <trkpt lat="46.68879" lon="5.47397">
        <ele>237</ele>
        <time>2021-11-06T13:08:47Z</time>
      </trkpt>
      <trkpt lat="46.68851" lon="5.47369">
        <ele>236.2</ele>
        <time>2021-11-06T13:08:51Z</time>
      </trkpt>
      <trkpt lat="46.68843" lon="5.47363">
        <ele>235.8</ele>
        <time>2021-11-06T13:08:52Z</time>
      </trkpt>
      <trkpt lat="46.68826" lon="5.47356">
        <ele>235.2</ele>
        <time>2021-11-06T13:08:54Z</time>
      </trkpt>
      <trkpt lat="46.68807" lon="5.4735">
        <ele>234.6</ele>
        <time>2021-11-06T13:08:56Z</time>
      </trkpt>
      <trkpt lat="46.68789" lon="5.47346">
        <ele>233.8</ele>
        <time>2021-11-06T13:08:58Z</time>
      </trkpt>
      <trkpt lat="46.68762" lon="5.47344">
        <ele>232.8</ele>
        <time>2021-11-06T13:09:01Z</time>
      </trkpt>
      <trkpt lat="46.68754" lon="5.47343">
        <ele>232.6</ele>
        <time>2021-11-06T13:09:02Z</time>
      </trkpt>
      <trkpt lat="46.68738" lon="5.47335">
        <ele>232.4</ele>
        <time>2021-11-06T13:09:04Z</time>
      </trkpt>
      <trkpt lat="46.68725" lon="5.47321">
        <ele>232.2</ele>
        <time>2021-11-06T13:09:06Z</time>
      </trkpt>
      <trkpt lat="46.6872" lon="5.47313">
        <ele>232.2</ele>
        <time>2021-11-06T13:09:07Z</time>
      </trkpt>
      <trkpt lat="46.68694" lon="5.47264">
        <ele>233.2</ele>
        <time>2021-11-06T13:09:13Z</time>
      </trkpt>
      <trkpt lat="46.68681" lon="5.47239">
        <ele>233.8</ele>
        <time>2021-11-06T13:09:16Z</time>
      </trkpt>
      <trkpt lat="46.68672" lon="5.47224">
        <ele>234.4</ele>
        <time>2021-11-06T13:09:18Z</time>
      </trkpt>
      <trkpt lat="46.68663" lon="5.47208">
        <ele>234.4</ele>
        <time>2021-11-06T13:09:20Z</time>
      </trkpt>
      <trkpt lat="46.68646" lon="5.47176">
        <ele>235</ele>
        <time>2021-11-06T13:09:24Z</time>
      </trkpt>
      <trkpt lat="46.68629" lon="5.47144">
        <ele>235.4</ele>
        <time>2021-11-06T13:09:28Z</time>
      </trkpt>
      <trkpt lat="46.68593" lon="5.4708">
        <ele>235.8</ele>
        <time>2021-11-06T13:09:36Z</time>
      </trkpt>
      <trkpt lat="46.68579" lon="5.47056">
        <ele>236.2</ele>
        <time>2021-11-06T13:09:39Z</time>
      </trkpt>
      <trkpt lat="46.68543" lon="5.46993">
        <ele>236.2</ele>
        <time>2021-11-06T13:09:47Z</time>
      </trkpt>
      <trkpt lat="46.68539" lon="5.46985">
        <ele>236</ele>
        <time>2021-11-06T13:09:48Z</time>
      </trkpt>
      <trkpt lat="46.68503" lon="5.46923">
        <ele>235.2</ele>
        <time>2021-11-06T13:09:55Z</time>
      </trkpt>
      <trkpt lat="46.68493" lon="5.46905">
        <ele>234.8</ele>
        <time>2021-11-06T13:09:57Z</time>
      </trkpt>
      <trkpt lat="46.68472" lon="5.46868">
        <ele>234.2</ele>
        <time>2021-11-06T13:10:01Z</time>
      </trkpt>
      <trkpt lat="46.68436" lon="5.46807">
        <ele>233.4</ele>
        <time>2021-11-06T13:10:08Z</time>
      </trkpt>
      <trkpt lat="46.6843" lon="5.46798">
        <ele>233</ele>
        <time>2021-11-06T13:10:09Z</time>
      </trkpt>
      <trkpt lat="46.68394" lon="5.46741">
        <ele>232</ele>
        <time>2021-11-06T13:10:15Z</time>
      </trkpt>
      <trkpt lat="46.68382" lon="5.46722">
        <ele>231.6</ele>
        <time>2021-11-06T13:10:17Z</time>
      </trkpt>
      <trkpt lat="46.68362" lon="5.46693">
        <ele>230.8</ele>
        <time>2021-11-06T13:10:20Z</time>
      </trkpt>
      <trkpt lat="46.68343" lon="5.46668">
        <ele>229.8</ele>
        <time>2021-11-06T13:10:23Z</time>
      </trkpt>
      <trkpt lat="46.68336" lon="5.4666">
        <ele>229.6</ele>
        <time>2021-11-06T13:10:24Z</time>
      </trkpt>
      <trkpt lat="46.68311" lon="5.46635">
        <ele>229.4</ele>
        <time>2021-11-06T13:10:28Z</time>
      </trkpt>
      <trkpt lat="46.68272" lon="5.46603">
        <ele>230.6</ele>
        <time>2021-11-06T13:10:35Z</time>
      </trkpt>
      <trkpt lat="46.68267" lon="5.46599">
        <ele>230.8</ele>
        <time>2021-11-06T13:10:36Z</time>
      </trkpt>
      <trkpt lat="46.68242" lon="5.46577">
        <ele>232.2</ele>
        <time>2021-11-06T13:10:41Z</time>
      </trkpt>
      <trkpt lat="46.68209" lon="5.46553">
        <ele>233.2</ele>
        <time>2021-11-06T13:10:47Z</time>
      </trkpt>
      <trkpt lat="46.68193" lon="5.4654">
        <ele>234</ele>
        <time>2021-11-06T13:10:50Z</time>
      </trkpt>
      <trkpt lat="46.68176" lon="5.46528">
        <ele>234.4</ele>
        <time>2021-11-06T13:10:53Z</time>
      </trkpt>
      <trkpt lat="46.68141" lon="5.46508">
        <ele>235</ele>
        <time>2021-11-06T13:10:59Z</time>
      </trkpt>
      <trkpt lat="46.68096" lon="5.46487">
        <ele>235.4</ele>
        <time>2021-11-06T13:11:06Z</time>
      </trkpt>
      <trkpt lat="46.68077" lon="5.46477">
        <ele>235.4</ele>
        <time>2021-11-06T13:11:09Z</time>
      </trkpt>
      <trkpt lat="46.68026" lon="5.46453">
        <ele>235.6</ele>
        <time>2021-11-06T13:11:17Z</time>
      </trkpt>
      <trkpt lat="46.67973" lon="5.46427">
        <ele>236.2</ele>
        <time>2021-11-06T13:11:25Z</time>
      </trkpt>
      <trkpt lat="46.67921" lon="5.464">
        <ele>236</ele>
        <time>2021-11-06T13:11:33Z</time>
      </trkpt>
      <trkpt lat="46.67914" lon="5.46397">
        <ele>236</ele>
        <time>2021-11-06T13:11:34Z</time>
      </trkpt>
      <trkpt lat="46.67861" lon="5.46371">
        <ele>236</ele>
        <time>2021-11-06T13:11:42Z</time>
      </trkpt>
      <trkpt lat="46.67854" lon="5.46368">
        <ele>235.8</ele>
        <time>2021-11-06T13:11:43Z</time>
      </trkpt>
      <trkpt lat="46.67801" lon="5.46342">
        <ele>236.2</ele>
        <time>2021-11-06T13:11:51Z</time>
      </trkpt>
      <trkpt lat="46.67744" lon="5.46313">
        <ele>236.2</ele>
        <time>2021-11-06T13:11:59Z</time>
      </trkpt>
      <trkpt lat="46.67715" lon="5.46299">
        <ele>236</ele>
        <time>2021-11-06T13:12:03Z</time>
      </trkpt>
      <trkpt lat="46.67685" lon="5.46285">
        <ele>236</ele>
        <time>2021-11-06T13:12:07Z</time>
      </trkpt>
      <trkpt lat="46.67655" lon="5.46271">
        <ele>236</ele>
        <time>2021-11-06T13:12:11Z</time>
      </trkpt>
      <trkpt lat="46.67602" lon="5.46245">
        <ele>236</ele>
        <time>2021-11-06T13:12:18Z</time>
      </trkpt>
      <trkpt lat="46.67581" lon="5.46234">
        <ele>235.8</ele>
        <time>2021-11-06T13:12:21Z</time>
      </trkpt>
      <trkpt lat="46.67524" lon="5.46207">
        <ele>235.6</ele>
        <time>2021-11-06T13:12:29Z</time>
      </trkpt>
      <trkpt lat="46.67496" lon="5.46193">
        <ele>235.4</ele>
        <time>2021-11-06T13:12:33Z</time>
      </trkpt>
      <trkpt lat="46.6744" lon="5.46166">
        <ele>235</ele>
        <time>2021-11-06T13:12:41Z</time>
      </trkpt>
      <trkpt lat="46.67433" lon="5.46163">
        <ele>235</ele>
        <time>2021-11-06T13:12:42Z</time>
      </trkpt>
      <trkpt lat="46.67376" lon="5.46135">
        <ele>235</ele>
        <time>2021-11-06T13:12:50Z</time>
      </trkpt>
      <trkpt lat="46.67348" lon="5.46121">
        <ele>235</ele>
        <time>2021-11-06T13:12:54Z</time>
      </trkpt>
      <trkpt lat="46.67292" lon="5.46092">
        <ele>234.6</ele>
        <time>2021-11-06T13:13:02Z</time>
      </trkpt>
      <trkpt lat="46.67272" lon="5.46083">
        <ele>234.4</ele>
        <time>2021-11-06T13:13:05Z</time>
      </trkpt>
      <trkpt lat="46.67241" lon="5.46067">
        <ele>234.4</ele>
        <time>2021-11-06T13:13:10Z</time>
      </trkpt>
      <trkpt lat="46.67235" lon="5.46064">
        <ele>234.4</ele>
        <time>2021-11-06T13:13:11Z</time>
      </trkpt>
      <trkpt lat="46.67201" lon="5.46046">
        <ele>234.4</ele>
        <time>2021-11-06T13:13:17Z</time>
      </trkpt>
      <trkpt lat="46.67179" lon="5.46036">
        <ele>234.4</ele>
        <time>2021-11-06T13:13:22Z</time>
      </trkpt>
      <trkpt lat="46.67171" lon="5.46029">
        <ele>234.2</ele>
        <time>2021-11-06T13:13:25Z</time>
      </trkpt>
      <trkpt lat="46.67166" lon="5.46029">
        <ele>234.2</ele>
        <time>2021-11-06T13:13:26Z</time>
      </trkpt>
      <trkpt lat="46.67162" lon="5.4603">
        <ele>234.2</ele>
        <time>2021-11-06T13:13:27Z</time>
      </trkpt>
      <trkpt lat="46.67151" lon="5.46036">
        <ele>234</ele>
        <time>2021-11-06T13:13:29Z</time>
      </trkpt>
      <trkpt lat="46.67145" lon="5.46038">
        <ele>234</ele>
        <time>2021-11-06T13:13:30Z</time>
      </trkpt>
      <trkpt lat="46.67098" lon="5.46042">
        <ele>233.8</ele>
        <time>2021-11-06T13:13:37Z</time>
      </trkpt>
      <trkpt lat="46.67047" lon="5.46043">
        <ele>233.6</ele>
        <time>2021-11-06T13:13:45Z</time>
      </trkpt>
      <trkpt lat="46.67016" lon="5.46028">
        <ele>233.6</ele>
        <time>2021-11-06T13:13:50Z</time>
      </trkpt>
      <trkpt lat="46.66981" lon="5.46003">
        <ele>233.4</ele>
        <time>2021-11-06T13:13:56Z</time>
      </trkpt>
      <trkpt lat="46.66945" lon="5.45985">
        <ele>233.8</ele>
        <time>2021-11-06T13:14:02Z</time>
      </trkpt>
      <trkpt lat="46.66904" lon="5.45957">
        <ele>233.8</ele>
        <time>2021-11-06T13:14:09Z</time>
      </trkpt>
      <trkpt lat="46.66899" lon="5.45951">
        <ele>233.8</ele>
        <time>2021-11-06T13:14:10Z</time>
      </trkpt>
      <trkpt lat="46.6689" lon="5.45937">
        <ele>233.8</ele>
        <time>2021-11-06T13:14:12Z</time>
      </trkpt>
      <trkpt lat="46.66886" lon="5.45929">
        <ele>233.8</ele>
        <time>2021-11-06T13:14:13Z</time>
      </trkpt>
      <trkpt lat="46.66868" lon="5.45888">
        <ele>234.4</ele>
        <time>2021-11-06T13:14:18Z</time>
      </trkpt>
      <trkpt lat="46.6686" lon="5.45872">
        <ele>234.2</ele>
        <time>2021-11-06T13:14:20Z</time>
      </trkpt>
      <trkpt lat="46.66827" lon="5.45814">
        <ele>233.4</ele>
        <time>2021-11-06T13:14:28Z</time>
      </trkpt>
      <trkpt lat="46.66822" lon="5.45807">
        <ele>233.4</ele>
        <time>2021-11-06T13:14:29Z</time>
      </trkpt>
      <trkpt lat="46.66811" lon="5.45797">
        <ele>233.2</ele>
        <time>2021-11-06T13:14:31Z</time>
      </trkpt>
      <trkpt lat="46.66805" lon="5.45794">
        <ele>233</ele>
        <time>2021-11-06T13:14:32Z</time>
      </trkpt>
      <trkpt lat="46.66798" lon="5.45792">
        <ele>232.8</ele>
        <time>2021-11-06T13:14:33Z</time>
      </trkpt>
      <trkpt lat="46.66784" lon="5.45792">
        <ele>232.8</ele>
        <time>2021-11-06T13:14:35Z</time>
      </trkpt>
      <trkpt lat="46.66777" lon="5.45793">
        <ele>232.8</ele>
        <time>2021-11-06T13:14:36Z</time>
      </trkpt>
      <trkpt lat="46.66721" lon="5.45809">
        <ele>232.8</ele>
        <time>2021-11-06T13:14:44Z</time>
      </trkpt>
      <trkpt lat="46.667" lon="5.45815">
        <ele>232.6</ele>
        <time>2021-11-06T13:14:47Z</time>
      </trkpt>
      <trkpt lat="46.66659" lon="5.45828">
        <ele>232.2</ele>
        <time>2021-11-06T13:14:53Z</time>
      </trkpt>
      <trkpt lat="46.66622" lon="5.4585">
        <ele>231.4</ele>
        <time>2021-11-06T13:14:58Z</time>
      </trkpt>
      <trkpt lat="46.66575" lon="5.45882">
        <ele>230.2</ele>
        <time>2021-11-06T13:15:04Z</time>
      </trkpt>
      <trkpt lat="46.66567" lon="5.45887">
        <ele>229.8</ele>
        <time>2021-11-06T13:15:05Z</time>
      </trkpt>
      <trkpt lat="46.66552" lon="5.45898">
        <ele>229.2</ele>
        <time>2021-11-06T13:15:07Z</time>
      </trkpt>
      <trkpt lat="46.66506" lon="5.45929">
        <ele>228</ele>
        <time>2021-11-06T13:15:13Z</time>
      </trkpt>
      <trkpt lat="46.66499" lon="5.45932">
        <ele>227.8</ele>
        <time>2021-11-06T13:15:14Z</time>
      </trkpt>
      <trkpt lat="46.66491" lon="5.4593">
        <ele>227.6</ele>
        <time>2021-11-06T13:15:15Z</time>
      </trkpt>
      <trkpt lat="46.66484" lon="5.45923">
        <ele>227.6</ele>
        <time>2021-11-06T13:15:16Z</time>
      </trkpt>
      <trkpt lat="46.66479" lon="5.45915">
        <ele>227.4</ele>
        <time>2021-11-06T13:15:17Z</time>
      </trkpt>
      <trkpt lat="46.66471" lon="5.45895">
        <ele>227.2</ele>
        <time>2021-11-06T13:15:19Z</time>
      </trkpt>
      <trkpt lat="46.66462" lon="5.45877">
        <ele>227</ele>
        <time>2021-11-06T13:15:21Z</time>
      </trkpt>
      <trkpt lat="46.66443" lon="5.45838">
        <ele>226.6</ele>
        <time>2021-11-06T13:15:25Z</time>
      </trkpt>
      <trkpt lat="46.66411" lon="5.45769">
        <ele>226.4</ele>
        <time>2021-11-06T13:15:32Z</time>
      </trkpt>
      <trkpt lat="46.66397" lon="5.45741">
        <ele>226.4</ele>
        <time>2021-11-06T13:15:35Z</time>
      </trkpt>
      <trkpt lat="46.66363" lon="5.45672">
        <ele>226.4</ele>
        <time>2021-11-06T13:15:43Z</time>
      </trkpt>
      <trkpt lat="46.66358" lon="5.45662">
        <ele>226.4</ele>
        <time>2021-11-06T13:15:44Z</time>
      </trkpt>
      <trkpt lat="46.66347" lon="5.45638">
        <ele>226.6</ele>
        <time>2021-11-06T13:15:47Z</time>
      </trkpt>
      <trkpt lat="46.66337" lon="5.45624">
        <ele>226.6</ele>
        <time>2021-11-06T13:15:49Z</time>
      </trkpt>
      <trkpt lat="46.663" lon="5.45576">
        <ele>227.4</ele>
        <time>2021-11-06T13:15:56Z</time>
      </trkpt>
      <trkpt lat="46.6627" lon="5.45547">
        <ele>228</ele>
        <time>2021-11-06T13:16:01Z</time>
      </trkpt>
      <trkpt lat="46.66257" lon="5.45537">
        <ele>228</ele>
        <time>2021-11-06T13:16:03Z</time>
      </trkpt>
      <trkpt lat="46.66217" lon="5.45513">
        <ele>228</ele>
        <time>2021-11-06T13:16:09Z</time>
      </trkpt>
      <trkpt lat="46.66204" lon="5.45507">
        <ele>228</ele>
        <time>2021-11-06T13:16:11Z</time>
      </trkpt>
      <trkpt lat="46.66184" lon="5.455">
        <ele>227.8</ele>
        <time>2021-11-06T13:16:14Z</time>
      </trkpt>
      <trkpt lat="46.66139" lon="5.45481">
        <ele>228.2</ele>
        <time>2021-11-06T13:16:21Z</time>
      </trkpt>
      <trkpt lat="46.66114" lon="5.45468">
        <ele>228.8</ele>
        <time>2021-11-06T13:16:25Z</time>
      </trkpt>
      <trkpt lat="46.66108" lon="5.45463">
        <ele>229</ele>
        <time>2021-11-06T13:16:26Z</time>
      </trkpt>
      <trkpt lat="46.66097" lon="5.45453">
        <ele>229.2</ele>
        <time>2021-11-06T13:16:28Z</time>
      </trkpt>
      <trkpt lat="46.66069" lon="5.45417">
        <ele>229.8</ele>
        <time>2021-11-06T13:16:34Z</time>
      </trkpt>
      <trkpt lat="46.66064" lon="5.4541">
        <ele>230</ele>
        <time>2021-11-06T13:16:35Z</time>
      </trkpt>
      <trkpt lat="46.66036" lon="5.45364">
        <ele>231</ele>
        <time>2021-11-06T13:16:42Z</time>
      </trkpt>
      <trkpt lat="46.66023" lon="5.45343">
        <ele>231.2</ele>
        <time>2021-11-06T13:16:45Z</time>
      </trkpt>
      <trkpt lat="46.66003" lon="5.45307">
        <ele>231.4</ele>
        <time>2021-11-06T13:16:50Z</time>
      </trkpt>
      <trkpt lat="46.65997" lon="5.4529">
        <ele>231.4</ele>
        <time>2021-11-06T13:16:52Z</time>
      </trkpt>
      <trkpt lat="46.65975" lon="5.45241">
        <ele>231.6</ele>
        <time>2021-11-06T13:16:58Z</time>
      </trkpt>
      <trkpt lat="46.65949" lon="5.45212">
        <ele>231.8</ele>
        <time>2021-11-06T13:17:03Z</time>
      </trkpt>
      <trkpt lat="46.65905" lon="5.45164">
        <ele>232.2</ele>
        <time>2021-11-06T13:17:11Z</time>
      </trkpt>
      <trkpt lat="46.65899" lon="5.45157">
        <ele>232.2</ele>
        <time>2021-11-06T13:17:12Z</time>
      </trkpt>
      <trkpt lat="46.65863" lon="5.45109">
        <ele>231.8</ele>
        <time>2021-11-06T13:17:19Z</time>
      </trkpt>
      <trkpt lat="46.65817" lon="5.45063">
        <ele>231</ele>
        <time>2021-11-06T13:17:25Z</time>
      </trkpt>
      <trkpt lat="46.65811" lon="5.45056">
        <ele>230.6</ele>
        <time>2021-11-06T13:17:26Z</time>
      </trkpt>
      <trkpt lat="46.65779" lon="5.45013">
        <ele>230</ele>
        <time>2021-11-06T13:17:32Z</time>
      </trkpt>
      <trkpt lat="46.65773" lon="5.44997">
        <ele>229.8</ele>
        <time>2021-11-06T13:17:34Z</time>
      </trkpt>
      <trkpt lat="46.65771" lon="5.44985">
        <ele>229.6</ele>
        <time>2021-11-06T13:17:36Z</time>
      </trkpt>
      <trkpt lat="46.65769" lon="5.44981">
        <ele>230</ele>
        <time>2021-11-06T13:17:37Z</time>
      </trkpt>
      <trkpt lat="46.65767" lon="5.4498">
        <ele>230</ele>
        <time>2021-11-06T13:17:38Z</time>
      </trkpt>
      <trkpt lat="46.65768" lon="5.4499">
        <ele>230.6</ele>
        <time>2021-11-06T13:17:41Z</time>
      </trkpt>
      <trkpt lat="46.65771" lon="5.45002">
        <ele>230.8</ele>
        <time>2021-11-06T13:17:43Z</time>
      </trkpt>
      <trkpt lat="46.65774" lon="5.4501">
        <ele>230.8</ele>
        <time>2021-11-06T13:17:44Z</time>
      </trkpt>
      <trkpt lat="46.65777" lon="5.45017">
        <ele>230.8</ele>
        <time>2021-11-06T13:17:45Z</time>
      </trkpt>
      <trkpt lat="46.65791" lon="5.45037">
        <ele>230.8</ele>
        <time>2021-11-06T13:17:48Z</time>
      </trkpt>
      <trkpt lat="46.658" lon="5.4505">
        <ele>230.6</ele>
        <time>2021-11-06T13:17:50Z</time>
      </trkpt>
      <trkpt lat="46.65805" lon="5.45066">
        <ele>230.4</ele>
        <time>2021-11-06T13:17:52Z</time>
      </trkpt>
      <trkpt lat="46.65805" lon="5.45084">
        <ele>230.2</ele>
        <time>2021-11-06T13:17:54Z</time>
      </trkpt>
      <trkpt lat="46.65802" lon="5.45093">
        <ele>230</ele>
        <time>2021-11-06T13:17:55Z</time>
      </trkpt>
      <trkpt lat="46.65793" lon="5.45122">
        <ele>229.2</ele>
        <time>2021-11-06T13:17:58Z</time>
      </trkpt>
      <trkpt lat="46.65783" lon="5.45152">
        <ele>228.4</ele>
        <time>2021-11-06T13:18:01Z</time>
      </trkpt>
      <trkpt lat="46.65779" lon="5.4516">
        <ele>228</ele>
        <time>2021-11-06T13:18:02Z</time>
      </trkpt>
      <trkpt lat="46.65767" lon="5.4517">
        <ele>227.4</ele>
        <time>2021-11-06T13:18:04Z</time>
      </trkpt>
      <trkpt lat="46.65755" lon="5.45166">
        <ele>227.2</ele>
        <time>2021-11-06T13:18:06Z</time>
      </trkpt>
      <trkpt lat="46.65748" lon="5.45161">
        <ele>226.8</ele>
        <time>2021-11-06T13:18:07Z</time>
      </trkpt>
      <trkpt lat="46.65733" lon="5.4515">
        <ele>225.8</ele>
        <time>2021-11-06T13:18:09Z</time>
      </trkpt>
      <trkpt lat="46.65723" lon="5.45148">
        <ele>225.2</ele>
        <time>2021-11-06T13:18:10Z</time>
      </trkpt>
      <trkpt lat="46.65715" lon="5.45147">
        <ele>224.2</ele>
        <time>2021-11-06T13:18:11Z</time>
      </trkpt>
      <trkpt lat="46.65707" lon="5.45149">
        <ele>222.4</ele>
        <time>2021-11-06T13:18:13Z</time>
      </trkpt>
      <trkpt lat="46.65697" lon="5.45169">
        <ele>221.6</ele>
        <time>2021-11-06T13:18:14Z</time>
      </trkpt>
      <trkpt lat="46.65694" lon="5.45182">
        <ele>220.6</ele>
        <time>2021-11-06T13:18:15Z</time>
      </trkpt>
      <trkpt lat="46.65686" lon="5.45208">
        <ele>219.4</ele>
        <time>2021-11-06T13:18:17Z</time>
      </trkpt>
      <trkpt lat="46.65682" lon="5.45222">
        <ele>218.8</ele>
        <time>2021-11-06T13:18:18Z</time>
      </trkpt>
      <trkpt lat="46.65673" lon="5.45247">
        <ele>217.8</ele>
        <time>2021-11-06T13:18:20Z</time>
      </trkpt>
      <trkpt lat="46.65657" lon="5.45296">
        <ele>216.6</ele>
        <time>2021-11-06T13:18:24Z</time>
      </trkpt>
      <trkpt lat="46.65653" lon="5.45308">
        <ele>216.4</ele>
        <time>2021-11-06T13:18:25Z</time>
      </trkpt>
      <trkpt lat="46.65625" lon="5.45385">
        <ele>215.6</ele>
        <time>2021-11-06T13:18:32Z</time>
      </trkpt>
      <trkpt lat="46.65621" lon="5.45396">
        <ele>215.6</ele>
        <time>2021-11-06T13:18:33Z</time>
      </trkpt>
      <trkpt lat="46.65592" lon="5.4547">
        <ele>215.4</ele>
        <time>2021-11-06T13:18:40Z</time>
      </trkpt>
      <trkpt lat="46.65584" lon="5.4549">
        <ele>215.2</ele>
        <time>2021-11-06T13:18:42Z</time>
      </trkpt>
      <trkpt lat="46.65552" lon="5.45554">
        <ele>215.2</ele>
        <time>2021-11-06T13:18:49Z</time>
      </trkpt>
      <trkpt lat="46.65548" lon="5.45563">
        <ele>215.2</ele>
        <time>2021-11-06T13:18:50Z</time>
      </trkpt>
      <trkpt lat="46.65507" lon="5.45628">
        <ele>215</ele>
        <time>2021-11-06T13:18:58Z</time>
      </trkpt>
      <trkpt lat="46.65468" lon="5.45675">
        <ele>215.4</ele>
        <time>2021-11-06T13:19:05Z</time>
      </trkpt>
      <trkpt lat="46.65407" lon="5.4572">
        <ele>215.6</ele>
        <time>2021-11-06T13:19:14Z</time>
      </trkpt>
      <trkpt lat="46.65394" lon="5.4573">
        <ele>215.4</ele>
        <time>2021-11-06T13:19:16Z</time>
      </trkpt>
      <trkpt lat="46.6534" lon="5.45771">
        <ele>215</ele>
        <time>2021-11-06T13:19:24Z</time>
      </trkpt>
      <trkpt lat="46.65327" lon="5.45782">
        <ele>214.8</ele>
        <time>2021-11-06T13:19:27Z</time>
      </trkpt>
      <trkpt lat="46.65315" lon="5.45795">
        <ele>214.8</ele>
        <time>2021-11-06T13:19:28Z</time>
      </trkpt>
      <trkpt lat="46.65307" lon="5.45814">
        <ele>215</ele>
        <time>2021-11-06T13:19:30Z</time>
      </trkpt>
      <trkpt lat="46.65289" lon="5.45875">
        <ele>215.4</ele>
        <time>2021-11-06T13:19:36Z</time>
      </trkpt>
      <trkpt lat="46.65285" lon="5.45885">
        <ele>215.4</ele>
        <time>2021-11-06T13:19:37Z</time>
      </trkpt>
      <trkpt lat="46.65271" lon="5.45911">
        <ele>215.2</ele>
        <time>2021-11-06T13:19:40Z</time>
      </trkpt>
      <trkpt lat="46.65236" lon="5.45966">
        <ele>214.6</ele>
        <time>2021-11-06T13:19:47Z</time>
      </trkpt>
      <trkpt lat="46.65231" lon="5.45974">
        <ele>214.6</ele>
        <time>2021-11-06T13:19:48Z</time>
      </trkpt>
      <trkpt lat="46.65192" lon="5.46033">
        <ele>215</ele>
        <time>2021-11-06T13:19:56Z</time>
      </trkpt>
      <trkpt lat="46.65182" lon="5.46048">
        <ele>215.4</ele>
        <time>2021-11-06T13:19:58Z</time>
      </trkpt>
      <trkpt lat="46.65144" lon="5.46108">
        <ele>215.8</ele>
        <time>2021-11-06T13:20:06Z</time>
      </trkpt>
      <trkpt lat="46.65134" lon="5.46123">
        <ele>215.8</ele>
        <time>2021-11-06T13:20:08Z</time>
      </trkpt>
      <trkpt lat="46.65129" lon="5.46131">
        <ele>215.8</ele>
        <time>2021-11-06T13:20:09Z</time>
      </trkpt>
      <trkpt lat="46.65088" lon="5.46193">
        <ele>215.8</ele>
        <time>2021-11-06T13:20:17Z</time>
      </trkpt>
      <trkpt lat="46.65067" lon="5.46225">
        <ele>215.8</ele>
        <time>2021-11-06T13:20:21Z</time>
      </trkpt>
      <trkpt lat="46.65023" lon="5.46283">
        <ele>215.4</ele>
        <time>2021-11-06T13:20:29Z</time>
      </trkpt>
      <trkpt lat="46.64989" lon="5.4631">
        <ele>215.4</ele>
        <time>2021-11-06T13:20:35Z</time>
      </trkpt>
      <trkpt lat="46.64932" lon="5.4635">
        <ele>215.2</ele>
        <time>2021-11-06T13:20:42Z</time>
      </trkpt>
      <trkpt lat="46.6491" lon="5.46363">
        <ele>214.8</ele>
        <time>2021-11-06T13:20:45Z</time>
      </trkpt>
      <trkpt lat="46.64903" lon="5.46368">
        <ele>214.8</ele>
        <time>2021-11-06T13:20:46Z</time>
      </trkpt>
      <trkpt lat="46.64854" lon="5.46403">
        <ele>214.8</ele>
        <time>2021-11-06T13:20:53Z</time>
      </trkpt>
      <trkpt lat="46.64847" lon="5.46408">
        <ele>214.8</ele>
        <time>2021-11-06T13:20:54Z</time>
      </trkpt>
      <trkpt lat="46.64799" lon="5.46446">
        <ele>214.6</ele>
        <time>2021-11-06T13:21:01Z</time>
      </trkpt>
      <trkpt lat="46.64787" lon="5.4646">
        <ele>214.6</ele>
        <time>2021-11-06T13:21:03Z</time>
      </trkpt>
      <trkpt lat="46.64738" lon="5.46526">
        <ele>214.4</ele>
        <time>2021-11-06T13:21:12Z</time>
      </trkpt>
      <trkpt lat="46.64695" lon="5.46585">
        <ele>214.8</ele>
        <time>2021-11-06T13:21:20Z</time>
      </trkpt>
      <trkpt lat="46.64668" lon="5.46622">
        <ele>214.8</ele>
        <time>2021-11-06T13:21:25Z</time>
      </trkpt>
      <trkpt lat="46.64626" lon="5.4668">
        <ele>214.8</ele>
        <time>2021-11-06T13:21:33Z</time>
      </trkpt>
      <trkpt lat="46.64626" lon="5.4668">
        <ele>214.8</ele>
        <time>2021-11-06T13:21:34Z</time>
      </trkpt>
      <trkpt lat="46.64612" lon="5.4669">
        <ele>214.8</ele>
        <time>2021-11-06T13:21:35Z</time>
      </trkpt>
      <trkpt lat="46.64605" lon="5.46691">
        <ele>214.8</ele>
        <time>2021-11-06T13:21:36Z</time>
      </trkpt>
      <trkpt lat="46.64597" lon="5.4669">
        <ele>214.8</ele>
        <time>2021-11-06T13:21:37Z</time>
      </trkpt>
      <trkpt lat="46.64582" lon="5.46683">
        <ele>214.8</ele>
        <time>2021-11-06T13:21:39Z</time>
      </trkpt>
      <trkpt lat="46.64533" lon="5.4665">
        <ele>213.8</ele>
        <time>2021-11-06T13:21:47Z</time>
      </trkpt>
      <trkpt lat="46.64505" lon="5.46636">
        <ele>213.8</ele>
        <time>2021-11-06T13:21:50Z</time>
      </trkpt>
      <trkpt lat="46.64497" lon="5.46635">
        <ele>213.8</ele>
        <time>2021-11-06T13:21:51Z</time>
      </trkpt>
      <trkpt lat="46.64452" lon="5.46624">
        <ele>214.4</ele>
        <time>2021-11-06T13:21:58Z</time>
      </trkpt>
      <trkpt lat="46.64443" lon="5.46621">
        <ele>214.4</ele>
        <time>2021-11-06T13:22:00Z</time>
      </trkpt>
      <trkpt lat="46.64437" lon="5.46619">
        <ele>215</ele>
        <time>2021-11-06T13:22:02Z</time>
      </trkpt>
      <trkpt lat="46.64433" lon="5.46615">
        <ele>215.8</ele>
        <time>2021-11-06T13:22:04Z</time>
      </trkpt>
      <trkpt lat="46.64426" lon="5.4661">
        <ele>216.2</ele>
        <time>2021-11-06T13:22:06Z</time>
      </trkpt>
      <trkpt lat="46.6441" lon="5.46607">
        <ele>217</ele>
        <time>2021-11-06T13:22:09Z</time>
      </trkpt>
      <trkpt lat="46.6441" lon="5.46607">
        <ele>217.2</ele>
        <time>2021-11-06T13:22:10Z</time>
      </trkpt>
      <trkpt lat="46.64398" lon="5.46609">
        <ele>217.2</ele>
        <time>2021-11-06T13:22:11Z</time>
      </trkpt>
      <trkpt lat="46.6438" lon="5.46612">
        <ele>217.6</ele>
        <time>2021-11-06T13:22:14Z</time>
      </trkpt>
      <trkpt lat="46.64362" lon="5.46616">
        <ele>218</ele>
        <time>2021-11-06T13:22:17Z</time>
      </trkpt>
      <trkpt lat="46.64338" lon="5.46617">
        <ele>218.2</ele>
        <time>2021-11-06T13:22:21Z</time>
      </trkpt>
      <trkpt lat="46.64298" lon="5.46608">
        <ele>218.8</ele>
        <time>2021-11-06T13:22:27Z</time>
      </trkpt>
      <trkpt lat="46.64259" lon="5.46599">
        <ele>218.6</ele>
        <time>2021-11-06T13:22:32Z</time>
      </trkpt>
      <trkpt lat="46.64204" lon="5.46588">
        <ele>216.8</ele>
        <time>2021-11-06T13:22:39Z</time>
      </trkpt>
      <trkpt lat="46.64191" lon="5.46578">
        <ele>216.6</ele>
        <time>2021-11-06T13:22:41Z</time>
      </trkpt>
      <trkpt lat="46.64186" lon="5.4657">
        <ele>216.6</ele>
        <time>2021-11-06T13:22:42Z</time>
      </trkpt>
      <trkpt lat="46.64164" lon="5.46525">
        <ele>216.2</ele>
        <time>2021-11-06T13:22:47Z</time>
      </trkpt>
      <trkpt lat="46.64146" lon="5.46488">
        <ele>216</ele>
        <time>2021-11-06T13:22:51Z</time>
      </trkpt>
      <trkpt lat="46.64141" lon="5.4648">
        <ele>216</ele>
        <time>2021-11-06T13:22:52Z</time>
      </trkpt>
      <trkpt lat="46.64134" lon="5.46474">
        <ele>216</ele>
        <time>2021-11-06T13:22:53Z</time>
      </trkpt>
      <trkpt lat="46.6412" lon="5.46466">
        <ele>216</ele>
        <time>2021-11-06T13:22:55Z</time>
      </trkpt>
      <trkpt lat="46.64113" lon="5.46463">
        <ele>216</ele>
        <time>2021-11-06T13:22:56Z</time>
      </trkpt>
      <trkpt lat="46.64054" lon="5.46439">
        <ele>216.4</ele>
        <time>2021-11-06T13:23:04Z</time>
      </trkpt>
      <trkpt lat="46.64033" lon="5.46429">
        <ele>216.4</ele>
        <time>2021-11-06T13:23:07Z</time>
      </trkpt>
      <trkpt lat="46.63992" lon="5.46407">
        <ele>216.8</ele>
        <time>2021-11-06T13:23:13Z</time>
      </trkpt>
      <trkpt lat="46.63986" lon="5.46402">
        <ele>217</ele>
        <time>2021-11-06T13:23:14Z</time>
      </trkpt>
      <trkpt lat="46.63943" lon="5.46345">
        <ele>217.2</ele>
        <time>2021-11-06T13:23:22Z</time>
      </trkpt>
      <trkpt lat="46.63938" lon="5.46336">
        <ele>217.2</ele>
        <time>2021-11-06T13:23:23Z</time>
      </trkpt>
      <trkpt lat="46.63931" lon="5.46315">
        <ele>217.2</ele>
        <time>2021-11-06T13:23:25Z</time>
      </trkpt>
      <trkpt lat="46.63929" lon="5.46304">
        <ele>217.2</ele>
        <time>2021-11-06T13:23:26Z</time>
      </trkpt>
      <trkpt lat="46.63923" lon="5.46246">
        <ele>216.8</ele>
        <time>2021-11-06T13:23:32Z</time>
      </trkpt>
      <trkpt lat="46.6392" lon="5.46222">
        <ele>216.6</ele>
        <time>2021-11-06T13:23:33Z</time>
      </trkpt>
      <trkpt lat="46.63912" lon="5.46173">
        <ele>216</ele>
        <time>2021-11-06T13:23:37Z</time>
      </trkpt>
      <trkpt lat="46.63911" lon="5.46161">
        <ele>215.8</ele>
        <time>2021-11-06T13:23:38Z</time>
      </trkpt>
      <trkpt lat="46.63904" lon="5.46112">
        <ele>215.2</ele>
        <time>2021-11-06T13:23:42Z</time>
      </trkpt>
      <trkpt lat="46.63894" lon="5.46077">
        <ele>214.4</ele>
        <time>2021-11-06T13:23:45Z</time>
      </trkpt>
      <trkpt lat="46.63889" lon="5.46055">
        <ele>214.2</ele>
        <time>2021-11-06T13:23:47Z</time>
      </trkpt>
      <trkpt lat="46.63877" lon="5.45992">
        <ele>213.2</ele>
        <time>2021-11-06T13:23:52Z</time>
      </trkpt>
      <trkpt lat="46.63867" lon="5.45931">
        <ele>212.4</ele>
        <time>2021-11-06T13:23:57Z</time>
      </trkpt>
      <trkpt lat="46.63864" lon="5.45861">
        <ele>212.2</ele>
        <time>2021-11-06T13:24:03Z</time>
      </trkpt>
      <trkpt lat="46.63864" lon="5.4585">
        <ele>212</ele>
        <time>2021-11-06T13:24:04Z</time>
      </trkpt>
      <trkpt lat="46.63863" lon="5.45838">
        <ele>212</ele>
        <time>2021-11-06T13:24:05Z</time>
      </trkpt>
      <trkpt lat="46.63859" lon="5.45814">
        <ele>211.6</ele>
        <time>2021-11-06T13:24:07Z</time>
      </trkpt>
      <trkpt lat="46.63852" lon="5.45797">
        <ele>211.4</ele>
        <time>2021-11-06T13:24:09Z</time>
      </trkpt>
      <trkpt lat="46.63841" lon="5.45777">
        <ele>211.4</ele>
        <time>2021-11-06T13:24:11Z</time>
      </trkpt>
      <trkpt lat="46.63816" lon="5.45732">
        <ele>211</ele>
        <time>2021-11-06T13:24:16Z</time>
      </trkpt>
      <trkpt lat="46.63804" lon="5.45707">
        <ele>210.8</ele>
        <time>2021-11-06T13:24:19Z</time>
      </trkpt>
      <trkpt lat="46.63769" lon="5.45648">
        <ele>211.2</ele>
        <time>2021-11-06T13:24:26Z</time>
      </trkpt>
      <trkpt lat="46.63748" lon="5.45603">
        <ele>211.2</ele>
        <time>2021-11-06T13:24:31Z</time>
      </trkpt>
      <trkpt lat="46.63729" lon="5.4553">
        <ele>211</ele>
        <time>2021-11-06T13:24:38Z</time>
      </trkpt>
      <trkpt lat="46.63709" lon="5.45446">
        <ele>211.2</ele>
        <time>2021-11-06T13:24:46Z</time>
      </trkpt>
      <trkpt lat="46.63702" lon="5.45415">
        <ele>211.2</ele>
        <time>2021-11-06T13:24:49Z</time>
      </trkpt>
      <trkpt lat="46.63682" lon="5.45339">
        <ele>211</ele>
        <time>2021-11-06T13:24:57Z</time>
      </trkpt>
      <trkpt lat="46.63674" lon="5.4532">
        <ele>211</ele>
        <time>2021-11-06T13:24:59Z</time>
      </trkpt>
      <trkpt lat="46.63666" lon="5.45308">
        <ele>211.4</ele>
        <time>2021-11-06T13:25:01Z</time>
      </trkpt>
      <trkpt lat="46.63641" lon="5.4527">
        <ele>212.2</ele>
        <time>2021-11-06T13:25:07Z</time>
      </trkpt>
      <trkpt lat="46.63623" lon="5.45228">
        <ele>213.2</ele>
        <time>2021-11-06T13:25:13Z</time>
      </trkpt>
      <trkpt lat="46.63615" lon="5.45206">
        <ele>214.4</ele>
        <time>2021-11-06T13:25:16Z</time>
      </trkpt>
      <trkpt lat="46.63608" lon="5.45186">
        <ele>215.6</ele>
        <time>2021-11-06T13:25:19Z</time>
      </trkpt>
      <trkpt lat="46.63606" lon="5.45179">
        <ele>216</ele>
        <time>2021-11-06T13:25:20Z</time>
      </trkpt>
      <trkpt lat="46.63598" lon="5.45158">
        <ele>216.8</ele>
        <time>2021-11-06T13:25:23Z</time>
      </trkpt>
      <trkpt lat="46.63586" lon="5.45134">
        <ele>217.8</ele>
        <time>2021-11-06T13:25:27Z</time>
      </trkpt>
      <trkpt lat="46.63582" lon="5.45129">
        <ele>218.2</ele>
        <time>2021-11-06T13:25:28Z</time>
      </trkpt>
      <trkpt lat="46.63568" lon="5.45109">
        <ele>219.4</ele>
        <time>2021-11-06T13:25:32Z</time>
      </trkpt>
      <trkpt lat="46.63561" lon="5.45098">
        <ele>219.8</ele>
        <time>2021-11-06T13:25:34Z</time>
      </trkpt>
      <trkpt lat="46.6355" lon="5.45084">
        <ele>220.6</ele>
        <time>2021-11-06T13:25:37Z</time>
      </trkpt>
      <trkpt lat="46.63531" lon="5.45057">
        <ele>221.8</ele>
        <time>2021-11-06T13:25:42Z</time>
      </trkpt>
      <trkpt lat="46.63514" lon="5.45035">
        <ele>222.2</ele>
        <time>2021-11-06T13:25:46Z</time>
      </trkpt>
      <trkpt lat="46.63488" lon="5.45008">
        <ele>222.2</ele>
        <time>2021-11-06T13:25:51Z</time>
      </trkpt>
      <trkpt lat="46.63448" lon="5.44983">
        <ele>221.6</ele>
        <time>2021-11-06T13:25:57Z</time>
      </trkpt>
      <trkpt lat="46.63433" lon="5.44975">
        <ele>221</ele>
        <time>2021-11-06T13:25:59Z</time>
      </trkpt>
      <trkpt lat="46.63425" lon="5.44972">
        <ele>220.6</ele>
        <time>2021-11-06T13:26:00Z</time>
      </trkpt>
      <trkpt lat="46.63408" lon="5.4497">
        <ele>220</ele>
        <time>2021-11-06T13:26:02Z</time>
      </trkpt>
      <trkpt lat="46.63391" lon="5.44971">
        <ele>219.4</ele>
        <time>2021-11-06T13:26:04Z</time>
      </trkpt>
      <trkpt lat="46.63365" lon="5.44972">
        <ele>218.8</ele>
        <time>2021-11-06T13:26:07Z</time>
      </trkpt>
      <trkpt lat="46.63356" lon="5.4497">
        <ele>218.4</ele>
        <time>2021-11-06T13:26:08Z</time>
      </trkpt>
      <trkpt lat="46.63331" lon="5.44958">
        <ele>217</ele>
        <time>2021-11-06T13:26:11Z</time>
      </trkpt>
      <trkpt lat="46.63315" lon="5.44947">
        <ele>215.6</ele>
        <time>2021-11-06T13:26:13Z</time>
      </trkpt>
      <trkpt lat="46.63298" lon="5.44937">
        <ele>214.6</ele>
        <time>2021-11-06T13:26:15Z</time>
      </trkpt>
      <trkpt lat="46.63273" lon="5.44918">
        <ele>213.4</ele>
        <time>2021-11-06T13:26:18Z</time>
      </trkpt>
      <trkpt lat="46.63265" lon="5.4491">
        <ele>213.2</ele>
        <time>2021-11-06T13:26:19Z</time>
      </trkpt>
      <trkpt lat="46.63244" lon="5.44884">
        <ele>212.4</ele>
        <time>2021-11-06T13:26:22Z</time>
      </trkpt>
      <trkpt lat="46.63223" lon="5.4486">
        <ele>211.4</ele>
        <time>2021-11-06T13:26:25Z</time>
      </trkpt>
      <trkpt lat="46.63215" lon="5.44854">
        <ele>211.2</ele>
        <time>2021-11-06T13:26:26Z</time>
      </trkpt>
      <trkpt lat="46.63184" lon="5.44831">
        <ele>210.6</ele>
        <time>2021-11-06T13:26:30Z</time>
      </trkpt>
      <trkpt lat="46.6317" lon="5.44817">
        <ele>210.4</ele>
        <time>2021-11-06T13:26:32Z</time>
      </trkpt>
      <trkpt lat="46.6316" lon="5.44798">
        <ele>210.2</ele>
        <time>2021-11-06T13:26:34Z</time>
      </trkpt>
      <trkpt lat="46.63156" lon="5.44788">
        <ele>210.2</ele>
        <time>2021-11-06T13:26:35Z</time>
      </trkpt>
      <trkpt lat="46.63151" lon="5.44779">
        <ele>210</ele>
        <time>2021-11-06T13:26:36Z</time>
      </trkpt>
      <trkpt lat="46.63139" lon="5.44762">
        <ele>210</ele>
        <time>2021-11-06T13:26:38Z</time>
      </trkpt>
      <trkpt lat="46.63125" lon="5.44749">
        <ele>210</ele>
        <time>2021-11-06T13:26:40Z</time>
      </trkpt>
      <trkpt lat="46.63111" lon="5.4474">
        <ele>210</ele>
        <time>2021-11-06T13:26:42Z</time>
      </trkpt>
      <trkpt lat="46.6306" lon="5.44715">
        <ele>209.8</ele>
        <time>2021-11-06T13:26:49Z</time>
      </trkpt>
      <trkpt lat="46.63037" lon="5.44708">
        <ele>209.8</ele>
        <time>2021-11-06T13:26:52Z</time>
      </trkpt>
      <trkpt lat="46.62999" lon="5.44706">
        <ele>209.6</ele>
        <time>2021-11-06T13:26:57Z</time>
      </trkpt>
      <trkpt lat="46.62984" lon="5.447">
        <ele>209.4</ele>
        <time>2021-11-06T13:26:59Z</time>
      </trkpt>
      <trkpt lat="46.62971" lon="5.44689">
        <ele>209.6</ele>
        <time>2021-11-06T13:27:01Z</time>
      </trkpt>
      <trkpt lat="46.6294" lon="5.44661">
        <ele>209.6</ele>
        <time>2021-11-06T13:27:06Z</time>
      </trkpt>
      <trkpt lat="46.62928" lon="5.44647">
        <ele>209.6</ele>
        <time>2021-11-06T13:27:08Z</time>
      </trkpt>
      <trkpt lat="46.62911" lon="5.44626">
        <ele>209.6</ele>
        <time>2021-11-06T13:27:11Z</time>
      </trkpt>
      <trkpt lat="46.62896" lon="5.44603">
        <ele>209.8</ele>
        <time>2021-11-06T13:27:14Z</time>
      </trkpt>
      <trkpt lat="46.62884" lon="5.44592">
        <ele>210</ele>
        <time>2021-11-06T13:27:16Z</time>
      </trkpt>
      <trkpt lat="46.62877" lon="5.4459">
        <ele>210</ele>
        <time>2021-11-06T13:27:17Z</time>
      </trkpt>
      <trkpt lat="46.6287" lon="5.44589">
        <ele>210.2</ele>
        <time>2021-11-06T13:27:18Z</time>
      </trkpt>
      <trkpt lat="46.62849" lon="5.44586">
        <ele>210.6</ele>
        <time>2021-11-06T13:27:21Z</time>
      </trkpt>
      <trkpt lat="46.62843" lon="5.44582">
        <ele>210.6</ele>
        <time>2021-11-06T13:27:22Z</time>
      </trkpt>
      <trkpt lat="46.62832" lon="5.44572">
        <ele>210.6</ele>
        <time>2021-11-06T13:27:24Z</time>
      </trkpt>
      <trkpt lat="46.62824" lon="5.44559">
        <ele>210.6</ele>
        <time>2021-11-06T13:27:26Z</time>
      </trkpt>
      <trkpt lat="46.62823" lon="5.44546">
        <ele>210.6</ele>
        <time>2021-11-06T13:27:28Z</time>
      </trkpt>
      <trkpt lat="46.62824" lon="5.44538">
        <ele>210.8</ele>
        <time>2021-11-06T13:27:29Z</time>
      </trkpt>
      <trkpt lat="46.62829" lon="5.44522">
        <ele>211</ele>
        <time>2021-11-06T13:27:32Z</time>
      </trkpt>
      <trkpt lat="46.62836" lon="5.44507">
        <ele>211.2</ele>
        <time>2021-11-06T13:27:34Z</time>
      </trkpt>
      <trkpt lat="46.62839" lon="5.445">
        <ele>211.2</ele>
        <time>2021-11-06T13:27:35Z</time>
      </trkpt>
      <trkpt lat="46.62843" lon="5.44482">
        <ele>211.2</ele>
        <time>2021-11-06T13:27:37Z</time>
      </trkpt>
      <trkpt lat="46.62844" lon="5.44472">
        <ele>211.4</ele>
        <time>2021-11-06T13:27:38Z</time>
      </trkpt>
      <trkpt lat="46.62845" lon="5.44431">
        <ele>211.6</ele>
        <time>2021-11-06T13:27:42Z</time>
      </trkpt>
      <trkpt lat="46.62844" lon="5.44349">
        <ele>212</ele>
        <time>2021-11-06T13:27:50Z</time>
      </trkpt>
      <trkpt lat="46.62841" lon="5.44285">
        <ele>212.2</ele>
        <time>2021-11-06T13:27:56Z</time>
      </trkpt>
      <trkpt lat="46.62831" lon="5.44248">
        <ele>212.4</ele>
        <time>2021-11-06T13:28:00Z</time>
      </trkpt>
      <trkpt lat="46.62828" lon="5.44239">
        <ele>212.4</ele>
        <time>2021-11-06T13:28:01Z</time>
      </trkpt>
      <trkpt lat="46.62815" lon="5.44205">
        <ele>212.6</ele>
        <time>2021-11-06T13:28:05Z</time>
      </trkpt>
      <trkpt lat="46.62808" lon="5.44193">
        <ele>212.8</ele>
        <time>2021-11-06T13:28:07Z</time>
      </trkpt>
      <trkpt lat="46.62796" lon="5.44176">
        <ele>213.4</ele>
        <time>2021-11-06T13:28:10Z</time>
      </trkpt>
      <trkpt lat="46.62781" lon="5.44156">
        <ele>214.4</ele>
        <time>2021-11-06T13:28:14Z</time>
      </trkpt>
      <trkpt lat="46.62777" lon="5.4415">
        <ele>214.6</ele>
        <time>2021-11-06T13:28:15Z</time>
      </trkpt>
      <trkpt lat="46.62765" lon="5.44131">
        <ele>215.6</ele>
        <time>2021-11-06T13:28:18Z</time>
      </trkpt>
      <trkpt lat="46.62752" lon="5.44104">
        <ele>216.6</ele>
        <time>2021-11-06T13:28:22Z</time>
      </trkpt>
      <trkpt lat="46.62738" lon="5.44061">
        <ele>217.4</ele>
        <time>2021-11-06T13:28:27Z</time>
      </trkpt>
      <trkpt lat="46.62735" lon="5.44051">
        <ele>217.6</ele>
        <time>2021-11-06T13:28:28Z</time>
      </trkpt>
      <trkpt lat="46.62716" lon="5.44003">
        <ele>217.4</ele>
        <time>2021-11-06T13:28:33Z</time>
      </trkpt>
      <trkpt lat="46.62685" lon="5.43954">
        <ele>216.2</ele>
        <time>2021-11-06T13:28:39Z</time>
      </trkpt>
      <trkpt lat="46.62679" lon="5.43947">
        <ele>216</ele>
        <time>2021-11-06T13:28:40Z</time>
      </trkpt>
      <trkpt lat="46.62654" lon="5.43917">
        <ele>215.2</ele>
        <time>2021-11-06T13:28:44Z</time>
      </trkpt>
      <trkpt lat="46.62641" lon="5.43899">
        <ele>214.8</ele>
        <time>2021-11-06T13:28:46Z</time>
      </trkpt>
      <trkpt lat="46.62638" lon="5.43892">
        <ele>214.8</ele>
        <time>2021-11-06T13:28:47Z</time>
      </trkpt>
      <trkpt lat="46.62634" lon="5.43881">
        <ele>214.6</ele>
        <time>2021-11-06T13:28:48Z</time>
      </trkpt>
      <trkpt lat="46.62631" lon="5.43857">
        <ele>214.4</ele>
        <time>2021-11-06T13:28:50Z</time>
      </trkpt>
      <trkpt lat="46.62631" lon="5.4383">
        <ele>214.2</ele>
        <time>2021-11-06T13:28:52Z</time>
      </trkpt>
      <trkpt lat="46.62629" lon="5.43785">
        <ele>213.6</ele>
        <time>2021-11-06T13:28:56Z</time>
      </trkpt>
      <trkpt lat="46.62625" lon="5.43715">
        <ele>213</ele>
        <time>2021-11-06T13:29:02Z</time>
      </trkpt>
      <trkpt lat="46.62623" lon="5.43704">
        <ele>213</ele>
        <time>2021-11-06T13:29:03Z</time>
      </trkpt>
      <trkpt lat="46.6262" lon="5.43691">
        <ele>213</ele>
        <time>2021-11-06T13:29:04Z</time>
      </trkpt>
      <trkpt lat="46.62611" lon="5.43672">
        <ele>213</ele>
        <time>2021-11-06T13:29:06Z</time>
      </trkpt>
      <trkpt lat="46.62583" lon="5.43637">
        <ele>213.2</ele>
        <time>2021-11-06T13:29:11Z</time>
      </trkpt>
      <trkpt lat="46.62542" lon="5.43594">
        <ele>213.8</ele>
        <time>2021-11-06T13:29:18Z</time>
      </trkpt>
      <trkpt lat="46.62515" lon="5.43564">
        <ele>214.4</ele>
        <time>2021-11-06T13:29:23Z</time>
      </trkpt>
      <trkpt lat="46.62499" lon="5.43546">
        <ele>214.6</ele>
        <time>2021-11-06T13:29:26Z</time>
      </trkpt>
      <trkpt lat="46.62483" lon="5.43528">
        <ele>215.6</ele>
        <time>2021-11-06T13:29:29Z</time>
      </trkpt>
      <trkpt lat="46.6245" lon="5.43493">
        <ele>216.4</ele>
        <time>2021-11-06T13:29:35Z</time>
      </trkpt>
      <trkpt lat="46.62419" lon="5.43459">
        <ele>216.8</ele>
        <time>2021-11-06T13:29:41Z</time>
      </trkpt>
      <trkpt lat="46.62409" lon="5.43447">
        <ele>217</ele>
        <time>2021-11-06T13:29:43Z</time>
      </trkpt>
      <trkpt lat="46.62368" lon="5.43401">
        <ele>217.6</ele>
        <time>2021-11-06T13:29:51Z</time>
      </trkpt>
      <trkpt lat="46.62353" lon="5.43385">
        <ele>217.8</ele>
        <time>2021-11-06T13:29:54Z</time>
      </trkpt>
      <trkpt lat="46.62328" lon="5.43358">
        <ele>218.2</ele>
        <time>2021-11-06T13:29:59Z</time>
      </trkpt>
      <trkpt lat="46.62294" lon="5.43319">
        <ele>219</ele>
        <time>2021-11-06T13:30:06Z</time>
      </trkpt>
      <trkpt lat="46.62284" lon="5.43309">
        <ele>219.6</ele>
        <time>2021-11-06T13:30:08Z</time>
      </trkpt>
      <trkpt lat="46.62247" lon="5.43266">
        <ele>220.2</ele>
        <time>2021-11-06T13:30:16Z</time>
      </trkpt>
      <trkpt lat="46.62243" lon="5.43261">
        <ele>220.2</ele>
        <time>2021-11-06T13:30:17Z</time>
      </trkpt>
      <trkpt lat="46.62224" lon="5.4323">
        <ele>221.4</ele>
        <time>2021-11-06T13:30:22Z</time>
      </trkpt>
      <trkpt lat="46.62214" lon="5.43209">
        <ele>221.6</ele>
        <time>2021-11-06T13:30:25Z</time>
      </trkpt>
      <trkpt lat="46.62197" lon="5.43169">
        <ele>222.4</ele>
        <time>2021-11-06T13:30:30Z</time>
      </trkpt>
      <trkpt lat="46.62189" lon="5.43151">
        <ele>222.4</ele>
        <time>2021-11-06T13:30:32Z</time>
      </trkpt>
      <trkpt lat="46.62164" lon="5.43092">
        <ele>222</ele>
        <time>2021-11-06T13:30:38Z</time>
      </trkpt>
      <trkpt lat="46.62154" lon="5.43071">
        <ele>221.4</ele>
        <time>2021-11-06T13:30:40Z</time>
      </trkpt>
      <trkpt lat="46.62138" lon="5.43042">
        <ele>220.8</ele>
        <time>2021-11-06T13:30:43Z</time>
      </trkpt>
      <trkpt lat="46.62131" lon="5.43034">
        <ele>220.4</ele>
        <time>2021-11-06T13:30:44Z</time>
      </trkpt>
      <trkpt lat="46.62124" lon="5.43026">
        <ele>219.6</ele>
        <time>2021-11-06T13:30:45Z</time>
      </trkpt>
      <trkpt lat="46.62109" lon="5.43013">
        <ele>219</ele>
        <time>2021-11-06T13:30:47Z</time>
      </trkpt>
      <trkpt lat="46.62061" lon="5.42973">
        <ele>218.8</ele>
        <time>2021-11-06T13:30:54Z</time>
      </trkpt>
      <trkpt lat="46.62011" lon="5.42925">
        <ele>219.4</ele>
        <time>2021-11-06T13:31:02Z</time>
      </trkpt>
      <trkpt lat="46.61993" lon="5.42904">
        <ele>220.8</ele>
        <time>2021-11-06T13:31:05Z</time>
      </trkpt>
      <trkpt lat="46.61976" lon="5.42881">
        <ele>221.2</ele>
        <time>2021-11-06T13:31:08Z</time>
      </trkpt>
      <trkpt lat="46.61938" lon="5.42823">
        <ele>221.2</ele>
        <time>2021-11-06T13:31:15Z</time>
      </trkpt>
      <trkpt lat="46.61921" lon="5.42798">
        <ele>220.6</ele>
        <time>2021-11-06T13:31:18Z</time>
      </trkpt>
      <trkpt lat="46.61889" lon="5.42762">
        <ele>220</ele>
        <time>2021-11-06T13:31:23Z</time>
      </trkpt>
      <trkpt lat="46.61874" lon="5.42752">
        <ele>219.6</ele>
        <time>2021-11-06T13:31:25Z</time>
      </trkpt>
      <trkpt lat="46.61852" lon="5.4274">
        <ele>219.4</ele>
        <time>2021-11-06T13:31:28Z</time>
      </trkpt>
      <trkpt lat="46.61808" lon="5.42716">
        <ele>218.8</ele>
        <time>2021-11-06T13:31:34Z</time>
      </trkpt>
      <trkpt lat="46.61801" lon="5.4271">
        <ele>218.6</ele>
        <time>2021-11-06T13:31:35Z</time>
      </trkpt>
      <trkpt lat="46.61757" lon="5.4267">
        <ele>218</ele>
        <time>2021-11-06T13:31:41Z</time>
      </trkpt>
      <trkpt lat="46.61751" lon="5.42661">
        <ele>217.8</ele>
        <time>2021-11-06T13:31:42Z</time>
      </trkpt>
      <trkpt lat="46.6174" lon="5.42639">
        <ele>216.8</ele>
        <time>2021-11-06T13:31:44Z</time>
      </trkpt>
      <trkpt lat="46.61731" lon="5.42616">
        <ele>215.8</ele>
        <time>2021-11-06T13:31:46Z</time>
      </trkpt>
      <trkpt lat="46.6172" lon="5.42596">
        <ele>214.8</ele>
        <time>2021-11-06T13:31:48Z</time>
      </trkpt>
      <trkpt lat="46.61713" lon="5.42588">
        <ele>214.6</ele>
        <time>2021-11-06T13:31:49Z</time>
      </trkpt>
      <trkpt lat="46.61681" lon="5.42556">
        <ele>213.6</ele>
        <time>2021-11-06T13:31:53Z</time>
      </trkpt>
      <trkpt lat="46.61654" lon="5.42537">
        <ele>212.4</ele>
        <time>2021-11-06T13:31:56Z</time>
      </trkpt>
      <trkpt lat="46.61626" lon="5.42517">
        <ele>211.8</ele>
        <time>2021-11-06T13:31:59Z</time>
      </trkpt>
      <trkpt lat="46.61617" lon="5.42509">
        <ele>211.6</ele>
        <time>2021-11-06T13:32:00Z</time>
      </trkpt>
      <trkpt lat="46.6161" lon="5.42499">
        <ele>211.2</ele>
        <time>2021-11-06T13:32:01Z</time>
      </trkpt>
      <trkpt lat="46.61604" lon="5.42487">
        <ele>210.8</ele>
        <time>2021-11-06T13:32:02Z</time>
      </trkpt>
      <trkpt lat="46.61593" lon="5.42461">
        <ele>209.6</ele>
        <time>2021-11-06T13:32:04Z</time>
      </trkpt>
      <trkpt lat="46.61579" lon="5.42421">
        <ele>208</ele>
        <time>2021-11-06T13:32:07Z</time>
      </trkpt>
      <trkpt lat="46.61575" lon="5.42407">
        <ele>207.8</ele>
        <time>2021-11-06T13:32:08Z</time>
      </trkpt>
      <trkpt lat="46.6157" lon="5.42366">
        <ele>206.8</ele>
        <time>2021-11-06T13:32:11Z</time>
      </trkpt>
      <trkpt lat="46.61561" lon="5.4229">
        <ele>206.2</ele>
        <time>2021-11-06T13:32:17Z</time>
      </trkpt>
      <trkpt lat="46.61547" lon="5.4221">
        <ele>206</ele>
        <time>2021-11-06T13:32:24Z</time>
      </trkpt>
      <trkpt lat="46.61541" lon="5.42188">
        <ele>205.8</ele>
        <time>2021-11-06T13:32:26Z</time>
      </trkpt>
      <trkpt lat="46.61526" lon="5.42136">
        <ele>205.4</ele>
        <time>2021-11-06T13:32:31Z</time>
      </trkpt>
      <trkpt lat="46.61503" lon="5.42077">
        <ele>204.8</ele>
        <time>2021-11-06T13:32:37Z</time>
      </trkpt>
      <trkpt lat="46.61498" lon="5.42069">
        <ele>204.6</ele>
        <time>2021-11-06T13:32:38Z</time>
      </trkpt>
      <trkpt lat="46.61466" lon="5.42021">
        <ele>204.4</ele>
        <time>2021-11-06T13:32:44Z</time>
      </trkpt>
      <trkpt lat="46.61432" lon="5.41946">
        <ele>204.6</ele>
        <time>2021-11-06T13:32:52Z</time>
      </trkpt>
      <trkpt lat="46.614" lon="5.41883">
        <ele>204.6</ele>
        <time>2021-11-06T13:32:59Z</time>
      </trkpt>
      <trkpt lat="46.61393" lon="5.41875">
        <ele>204.6</ele>
        <time>2021-11-06T13:33:00Z</time>
      </trkpt>
      <trkpt lat="46.61355" lon="5.41832">
        <ele>204.4</ele>
        <time>2021-11-06T13:33:06Z</time>
      </trkpt>
      <trkpt lat="46.61313" lon="5.41774">
        <ele>204</ele>
        <time>2021-11-06T13:33:13Z</time>
      </trkpt>
      <trkpt lat="46.61307" lon="5.41766">
        <ele>204</ele>
        <time>2021-11-06T13:33:14Z</time>
      </trkpt>
      <trkpt lat="46.61273" lon="5.41717">
        <ele>203.8</ele>
        <time>2021-11-06T13:33:20Z</time>
      </trkpt>
      <trkpt lat="46.61257" lon="5.41691">
        <ele>203.8</ele>
        <time>2021-11-06T13:33:23Z</time>
      </trkpt>
      <trkpt lat="46.61226" lon="5.41626">
        <ele>203.4</ele>
        <time>2021-11-06T13:33:30Z</time>
      </trkpt>
      <trkpt lat="46.61217" lon="5.41608">
        <ele>203.4</ele>
        <time>2021-11-06T13:33:32Z</time>
      </trkpt>
      <trkpt lat="46.61198" lon="5.41574">
        <ele>203.4</ele>
        <time>2021-11-06T13:33:36Z</time>
      </trkpt>
      <trkpt lat="46.61177" lon="5.41541">
        <ele>203.4</ele>
        <time>2021-11-06T13:33:40Z</time>
      </trkpt>
      <trkpt lat="46.61143" lon="5.41482">
        <ele>203.2</ele>
        <time>2021-11-06T13:33:47Z</time>
      </trkpt>
      <trkpt lat="46.61127" lon="5.41432">
        <ele>203.4</ele>
        <time>2021-11-06T13:33:52Z</time>
      </trkpt>
      <trkpt lat="46.6112" lon="5.41369">
        <ele>203.4</ele>
        <time>2021-11-06T13:33:58Z</time>
      </trkpt>
      <trkpt lat="46.61117" lon="5.41337">
        <ele>203.8</ele>
        <time>2021-11-06T13:34:01Z</time>
      </trkpt>
      <trkpt lat="46.61112" lon="5.41316">
        <ele>203.8</ele>
        <time>2021-11-06T13:34:03Z</time>
      </trkpt>
      <trkpt lat="46.61101" lon="5.41288">
        <ele>203.4</ele>
        <time>2021-11-06T13:34:06Z</time>
      </trkpt>
      <trkpt lat="46.61096" lon="5.4128">
        <ele>203.4</ele>
        <time>2021-11-06T13:34:07Z</time>
      </trkpt>
      <trkpt lat="46.6107" lon="5.4123">
        <ele>203.6</ele>
        <time>2021-11-06T13:34:13Z</time>
      </trkpt>
      <trkpt lat="46.61052" lon="5.41167">
        <ele>203.4</ele>
        <time>2021-11-06T13:34:20Z</time>
      </trkpt>
      <trkpt lat="46.61049" lon="5.4116">
        <ele>203.4</ele>
        <time>2021-11-06T13:34:21Z</time>
      </trkpt>
      <trkpt lat="46.61045" lon="5.41154">
        <ele>203.4</ele>
        <time>2021-11-06T13:34:22Z</time>
      </trkpt>
      <trkpt lat="46.6104" lon="5.41152">
        <ele>203.4</ele>
        <time>2021-11-06T13:34:23Z</time>
      </trkpt>
      <trkpt lat="46.61027" lon="5.41152">
        <ele>203.4</ele>
        <time>2021-11-06T13:34:25Z</time>
      </trkpt>
      <trkpt lat="46.61013" lon="5.41156">
        <ele>203.4</ele>
        <time>2021-11-06T13:34:27Z</time>
      </trkpt>
      <trkpt lat="46.60998" lon="5.41166">
        <ele>203.4</ele>
        <time>2021-11-06T13:34:29Z</time>
      </trkpt>
      <trkpt lat="46.60953" lon="5.41209">
        <ele>203.8</ele>
        <time>2021-11-06T13:34:36Z</time>
      </trkpt>
      <trkpt lat="46.60911" lon="5.41255">
        <ele>204.4</ele>
        <time>2021-11-06T13:34:43Z</time>
      </trkpt>
      <trkpt lat="46.6087" lon="5.41306">
        <ele>204.8</ele>
        <time>2021-11-06T13:34:51Z</time>
      </trkpt>
      <trkpt lat="46.60855" lon="5.41325">
        <ele>205</ele>
        <time>2021-11-06T13:34:54Z</time>
      </trkpt>
      <trkpt lat="46.60843" lon="5.41332">
        <ele>205</ele>
        <time>2021-11-06T13:34:56Z</time>
      </trkpt>
      <trkpt lat="46.6083" lon="5.41332">
        <ele>205.6</ele>
        <time>2021-11-06T13:34:58Z</time>
      </trkpt>
      <trkpt lat="46.60824" lon="5.4133">
        <ele>205.8</ele>
        <time>2021-11-06T13:34:59Z</time>
      </trkpt>
      <trkpt lat="46.60818" lon="5.41327">
        <ele>206</ele>
        <time>2021-11-06T13:35:00Z</time>
      </trkpt>
      <trkpt lat="46.60808" lon="5.41318">
        <ele>206.2</ele>
        <time>2021-11-06T13:35:02Z</time>
      </trkpt>
      <trkpt lat="46.60803" lon="5.41313">
        <ele>206.2</ele>
        <time>2021-11-06T13:35:03Z</time>
      </trkpt>
      <trkpt lat="46.60782" lon="5.4129">
        <ele>207</ele>
        <time>2021-11-06T13:35:08Z</time>
      </trkpt>
      <trkpt lat="46.60779" lon="5.41286">
        <ele>207.2</ele>
        <time>2021-11-06T13:35:09Z</time>
      </trkpt>
      <trkpt lat="46.60767" lon="5.41272">
        <ele>208.4</ele>
        <time>2021-11-06T13:35:12Z</time>
      </trkpt>
      <trkpt lat="46.60748" lon="5.41253">
        <ele>209.6</ele>
        <time>2021-11-06T13:35:16Z</time>
      </trkpt>
      <trkpt lat="46.60738" lon="5.41241">
        <ele>210.2</ele>
        <time>2021-11-06T13:35:18Z</time>
      </trkpt>
      <trkpt lat="46.60724" lon="5.41222">
        <ele>210.6</ele>
        <time>2021-11-06T13:35:21Z</time>
      </trkpt>
      <trkpt lat="46.60713" lon="5.41209">
        <ele>210.6</ele>
        <time>2021-11-06T13:35:23Z</time>
      </trkpt>
      <trkpt lat="46.60678" lon="5.41178">
        <ele>210.4</ele>
        <time>2021-11-06T13:35:29Z</time>
      </trkpt>
      <trkpt lat="46.60625" lon="5.4116">
        <ele>210.2</ele>
        <time>2021-11-06T13:35:37Z</time>
      </trkpt>
      <trkpt lat="46.60575" lon="5.41145">
        <ele>211</ele>
        <time>2021-11-06T13:35:45Z</time>
      </trkpt>
      <trkpt lat="46.60557" lon="5.41141">
        <ele>211.6</ele>
        <time>2021-11-06T13:35:48Z</time>
      </trkpt>
      <trkpt lat="46.60534" lon="5.41137">
        <ele>212.4</ele>
        <time>2021-11-06T13:35:52Z</time>
      </trkpt>
      <trkpt lat="46.60522" lon="5.41136">
        <ele>212.8</ele>
        <time>2021-11-06T13:35:54Z</time>
      </trkpt>
      <trkpt lat="46.60495" lon="5.41137">
        <ele>214</ele>
        <time>2021-11-06T13:35:59Z</time>
      </trkpt>
      <trkpt lat="46.60467" lon="5.41134">
        <ele>215</ele>
        <time>2021-11-06T13:36:04Z</time>
      </trkpt>
      <trkpt lat="46.60457" lon="5.41129">
        <ele>215.4</ele>
        <time>2021-11-06T13:36:06Z</time>
      </trkpt>
      <trkpt lat="46.60441" lon="5.41118">
        <ele>216</ele>
        <time>2021-11-06T13:36:09Z</time>
      </trkpt>
      <trkpt lat="46.60433" lon="5.41107">
        <ele>216.2</ele>
        <time>2021-11-06T13:36:11Z</time>
      </trkpt>
      <trkpt lat="46.60419" lon="5.41072">
        <ele>217.2</ele>
        <time>2021-11-06T13:36:16Z</time>
      </trkpt>
      <trkpt lat="46.60406" lon="5.41043">
        <ele>218</ele>
        <time>2021-11-06T13:36:20Z</time>
      </trkpt>
      <trkpt lat="46.60397" lon="5.4103">
        <ele>218.2</ele>
        <time>2021-11-06T13:36:22Z</time>
      </trkpt>
      <trkpt lat="46.60386" lon="5.41019">
        <ele>218.2</ele>
        <time>2021-11-06T13:36:24Z</time>
      </trkpt>
      <trkpt lat="46.60373" lon="5.41009">
        <ele>218.2</ele>
        <time>2021-11-06T13:36:26Z</time>
      </trkpt>
      <trkpt lat="46.60345" lon="5.40989">
        <ele>217.6</ele>
        <time>2021-11-06T13:36:30Z</time>
      </trkpt>
      <trkpt lat="46.60338" lon="5.40981">
        <ele>217.2</ele>
        <time>2021-11-06T13:36:31Z</time>
      </trkpt>
      <trkpt lat="46.60331" lon="5.40971">
        <ele>217</ele>
        <time>2021-11-06T13:36:32Z</time>
      </trkpt>
      <trkpt lat="46.60318" lon="5.40948">
        <ele>216</ele>
        <time>2021-11-06T13:36:34Z</time>
      </trkpt>
      <trkpt lat="46.60312" lon="5.40936">
        <ele>215.6</ele>
        <time>2021-11-06T13:36:35Z</time>
      </trkpt>
      <trkpt lat="46.60306" lon="5.40924">
        <ele>214.6</ele>
        <time>2021-11-06T13:36:36Z</time>
      </trkpt>
      <trkpt lat="46.60299" lon="5.40912">
        <ele>214.4</ele>
        <time>2021-11-06T13:36:37Z</time>
      </trkpt>
      <trkpt lat="46.60282" lon="5.40892">
        <ele>213.6</ele>
        <time>2021-11-06T13:36:39Z</time>
      </trkpt>
      <trkpt lat="46.60263" lon="5.40876">
        <ele>212</ele>
        <time>2021-11-06T13:36:41Z</time>
      </trkpt>
      <trkpt lat="46.60245" lon="5.40862">
        <ele>211</ele>
        <time>2021-11-06T13:36:43Z</time>
      </trkpt>
      <trkpt lat="46.60227" lon="5.40848">
        <ele>209.8</ele>
        <time>2021-11-06T13:36:45Z</time>
      </trkpt>
      <trkpt lat="46.6021" lon="5.40834">
        <ele>208.6</ele>
        <time>2021-11-06T13:36:47Z</time>
      </trkpt>
      <trkpt lat="46.60195" lon="5.40819">
        <ele>207.6</ele>
        <time>2021-11-06T13:36:49Z</time>
      </trkpt>
      <trkpt lat="46.60187" lon="5.40808">
        <ele>207.4</ele>
        <time>2021-11-06T13:36:50Z</time>
      </trkpt>
      <trkpt lat="46.60182" lon="5.40799">
        <ele>207.2</ele>
        <time>2021-11-06T13:36:51Z</time>
      </trkpt>
      <trkpt lat="46.60175" lon="5.40775">
        <ele>206.6</ele>
        <time>2021-11-06T13:36:53Z</time>
      </trkpt>
      <trkpt lat="46.60173" lon="5.40748">
        <ele>206.2</ele>
        <time>2021-11-06T13:36:55Z</time>
      </trkpt>
      <trkpt lat="46.60174" lon="5.40738">
        <ele>206.2</ele>
        <time>2021-11-06T13:36:56Z</time>
      </trkpt>
      <trkpt lat="46.60176" lon="5.40726">
        <ele>206</ele>
        <time>2021-11-06T13:36:57Z</time>
      </trkpt>
      <trkpt lat="46.60183" lon="5.40704">
        <ele>205.6</ele>
        <time>2021-11-06T13:36:59Z</time>
      </trkpt>
      <trkpt lat="46.60203" lon="5.40668">
        <ele>205.8</ele>
        <time>2021-11-06T13:37:03Z</time>
      </trkpt>
      <trkpt lat="46.60231" lon="5.40615">
        <ele>206.2</ele>
        <time>2021-11-06T13:37:09Z</time>
      </trkpt>
      <trkpt lat="46.60237" lon="5.40593">
        <ele>206.2</ele>
        <time>2021-11-06T13:37:11Z</time>
      </trkpt>
      <trkpt lat="46.60237" lon="5.40583">
        <ele>206.4</ele>
        <time>2021-11-06T13:37:12Z</time>
      </trkpt>
      <trkpt lat="46.60237" lon="5.40572">
        <ele>206.4</ele>
        <time>2021-11-06T13:37:13Z</time>
      </trkpt>
      <trkpt lat="46.60232" lon="5.40541">
        <ele>206.4</ele>
        <time>2021-11-06T13:37:16Z</time>
      </trkpt>
      <trkpt lat="46.6022" lon="5.40473">
        <ele>206.6</ele>
        <time>2021-11-06T13:37:23Z</time>
      </trkpt>
      <trkpt lat="46.60219" lon="5.40456">
        <ele>207</ele>
        <time>2021-11-06T13:37:25Z</time>
      </trkpt>
      <trkpt lat="46.6022" lon="5.40438">
        <ele>207.4</ele>
        <time>2021-11-06T13:37:27Z</time>
      </trkpt>
      <trkpt lat="46.6022" lon="5.40429">
        <ele>207.6</ele>
        <time>2021-11-06T13:37:28Z</time>
      </trkpt>
      <trkpt lat="46.60221" lon="5.40388">
        <ele>208.6</ele>
        <time>2021-11-06T13:37:33Z</time>
      </trkpt>
      <trkpt lat="46.60221" lon="5.4038">
        <ele>208.8</ele>
        <time>2021-11-06T13:37:34Z</time>
      </trkpt>
      <trkpt lat="46.60219" lon="5.40358">
        <ele>209.8</ele>
        <time>2021-11-06T13:37:37Z</time>
      </trkpt>
      <trkpt lat="46.60212" lon="5.40326">
        <ele>211</ele>
        <time>2021-11-06T13:37:41Z</time>
      </trkpt>
      <trkpt lat="46.60197" lon="5.40283">
        <ele>211.8</ele>
        <time>2021-11-06T13:37:46Z</time>
      </trkpt>
      <trkpt lat="46.60177" lon="5.40228">
        <ele>211.6</ele>
        <time>2021-11-06T13:37:52Z</time>
      </trkpt>
      <trkpt lat="46.60176" lon="5.40208">
        <ele>211.6</ele>
        <time>2021-11-06T13:37:54Z</time>
      </trkpt>
      <trkpt lat="46.60177" lon="5.40188">
        <ele>211.4</ele>
        <time>2021-11-06T13:37:56Z</time>
      </trkpt>
      <trkpt lat="46.6019" lon="5.40125">
        <ele>211.8</ele>
        <time>2021-11-06T13:38:03Z</time>
      </trkpt>
      <trkpt lat="46.60192" lon="5.40073">
        <ele>211.8</ele>
        <time>2021-11-06T13:38:08Z</time>
      </trkpt>
      <trkpt lat="46.60189" lon="5.39992">
        <ele>211.2</ele>
        <time>2021-11-06T13:38:15Z</time>
      </trkpt>
      <trkpt lat="46.60185" lon="5.39932">
        <ele>209.8</ele>
        <time>2021-11-06T13:38:20Z</time>
      </trkpt>
      <trkpt lat="46.60183" lon="5.3992">
        <ele>209.4</ele>
        <time>2021-11-06T13:38:21Z</time>
      </trkpt>
      <trkpt lat="46.60175" lon="5.39898">
        <ele>209.2</ele>
        <time>2021-11-06T13:38:23Z</time>
      </trkpt>
      <trkpt lat="46.6017" lon="5.39889">
        <ele>209.2</ele>
        <time>2021-11-06T13:38:24Z</time>
      </trkpt>
      <trkpt lat="46.60164" lon="5.39881">
        <ele>208.4</ele>
        <time>2021-11-06T13:38:25Z</time>
      </trkpt>
      <trkpt lat="46.60143" lon="5.39861">
        <ele>207.8</ele>
        <time>2021-11-06T13:38:28Z</time>
      </trkpt>
      <trkpt lat="46.60113" lon="5.39836">
        <ele>207</ele>
        <time>2021-11-06T13:38:32Z</time>
      </trkpt>
      <trkpt lat="46.60099" lon="5.39822">
        <ele>206.6</ele>
        <time>2021-11-06T13:38:34Z</time>
      </trkpt>
      <trkpt lat="46.60088" lon="5.39805">
        <ele>206.4</ele>
        <time>2021-11-06T13:38:36Z</time>
      </trkpt>
      <trkpt lat="46.60072" lon="5.39766">
        <ele>206.2</ele>
        <time>2021-11-06T13:38:40Z</time>
      </trkpt>
      <trkpt lat="46.60064" lon="5.39737">
        <ele>206.4</ele>
        <time>2021-11-06T13:38:43Z</time>
      </trkpt>
      <trkpt lat="46.60063" lon="5.39727">
        <ele>206.6</ele>
        <time>2021-11-06T13:38:44Z</time>
      </trkpt>
      <trkpt lat="46.60064" lon="5.39718">
        <ele>206.8</ele>
        <time>2021-11-06T13:38:45Z</time>
      </trkpt>
      <trkpt lat="46.60071" lon="5.397">
        <ele>207</ele>
        <time>2021-11-06T13:38:47Z</time>
      </trkpt>
      <trkpt lat="46.60084" lon="5.39668">
        <ele>207.4</ele>
        <time>2021-11-06T13:38:51Z</time>
      </trkpt>
      <trkpt lat="46.60086" lon="5.3966">
        <ele>207.6</ele>
        <time>2021-11-06T13:38:52Z</time>
      </trkpt>
      <trkpt lat="46.60088" lon="5.39652">
        <ele>207.6</ele>
        <time>2021-11-06T13:38:53Z</time>
      </trkpt>
      <trkpt lat="46.6009" lon="5.39635">
        <ele>207.8</ele>
        <time>2021-11-06T13:38:55Z</time>
      </trkpt>
      <trkpt lat="46.6009" lon="5.39627">
        <ele>207.8</ele>
        <time>2021-11-06T13:38:56Z</time>
      </trkpt>
      <trkpt lat="46.6009" lon="5.39619">
        <ele>208</ele>
        <time>2021-11-06T13:38:57Z</time>
      </trkpt>
      <trkpt lat="46.60089" lon="5.39611">
        <ele>208.2</ele>
        <time>2021-11-06T13:38:58Z</time>
      </trkpt>
      <trkpt lat="46.60087" lon="5.39603">
        <ele>208.4</ele>
        <time>2021-11-06T13:38:59Z</time>
      </trkpt>
      <trkpt lat="46.60083" lon="5.39588">
        <ele>209.2</ele>
        <time>2021-11-06T13:39:01Z</time>
      </trkpt>
      <trkpt lat="46.60075" lon="5.39567">
        <ele>210.4</ele>
        <time>2021-11-06T13:39:04Z</time>
      </trkpt>
      <trkpt lat="46.60059" lon="5.39533">
        <ele>211.6</ele>
        <time>2021-11-06T13:39:09Z</time>
      </trkpt>
      <trkpt lat="46.60046" lon="5.395">
        <ele>212.6</ele>
        <time>2021-11-06T13:39:14Z</time>
      </trkpt>
      <trkpt lat="46.60044" lon="5.39494">
        <ele>212.8</ele>
        <time>2021-11-06T13:39:15Z</time>
      </trkpt>
      <trkpt lat="46.60039" lon="5.39461">
        <ele>214.2</ele>
        <time>2021-11-06T13:39:20Z</time>
      </trkpt>
      <trkpt lat="46.6004" lon="5.39445">
        <ele>214.6</ele>
        <time>2021-11-06T13:39:22Z</time>
      </trkpt>
      <trkpt lat="46.60042" lon="5.39423">
        <ele>215.2</ele>
        <time>2021-11-06T13:39:25Z</time>
      </trkpt>
      <trkpt lat="46.60043" lon="5.39414">
        <ele>215.6</ele>
        <time>2021-11-06T13:39:26Z</time>
      </trkpt>
      <trkpt lat="46.60053" lon="5.3936">
        <ele>216</ele>
        <time>2021-11-06T13:39:32Z</time>
      </trkpt>
      <trkpt lat="46.60057" lon="5.39305">
        <ele>215.6</ele>
        <time>2021-11-06T13:39:38Z</time>
      </trkpt>
      <trkpt lat="46.60057" lon="5.39297">
        <ele>215.6</ele>
        <time>2021-11-06T13:39:39Z</time>
      </trkpt>
      <trkpt lat="46.60054" lon="5.39273">
        <ele>215.6</ele>
        <time>2021-11-06T13:39:42Z</time>
      </trkpt>
      <trkpt lat="46.60047" lon="5.39247">
        <ele>216.2</ele>
        <time>2021-11-06T13:39:46Z</time>
      </trkpt>
      <trkpt lat="46.60044" lon="5.39241">
        <ele>216.4</ele>
        <time>2021-11-06T13:39:47Z</time>
      </trkpt>
      <trkpt lat="46.60042" lon="5.39236">
        <ele>216.8</ele>
        <time>2021-11-06T13:39:48Z</time>
      </trkpt>
      <trkpt lat="46.60033" lon="5.3922">
        <ele>217.6</ele>
        <time>2021-11-06T13:39:51Z</time>
      </trkpt>
      <trkpt lat="46.60026" lon="5.39211">
        <ele>218.4</ele>
        <time>2021-11-06T13:39:53Z</time>
      </trkpt>
      <trkpt lat="46.60022" lon="5.39207">
        <ele>218.8</ele>
        <time>2021-11-06T13:39:54Z</time>
      </trkpt>
      <trkpt lat="46.60005" lon="5.39194">
        <ele>219.8</ele>
        <time>2021-11-06T13:39:58Z</time>
      </trkpt>
      <trkpt lat="46.59989" lon="5.39188">
        <ele>220.6</ele>
        <time>2021-11-06T13:40:01Z</time>
      </trkpt>
      <trkpt lat="46.59978" lon="5.39186">
        <ele>221</ele>
        <time>2021-11-06T13:40:03Z</time>
      </trkpt>
      <trkpt lat="46.59956" lon="5.39183">
        <ele>221.2</ele>
        <time>2021-11-06T13:40:07Z</time>
      </trkpt>
      <trkpt lat="46.5994" lon="5.39182">
        <ele>221.6</ele>
        <time>2021-11-06T13:40:10Z</time>
      </trkpt>
      <trkpt lat="46.59927" lon="5.39177">
        <ele>222</ele>
        <time>2021-11-06T13:40:13Z</time>
      </trkpt>
      <trkpt lat="46.59923" lon="5.39177">
        <ele>222.2</ele>
        <time>2021-11-06T13:40:14Z</time>
      </trkpt>
      <trkpt lat="46.59918" lon="5.39178">
        <ele>222.2</ele>
        <time>2021-11-06T13:40:15Z</time>
      </trkpt>
      <trkpt lat="46.59909" lon="5.39182">
        <ele>222.8</ele>
        <time>2021-11-06T13:40:17Z</time>
      </trkpt>
      <trkpt lat="46.59892" lon="5.3919">
        <ele>223.2</ele>
        <time>2021-11-06T13:40:20Z</time>
      </trkpt>
      <trkpt lat="46.59886" lon="5.39192">
        <ele>223.2</ele>
        <time>2021-11-06T13:40:21Z</time>
      </trkpt>
      <trkpt lat="46.5988" lon="5.39193">
        <ele>223.4</ele>
        <time>2021-11-06T13:40:22Z</time>
      </trkpt>
      <trkpt lat="46.59856" lon="5.39197">
        <ele>223.8</ele>
        <time>2021-11-06T13:40:26Z</time>
      </trkpt>
      <trkpt lat="46.59845" lon="5.39194">
        <ele>224</ele>
        <time>2021-11-06T13:40:28Z</time>
      </trkpt>
      <trkpt lat="46.59832" lon="5.39191">
        <ele>224.2</ele>
        <time>2021-11-06T13:40:30Z</time>
      </trkpt>
      <trkpt lat="46.59808" lon="5.39189">
        <ele>224.4</ele>
        <time>2021-11-06T13:40:34Z</time>
      </trkpt>
      <trkpt lat="46.59769" lon="5.39199">
        <ele>224.8</ele>
        <time>2021-11-06T13:40:40Z</time>
      </trkpt>
      <trkpt lat="46.59751" lon="5.39208">
        <ele>225</ele>
        <time>2021-11-06T13:40:43Z</time>
      </trkpt>
      <trkpt lat="46.59745" lon="5.39209">
        <ele>225.2</ele>
        <time>2021-11-06T13:40:44Z</time>
      </trkpt>
      <trkpt lat="46.59738" lon="5.39207">
        <ele>225.2</ele>
        <time>2021-11-06T13:40:45Z</time>
      </trkpt>
      <trkpt lat="46.59732" lon="5.39205">
        <ele>225.2</ele>
        <time>2021-11-06T13:40:46Z</time>
      </trkpt>
      <trkpt lat="46.59714" lon="5.39198">
        <ele>225.6</ele>
        <time>2021-11-06T13:40:49Z</time>
      </trkpt>
      <trkpt lat="46.59671" lon="5.39189">
        <ele>226.6</ele>
        <time>2021-11-06T13:40:56Z</time>
      </trkpt>
      <trkpt lat="46.59665" lon="5.39189">
        <ele>226.6</ele>
        <time>2021-11-06T13:40:57Z</time>
      </trkpt>
      <trkpt lat="46.59631" lon="5.39183">
        <ele>226</ele>
        <time>2021-11-06T13:41:03Z</time>
      </trkpt>
      <trkpt lat="46.59625" lon="5.39183">
        <ele>225.8</ele>
        <time>2021-11-06T13:41:05Z</time>
      </trkpt>
      <trkpt lat="46.59625" lon="5.39185">
        <ele>225.6</ele>
        <time>2021-11-06T13:41:06Z</time>
      </trkpt>
      <trkpt lat="46.59635" lon="5.39187">
        <ele>225.4</ele>
        <time>2021-11-06T13:41:10Z</time>
      </trkpt>
      <trkpt lat="46.59642" lon="5.39188">
        <ele>225.4</ele>
        <time>2021-11-06T13:41:12Z</time>
      </trkpt>
      <trkpt lat="46.5966" lon="5.39191">
        <ele>225.6</ele>
        <time>2021-11-06T13:41:17Z</time>
      </trkpt>
      <trkpt lat="46.59661" lon="5.39189">
        <ele>225.6</ele>
        <time>2021-11-06T13:41:19Z</time>
      </trkpt>
      <trkpt lat="46.59661" lon="5.39189">
        <ele>225.6</ele>
        <time>2021-11-06T13:41:21Z</time>
      </trkpt>
      <trkpt lat="46.59655" lon="5.39187">
        <ele>225.4</ele>
        <time>2021-11-06T13:41:25Z</time>
      </trkpt>
      <trkpt lat="46.59653" lon="5.39187">
        <ele>225.6</ele>
        <time>2021-11-06T13:41:26Z</time>
      </trkpt>
      <trkpt lat="46.59633" lon="5.39184">
        <ele>225.4</ele>
        <time>2021-11-06T13:41:31Z</time>
      </trkpt>
      <trkpt lat="46.59607" lon="5.39187">
        <ele>225.4</ele>
        <time>2021-11-06T13:41:36Z</time>
      </trkpt>
      <trkpt lat="46.59575" lon="5.39203">
        <ele>225.4</ele>
        <time>2021-11-06T13:41:42Z</time>
      </trkpt>
      <trkpt lat="46.59569" lon="5.39205">
        <ele>225.4</ele>
        <time>2021-11-06T13:41:43Z</time>
      </trkpt>
      <trkpt lat="46.59542" lon="5.39208">
        <ele>225.4</ele>
        <time>2021-11-06T13:41:47Z</time>
      </trkpt>
      <trkpt lat="46.59528" lon="5.39209">
        <ele>225.4</ele>
        <time>2021-11-06T13:41:49Z</time>
      </trkpt>
      <trkpt lat="46.59508" lon="5.39214">
        <ele>225.2</ele>
        <time>2021-11-06T13:41:52Z</time>
      </trkpt>
      <trkpt lat="46.59454" lon="5.39229">
        <ele>225.4</ele>
        <time>2021-11-06T13:42:00Z</time>
      </trkpt>
      <trkpt lat="46.59403" lon="5.3925">
        <ele>225.4</ele>
        <time>2021-11-06T13:42:07Z</time>
      </trkpt>
      <trkpt lat="46.59371" lon="5.39282">
        <ele>224.6</ele>
        <time>2021-11-06T13:42:12Z</time>
      </trkpt>
      <trkpt lat="46.59364" lon="5.39289">
        <ele>224.6</ele>
        <time>2021-11-06T13:42:13Z</time>
      </trkpt>
      <trkpt lat="46.59337" lon="5.39321">
        <ele>223.8</ele>
        <time>2021-11-06T13:42:17Z</time>
      </trkpt>
      <trkpt lat="46.59323" lon="5.39336">
        <ele>223.4</ele>
        <time>2021-11-06T13:42:19Z</time>
      </trkpt>
      <trkpt lat="46.59285" lon="5.39369">
        <ele>222.2</ele>
        <time>2021-11-06T13:42:24Z</time>
      </trkpt>
      <trkpt lat="46.59239" lon="5.39399">
        <ele>221.2</ele>
        <time>2021-11-06T13:42:30Z</time>
      </trkpt>
      <trkpt lat="46.59209" lon="5.39417">
        <ele>220.4</ele>
        <time>2021-11-06T13:42:34Z</time>
      </trkpt>
      <trkpt lat="46.59194" lon="5.39425">
        <ele>219.8</ele>
        <time>2021-11-06T13:42:36Z</time>
      </trkpt>
      <trkpt lat="46.59171" lon="5.39433">
        <ele>219.2</ele>
        <time>2021-11-06T13:42:39Z</time>
      </trkpt>
      <trkpt lat="46.59163" lon="5.39433">
        <ele>219</ele>
        <time>2021-11-06T13:42:40Z</time>
      </trkpt>
      <trkpt lat="46.59146" lon="5.39433">
        <ele>218.6</ele>
        <time>2021-11-06T13:42:42Z</time>
      </trkpt>
      <trkpt lat="46.59127" lon="5.39432">
        <ele>218</ele>
        <time>2021-11-06T13:42:44Z</time>
      </trkpt>
      <trkpt lat="46.59099" lon="5.3943">
        <ele>217.4</ele>
        <time>2021-11-06T13:42:47Z</time>
      </trkpt>
      <trkpt lat="46.59069" lon="5.39429">
        <ele>216.2</ele>
        <time>2021-11-06T13:42:50Z</time>
      </trkpt>
      <trkpt lat="46.59059" lon="5.39429">
        <ele>216</ele>
        <time>2021-11-06T13:42:51Z</time>
      </trkpt>
      <trkpt lat="46.5905" lon="5.39431">
        <ele>215.6</ele>
        <time>2021-11-06T13:42:52Z</time>
      </trkpt>
      <trkpt lat="46.59032" lon="5.39439">
        <ele>214.8</ele>
        <time>2021-11-06T13:42:54Z</time>
      </trkpt>
      <trkpt lat="46.59001" lon="5.39471">
        <ele>213.8</ele>
        <time>2021-11-06T13:42:58Z</time>
      </trkpt>
      <trkpt lat="46.58964" lon="5.3952">
        <ele>213.2</ele>
        <time>2021-11-06T13:43:04Z</time>
      </trkpt>
      <trkpt lat="46.58942" lon="5.39545">
        <ele>213</ele>
        <time>2021-11-06T13:43:08Z</time>
      </trkpt>
      <trkpt lat="46.58935" lon="5.39549">
        <ele>212.8</ele>
        <time>2021-11-06T13:43:09Z</time>
      </trkpt>
      <trkpt lat="46.58928" lon="5.39549">
        <ele>212.8</ele>
        <time>2021-11-06T13:43:10Z</time>
      </trkpt>
      <trkpt lat="46.58922" lon="5.39548">
        <ele>212.8</ele>
        <time>2021-11-06T13:43:11Z</time>
      </trkpt>
      <trkpt lat="46.58915" lon="5.39546">
        <ele>212.8</ele>
        <time>2021-11-06T13:43:12Z</time>
      </trkpt>
      <trkpt lat="46.58874" lon="5.39528">
        <ele>212.6</ele>
        <time>2021-11-06T13:43:18Z</time>
      </trkpt>
      <trkpt lat="46.58866" lon="5.39522">
        <ele>212.6</ele>
        <time>2021-11-06T13:43:19Z</time>
      </trkpt>
      <trkpt lat="46.58853" lon="5.39507">
        <ele>212.6</ele>
        <time>2021-11-06T13:43:21Z</time>
      </trkpt>
      <trkpt lat="46.58822" lon="5.39452">
        <ele>213.2</ele>
        <time>2021-11-06T13:43:27Z</time>
      </trkpt>
      <trkpt lat="46.58788" lon="5.39396">
        <ele>213.6</ele>
        <time>2021-11-06T13:43:34Z</time>
      </trkpt>
      <trkpt lat="46.58778" lon="5.39385">
        <ele>213.8</ele>
        <time>2021-11-06T13:43:36Z</time>
      </trkpt>
      <trkpt lat="46.58762" lon="5.39373">
        <ele>214.2</ele>
        <time>2021-11-06T13:43:39Z</time>
      </trkpt>
      <trkpt lat="46.58746" lon="5.39364">
        <ele>214.8</ele>
        <time>2021-11-06T13:43:42Z</time>
      </trkpt>
      <trkpt lat="46.58724" lon="5.39353">
        <ele>216</ele>
        <time>2021-11-06T13:43:46Z</time>
      </trkpt>
      <trkpt lat="46.58719" lon="5.39351">
        <ele>216.6</ele>
        <time>2021-11-06T13:43:47Z</time>
      </trkpt>
      <trkpt lat="46.58708" lon="5.39345">
        <ele>217.2</ele>
        <time>2021-11-06T13:43:49Z</time>
      </trkpt>
      <trkpt lat="46.5868" lon="5.3933">
        <ele>218.2</ele>
        <time>2021-11-06T13:43:54Z</time>
      </trkpt>
      <trkpt lat="46.58655" lon="5.39319">
        <ele>218.4</ele>
        <time>2021-11-06T13:43:58Z</time>
      </trkpt>
      <trkpt lat="46.58608" lon="5.393">
        <ele>219</ele>
        <time>2021-11-06T13:44:06Z</time>
      </trkpt>
      <trkpt lat="46.58603" lon="5.39297">
        <ele>219.2</ele>
        <time>2021-11-06T13:44:07Z</time>
      </trkpt>
      <trkpt lat="46.58576" lon="5.39288">
        <ele>220.4</ele>
        <time>2021-11-06T13:44:12Z</time>
      </trkpt>
      <trkpt lat="46.58571" lon="5.39287">
        <ele>220.8</ele>
        <time>2021-11-06T13:44:13Z</time>
      </trkpt>
      <trkpt lat="46.58556" lon="5.39282">
        <ele>221.6</ele>
        <time>2021-11-06T13:44:16Z</time>
      </trkpt>
      <trkpt lat="46.58528" lon="5.39274">
        <ele>222.6</ele>
        <time>2021-11-06T13:44:21Z</time>
      </trkpt>
      <trkpt lat="46.58522" lon="5.39273">
        <ele>222.8</ele>
        <time>2021-11-06T13:44:22Z</time>
      </trkpt>
      <trkpt lat="46.58516" lon="5.39271">
        <ele>223</ele>
        <time>2021-11-06T13:44:23Z</time>
      </trkpt>
      <trkpt lat="46.58472" lon="5.39256">
        <ele>222.8</ele>
        <time>2021-11-06T13:44:30Z</time>
      </trkpt>
      <trkpt lat="46.58419" lon="5.39235">
        <ele>222.4</ele>
        <time>2021-11-06T13:44:37Z</time>
      </trkpt>
      <trkpt lat="46.58363" lon="5.39212">
        <ele>222</ele>
        <time>2021-11-06T13:44:44Z</time>
      </trkpt>
      <trkpt lat="46.58347" lon="5.39205">
        <ele>221.6</ele>
        <time>2021-11-06T13:44:46Z</time>
      </trkpt>
      <trkpt lat="46.58299" lon="5.39186">
        <ele>221</ele>
        <time>2021-11-06T13:44:52Z</time>
      </trkpt>
      <trkpt lat="46.58275" lon="5.39176">
        <ele>220.6</ele>
        <time>2021-11-06T13:44:55Z</time>
      </trkpt>
      <trkpt lat="46.58232" lon="5.3916">
        <ele>220</ele>
        <time>2021-11-06T13:45:00Z</time>
      </trkpt>
      <trkpt lat="46.58187" lon="5.39142">
        <ele>219.4</ele>
        <time>2021-11-06T13:45:05Z</time>
      </trkpt>
      <trkpt lat="46.58151" lon="5.39131">
        <ele>218</ele>
        <time>2021-11-06T13:45:09Z</time>
      </trkpt>
      <trkpt lat="46.58101" lon="5.39124">
        <ele>216.8</ele>
        <time>2021-11-06T13:45:14Z</time>
      </trkpt>
      <trkpt lat="46.58091" lon="5.39123">
        <ele>216.4</ele>
        <time>2021-11-06T13:45:15Z</time>
      </trkpt>
      <trkpt lat="46.58069" lon="5.39121">
        <ele>215.6</ele>
        <time>2021-11-06T13:45:17Z</time>
      </trkpt>
      <trkpt lat="46.58037" lon="5.39118">
        <ele>214.2</ele>
        <time>2021-11-06T13:45:20Z</time>
      </trkpt>
      <trkpt lat="46.58007" lon="5.39115">
        <ele>213.2</ele>
        <time>2021-11-06T13:45:23Z</time>
      </trkpt>
      <trkpt lat="46.57997" lon="5.39114">
        <ele>213</ele>
        <time>2021-11-06T13:45:24Z</time>
      </trkpt>
      <trkpt lat="46.57942" lon="5.39107">
        <ele>212.2</ele>
        <time>2021-11-06T13:45:30Z</time>
      </trkpt>
      <trkpt lat="46.57933" lon="5.39107">
        <ele>212.2</ele>
        <time>2021-11-06T13:45:31Z</time>
      </trkpt>
      <trkpt lat="46.57883" lon="5.39106">
        <ele>212</ele>
        <time>2021-11-06T13:45:37Z</time>
      </trkpt>
      <trkpt lat="46.57866" lon="5.3911">
        <ele>212</ele>
        <time>2021-11-06T13:45:39Z</time>
      </trkpt>
      <trkpt lat="46.5785" lon="5.39108">
        <ele>212</ele>
        <time>2021-11-06T13:45:41Z</time>
      </trkpt>
      <trkpt lat="46.57834" lon="5.39105">
        <ele>212.2</ele>
        <time>2021-11-06T13:45:43Z</time>
      </trkpt>
      <trkpt lat="46.57819" lon="5.39108">
        <ele>212</ele>
        <time>2021-11-06T13:45:45Z</time>
      </trkpt>
      <trkpt lat="46.57796" lon="5.39116">
        <ele>212.4</ele>
        <time>2021-11-06T13:45:48Z</time>
      </trkpt>
      <trkpt lat="46.57788" lon="5.39115">
        <ele>212.4</ele>
        <time>2021-11-06T13:45:49Z</time>
      </trkpt>
      <trkpt lat="46.57744" lon="5.39102">
        <ele>212.2</ele>
        <time>2021-11-06T13:45:55Z</time>
      </trkpt>
      <trkpt lat="46.57729" lon="5.39098">
        <ele>212.2</ele>
        <time>2021-11-06T13:45:57Z</time>
      </trkpt>
      <trkpt lat="46.57715" lon="5.391">
        <ele>212.4</ele>
        <time>2021-11-06T13:45:59Z</time>
      </trkpt>
      <trkpt lat="46.57703" lon="5.39113">
        <ele>212.4</ele>
        <time>2021-11-06T13:46:01Z</time>
      </trkpt>
      <trkpt lat="46.57698" lon="5.39121">
        <ele>212.4</ele>
        <time>2021-11-06T13:46:02Z</time>
      </trkpt>
      <trkpt lat="46.57693" lon="5.39129">
        <ele>212.4</ele>
        <time>2021-11-06T13:46:03Z</time>
      </trkpt>
      <trkpt lat="46.57681" lon="5.39136">
        <ele>212.6</ele>
        <time>2021-11-06T13:46:05Z</time>
      </trkpt>
      <trkpt lat="46.57667" lon="5.3913">
        <ele>212.6</ele>
        <time>2021-11-06T13:46:07Z</time>
      </trkpt>
      <trkpt lat="46.57661" lon="5.39125">
        <ele>212.8</ele>
        <time>2021-11-06T13:46:08Z</time>
      </trkpt>
      <trkpt lat="46.57606" lon="5.39092">
        <ele>213.6</ele>
        <time>2021-11-06T13:46:16Z</time>
      </trkpt>
      <trkpt lat="46.57599" lon="5.39089">
        <ele>213.8</ele>
        <time>2021-11-06T13:46:17Z</time>
      </trkpt>
      <trkpt lat="46.57554" lon="5.39081">
        <ele>213.8</ele>
        <time>2021-11-06T13:46:23Z</time>
      </trkpt>
      <trkpt lat="46.57495" lon="5.39086">
        <ele>213.2</ele>
        <time>2021-11-06T13:46:31Z</time>
      </trkpt>
      <trkpt lat="46.57448" lon="5.39092">
        <ele>213.8</ele>
        <time>2021-11-06T13:46:38Z</time>
      </trkpt>
      <trkpt lat="46.57437" lon="5.39092">
        <ele>213.8</ele>
        <time>2021-11-06T13:46:40Z</time>
      </trkpt>
      <trkpt lat="46.57429" lon="5.39086">
        <ele>214</ele>
        <time>2021-11-06T13:46:42Z</time>
      </trkpt>
      <trkpt lat="46.57428" lon="5.39073">
        <ele>214</ele>
        <time>2021-11-06T13:46:44Z</time>
      </trkpt>
      <trkpt lat="46.57429" lon="5.39065">
        <ele>214</ele>
        <time>2021-11-06T13:46:45Z</time>
      </trkpt>
      <trkpt lat="46.5743" lon="5.39018">
        <ele>213.4</ele>
        <time>2021-11-06T13:46:50Z</time>
      </trkpt>
      <trkpt lat="46.57431" lon="5.38944">
        <ele>213.4</ele>
        <time>2021-11-06T13:46:57Z</time>
      </trkpt>
      <trkpt lat="46.57442" lon="5.38873">
        <ele>212.8</ele>
        <time>2021-11-06T13:47:04Z</time>
      </trkpt>
      <trkpt lat="46.57449" lon="5.38856">
        <ele>212.6</ele>
        <time>2021-11-06T13:47:06Z</time>
      </trkpt>
      <trkpt lat="46.57459" lon="5.38842">
        <ele>212.4</ele>
        <time>2021-11-06T13:47:08Z</time>
      </trkpt>
      <trkpt lat="46.57471" lon="5.38832">
        <ele>212.4</ele>
        <time>2021-11-06T13:47:10Z</time>
      </trkpt>
      <trkpt lat="46.57484" lon="5.38825">
        <ele>212.4</ele>
        <time>2021-11-06T13:47:12Z</time>
      </trkpt>
      <trkpt lat="46.57533" lon="5.3881">
        <ele>212.8</ele>
        <time>2021-11-06T13:47:20Z</time>
      </trkpt>
      <trkpt lat="46.57549" lon="5.38801">
        <ele>213</ele>
        <time>2021-11-06T13:47:23Z</time>
      </trkpt>
      <trkpt lat="46.57559" lon="5.38792">
        <ele>213.2</ele>
        <time>2021-11-06T13:47:25Z</time>
      </trkpt>
      <trkpt lat="46.57566" lon="5.38779">
        <ele>213.2</ele>
        <time>2021-11-06T13:47:27Z</time>
      </trkpt>
      <trkpt lat="46.5757" lon="5.38764">
        <ele>213.4</ele>
        <time>2021-11-06T13:47:29Z</time>
      </trkpt>
      <trkpt lat="46.57572" lon="5.3874">
        <ele>213.8</ele>
        <time>2021-11-06T13:47:32Z</time>
      </trkpt>
      <trkpt lat="46.57574" lon="5.38717">
        <ele>214.2</ele>
        <time>2021-11-06T13:47:35Z</time>
      </trkpt>
      <trkpt lat="46.57578" lon="5.38702">
        <ele>214.4</ele>
        <time>2021-11-06T13:47:37Z</time>
      </trkpt>
      <trkpt lat="46.5758" lon="5.38694">
        <ele>214.8</ele>
        <time>2021-11-06T13:47:38Z</time>
      </trkpt>
      <trkpt lat="46.57586" lon="5.38678">
        <ele>215.2</ele>
        <time>2021-11-06T13:47:40Z</time>
      </trkpt>
      <trkpt lat="46.57591" lon="5.3867">
        <ele>215.4</ele>
        <time>2021-11-06T13:47:41Z</time>
      </trkpt>
      <trkpt lat="46.57599" lon="5.38654">
        <ele>215.4</ele>
        <time>2021-11-06T13:47:43Z</time>
      </trkpt>
      <trkpt lat="46.57606" lon="5.38636">
        <ele>215.2</ele>
        <time>2021-11-06T13:47:45Z</time>
      </trkpt>
      <trkpt lat="46.57609" lon="5.38625">
        <ele>214.8</ele>
        <time>2021-11-06T13:47:46Z</time>
      </trkpt>
      <trkpt lat="46.5761" lon="5.38615">
        <ele>214.6</ele>
        <time>2021-11-06T13:47:47Z</time>
      </trkpt>
      <trkpt lat="46.57608" lon="5.38592">
        <ele>214</ele>
        <time>2021-11-06T13:47:49Z</time>
      </trkpt>
      <trkpt lat="46.57603" lon="5.38571">
        <ele>213.6</ele>
        <time>2021-11-06T13:47:51Z</time>
      </trkpt>
      <trkpt lat="46.57594" lon="5.38519">
        <ele>213</ele>
        <time>2021-11-06T13:47:56Z</time>
      </trkpt>
      <trkpt lat="46.57593" lon="5.38496">
        <ele>212.8</ele>
        <time>2021-11-06T13:47:58Z</time>
      </trkpt>
      <trkpt lat="46.57593" lon="5.38485">
        <ele>212.6</ele>
        <time>2021-11-06T13:47:59Z</time>
      </trkpt>
      <trkpt lat="46.57595" lon="5.38473">
        <ele>212.4</ele>
        <time>2021-11-06T13:48:00Z</time>
      </trkpt>
      <trkpt lat="46.57597" lon="5.38461">
        <ele>212.2</ele>
        <time>2021-11-06T13:48:01Z</time>
      </trkpt>
      <trkpt lat="46.57603" lon="5.38439">
        <ele>211.6</ele>
        <time>2021-11-06T13:48:03Z</time>
      </trkpt>
      <trkpt lat="46.57606" lon="5.38428">
        <ele>211.2</ele>
        <time>2021-11-06T13:48:04Z</time>
      </trkpt>
      <trkpt lat="46.57612" lon="5.38407">
        <ele>211</ele>
        <time>2021-11-06T13:48:06Z</time>
      </trkpt>
      <trkpt lat="46.57614" lon="5.38396">
        <ele>210.4</ele>
        <time>2021-11-06T13:48:07Z</time>
      </trkpt>
      <trkpt lat="46.57617" lon="5.38375">
        <ele>210.2</ele>
        <time>2021-11-06T13:48:09Z</time>
      </trkpt>
      <trkpt lat="46.57622" lon="5.38336">
        <ele>210</ele>
        <time>2021-11-06T13:48:13Z</time>
      </trkpt>
      <trkpt lat="46.57623" lon="5.38326">
        <ele>210.2</ele>
        <time>2021-11-06T13:48:14Z</time>
      </trkpt>
      <trkpt lat="46.57622" lon="5.38317">
        <ele>210.2</ele>
        <time>2021-11-06T13:48:15Z</time>
      </trkpt>
      <trkpt lat="46.57617" lon="5.38298">
        <ele>210.4</ele>
        <time>2021-11-06T13:48:17Z</time>
      </trkpt>
      <trkpt lat="46.57613" lon="5.38288">
        <ele>210.4</ele>
        <time>2021-11-06T13:48:18Z</time>
      </trkpt>
      <trkpt lat="46.57592" lon="5.38249">
        <ele>210.2</ele>
        <time>2021-11-06T13:48:22Z</time>
      </trkpt>
      <trkpt lat="46.57578" lon="5.38231">
        <ele>209.8</ele>
        <time>2021-11-06T13:48:24Z</time>
      </trkpt>
      <trkpt lat="46.57563" lon="5.38217">
        <ele>209.2</ele>
        <time>2021-11-06T13:48:26Z</time>
      </trkpt>
      <trkpt lat="46.57539" lon="5.38198">
        <ele>207.8</ele>
        <time>2021-11-06T13:48:29Z</time>
      </trkpt>
      <trkpt lat="46.57495" lon="5.38164">
        <ele>207</ele>
        <time>2021-11-06T13:48:35Z</time>
      </trkpt>
      <trkpt lat="46.57445" lon="5.38125">
        <ele>207</ele>
        <time>2021-11-06T13:48:42Z</time>
      </trkpt>
      <trkpt lat="46.57397" lon="5.38087">
        <ele>207</ele>
        <time>2021-11-06T13:48:49Z</time>
      </trkpt>
      <trkpt lat="46.57391" lon="5.3808">
        <ele>207</ele>
        <time>2021-11-06T13:48:50Z</time>
      </trkpt>
      <trkpt lat="46.57371" lon="5.3805">
        <ele>207.4</ele>
        <time>2021-11-06T13:48:54Z</time>
      </trkpt>
      <trkpt lat="46.57367" lon="5.38041">
        <ele>207.4</ele>
        <time>2021-11-06T13:48:55Z</time>
      </trkpt>
      <trkpt lat="46.5735" lon="5.38003">
        <ele>208.4</ele>
        <time>2021-11-06T13:49:00Z</time>
      </trkpt>
      <trkpt lat="46.57343" lon="5.37989">
        <ele>209.6</ele>
        <time>2021-11-06T13:49:02Z</time>
      </trkpt>
      <trkpt lat="46.5733" lon="5.37961">
        <ele>210.6</ele>
        <time>2021-11-06T13:49:06Z</time>
      </trkpt>
      <trkpt lat="46.57326" lon="5.37954">
        <ele>210.8</ele>
        <time>2021-11-06T13:49:07Z</time>
      </trkpt>
      <trkpt lat="46.57323" lon="5.37948">
        <ele>211</ele>
        <time>2021-11-06T13:49:08Z</time>
      </trkpt>
      <trkpt lat="46.57313" lon="5.37929">
        <ele>212</ele>
        <time>2021-11-06T13:49:11Z</time>
      </trkpt>
      <trkpt lat="46.57306" lon="5.37915">
        <ele>212.4</ele>
        <time>2021-11-06T13:49:13Z</time>
      </trkpt>
      <trkpt lat="46.57299" lon="5.37901">
        <ele>213</ele>
        <time>2021-11-06T13:49:15Z</time>
      </trkpt>
      <trkpt lat="46.57285" lon="5.37874">
        <ele>214</ele>
        <time>2021-11-06T13:49:19Z</time>
      </trkpt>
      <trkpt lat="46.57273" lon="5.37849">
        <ele>215</ele>
        <time>2021-11-06T13:49:23Z</time>
      </trkpt>
      <trkpt lat="46.57267" lon="5.37837">
        <ele>216</ele>
        <time>2021-11-06T13:49:25Z</time>
      </trkpt>
      <trkpt lat="46.57264" lon="5.37832">
        <ele>216.2</ele>
        <time>2021-11-06T13:49:26Z</time>
      </trkpt>
      <trkpt lat="46.57254" lon="5.3781">
        <ele>217.4</ele>
        <time>2021-11-06T13:49:30Z</time>
      </trkpt>
      <trkpt lat="46.57246" lon="5.37795">
        <ele>218.2</ele>
        <time>2021-11-06T13:49:33Z</time>
      </trkpt>
      <trkpt lat="46.57243" lon="5.37789">
        <ele>218.6</ele>
        <time>2021-11-06T13:49:34Z</time>
      </trkpt>
      <trkpt lat="46.57233" lon="5.37767">
        <ele>218.8</ele>
        <time>2021-11-06T13:49:38Z</time>
      </trkpt>
      <trkpt lat="46.5723" lon="5.37762">
        <ele>219</ele>
        <time>2021-11-06T13:49:39Z</time>
      </trkpt>
      <trkpt lat="46.57226" lon="5.37759">
        <ele>219.2</ele>
        <time>2021-11-06T13:49:40Z</time>
      </trkpt>
      <trkpt lat="46.57217" lon="5.37756">
        <ele>219.6</ele>
        <time>2021-11-06T13:49:42Z</time>
      </trkpt>
      <trkpt lat="46.57213" lon="5.37757">
        <ele>220.2</ele>
        <time>2021-11-06T13:49:43Z</time>
      </trkpt>
      <trkpt lat="46.57209" lon="5.37759">
        <ele>220.2</ele>
        <time>2021-11-06T13:49:44Z</time>
      </trkpt>
      <trkpt lat="46.57201" lon="5.37768">
        <ele>220.6</ele>
        <time>2021-11-06T13:49:46Z</time>
      </trkpt>
      <trkpt lat="46.57197" lon="5.37773">
        <ele>221</ele>
        <time>2021-11-06T13:49:47Z</time>
      </trkpt>
      <trkpt lat="46.57168" lon="5.37806">
        <ele>221.4</ele>
        <time>2021-11-06T13:49:53Z</time>
      </trkpt>
      <trkpt lat="46.57132" lon="5.37842">
        <ele>220.8</ele>
        <time>2021-11-06T13:49:59Z</time>
      </trkpt>
      <trkpt lat="46.57094" lon="5.37876">
        <ele>219.6</ele>
        <time>2021-11-06T13:50:04Z</time>
      </trkpt>
      <trkpt lat="46.57086" lon="5.37883">
        <ele>219.2</ele>
        <time>2021-11-06T13:50:05Z</time>
      </trkpt>
      <trkpt lat="46.57071" lon="5.37896">
        <ele>218.6</ele>
        <time>2021-11-06T13:50:07Z</time>
      </trkpt>
      <trkpt lat="46.57036" lon="5.37925">
        <ele>217.6</ele>
        <time>2021-11-06T13:50:12Z</time>
      </trkpt>
      <trkpt lat="46.57016" lon="5.37941">
        <ele>217.4</ele>
        <time>2021-11-06T13:50:15Z</time>
      </trkpt>
      <trkpt lat="46.56967" lon="5.37975">
        <ele>217.8</ele>
        <time>2021-11-06T13:50:23Z</time>
      </trkpt>
      <trkpt lat="46.56961" lon="5.37979">
        <ele>218</ele>
        <time>2021-11-06T13:50:24Z</time>
      </trkpt>
      <trkpt lat="46.56941" lon="5.37986">
        <ele>218.2</ele>
        <time>2021-11-06T13:50:27Z</time>
      </trkpt>
      <trkpt lat="46.56934" lon="5.37987">
        <ele>218.4</ele>
        <time>2021-11-06T13:50:28Z</time>
      </trkpt>
      <trkpt lat="46.56921" lon="5.37987">
        <ele>218.6</ele>
        <time>2021-11-06T13:50:30Z</time>
      </trkpt>
      <trkpt lat="46.56901" lon="5.37983">
        <ele>218.8</ele>
        <time>2021-11-06T13:50:33Z</time>
      </trkpt>
      <trkpt lat="46.56881" lon="5.37978">
        <ele>219.6</ele>
        <time>2021-11-06T13:50:36Z</time>
      </trkpt>
      <trkpt lat="46.56853" lon="5.37972">
        <ele>220.8</ele>
        <time>2021-11-06T13:50:40Z</time>
      </trkpt>
      <trkpt lat="46.56802" lon="5.37961">
        <ele>222</ele>
        <time>2021-11-06T13:50:47Z</time>
      </trkpt>
      <trkpt lat="46.56747" lon="5.37947">
        <ele>222.6</ele>
        <time>2021-11-06T13:50:55Z</time>
      </trkpt>
      <trkpt lat="46.56692" lon="5.37934">
        <ele>223.2</ele>
        <time>2021-11-06T13:51:03Z</time>
      </trkpt>
      <trkpt lat="46.56644" lon="5.37925">
        <ele>223.8</ele>
        <time>2021-11-06T13:51:10Z</time>
      </trkpt>
      <trkpt lat="46.56615" lon="5.37918">
        <ele>224.2</ele>
        <time>2021-11-06T13:51:14Z</time>
      </trkpt>
      <trkpt lat="46.56579" lon="5.37915">
        <ele>224.4</ele>
        <time>2021-11-06T13:51:19Z</time>
      </trkpt>
      <trkpt lat="46.56565" lon="5.37918">
        <ele>224.4</ele>
        <time>2021-11-06T13:51:21Z</time>
      </trkpt>
      <trkpt lat="46.5655" lon="5.37925">
        <ele>224.4</ele>
        <time>2021-11-06T13:51:23Z</time>
      </trkpt>
      <trkpt lat="46.56521" lon="5.37945">
        <ele>224.2</ele>
        <time>2021-11-06T13:51:27Z</time>
      </trkpt>
      <trkpt lat="46.56505" lon="5.37951">
        <ele>224</ele>
        <time>2021-11-06T13:51:29Z</time>
      </trkpt>
      <trkpt lat="46.56472" lon="5.37946">
        <ele>223.4</ele>
        <time>2021-11-06T13:51:33Z</time>
      </trkpt>
      <trkpt lat="46.56447" lon="5.3794">
        <ele>223.2</ele>
        <time>2021-11-06T13:51:36Z</time>
      </trkpt>
      <trkpt lat="46.56404" lon="5.37929">
        <ele>222.8</ele>
        <time>2021-11-06T13:51:41Z</time>
      </trkpt>
      <trkpt lat="46.56395" lon="5.37929">
        <ele>222.8</ele>
        <time>2021-11-06T13:51:42Z</time>
      </trkpt>
      <trkpt lat="46.56378" lon="5.37933">
        <ele>222.4</ele>
        <time>2021-11-06T13:51:44Z</time>
      </trkpt>
      <trkpt lat="46.5637" lon="5.37937">
        <ele>222.4</ele>
        <time>2021-11-06T13:51:45Z</time>
      </trkpt>
      <trkpt lat="46.56345" lon="5.3795">
        <ele>221.8</ele>
        <time>2021-11-06T13:51:48Z</time>
      </trkpt>
      <trkpt lat="46.56336" lon="5.37951">
        <ele>221.6</ele>
        <time>2021-11-06T13:51:49Z</time>
      </trkpt>
      <trkpt lat="46.56328" lon="5.37952">
        <ele>221.6</ele>
        <time>2021-11-06T13:51:50Z</time>
      </trkpt>
      <trkpt lat="46.56319" lon="5.37951">
        <ele>221.2</ele>
        <time>2021-11-06T13:51:51Z</time>
      </trkpt>
      <trkpt lat="46.56302" lon="5.37949">
        <ele>220.8</ele>
        <time>2021-11-06T13:51:53Z</time>
      </trkpt>
      <trkpt lat="46.56293" lon="5.3795">
        <ele>220.8</ele>
        <time>2021-11-06T13:51:54Z</time>
      </trkpt>
      <trkpt lat="46.56276" lon="5.37954">
        <ele>220.6</ele>
        <time>2021-11-06T13:51:56Z</time>
      </trkpt>
      <trkpt lat="46.56268" lon="5.37958">
        <ele>220.6</ele>
        <time>2021-11-06T13:51:57Z</time>
      </trkpt>
      <trkpt lat="46.56214" lon="5.37988">
        <ele>220.4</ele>
        <time>2021-11-06T13:52:04Z</time>
      </trkpt>
      <trkpt lat="46.56207" lon="5.37995">
        <ele>220.6</ele>
        <time>2021-11-06T13:52:05Z</time>
      </trkpt>
      <trkpt lat="46.56201" lon="5.38002">
        <ele>220.6</ele>
        <time>2021-11-06T13:52:06Z</time>
      </trkpt>
      <trkpt lat="46.56186" lon="5.38029">
        <ele>220.6</ele>
        <time>2021-11-06T13:52:09Z</time>
      </trkpt>
      <trkpt lat="46.56151" lon="5.3809">
        <ele>221.8</ele>
        <time>2021-11-06T13:52:16Z</time>
      </trkpt>
      <trkpt lat="46.56138" lon="5.38104">
        <ele>222</ele>
        <time>2021-11-06T13:52:18Z</time>
      </trkpt>
      <trkpt lat="46.56125" lon="5.38114">
        <ele>222</ele>
        <time>2021-11-06T13:52:20Z</time>
      </trkpt>
      <trkpt lat="46.56102" lon="5.3813">
        <ele>222.2</ele>
        <time>2021-11-06T13:52:23Z</time>
      </trkpt>
      <trkpt lat="46.56082" lon="5.38145">
        <ele>222.2</ele>
        <time>2021-11-06T13:52:26Z</time>
      </trkpt>
      <trkpt lat="46.56075" lon="5.3815">
        <ele>222.4</ele>
        <time>2021-11-06T13:52:27Z</time>
      </trkpt>
      <trkpt lat="46.56036" lon="5.38179">
        <ele>222.6</ele>
        <time>2021-11-06T13:52:33Z</time>
      </trkpt>
      <trkpt lat="46.56017" lon="5.38198">
        <ele>223</ele>
        <time>2021-11-06T13:52:36Z</time>
      </trkpt>
      <trkpt lat="46.56012" lon="5.38207">
        <ele>223.2</ele>
        <time>2021-11-06T13:52:37Z</time>
      </trkpt>
      <trkpt lat="46.56009" lon="5.38216">
        <ele>223.2</ele>
        <time>2021-11-06T13:52:38Z</time>
      </trkpt>
      <trkpt lat="46.56005" lon="5.38238">
        <ele>223.2</ele>
        <time>2021-11-06T13:52:40Z</time>
      </trkpt>
      <trkpt lat="46.56003" lon="5.38248">
        <ele>223.4</ele>
        <time>2021-11-06T13:52:41Z</time>
      </trkpt>
      <trkpt lat="46.55994" lon="5.38319">
        <ele>223.4</ele>
        <time>2021-11-06T13:52:48Z</time>
      </trkpt>
      <trkpt lat="46.55984" lon="5.38381">
        <ele>223.8</ele>
        <time>2021-11-06T13:52:55Z</time>
      </trkpt>
      <trkpt lat="46.55981" lon="5.38424">
        <ele>224.4</ele>
        <time>2021-11-06T13:53:00Z</time>
      </trkpt>
      <trkpt lat="46.5598" lon="5.38447">
        <ele>224.6</ele>
        <time>2021-11-06T13:53:03Z</time>
      </trkpt>
      <trkpt lat="46.55979" lon="5.38469">
        <ele>224.8</ele>
        <time>2021-11-06T13:53:06Z</time>
      </trkpt>
      <trkpt lat="46.5598" lon="5.38493">
        <ele>226</ele>
        <time>2021-11-06T13:53:09Z</time>
      </trkpt>
      <trkpt lat="46.55984" lon="5.38541">
        <ele>226.4</ele>
        <time>2021-11-06T13:53:14Z</time>
      </trkpt>
      <trkpt lat="46.55993" lon="5.38602">
        <ele>226.2</ele>
        <time>2021-11-06T13:53:20Z</time>
      </trkpt>
      <trkpt lat="46.56001" lon="5.38679">
        <ele>226.2</ele>
        <time>2021-11-06T13:53:28Z</time>
      </trkpt>
      <trkpt lat="46.56008" lon="5.38752">
        <ele>226.2</ele>
        <time>2021-11-06T13:53:35Z</time>
      </trkpt>
      <trkpt lat="46.5601" lon="5.38795">
        <ele>226</ele>
        <time>2021-11-06T13:53:39Z</time>
      </trkpt>
      <trkpt lat="46.56009" lon="5.38808">
        <ele>225.8</ele>
        <time>2021-11-06T13:53:40Z</time>
      </trkpt>
      <trkpt lat="46.56001" lon="5.38858">
        <ele>224.6</ele>
        <time>2021-11-06T13:53:44Z</time>
      </trkpt>
      <trkpt lat="46.55997" lon="5.3887">
        <ele>223.8</ele>
        <time>2021-11-06T13:53:45Z</time>
      </trkpt>
      <trkpt lat="46.55994" lon="5.38882">
        <ele>223</ele>
        <time>2021-11-06T13:53:46Z</time>
      </trkpt>
      <trkpt lat="46.55979" lon="5.38929">
        <ele>221.8</ele>
        <time>2021-11-06T13:53:50Z</time>
      </trkpt>
      <trkpt lat="46.55975" lon="5.38939">
        <ele>221.8</ele>
        <time>2021-11-06T13:53:51Z</time>
      </trkpt>
      <trkpt lat="46.55956" lon="5.3899">
        <ele>221.8</ele>
        <time>2021-11-06T13:53:56Z</time>
      </trkpt>
      <trkpt lat="46.55948" lon="5.39021">
        <ele>221.8</ele>
        <time>2021-11-06T13:53:59Z</time>
      </trkpt>
      <trkpt lat="46.55944" lon="5.3904">
        <ele>222</ele>
        <time>2021-11-06T13:54:01Z</time>
      </trkpt>
      <trkpt lat="46.55939" lon="5.39092">
        <ele>222.6</ele>
        <time>2021-11-06T13:54:07Z</time>
      </trkpt>
      <trkpt lat="46.55937" lon="5.39117">
        <ele>223</ele>
        <time>2021-11-06T13:54:10Z</time>
      </trkpt>
      <trkpt lat="46.55937" lon="5.39162">
        <ele>224.2</ele>
        <time>2021-11-06T13:54:15Z</time>
      </trkpt>
      <trkpt lat="46.55936" lon="5.39218">
        <ele>225.2</ele>
        <time>2021-11-06T13:54:21Z</time>
      </trkpt>
      <trkpt lat="46.55935" lon="5.39227">
        <ele>225.6</ele>
        <time>2021-11-06T13:54:22Z</time>
      </trkpt>
      <trkpt lat="46.55929" lon="5.39291">
        <ele>226.4</ele>
        <time>2021-11-06T13:54:29Z</time>
      </trkpt>
      <trkpt lat="46.55926" lon="5.39308">
        <ele>226.4</ele>
        <time>2021-11-06T13:54:31Z</time>
      </trkpt>
      <trkpt lat="46.55921" lon="5.39351">
        <ele>227</ele>
        <time>2021-11-06T13:54:36Z</time>
      </trkpt>
      <trkpt lat="46.55919" lon="5.39368">
        <ele>227.4</ele>
        <time>2021-11-06T13:54:38Z</time>
      </trkpt>
      <trkpt lat="46.55916" lon="5.39402">
        <ele>227.8</ele>
        <time>2021-11-06T13:54:42Z</time>
      </trkpt>
      <trkpt lat="46.55909" lon="5.3946">
        <ele>228.4</ele>
        <time>2021-11-06T13:54:49Z</time>
      </trkpt>
      <trkpt lat="46.55907" lon="5.39485">
        <ele>228.6</ele>
        <time>2021-11-06T13:54:52Z</time>
      </trkpt>
      <trkpt lat="46.55901" lon="5.39528">
        <ele>229.4</ele>
        <time>2021-11-06T13:54:57Z</time>
      </trkpt>
      <trkpt lat="46.55897" lon="5.39564">
        <ele>230</ele>
        <time>2021-11-06T13:55:01Z</time>
      </trkpt>
      <trkpt lat="46.55886" lon="5.39634">
        <ele>230.2</ele>
        <time>2021-11-06T13:55:09Z</time>
      </trkpt>
      <trkpt lat="46.5588" lon="5.3966">
        <ele>230.4</ele>
        <time>2021-11-06T13:55:12Z</time>
      </trkpt>
      <trkpt lat="46.55869" lon="5.39702">
        <ele>231</ele>
        <time>2021-11-06T13:55:17Z</time>
      </trkpt>
      <trkpt lat="46.55854" lon="5.39759">
        <ele>231.6</ele>
        <time>2021-11-06T13:55:24Z</time>
      </trkpt>
      <trkpt lat="46.55845" lon="5.3979">
        <ele>232.2</ele>
        <time>2021-11-06T13:55:28Z</time>
      </trkpt>
      <trkpt lat="46.55839" lon="5.39813">
        <ele>232.6</ele>
        <time>2021-11-06T13:55:31Z</time>
      </trkpt>
      <trkpt lat="46.55827" lon="5.39864">
        <ele>232.8</ele>
        <time>2021-11-06T13:55:37Z</time>
      </trkpt>
      <trkpt lat="46.55813" lon="5.39908">
        <ele>232.6</ele>
        <time>2021-11-06T13:55:42Z</time>
      </trkpt>
      <trkpt lat="46.55809" lon="5.39914">
        <ele>232.6</ele>
        <time>2021-11-06T13:55:43Z</time>
      </trkpt>
      <trkpt lat="46.55804" lon="5.39916">
        <ele>232.6</ele>
        <time>2021-11-06T13:55:44Z</time>
      </trkpt>
      <trkpt lat="46.55799" lon="5.39915">
        <ele>232.4</ele>
        <time>2021-11-06T13:55:45Z</time>
      </trkpt>
      <trkpt lat="46.55746" lon="5.39873">
        <ele>232.4</ele>
        <time>2021-11-06T13:55:54Z</time>
      </trkpt>
      <trkpt lat="46.5574" lon="5.39868">
        <ele>232.6</ele>
        <time>2021-11-06T13:55:55Z</time>
      </trkpt>
      <trkpt lat="46.55709" lon="5.39836">
        <ele>233.8</ele>
        <time>2021-11-06T13:56:01Z</time>
      </trkpt>
      <trkpt lat="46.557" lon="5.39826">
        <ele>234.6</ele>
        <time>2021-11-06T13:56:03Z</time>
      </trkpt>
      <trkpt lat="46.5569" lon="5.39816">
        <ele>235</ele>
        <time>2021-11-06T13:56:05Z</time>
      </trkpt>
      <trkpt lat="46.55675" lon="5.39803">
        <ele>236.2</ele>
        <time>2021-11-06T13:56:08Z</time>
      </trkpt>
      <trkpt lat="46.55658" lon="5.39791">
        <ele>237</ele>
        <time>2021-11-06T13:56:11Z</time>
      </trkpt>
      <trkpt lat="46.55652" lon="5.39787">
        <ele>237.2</ele>
        <time>2021-11-06T13:56:12Z</time>
      </trkpt>
      <trkpt lat="46.55624" lon="5.39769">
        <ele>237.4</ele>
        <time>2021-11-06T13:56:16Z</time>
      </trkpt>
      <trkpt lat="46.55586" lon="5.39741">
        <ele>236.8</ele>
        <time>2021-11-06T13:56:21Z</time>
      </trkpt>
      <trkpt lat="46.55571" lon="5.39729">
        <ele>236</ele>
        <time>2021-11-06T13:56:23Z</time>
      </trkpt>
      <trkpt lat="46.5553" lon="5.39694">
        <ele>235.8</ele>
        <time>2021-11-06T13:56:29Z</time>
      </trkpt>
      <trkpt lat="46.55477" lon="5.3965">
        <ele>236</ele>
        <time>2021-11-06T13:56:37Z</time>
      </trkpt>
      <trkpt lat="46.5547" lon="5.39645">
        <ele>236</ele>
        <time>2021-11-06T13:56:38Z</time>
      </trkpt>
      <trkpt lat="46.55421" lon="5.39604">
        <ele>236.4</ele>
        <time>2021-11-06T13:56:46Z</time>
      </trkpt>
      <trkpt lat="46.55415" lon="5.396">
        <ele>236.4</ele>
        <time>2021-11-06T13:56:47Z</time>
      </trkpt>
      <trkpt lat="46.55398" lon="5.39586">
        <ele>237.2</ele>
        <time>2021-11-06T13:56:50Z</time>
      </trkpt>
      <trkpt lat="46.55381" lon="5.39571">
        <ele>238.4</ele>
        <time>2021-11-06T13:56:53Z</time>
      </trkpt>
      <trkpt lat="46.55369" lon="5.3956">
        <ele>238.8</ele>
        <time>2021-11-06T13:56:55Z</time>
      </trkpt>
      <trkpt lat="46.55345" lon="5.3954">
        <ele>239.4</ele>
        <time>2021-11-06T13:56:59Z</time>
      </trkpt>
      <trkpt lat="46.55308" lon="5.39511">
        <ele>240.2</ele>
        <time>2021-11-06T13:57:05Z</time>
      </trkpt>
      <trkpt lat="46.55255" lon="5.3947">
        <ele>240</ele>
        <time>2021-11-06T13:57:13Z</time>
      </trkpt>
      <trkpt lat="46.55248" lon="5.39464">
        <ele>240</ele>
        <time>2021-11-06T13:57:14Z</time>
      </trkpt>
      <trkpt lat="46.55235" lon="5.3945">
        <ele>239.8</ele>
        <time>2021-11-06T13:57:16Z</time>
      </trkpt>
      <trkpt lat="46.55224" lon="5.39435">
        <ele>239.6</ele>
        <time>2021-11-06T13:57:18Z</time>
      </trkpt>
      <trkpt lat="46.5521" lon="5.39426">
        <ele>239.6</ele>
        <time>2021-11-06T13:57:20Z</time>
      </trkpt>
      <trkpt lat="46.55202" lon="5.39425">
        <ele>239.8</ele>
        <time>2021-11-06T13:57:21Z</time>
      </trkpt>
      <trkpt lat="46.55149" lon="5.39416">
        <ele>239.8</ele>
        <time>2021-11-06T13:57:28Z</time>
      </trkpt>
      <trkpt lat="46.55092" lon="5.39391">
        <ele>240.6</ele>
        <time>2021-11-06T13:57:36Z</time>
      </trkpt>
      <trkpt lat="46.55085" lon="5.39387">
        <ele>240.6</ele>
        <time>2021-11-06T13:57:37Z</time>
      </trkpt>
      <trkpt lat="46.55038" lon="5.39363">
        <ele>240.2</ele>
        <time>2021-11-06T13:57:43Z</time>
      </trkpt>
      <trkpt lat="46.54993" lon="5.39334">
        <ele>239</ele>
        <time>2021-11-06T13:57:48Z</time>
      </trkpt>
      <trkpt lat="46.54983" lon="5.39329">
        <ele>238.4</ele>
        <time>2021-11-06T13:57:49Z</time>
      </trkpt>
      <trkpt lat="46.54953" lon="5.39316">
        <ele>236.8</ele>
        <time>2021-11-06T13:57:52Z</time>
      </trkpt>
      <trkpt lat="46.54934" lon="5.39309">
        <ele>235.4</ele>
        <time>2021-11-06T13:57:54Z</time>
      </trkpt>
      <trkpt lat="46.54889" lon="5.39294">
        <ele>235</ele>
        <time>2021-11-06T13:57:59Z</time>
      </trkpt>
      <trkpt lat="46.54853" lon="5.3928">
        <ele>236.8</ele>
        <time>2021-11-06T13:58:03Z</time>
      </trkpt>
      <trkpt lat="46.54835" lon="5.39273">
        <ele>237.8</ele>
        <time>2021-11-06T13:58:05Z</time>
      </trkpt>
      <trkpt lat="46.54826" lon="5.39269">
        <ele>238.4</ele>
        <time>2021-11-06T13:58:06Z</time>
      </trkpt>
      <trkpt lat="46.54791" lon="5.39251">
        <ele>239.6</ele>
        <time>2021-11-06T13:58:10Z</time>
      </trkpt>
      <trkpt lat="46.54773" lon="5.39242">
        <ele>240.2</ele>
        <time>2021-11-06T13:58:12Z</time>
      </trkpt>
      <trkpt lat="46.54756" lon="5.39233">
        <ele>241.2</ele>
        <time>2021-11-06T13:58:14Z</time>
      </trkpt>
      <trkpt lat="46.54731" lon="5.3922">
        <ele>242.4</ele>
        <time>2021-11-06T13:58:17Z</time>
      </trkpt>
      <trkpt lat="46.54698" lon="5.39203">
        <ele>243.2</ele>
        <time>2021-11-06T13:58:21Z</time>
      </trkpt>
      <trkpt lat="46.54682" lon="5.39196">
        <ele>243.6</ele>
        <time>2021-11-06T13:58:23Z</time>
      </trkpt>
      <trkpt lat="46.54622" lon="5.39169">
        <ele>244</ele>
        <time>2021-11-06T13:58:30Z</time>
      </trkpt>
      <trkpt lat="46.54605" lon="5.39161">
        <ele>244.4</ele>
        <time>2021-11-06T13:58:32Z</time>
      </trkpt>
      <trkpt lat="46.54549" lon="5.39132">
        <ele>244.4</ele>
        <time>2021-11-06T13:58:39Z</time>
      </trkpt>
      <trkpt lat="46.54542" lon="5.39128">
        <ele>244.6</ele>
        <time>2021-11-06T13:58:40Z</time>
      </trkpt>
      <trkpt lat="46.54516" lon="5.39114">
        <ele>245.2</ele>
        <time>2021-11-06T13:58:44Z</time>
      </trkpt>
      <trkpt lat="46.54511" lon="5.39113">
        <ele>245.4</ele>
        <time>2021-11-06T13:58:45Z</time>
      </trkpt>
      <trkpt lat="46.54506" lon="5.39116">
        <ele>245.6</ele>
        <time>2021-11-06T13:58:46Z</time>
      </trkpt>
      <trkpt lat="46.54503" lon="5.39121">
        <ele>246.2</ele>
        <time>2021-11-06T13:58:47Z</time>
      </trkpt>
      <trkpt lat="46.54501" lon="5.39127">
        <ele>246.4</ele>
        <time>2021-11-06T13:58:48Z</time>
      </trkpt>
      <trkpt lat="46.54498" lon="5.39138">
        <ele>246.8</ele>
        <time>2021-11-06T13:58:50Z</time>
      </trkpt>
      <trkpt lat="46.54496" lon="5.39143">
        <ele>247.4</ele>
        <time>2021-11-06T13:58:51Z</time>
      </trkpt>
      <trkpt lat="46.54489" lon="5.39149">
        <ele>248.2</ele>
        <time>2021-11-06T13:58:53Z</time>
      </trkpt>
      <trkpt lat="46.54483" lon="5.39148">
        <ele>248.4</ele>
        <time>2021-11-06T13:58:54Z</time>
      </trkpt>
      <trkpt lat="46.54478" lon="5.39145">
        <ele>248.4</ele>
        <time>2021-11-06T13:58:55Z</time>
      </trkpt>
      <trkpt lat="46.54472" lon="5.39142">
        <ele>248.4</ele>
        <time>2021-11-06T13:58:56Z</time>
      </trkpt>
      <trkpt lat="46.54458" lon="5.39135">
        <ele>248.4</ele>
        <time>2021-11-06T13:58:58Z</time>
      </trkpt>
      <trkpt lat="46.54427" lon="5.39126">
        <ele>247</ele>
        <time>2021-11-06T13:59:02Z</time>
      </trkpt>
      <trkpt lat="46.54418" lon="5.39124">
        <ele>246.4</ele>
        <time>2021-11-06T13:59:03Z</time>
      </trkpt>
      <trkpt lat="46.54401" lon="5.39118">
        <ele>245.6</ele>
        <time>2021-11-06T13:59:05Z</time>
      </trkpt>
      <trkpt lat="46.54383" lon="5.39111">
        <ele>244.2</ele>
        <time>2021-11-06T13:59:07Z</time>
      </trkpt>
      <trkpt lat="46.54373" lon="5.39108">
        <ele>244</ele>
        <time>2021-11-06T13:59:08Z</time>
      </trkpt>
      <trkpt lat="46.54355" lon="5.39102">
        <ele>243</ele>
        <time>2021-11-06T13:59:10Z</time>
      </trkpt>
      <trkpt lat="46.5432" lon="5.39086">
        <ele>241.8</ele>
        <time>2021-11-06T13:59:14Z</time>
      </trkpt>
      <trkpt lat="46.54262" lon="5.39055">
        <ele>241.4</ele>
        <time>2021-11-06T13:59:21Z</time>
      </trkpt>
      <trkpt lat="46.54208" lon="5.39026">
        <ele>241.4</ele>
        <time>2021-11-06T13:59:28Z</time>
      </trkpt>
      <trkpt lat="46.54201" lon="5.39023">
        <ele>241.4</ele>
        <time>2021-11-06T13:59:29Z</time>
      </trkpt>
      <trkpt lat="46.54142" lon="5.39">
        <ele>242</ele>
        <time>2021-11-06T13:59:37Z</time>
      </trkpt>
      <trkpt lat="46.54135" lon="5.38997">
        <ele>242</ele>
        <time>2021-11-06T13:59:38Z</time>
      </trkpt>
      <trkpt lat="46.54076" lon="5.38974">
        <ele>242.6</ele>
        <time>2021-11-06T13:59:46Z</time>
      </trkpt>
      <trkpt lat="46.54061" lon="5.38967">
        <ele>242.8</ele>
        <time>2021-11-06T13:59:48Z</time>
      </trkpt>
      <trkpt lat="46.54047" lon="5.3896">
        <ele>242.8</ele>
        <time>2021-11-06T13:59:50Z</time>
      </trkpt>
      <trkpt lat="46.54024" lon="5.38954">
        <ele>243.4</ele>
        <time>2021-11-06T13:59:53Z</time>
      </trkpt>
      <trkpt lat="46.53971" lon="5.38941">
        <ele>243.4</ele>
        <time>2021-11-06T14:00:00Z</time>
      </trkpt>
      <trkpt lat="46.53917" lon="5.38936">
        <ele>243.8</ele>
        <time>2021-11-06T14:00:07Z</time>
      </trkpt>
      <trkpt lat="46.53895" lon="5.38935">
        <ele>244</ele>
        <time>2021-11-06T14:00:10Z</time>
      </trkpt>
      <trkpt lat="46.53872" lon="5.38934">
        <ele>244.2</ele>
        <time>2021-11-06T14:00:13Z</time>
      </trkpt>
      <trkpt lat="46.5385" lon="5.3893">
        <ele>244.6</ele>
        <time>2021-11-06T14:00:16Z</time>
      </trkpt>
      <trkpt lat="46.53836" lon="5.38925">
        <ele>244.8</ele>
        <time>2021-11-06T14:00:18Z</time>
      </trkpt>
      <trkpt lat="46.53788" lon="5.38907">
        <ele>245</ele>
        <time>2021-11-06T14:00:24Z</time>
      </trkpt>
      <trkpt lat="46.53773" lon="5.38902">
        <ele>245.2</ele>
        <time>2021-11-06T14:00:26Z</time>
      </trkpt>
      <trkpt lat="46.53725" lon="5.38884">
        <ele>245.2</ele>
        <time>2021-11-06T14:00:32Z</time>
      </trkpt>
      <trkpt lat="46.5367" lon="5.38861">
        <ele>245.4</ele>
        <time>2021-11-06T14:00:39Z</time>
      </trkpt>
      <trkpt lat="46.53654" lon="5.38854">
        <ele>245.6</ele>
        <time>2021-11-06T14:00:41Z</time>
      </trkpt>
      <trkpt lat="46.53603" lon="5.38825">
        <ele>246</ele>
        <time>2021-11-06T14:00:48Z</time>
      </trkpt>
      <trkpt lat="46.5356" lon="5.38798">
        <ele>246</ele>
        <time>2021-11-06T14:00:54Z</time>
      </trkpt>
      <trkpt lat="46.53555" lon="5.38791">
        <ele>246</ele>
        <time>2021-11-06T14:00:55Z</time>
      </trkpt>
      <trkpt lat="46.53533" lon="5.38756">
        <ele>245.6</ele>
        <time>2021-11-06T14:00:59Z</time>
      </trkpt>
      <trkpt lat="46.53526" lon="5.3875">
        <ele>245.4</ele>
        <time>2021-11-06T14:01:00Z</time>
      </trkpt>
      <trkpt lat="46.53519" lon="5.38745">
        <ele>245.2</ele>
        <time>2021-11-06T14:01:01Z</time>
      </trkpt>
      <trkpt lat="46.53504" lon="5.38746">
        <ele>244.8</ele>
        <time>2021-11-06T14:01:03Z</time>
      </trkpt>
      <trkpt lat="46.53498" lon="5.38747">
        <ele>244.6</ele>
        <time>2021-11-06T14:01:04Z</time>
      </trkpt>
      <trkpt lat="46.53487" lon="5.38739">
        <ele>244.4</ele>
        <time>2021-11-06T14:01:06Z</time>
      </trkpt>
      <trkpt lat="46.53479" lon="5.38722">
        <ele>244.2</ele>
        <time>2021-11-06T14:01:08Z</time>
      </trkpt>
      <trkpt lat="46.53478" lon="5.38715">
        <ele>244</ele>
        <time>2021-11-06T14:01:09Z</time>
      </trkpt>
      <trkpt lat="46.5347" lon="5.38665">
        <ele>243.6</ele>
        <time>2021-11-06T14:01:14Z</time>
      </trkpt>
      <trkpt lat="46.5347" lon="5.38645">
        <ele>243.6</ele>
        <time>2021-11-06T14:01:16Z</time>
      </trkpt>
      <trkpt lat="46.53466" lon="5.38606">
        <ele>243</ele>
        <time>2021-11-06T14:01:20Z</time>
      </trkpt>
      <trkpt lat="46.53464" lon="5.38563">
        <ele>242.6</ele>
        <time>2021-11-06T14:01:24Z</time>
      </trkpt>
      <trkpt lat="46.53458" lon="5.38492">
        <ele>241.8</ele>
        <time>2021-11-06T14:01:30Z</time>
      </trkpt>
      <trkpt lat="46.53451" lon="5.3844">
        <ele>241.2</ele>
        <time>2021-11-06T14:01:35Z</time>
      </trkpt>
      <trkpt lat="46.53446" lon="5.38416">
        <ele>240.8</ele>
        <time>2021-11-06T14:01:38Z</time>
      </trkpt>
      <trkpt lat="46.53443" lon="5.384">
        <ele>240.8</ele>
        <time>2021-11-06T14:01:40Z</time>
      </trkpt>
      <trkpt lat="46.53435" lon="5.38351">
        <ele>241</ele>
        <time>2021-11-06T14:01:45Z</time>
      </trkpt>
      <trkpt lat="46.53421" lon="5.38281">
        <ele>241.2</ele>
        <time>2021-11-06T14:01:51Z</time>
      </trkpt>
      <trkpt lat="46.53405" lon="5.38196">
        <ele>240.8</ele>
        <time>2021-11-06T14:01:58Z</time>
      </trkpt>
      <trkpt lat="46.53397" lon="5.38147">
        <ele>240</ele>
        <time>2021-11-06T14:02:02Z</time>
      </trkpt>
      <trkpt lat="46.53391" lon="5.38111">
        <ele>239.8</ele>
        <time>2021-11-06T14:02:05Z</time>
      </trkpt>
      <trkpt lat="46.53389" lon="5.38099">
        <ele>239.6</ele>
        <time>2021-11-06T14:02:06Z</time>
      </trkpt>
      <trkpt lat="46.53377" lon="5.38012">
        <ele>238.8</ele>
        <time>2021-11-06T14:02:13Z</time>
      </trkpt>
      <trkpt lat="46.53376" lon="5.3796">
        <ele>237.8</ele>
        <time>2021-11-06T14:02:17Z</time>
      </trkpt>
      <trkpt lat="46.53376" lon="5.37948">
        <ele>237.6</ele>
        <time>2021-11-06T14:02:18Z</time>
      </trkpt>
      <trkpt lat="46.5338" lon="5.37866">
        <ele>237</ele>
        <time>2021-11-06T14:02:25Z</time>
      </trkpt>
      <trkpt lat="46.53379" lon="5.37784">
        <ele>236.8</ele>
        <time>2021-11-06T14:02:32Z</time>
      </trkpt>
      <trkpt lat="46.53375" lon="5.377">
        <ele>236.2</ele>
        <time>2021-11-06T14:02:39Z</time>
      </trkpt>
      <trkpt lat="46.53375" lon="5.37688">
        <ele>235.8</ele>
        <time>2021-11-06T14:02:40Z</time>
      </trkpt>
      <trkpt lat="46.53376" lon="5.37664">
        <ele>235.6</ele>
        <time>2021-11-06T14:02:42Z</time>
      </trkpt>
      <trkpt lat="46.53378" lon="5.37585">
        <ele>235.6</ele>
        <time>2021-11-06T14:02:49Z</time>
      </trkpt>
      <trkpt lat="46.53385" lon="5.3752">
        <ele>236</ele>
        <time>2021-11-06T14:02:55Z</time>
      </trkpt>
      <trkpt lat="46.53397" lon="5.37433">
        <ele>235.8</ele>
        <time>2021-11-06T14:03:03Z</time>
      </trkpt>
      <trkpt lat="46.53407" lon="5.37346">
        <ele>235.6</ele>
        <time>2021-11-06T14:03:11Z</time>
      </trkpt>
      <trkpt lat="46.53412" lon="5.37314">
        <ele>235.4</ele>
        <time>2021-11-06T14:03:14Z</time>
      </trkpt>
      <trkpt lat="46.53424" lon="5.37232">
        <ele>235.2</ele>
        <time>2021-11-06T14:03:22Z</time>
      </trkpt>
      <trkpt lat="46.53425" lon="5.37185">
        <ele>235</ele>
        <time>2021-11-06T14:03:27Z</time>
      </trkpt>
      <trkpt lat="46.53419" lon="5.3714">
        <ele>235.4</ele>
        <time>2021-11-06T14:03:32Z</time>
      </trkpt>
      <trkpt lat="46.53403" lon="5.37074">
        <ele>236.6</ele>
        <time>2021-11-06T14:03:40Z</time>
      </trkpt>
      <trkpt lat="46.534" lon="5.37054">
        <ele>236.8</ele>
        <time>2021-11-06T14:03:42Z</time>
      </trkpt>
      <trkpt lat="46.53391" lon="5.37">
        <ele>237.4</ele>
        <time>2021-11-06T14:03:48Z</time>
      </trkpt>
      <trkpt lat="46.53381" lon="5.36933">
        <ele>237.6</ele>
        <time>2021-11-06T14:03:55Z</time>
      </trkpt>
      <trkpt lat="46.5338" lon="5.36852">
        <ele>237.4</ele>
        <time>2021-11-06T14:04:03Z</time>
      </trkpt>
      <trkpt lat="46.53379" lon="5.36769">
        <ele>237.4</ele>
        <time>2021-11-06T14:04:11Z</time>
      </trkpt>
      <trkpt lat="46.53379" lon="5.36759">
        <ele>237.4</ele>
        <time>2021-11-06T14:04:12Z</time>
      </trkpt>
      <trkpt lat="46.53375" lon="5.36676">
        <ele>237.8</ele>
        <time>2021-11-06T14:04:20Z</time>
      </trkpt>
      <trkpt lat="46.53372" lon="5.36634">
        <ele>237.6</ele>
        <time>2021-11-06T14:04:24Z</time>
      </trkpt>
      <trkpt lat="46.53376" lon="5.36571">
        <ele>237.2</ele>
        <time>2021-11-06T14:04:30Z</time>
      </trkpt>
      <trkpt lat="46.5339" lon="5.36499">
        <ele>236.6</ele>
        <time>2021-11-06T14:04:37Z</time>
      </trkpt>
      <trkpt lat="46.53395" lon="5.36468">
        <ele>236</ele>
        <time>2021-11-06T14:04:40Z</time>
      </trkpt>
      <trkpt lat="46.53409" lon="5.36401">
        <ele>236</ele>
        <time>2021-11-06T14:04:47Z</time>
      </trkpt>
      <trkpt lat="46.5342" lon="5.36345">
        <ele>236.2</ele>
        <time>2021-11-06T14:04:53Z</time>
      </trkpt>
      <trkpt lat="46.53433" lon="5.36272">
        <ele>236.2</ele>
        <time>2021-11-06T14:05:01Z</time>
      </trkpt>
      <trkpt lat="46.53442" lon="5.36212">
        <ele>236.4</ele>
        <time>2021-11-06T14:05:08Z</time>
      </trkpt>
      <trkpt lat="46.53446" lon="5.36162">
        <ele>237.2</ele>
        <time>2021-11-06T14:05:14Z</time>
      </trkpt>
      <trkpt lat="46.53447" lon="5.36145">
        <ele>237.6</ele>
        <time>2021-11-06T14:05:16Z</time>
      </trkpt>
      <trkpt lat="46.53449" lon="5.36118">
        <ele>238.4</ele>
        <time>2021-11-06T14:05:19Z</time>
      </trkpt>
      <trkpt lat="46.53453" lon="5.36082">
        <ele>238.6</ele>
        <time>2021-11-06T14:05:23Z</time>
      </trkpt>
      <trkpt lat="46.53455" lon="5.36074">
        <ele>238.6</ele>
        <time>2021-11-06T14:05:24Z</time>
      </trkpt>
      <trkpt lat="46.53466" lon="5.36051">
        <ele>238.6</ele>
        <time>2021-11-06T14:05:27Z</time>
      </trkpt>
      <trkpt lat="46.53496" lon="5.36007">
        <ele>238.6</ele>
        <time>2021-11-06T14:05:34Z</time>
      </trkpt>
      <trkpt lat="46.53507" lon="5.35997">
        <ele>238.8</ele>
        <time>2021-11-06T14:05:36Z</time>
      </trkpt>
      <trkpt lat="46.53518" lon="5.35991">
        <ele>239</ele>
        <time>2021-11-06T14:05:38Z</time>
      </trkpt>
      <trkpt lat="46.53524" lon="5.35988">
        <ele>239</ele>
        <time>2021-11-06T14:05:39Z</time>
      </trkpt>
      <trkpt lat="46.53563" lon="5.35961">
        <ele>239</ele>
        <time>2021-11-06T14:05:47Z</time>
      </trkpt>
      <trkpt lat="46.53615" lon="5.3592">
        <ele>239</ele>
        <time>2021-11-06T14:05:56Z</time>
      </trkpt>
      <trkpt lat="46.53621" lon="5.35914">
        <ele>239</ele>
        <time>2021-11-06T14:05:57Z</time>
      </trkpt>
      <trkpt lat="46.5364" lon="5.35893">
        <ele>238.8</ele>
        <time>2021-11-06T14:06:00Z</time>
      </trkpt>
      <trkpt lat="46.53665" lon="5.3586">
        <ele>237.4</ele>
        <time>2021-11-06T14:06:04Z</time>
      </trkpt>
      <trkpt lat="46.53678" lon="5.35843">
        <ele>237</ele>
        <time>2021-11-06T14:06:06Z</time>
      </trkpt>
      <trkpt lat="46.53693" lon="5.35821">
        <ele>236.4</ele>
        <time>2021-11-06T14:06:08Z</time>
      </trkpt>
      <trkpt lat="46.53707" lon="5.35801">
        <ele>235.2</ele>
        <time>2021-11-06T14:06:10Z</time>
      </trkpt>
      <trkpt lat="46.53718" lon="5.35783">
        <ele>234.2</ele>
        <time>2021-11-06T14:06:12Z</time>
      </trkpt>
      <trkpt lat="46.53726" lon="5.35771">
        <ele>233.2</ele>
        <time>2021-11-06T14:06:13Z</time>
      </trkpt>
      <trkpt lat="46.53731" lon="5.3576">
        <ele>232.8</ele>
        <time>2021-11-06T14:06:14Z</time>
      </trkpt>
      <trkpt lat="46.5374" lon="5.3574">
        <ele>231.4</ele>
        <time>2021-11-06T14:06:16Z</time>
      </trkpt>
      <trkpt lat="46.53745" lon="5.35727">
        <ele>231.4</ele>
        <time>2021-11-06T14:06:17Z</time>
      </trkpt>
      <trkpt lat="46.53755" lon="5.35682">
        <ele>230.4</ele>
        <time>2021-11-06T14:06:21Z</time>
      </trkpt>
      <trkpt lat="46.53757" lon="5.35623">
        <ele>229.4</ele>
        <time>2021-11-06T14:06:26Z</time>
      </trkpt>
      <trkpt lat="46.53755" lon="5.35608">
        <ele>229.4</ele>
        <time>2021-11-06T14:06:27Z</time>
      </trkpt>
      <trkpt lat="46.53753" lon="5.35597">
        <ele>229.2</ele>
        <time>2021-11-06T14:06:28Z</time>
      </trkpt>
      <trkpt lat="46.53744" lon="5.35566">
        <ele>229</ele>
        <time>2021-11-06T14:06:31Z</time>
      </trkpt>
      <trkpt lat="46.53731" lon="5.35513">
        <ele>228.8</ele>
        <time>2021-11-06T14:06:36Z</time>
      </trkpt>
      <trkpt lat="46.53727" lon="5.35461">
        <ele>228.8</ele>
        <time>2021-11-06T14:06:41Z</time>
      </trkpt>
      <trkpt lat="46.53728" lon="5.3545">
        <ele>228.8</ele>
        <time>2021-11-06T14:06:42Z</time>
      </trkpt>
      <trkpt lat="46.53731" lon="5.3541">
        <ele>229.2</ele>
        <time>2021-11-06T14:06:46Z</time>
      </trkpt>
      <trkpt lat="46.53736" lon="5.35373">
        <ele>229.8</ele>
        <time>2021-11-06T14:06:50Z</time>
      </trkpt>
      <trkpt lat="46.53742" lon="5.3535">
        <ele>230.2</ele>
        <time>2021-11-06T14:06:53Z</time>
      </trkpt>
      <trkpt lat="46.53747" lon="5.35336">
        <ele>230.4</ele>
        <time>2021-11-06T14:06:55Z</time>
      </trkpt>
      <trkpt lat="46.53749" lon="5.35329">
        <ele>230.8</ele>
        <time>2021-11-06T14:06:56Z</time>
      </trkpt>
      <trkpt lat="46.53751" lon="5.35322">
        <ele>231.4</ele>
        <time>2021-11-06T14:06:57Z</time>
      </trkpt>
      <trkpt lat="46.53754" lon="5.35316">
        <ele>231.6</ele>
        <time>2021-11-06T14:06:58Z</time>
      </trkpt>
      <trkpt lat="46.53761" lon="5.35304">
        <ele>232</ele>
        <time>2021-11-06T14:07:00Z</time>
      </trkpt>
      <trkpt lat="46.53768" lon="5.35291">
        <ele>232.4</ele>
        <time>2021-11-06T14:07:02Z</time>
      </trkpt>
      <trkpt lat="46.53785" lon="5.35267">
        <ele>233.2</ele>
        <time>2021-11-06T14:07:06Z</time>
      </trkpt>
      <trkpt lat="46.53795" lon="5.35256">
        <ele>233.4</ele>
        <time>2021-11-06T14:07:08Z</time>
      </trkpt>
      <trkpt lat="46.53829" lon="5.35222">
        <ele>234.4</ele>
        <time>2021-11-06T14:07:14Z</time>
      </trkpt>
      <trkpt lat="46.5388" lon="5.35188">
        <ele>234</ele>
        <time>2021-11-06T14:07:22Z</time>
      </trkpt>
      <trkpt lat="46.53908" lon="5.35166">
        <ele>233.6</ele>
        <time>2021-11-06T14:07:27Z</time>
      </trkpt>
      <trkpt lat="46.53911" lon="5.3515">
        <ele>233</ele>
        <time>2021-11-06T14:07:29Z</time>
      </trkpt>
      <trkpt lat="46.53903" lon="5.35135">
        <ele>232.8</ele>
        <time>2021-11-06T14:07:31Z</time>
      </trkpt>
      <trkpt lat="46.53898" lon="5.35129">
        <ele>232.6</ele>
        <time>2021-11-06T14:07:32Z</time>
      </trkpt>
      <trkpt lat="46.53892" lon="5.35122">
        <ele>232.2</ele>
        <time>2021-11-06T14:07:33Z</time>
      </trkpt>
      <trkpt lat="46.53887" lon="5.35103">
        <ele>231.6</ele>
        <time>2021-11-06T14:07:35Z</time>
      </trkpt>
      <trkpt lat="46.53889" lon="5.35083">
        <ele>231.2</ele>
        <time>2021-11-06T14:07:37Z</time>
      </trkpt>
      <trkpt lat="46.53891" lon="5.35074">
        <ele>231.4</ele>
        <time>2021-11-06T14:07:38Z</time>
      </trkpt>
      <trkpt lat="46.53908" lon="5.35013">
        <ele>230.8</ele>
        <time>2021-11-06T14:07:45Z</time>
      </trkpt>
      <trkpt lat="46.5392" lon="5.34965">
        <ele>232.2</ele>
        <time>2021-11-06T14:07:51Z</time>
      </trkpt>
      <trkpt lat="46.53924" lon="5.34957">
        <ele>232.6</ele>
        <time>2021-11-06T14:07:52Z</time>
      </trkpt>
      <trkpt lat="46.53951" lon="5.34906">
        <ele>233</ele>
        <time>2021-11-06T14:07:59Z</time>
      </trkpt>
      <trkpt lat="46.5397" lon="5.34843">
        <ele>232.4</ele>
        <time>2021-11-06T14:08:06Z</time>
      </trkpt>
      <trkpt lat="46.53981" lon="5.34818">
        <ele>232.2</ele>
        <time>2021-11-06T14:08:09Z</time>
      </trkpt>
      <trkpt lat="46.5399" lon="5.34804">
        <ele>232.2</ele>
        <time>2021-11-06T14:08:11Z</time>
      </trkpt>
      <trkpt lat="46.54022" lon="5.34772">
        <ele>232.2</ele>
        <time>2021-11-06T14:08:17Z</time>
      </trkpt>
      <trkpt lat="46.54058" lon="5.34726">
        <ele>232</ele>
        <time>2021-11-06T14:08:24Z</time>
      </trkpt>
      <trkpt lat="46.54076" lon="5.34699">
        <ele>231.4</ele>
        <time>2021-11-06T14:08:28Z</time>
      </trkpt>
      <trkpt lat="46.54099" lon="5.3466">
        <ele>231.4</ele>
        <time>2021-11-06T14:08:34Z</time>
      </trkpt>
      <trkpt lat="46.54125" lon="5.34604">
        <ele>231</ele>
        <time>2021-11-06T14:08:42Z</time>
      </trkpt>
      <trkpt lat="46.54132" lon="5.34568">
        <ele>231</ele>
        <time>2021-11-06T14:08:46Z</time>
      </trkpt>
      <trkpt lat="46.54133" lon="5.34558">
        <ele>231</ele>
        <time>2021-11-06T14:08:47Z</time>
      </trkpt>
      <trkpt lat="46.54134" lon="5.34488">
        <ele>231</ele>
        <time>2021-11-06T14:08:54Z</time>
      </trkpt>
      <trkpt lat="46.54133" lon="5.3448">
        <ele>231</ele>
        <time>2021-11-06T14:08:55Z</time>
      </trkpt>
      <trkpt lat="46.54129" lon="5.34457">
        <ele>231</ele>
        <time>2021-11-06T14:08:57Z</time>
      </trkpt>
      <trkpt lat="46.54121" lon="5.34439">
        <ele>230.8</ele>
        <time>2021-11-06T14:08:59Z</time>
      </trkpt>
      <trkpt lat="46.54112" lon="5.34425">
        <ele>230.8</ele>
        <time>2021-11-06T14:09:01Z</time>
      </trkpt>
      <trkpt lat="46.54101" lon="5.34411">
        <ele>230.4</ele>
        <time>2021-11-06T14:09:03Z</time>
      </trkpt>
      <trkpt lat="46.54096" lon="5.34404">
        <ele>230.2</ele>
        <time>2021-11-06T14:09:04Z</time>
      </trkpt>
      <trkpt lat="46.54082" lon="5.34386">
        <ele>229.4</ele>
        <time>2021-11-06T14:09:08Z</time>
      </trkpt>
      <trkpt lat="46.54081" lon="5.34386">
        <ele>228.4</ele>
        <time>2021-11-06T14:09:11Z</time>
      </trkpt>
      <trkpt lat="46.54081" lon="5.34386">
        <ele>228.2</ele>
        <time>2021-11-06T14:09:12Z</time>
      </trkpt>
      <trkpt lat="46.54079" lon="5.34381">
        <ele>227</ele>
        <time>2021-11-06T14:10:32Z</time>
      </trkpt>
      <trkpt lat="46.54073" lon="5.34374">
        <ele>227</ele>
        <time>2021-11-06T14:10:34Z</time>
      </trkpt>
      <trkpt lat="46.54061" lon="5.34355">
        <ele>227</ele>
        <time>2021-11-06T14:10:37Z</time>
      </trkpt>
      <trkpt lat="46.54036" lon="5.34321">
        <ele>226.2</ele>
        <time>2021-11-06T14:10:41Z</time>
      </trkpt>
      <trkpt lat="46.54029" lon="5.34312">
        <ele>226</ele>
        <time>2021-11-06T14:10:42Z</time>
      </trkpt>
      <trkpt lat="46.53984" lon="5.34253">
        <ele>225</ele>
        <time>2021-11-06T14:10:49Z</time>
      </trkpt>
      <trkpt lat="46.53978" lon="5.34244">
        <ele>224.6</ele>
        <time>2021-11-06T14:10:50Z</time>
      </trkpt>
      <trkpt lat="46.53952" lon="5.34209">
        <ele>223.4</ele>
        <time>2021-11-06T14:10:54Z</time>
      </trkpt>
      <trkpt lat="46.5394" lon="5.34192">
        <ele>222</ele>
        <time>2021-11-06T14:10:56Z</time>
      </trkpt>
      <trkpt lat="46.53934" lon="5.34184">
        <ele>221.8</ele>
        <time>2021-11-06T14:10:57Z</time>
      </trkpt>
      <trkpt lat="46.53915" lon="5.34159">
        <ele>221</ele>
        <time>2021-11-06T14:11:00Z</time>
      </trkpt>
      <trkpt lat="46.53908" lon="5.34152">
        <ele>220.8</ele>
        <time>2021-11-06T14:11:01Z</time>
      </trkpt>
      <trkpt lat="46.539" lon="5.34147">
        <ele>220.6</ele>
        <time>2021-11-06T14:11:02Z</time>
      </trkpt>
      <trkpt lat="46.53892" lon="5.34142">
        <ele>220.6</ele>
        <time>2021-11-06T14:11:03Z</time>
      </trkpt>
      <trkpt lat="46.53867" lon="5.34134">
        <ele>219.6</ele>
        <time>2021-11-06T14:11:06Z</time>
      </trkpt>
      <trkpt lat="46.53834" lon="5.34122">
        <ele>219.2</ele>
        <time>2021-11-06T14:11:10Z</time>
      </trkpt>
      <trkpt lat="46.53827" lon="5.34117">
        <ele>219.2</ele>
        <time>2021-11-06T14:11:11Z</time>
      </trkpt>
      <trkpt lat="46.53821" lon="5.34111">
        <ele>219</ele>
        <time>2021-11-06T14:11:12Z</time>
      </trkpt>
      <trkpt lat="46.53809" lon="5.34097">
        <ele>219</ele>
        <time>2021-11-06T14:11:14Z</time>
      </trkpt>
      <trkpt lat="46.53803" lon="5.3409">
        <ele>219</ele>
        <time>2021-11-06T14:11:15Z</time>
      </trkpt>
      <trkpt lat="46.5378" lon="5.34055">
        <ele>219.6</ele>
        <time>2021-11-06T14:11:20Z</time>
      </trkpt>
      <trkpt lat="46.53763" lon="5.34032">
        <ele>220.8</ele>
        <time>2021-11-06T14:11:24Z</time>
      </trkpt>
      <trkpt lat="46.53746" lon="5.34007">
        <ele>221.4</ele>
        <time>2021-11-06T14:11:28Z</time>
      </trkpt>
      <trkpt lat="46.53738" lon="5.33995">
        <ele>222</ele>
        <time>2021-11-06T14:11:30Z</time>
      </trkpt>
      <trkpt lat="46.53719" lon="5.33969">
        <ele>223.2</ele>
        <time>2021-11-06T14:11:35Z</time>
      </trkpt>
      <trkpt lat="46.53715" lon="5.33965">
        <ele>223.6</ele>
        <time>2021-11-06T14:11:36Z</time>
      </trkpt>
      <trkpt lat="46.53707" lon="5.33958">
        <ele>224.4</ele>
        <time>2021-11-06T14:11:38Z</time>
      </trkpt>
      <trkpt lat="46.53688" lon="5.33942">
        <ele>225.6</ele>
        <time>2021-11-06T14:11:42Z</time>
      </trkpt>
      <trkpt lat="46.53683" lon="5.33937">
        <ele>225.6</ele>
        <time>2021-11-06T14:11:43Z</time>
      </trkpt>
      <trkpt lat="46.53672" lon="5.33927">
        <ele>226</ele>
        <time>2021-11-06T14:11:45Z</time>
      </trkpt>
      <trkpt lat="46.53663" lon="5.33914">
        <ele>226.2</ele>
        <time>2021-11-06T14:11:47Z</time>
      </trkpt>
      <trkpt lat="46.53641" lon="5.33875">
        <ele>226.2</ele>
        <time>2021-11-06T14:11:52Z</time>
      </trkpt>
      <trkpt lat="46.53609" lon="5.33831">
        <ele>225.8</ele>
        <time>2021-11-06T14:11:58Z</time>
      </trkpt>
      <trkpt lat="46.53562" lon="5.33774">
        <ele>224.8</ele>
        <time>2021-11-06T14:12:06Z</time>
      </trkpt>
      <trkpt lat="46.53555" lon="5.33767">
        <ele>224.6</ele>
        <time>2021-11-06T14:12:07Z</time>
      </trkpt>
      <trkpt lat="46.53519" lon="5.33741">
        <ele>223.6</ele>
        <time>2021-11-06T14:12:12Z</time>
      </trkpt>
      <trkpt lat="46.53512" lon="5.33737">
        <ele>223.4</ele>
        <time>2021-11-06T14:12:13Z</time>
      </trkpt>
      <trkpt lat="46.53488" lon="5.33729">
        <ele>222.4</ele>
        <time>2021-11-06T14:12:16Z</time>
      </trkpt>
      <trkpt lat="46.5348" lon="5.33726">
        <ele>222.2</ele>
        <time>2021-11-06T14:12:17Z</time>
      </trkpt>
      <trkpt lat="46.53473" lon="5.33723">
        <ele>222</ele>
        <time>2021-11-06T14:12:18Z</time>
      </trkpt>
      <trkpt lat="46.53463" lon="5.33712">
        <ele>221.4</ele>
        <time>2021-11-06T14:12:20Z</time>
      </trkpt>
      <trkpt lat="46.53461" lon="5.33707">
        <ele>221.4</ele>
        <time>2021-11-06T14:12:21Z</time>
      </trkpt>
      <trkpt lat="46.53461" lon="5.33702">
        <ele>221.2</ele>
        <time>2021-11-06T14:12:22Z</time>
      </trkpt>
      <trkpt lat="46.53461" lon="5.337">
        <ele>220.8</ele>
        <time>2021-11-06T14:12:23Z</time>
      </trkpt>
      <trkpt lat="46.53461" lon="5.337">
        <ele>220.2</ele>
        <time>2021-11-06T14:12:25Z</time>
      </trkpt>
      <trkpt lat="46.53463" lon="5.33693">
        <ele>219.2</ele>
        <time>2021-11-06T14:12:31Z</time>
      </trkpt>
      <trkpt lat="46.53465" lon="5.3369">
        <ele>219</ele>
        <time>2021-11-06T14:12:32Z</time>
      </trkpt>
      <trkpt lat="46.53476" lon="5.33681">
        <ele>219</ele>
        <time>2021-11-06T14:12:35Z</time>
      </trkpt>
      <trkpt lat="46.53502" lon="5.33656">
        <ele>219.4</ele>
        <time>2021-11-06T14:12:41Z</time>
      </trkpt>
      <trkpt lat="46.53522" lon="5.33637">
        <ele>220.2</ele>
        <time>2021-11-06T14:12:45Z</time>
      </trkpt>
      <trkpt lat="46.53536" lon="5.33623">
        <ele>220.8</ele>
        <time>2021-11-06T14:12:48Z</time>
      </trkpt>
      <trkpt lat="46.53546" lon="5.33614">
        <ele>221.2</ele>
        <time>2021-11-06T14:12:50Z</time>
      </trkpt>
      <trkpt lat="46.53569" lon="5.33592">
        <ele>222.6</ele>
        <time>2021-11-06T14:12:55Z</time>
      </trkpt>
      <trkpt lat="46.53611" lon="5.3355">
        <ele>223.6</ele>
        <time>2021-11-06T14:13:04Z</time>
      </trkpt>
      <trkpt lat="46.53615" lon="5.33545">
        <ele>223.8</ele>
        <time>2021-11-06T14:13:05Z</time>
      </trkpt>
      <trkpt lat="46.53632" lon="5.33523">
        <ele>224.2</ele>
        <time>2021-11-06T14:13:09Z</time>
      </trkpt>
      <trkpt lat="46.53633" lon="5.33516">
        <ele>224.2</ele>
        <time>2021-11-06T14:13:10Z</time>
      </trkpt>
      <trkpt lat="46.53632" lon="5.33509">
        <ele>224.2</ele>
        <time>2021-11-06T14:13:11Z</time>
      </trkpt>
      <trkpt lat="46.53628" lon="5.33503">
        <ele>224.2</ele>
        <time>2021-11-06T14:13:12Z</time>
      </trkpt>
      <trkpt lat="46.53616" lon="5.33487">
        <ele>224.6</ele>
        <time>2021-11-06T14:13:15Z</time>
      </trkpt>
      <trkpt lat="46.53591" lon="5.33452">
        <ele>225.6</ele>
        <time>2021-11-06T14:13:21Z</time>
      </trkpt>
      <trkpt lat="46.53559" lon="5.33407">
        <ele>226.6</ele>
        <time>2021-11-06T14:13:29Z</time>
      </trkpt>
      <trkpt lat="46.53555" lon="5.33401">
        <ele>226.8</ele>
        <time>2021-11-06T14:13:30Z</time>
      </trkpt>
      <trkpt lat="46.53521" lon="5.33356">
        <ele>227.8</ele>
        <time>2021-11-06T14:13:38Z</time>
      </trkpt>
      <trkpt lat="46.53487" lon="5.33308">
        <ele>229</ele>
        <time>2021-11-06T14:13:46Z</time>
      </trkpt>
      <trkpt lat="46.53482" lon="5.33302">
        <ele>229</ele>
        <time>2021-11-06T14:13:47Z</time>
      </trkpt>
      <trkpt lat="46.5344" lon="5.33244">
        <ele>229.6</ele>
        <time>2021-11-06T14:13:56Z</time>
      </trkpt>
      <trkpt lat="46.53435" lon="5.33237">
        <ele>229.6</ele>
        <time>2021-11-06T14:13:57Z</time>
      </trkpt>
      <trkpt lat="46.53394" lon="5.33179">
        <ele>229.8</ele>
        <time>2021-11-06T14:14:05Z</time>
      </trkpt>
      <trkpt lat="46.53368" lon="5.33143">
        <ele>230</ele>
        <time>2021-11-06T14:14:10Z</time>
      </trkpt>
      <trkpt lat="46.5334" lon="5.33105">
        <ele>230</ele>
        <time>2021-11-06T14:14:15Z</time>
      </trkpt>
      <trkpt lat="46.53297" lon="5.33045">
        <ele>230</ele>
        <time>2021-11-06T14:14:23Z</time>
      </trkpt>
      <trkpt lat="46.53286" lon="5.33028">
        <ele>230</ele>
        <time>2021-11-06T14:14:25Z</time>
      </trkpt>
      <trkpt lat="46.53252" lon="5.32961">
        <ele>229.8</ele>
        <time>2021-11-06T14:14:32Z</time>
      </trkpt>
      <trkpt lat="46.53241" lon="5.32941">
        <ele>229.8</ele>
        <time>2021-11-06T14:14:34Z</time>
      </trkpt>
      <trkpt lat="46.5323" lon="5.32919">
        <ele>229</ele>
        <time>2021-11-06T14:14:36Z</time>
      </trkpt>
      <trkpt lat="46.53202" lon="5.32863">
        <ele>227.6</ele>
        <time>2021-11-06T14:14:41Z</time>
      </trkpt>
      <trkpt lat="46.53183" lon="5.32828">
        <ele>226.6</ele>
        <time>2021-11-06T14:14:44Z</time>
      </trkpt>
      <trkpt lat="46.5317" lon="5.32804">
        <ele>225.6</ele>
        <time>2021-11-06T14:14:46Z</time>
      </trkpt>
      <trkpt lat="46.53155" lon="5.32781">
        <ele>224.6</ele>
        <time>2021-11-06T14:14:48Z</time>
      </trkpt>
      <trkpt lat="46.53148" lon="5.3277">
        <ele>224</ele>
        <time>2021-11-06T14:14:49Z</time>
      </trkpt>
      <trkpt lat="46.5313" lon="5.32748">
        <ele>222.8</ele>
        <time>2021-11-06T14:14:51Z</time>
      </trkpt>
      <trkpt lat="46.53112" lon="5.32727">
        <ele>222.2</ele>
        <time>2021-11-06T14:14:53Z</time>
      </trkpt>
      <trkpt lat="46.53103" lon="5.32716">
        <ele>221.6</ele>
        <time>2021-11-06T14:14:54Z</time>
      </trkpt>
      <trkpt lat="46.53084" lon="5.32695">
        <ele>220.2</ele>
        <time>2021-11-06T14:14:56Z</time>
      </trkpt>
      <trkpt lat="46.53065" lon="5.32673">
        <ele>219</ele>
        <time>2021-11-06T14:14:58Z</time>
      </trkpt>
      <trkpt lat="46.53046" lon="5.32653">
        <ele>217.8</ele>
        <time>2021-11-06T14:15:00Z</time>
      </trkpt>
      <trkpt lat="46.53027" lon="5.32632">
        <ele>216.4</ele>
        <time>2021-11-06T14:15:02Z</time>
      </trkpt>
      <trkpt lat="46.53017" lon="5.32621">
        <ele>215.4</ele>
        <time>2021-11-06T14:15:03Z</time>
      </trkpt>
      <trkpt lat="46.52998" lon="5.32601">
        <ele>214</ele>
        <time>2021-11-06T14:15:05Z</time>
      </trkpt>
      <trkpt lat="46.52979" lon="5.32581">
        <ele>212.6</ele>
        <time>2021-11-06T14:15:07Z</time>
      </trkpt>
      <trkpt lat="46.52969" lon="5.32571">
        <ele>212.2</ele>
        <time>2021-11-06T14:15:08Z</time>
      </trkpt>
      <trkpt lat="46.5296" lon="5.32562">
        <ele>211.4</ele>
        <time>2021-11-06T14:15:09Z</time>
      </trkpt>
      <trkpt lat="46.52941" lon="5.32543">
        <ele>210</ele>
        <time>2021-11-06T14:15:11Z</time>
      </trkpt>
      <trkpt lat="46.52922" lon="5.32524">
        <ele>209</ele>
        <time>2021-11-06T14:15:13Z</time>
      </trkpt>
      <trkpt lat="46.52896" lon="5.32498">
        <ele>207.4</ele>
        <time>2021-11-06T14:15:16Z</time>
      </trkpt>
      <trkpt lat="46.52871" lon="5.32472">
        <ele>206.4</ele>
        <time>2021-11-06T14:15:19Z</time>
      </trkpt>
      <trkpt lat="46.52832" lon="5.32432">
        <ele>205.4</ele>
        <time>2021-11-06T14:15:24Z</time>
      </trkpt>
      <trkpt lat="46.52789" lon="5.32385">
        <ele>205</ele>
        <time>2021-11-06T14:15:30Z</time>
      </trkpt>
      <trkpt lat="46.52742" lon="5.3233">
        <ele>205.2</ele>
        <time>2021-11-06T14:15:37Z</time>
      </trkpt>
      <trkpt lat="46.52735" lon="5.32322">
        <ele>205.2</ele>
        <time>2021-11-06T14:15:38Z</time>
      </trkpt>
      <trkpt lat="46.52691" lon="5.32267">
        <ele>204.8</ele>
        <time>2021-11-06T14:15:45Z</time>
      </trkpt>
      <trkpt lat="46.52685" lon="5.32259">
        <ele>204.8</ele>
        <time>2021-11-06T14:15:46Z</time>
      </trkpt>
      <trkpt lat="46.5265" lon="5.3223">
        <ele>204.6</ele>
        <time>2021-11-06T14:15:51Z</time>
      </trkpt>
      <trkpt lat="46.52619" lon="5.32212">
        <ele>205.2</ele>
        <time>2021-11-06T14:15:56Z</time>
      </trkpt>
      <trkpt lat="46.52595" lon="5.32201">
        <ele>206.4</ele>
        <time>2021-11-06T14:16:00Z</time>
      </trkpt>
      <trkpt lat="46.52579" lon="5.32193">
        <ele>207.2</ele>
        <time>2021-11-06T14:16:03Z</time>
      </trkpt>
      <trkpt lat="46.52574" lon="5.3219">
        <ele>207.6</ele>
        <time>2021-11-06T14:16:04Z</time>
      </trkpt>
      <trkpt lat="46.52548" lon="5.32172">
        <ele>209</ele>
        <time>2021-11-06T14:16:09Z</time>
      </trkpt>
      <trkpt lat="46.52544" lon="5.32167">
        <ele>209.2</ele>
        <time>2021-11-06T14:16:10Z</time>
      </trkpt>
      <trkpt lat="46.5253" lon="5.32154">
        <ele>210.4</ele>
        <time>2021-11-06T14:16:13Z</time>
      </trkpt>
      <trkpt lat="46.5251" lon="5.32128">
        <ele>211.8</ele>
        <time>2021-11-06T14:16:18Z</time>
      </trkpt>
      <trkpt lat="46.52498" lon="5.32112">
        <ele>213</ele>
        <time>2021-11-06T14:16:21Z</time>
      </trkpt>
      <trkpt lat="46.52487" lon="5.32096">
        <ele>213.8</ele>
        <time>2021-11-06T14:16:24Z</time>
      </trkpt>
      <trkpt lat="46.52483" lon="5.32091">
        <ele>214</ele>
        <time>2021-11-06T14:16:25Z</time>
      </trkpt>
      <trkpt lat="46.52459" lon="5.32056">
        <ele>215.2</ele>
        <time>2021-11-06T14:16:31Z</time>
      </trkpt>
      <trkpt lat="46.52446" lon="5.3204">
        <ele>215.8</ele>
        <time>2021-11-06T14:16:34Z</time>
      </trkpt>
      <trkpt lat="46.5243" lon="5.32018">
        <ele>216.4</ele>
        <time>2021-11-06T14:16:38Z</time>
      </trkpt>
      <trkpt lat="46.5241" lon="5.3199">
        <ele>217.4</ele>
        <time>2021-11-06T14:16:43Z</time>
      </trkpt>
      <trkpt lat="46.52406" lon="5.31985">
        <ele>217.6</ele>
        <time>2021-11-06T14:16:44Z</time>
      </trkpt>
      <trkpt lat="46.52387" lon="5.31957">
        <ele>218.8</ele>
        <time>2021-11-06T14:16:49Z</time>
      </trkpt>
      <trkpt lat="46.52376" lon="5.3194">
        <ele>219.2</ele>
        <time>2021-11-06T14:16:52Z</time>
      </trkpt>
      <trkpt lat="46.52364" lon="5.31924">
        <ele>219.8</ele>
        <time>2021-11-06T14:16:55Z</time>
      </trkpt>
      <trkpt lat="46.52348" lon="5.31902">
        <ele>220.8</ele>
        <time>2021-11-06T14:16:59Z</time>
      </trkpt>
      <trkpt lat="46.52336" lon="5.31885">
        <ele>221.2</ele>
        <time>2021-11-06T14:17:02Z</time>
      </trkpt>
      <trkpt lat="46.52312" lon="5.3185">
        <ele>221.6</ele>
        <time>2021-11-06T14:17:07Z</time>
      </trkpt>
      <trkpt lat="46.52278" lon="5.318">
        <ele>220.8</ele>
        <time>2021-11-06T14:17:13Z</time>
      </trkpt>
      <trkpt lat="46.52247" lon="5.31755">
        <ele>219.6</ele>
        <time>2021-11-06T14:17:18Z</time>
      </trkpt>
      <trkpt lat="46.52227" lon="5.31727">
        <ele>218.6</ele>
        <time>2021-11-06T14:17:21Z</time>
      </trkpt>
      <trkpt lat="46.52221" lon="5.31718">
        <ele>218.4</ele>
        <time>2021-11-06T14:17:22Z</time>
      </trkpt>
      <trkpt lat="46.52181" lon="5.31662">
        <ele>217.4</ele>
        <time>2021-11-06T14:17:28Z</time>
      </trkpt>
      <trkpt lat="46.52167" lon="5.31643">
        <ele>217</ele>
        <time>2021-11-06T14:17:30Z</time>
      </trkpt>
      <trkpt lat="46.52147" lon="5.31614">
        <ele>216</ele>
        <time>2021-11-06T14:17:33Z</time>
      </trkpt>
      <trkpt lat="46.52113" lon="5.31564">
        <ele>214.8</ele>
        <time>2021-11-06T14:17:38Z</time>
      </trkpt>
      <trkpt lat="46.52098" lon="5.31544">
        <ele>214.2</ele>
        <time>2021-11-06T14:17:40Z</time>
      </trkpt>
      <trkpt lat="46.52084" lon="5.31524">
        <ele>213.2</ele>
        <time>2021-11-06T14:17:42Z</time>
      </trkpt>
      <trkpt lat="46.52063" lon="5.31493">
        <ele>212.2</ele>
        <time>2021-11-06T14:17:45Z</time>
      </trkpt>
      <trkpt lat="46.52056" lon="5.31482">
        <ele>212</ele>
        <time>2021-11-06T14:17:46Z</time>
      </trkpt>
      <trkpt lat="46.52035" lon="5.31451">
        <ele>210.8</ele>
        <time>2021-11-06T14:17:49Z</time>
      </trkpt>
      <trkpt lat="46.51999" lon="5.31399">
        <ele>209.6</ele>
        <time>2021-11-06T14:17:54Z</time>
      </trkpt>
      <trkpt lat="46.51992" lon="5.31389">
        <ele>209.4</ele>
        <time>2021-11-06T14:17:55Z</time>
      </trkpt>
      <trkpt lat="46.51972" lon="5.31359">
        <ele>208.4</ele>
        <time>2021-11-06T14:17:58Z</time>
      </trkpt>
      <trkpt lat="46.51939" lon="5.31311">
        <ele>207.2</ele>
        <time>2021-11-06T14:18:03Z</time>
      </trkpt>
      <trkpt lat="46.51901" lon="5.31255">
        <ele>206.8</ele>
        <time>2021-11-06T14:18:09Z</time>
      </trkpt>
      <trkpt lat="46.51877" lon="5.31219">
        <ele>206.8</ele>
        <time>2021-11-06T14:18:13Z</time>
      </trkpt>
      <trkpt lat="46.51858" lon="5.31196">
        <ele>206.6</ele>
        <time>2021-11-06T14:18:16Z</time>
      </trkpt>
      <trkpt lat="46.51843" lon="5.31185">
        <ele>206.6</ele>
        <time>2021-11-06T14:18:18Z</time>
      </trkpt>
      <trkpt lat="46.51828" lon="5.31178">
        <ele>206.6</ele>
        <time>2021-11-06T14:18:20Z</time>
      </trkpt>
      <trkpt lat="46.51813" lon="5.31174">
        <ele>206.6</ele>
        <time>2021-11-06T14:18:22Z</time>
      </trkpt>
      <trkpt lat="46.51777" lon="5.31174">
        <ele>207.2</ele>
        <time>2021-11-06T14:18:27Z</time>
      </trkpt>
      <trkpt lat="46.51743" lon="5.31171">
        <ele>208.6</ele>
        <time>2021-11-06T14:18:32Z</time>
      </trkpt>
      <trkpt lat="46.51737" lon="5.31169">
        <ele>208.8</ele>
        <time>2021-11-06T14:18:33Z</time>
      </trkpt>
      <trkpt lat="46.51719" lon="5.31162">
        <ele>209.8</ele>
        <time>2021-11-06T14:18:36Z</time>
      </trkpt>
      <trkpt lat="46.51708" lon="5.31155">
        <ele>210.4</ele>
        <time>2021-11-06T14:18:38Z</time>
      </trkpt>
      <trkpt lat="46.51703" lon="5.31151">
        <ele>210.8</ele>
        <time>2021-11-06T14:18:39Z</time>
      </trkpt>
      <trkpt lat="46.5169" lon="5.31135">
        <ele>212.2</ele>
        <time>2021-11-06T14:18:42Z</time>
      </trkpt>
      <trkpt lat="46.51682" lon="5.31122">
        <ele>212.6</ele>
        <time>2021-11-06T14:18:44Z</time>
      </trkpt>
      <trkpt lat="46.51675" lon="5.31109">
        <ele>213.2</ele>
        <time>2021-11-06T14:18:46Z</time>
      </trkpt>
      <trkpt lat="46.51669" lon="5.31098">
        <ele>213.6</ele>
        <time>2021-11-06T14:18:48Z</time>
      </trkpt>
      <trkpt lat="46.51664" lon="5.31095">
        <ele>213.8</ele>
        <time>2021-11-06T14:18:49Z</time>
      </trkpt>
      <trkpt lat="46.51659" lon="5.31095">
        <ele>214</ele>
        <time>2021-11-06T14:18:50Z</time>
      </trkpt>
      <trkpt lat="46.51649" lon="5.31098">
        <ele>214.2</ele>
        <time>2021-11-06T14:18:52Z</time>
      </trkpt>
      <trkpt lat="46.51643" lon="5.31099">
        <ele>214.4</ele>
        <time>2021-11-06T14:18:53Z</time>
      </trkpt>
      <trkpt lat="46.5163" lon="5.31098">
        <ele>214.4</ele>
        <time>2021-11-06T14:18:55Z</time>
      </trkpt>
      <trkpt lat="46.51593" lon="5.31079">
        <ele>214.2</ele>
        <time>2021-11-06T14:19:00Z</time>
      </trkpt>
      <trkpt lat="46.51553" lon="5.31071">
        <ele>213.2</ele>
        <time>2021-11-06T14:19:05Z</time>
      </trkpt>
      <trkpt lat="46.51512" lon="5.31069">
        <ele>212.2</ele>
        <time>2021-11-06T14:19:10Z</time>
      </trkpt>
      <trkpt lat="46.51455" lon="5.31066">
        <ele>211.8</ele>
        <time>2021-11-06T14:19:17Z</time>
      </trkpt>
      <trkpt lat="46.51399" lon="5.31069">
        <ele>211.8</ele>
        <time>2021-11-06T14:19:24Z</time>
      </trkpt>
      <trkpt lat="46.51344" lon="5.31072">
        <ele>211.8</ele>
        <time>2021-11-06T14:19:31Z</time>
      </trkpt>
      <trkpt lat="46.51327" lon="5.31073">
        <ele>211.8</ele>
        <time>2021-11-06T14:19:33Z</time>
      </trkpt>
      <trkpt lat="46.51269" lon="5.31077">
        <ele>211.8</ele>
        <time>2021-11-06T14:19:40Z</time>
      </trkpt>
      <trkpt lat="46.51261" lon="5.31079">
        <ele>211.8</ele>
        <time>2021-11-06T14:19:41Z</time>
      </trkpt>
      <trkpt lat="46.51246" lon="5.31087">
        <ele>211.8</ele>
        <time>2021-11-06T14:19:43Z</time>
      </trkpt>
      <trkpt lat="46.51239" lon="5.31093">
        <ele>211.8</ele>
        <time>2021-11-06T14:19:44Z</time>
      </trkpt>
      <trkpt lat="46.51211" lon="5.31127">
        <ele>211.8</ele>
        <time>2021-11-06T14:19:49Z</time>
      </trkpt>
      <trkpt lat="46.51182" lon="5.31165">
        <ele>213.2</ele>
        <time>2021-11-06T14:19:55Z</time>
      </trkpt>
      <trkpt lat="46.51177" lon="5.31171">
        <ele>213.4</ele>
        <time>2021-11-06T14:19:56Z</time>
      </trkpt>
      <trkpt lat="46.51146" lon="5.3121">
        <ele>214.4</ele>
        <time>2021-11-06T14:20:02Z</time>
      </trkpt>
      <trkpt lat="46.51141" lon="5.31217">
        <ele>214.6</ele>
        <time>2021-11-06T14:20:03Z</time>
      </trkpt>
      <trkpt lat="46.51104" lon="5.31262">
        <ele>215</ele>
        <time>2021-11-06T14:20:10Z</time>
      </trkpt>
      <trkpt lat="46.51091" lon="5.31281">
        <ele>215.4</ele>
        <time>2021-11-06T14:20:13Z</time>
      </trkpt>
      <trkpt lat="46.51086" lon="5.31287">
        <ele>215.4</ele>
        <time>2021-11-06T14:20:14Z</time>
      </trkpt>
      <trkpt lat="46.51081" lon="5.31292">
        <ele>215.6</ele>
        <time>2021-11-06T14:20:15Z</time>
      </trkpt>
      <trkpt lat="46.51071" lon="5.31309">
        <ele>216.2</ele>
        <time>2021-11-06T14:20:18Z</time>
      </trkpt>
      <trkpt lat="46.51067" lon="5.31321">
        <ele>217</ele>
        <time>2021-11-06T14:20:20Z</time>
      </trkpt>
      <trkpt lat="46.51068" lon="5.31353">
        <ele>218.2</ele>
        <time>2021-11-06T14:20:24Z</time>
      </trkpt>
      <trkpt lat="46.51068" lon="5.31362">
        <ele>218.4</ele>
        <time>2021-11-06T14:20:25Z</time>
      </trkpt>
      <trkpt lat="46.51066" lon="5.31396">
        <ele>219.2</ele>
        <time>2021-11-06T14:20:29Z</time>
      </trkpt>
      <trkpt lat="46.51058" lon="5.31443">
        <ele>220.4</ele>
        <time>2021-11-06T14:20:35Z</time>
      </trkpt>
      <trkpt lat="46.51052" lon="5.31468">
        <ele>220.8</ele>
        <time>2021-11-06T14:20:38Z</time>
      </trkpt>
      <trkpt lat="46.51048" lon="5.31491">
        <ele>221.4</ele>
        <time>2021-11-06T14:20:41Z</time>
      </trkpt>
      <trkpt lat="46.51037" lon="5.31532">
        <ele>222.6</ele>
        <time>2021-11-06T14:20:47Z</time>
      </trkpt>
      <trkpt lat="46.51028" lon="5.31552">
        <ele>223.2</ele>
        <time>2021-11-06T14:20:50Z</time>
      </trkpt>
      <trkpt lat="46.5102" lon="5.31563">
        <ele>223.6</ele>
        <time>2021-11-06T14:20:52Z</time>
      </trkpt>
      <trkpt lat="46.51015" lon="5.31569">
        <ele>223.8</ele>
        <time>2021-11-06T14:20:53Z</time>
      </trkpt>
      <trkpt lat="46.50994" lon="5.31591">
        <ele>224.4</ele>
        <time>2021-11-06T14:20:57Z</time>
      </trkpt>
      <trkpt lat="46.50946" lon="5.31641">
        <ele>224.2</ele>
        <time>2021-11-06T14:21:05Z</time>
      </trkpt>
      <trkpt lat="46.50907" lon="5.31681">
        <ele>224.2</ele>
        <time>2021-11-06T14:21:12Z</time>
      </trkpt>
      <trkpt lat="46.50876" lon="5.31715">
        <ele>225</ele>
        <time>2021-11-06T14:21:18Z</time>
      </trkpt>
      <trkpt lat="46.5087" lon="5.31721">
        <ele>225.2</ele>
        <time>2021-11-06T14:21:19Z</time>
      </trkpt>
      <trkpt lat="46.50846" lon="5.31741">
        <ele>225.4</ele>
        <time>2021-11-06T14:21:23Z</time>
      </trkpt>
      <trkpt lat="46.50839" lon="5.31743">
        <ele>225.6</ele>
        <time>2021-11-06T14:21:24Z</time>
      </trkpt>
      <trkpt lat="46.50832" lon="5.31742">
        <ele>225.6</ele>
        <time>2021-11-06T14:21:25Z</time>
      </trkpt>
      <trkpt lat="46.50817" lon="5.31735">
        <ele>225.6</ele>
        <time>2021-11-06T14:21:27Z</time>
      </trkpt>
      <trkpt lat="46.50775" lon="5.31704">
        <ele>225.2</ele>
        <time>2021-11-06T14:21:33Z</time>
      </trkpt>
      <trkpt lat="46.50767" lon="5.31702">
        <ele>224.8</ele>
        <time>2021-11-06T14:21:34Z</time>
      </trkpt>
      <trkpt lat="46.50759" lon="5.317">
        <ele>224.6</ele>
        <time>2021-11-06T14:21:35Z</time>
      </trkpt>
      <trkpt lat="46.50735" lon="5.31702">
        <ele>224.4</ele>
        <time>2021-11-06T14:21:38Z</time>
      </trkpt>
      <trkpt lat="46.50677" lon="5.31708">
        <ele>224</ele>
        <time>2021-11-06T14:21:46Z</time>
      </trkpt>
      <trkpt lat="46.50669" lon="5.31709">
        <ele>224</ele>
        <time>2021-11-06T14:21:47Z</time>
      </trkpt>
      <trkpt lat="46.50656" lon="5.31717">
        <ele>224</ele>
        <time>2021-11-06T14:21:49Z</time>
      </trkpt>
      <trkpt lat="46.5065" lon="5.31723">
        <ele>224</ele>
        <time>2021-11-06T14:21:50Z</time>
      </trkpt>
      <trkpt lat="46.50644" lon="5.31731">
        <ele>224</ele>
        <time>2021-11-06T14:21:51Z</time>
      </trkpt>
      <trkpt lat="46.50632" lon="5.31759">
        <ele>224</ele>
        <time>2021-11-06T14:21:54Z</time>
      </trkpt>
      <trkpt lat="46.50604" lon="5.31838">
        <ele>223.8</ele>
        <time>2021-11-06T14:22:02Z</time>
      </trkpt>
      <trkpt lat="46.506" lon="5.31848">
        <ele>223.8</ele>
        <time>2021-11-06T14:22:03Z</time>
      </trkpt>
      <trkpt lat="46.50579" lon="5.31904">
        <ele>223</ele>
        <time>2021-11-06T14:22:08Z</time>
      </trkpt>
      <trkpt lat="46.50575" lon="5.31916">
        <ele>222.6</ele>
        <time>2021-11-06T14:22:09Z</time>
      </trkpt>
      <trkpt lat="46.50558" lon="5.31963">
        <ele>221.4</ele>
        <time>2021-11-06T14:22:13Z</time>
      </trkpt>
      <trkpt lat="46.50553" lon="5.31978">
        <ele>221</ele>
        <time>2021-11-06T14:22:14Z</time>
      </trkpt>
      <trkpt lat="46.50549" lon="5.31987">
        <ele>220.4</ele>
        <time>2021-11-06T14:22:15Z</time>
      </trkpt>
      <trkpt lat="46.50542" lon="5.31999">
        <ele>219.6</ele>
        <time>2021-11-06T14:22:16Z</time>
      </trkpt>
      <trkpt lat="46.50535" lon="5.32009">
        <ele>219.2</ele>
        <time>2021-11-06T14:22:17Z</time>
      </trkpt>
      <trkpt lat="46.50529" lon="5.32018">
        <ele>218.8</ele>
        <time>2021-11-06T14:22:18Z</time>
      </trkpt>
      <trkpt lat="46.50516" lon="5.32036">
        <ele>217.8</ele>
        <time>2021-11-06T14:22:20Z</time>
      </trkpt>
      <trkpt lat="46.50499" lon="5.32068">
        <ele>216.4</ele>
        <time>2021-11-06T14:22:23Z</time>
      </trkpt>
      <trkpt lat="46.50477" lon="5.3212">
        <ele>215.4</ele>
        <time>2021-11-06T14:22:28Z</time>
      </trkpt>
      <trkpt lat="46.50474" lon="5.3213">
        <ele>215.2</ele>
        <time>2021-11-06T14:22:29Z</time>
      </trkpt>
      <trkpt lat="46.50459" lon="5.32177">
        <ele>215.2</ele>
        <time>2021-11-06T14:22:34Z</time>
      </trkpt>
      <trkpt lat="46.50449" lon="5.32188">
        <ele>215.2</ele>
        <time>2021-11-06T14:22:36Z</time>
      </trkpt>
      <trkpt lat="46.50444" lon="5.32192">
        <ele>215.2</ele>
        <time>2021-11-06T14:22:37Z</time>
      </trkpt>
      <trkpt lat="46.5044" lon="5.32193">
        <ele>215</ele>
        <time>2021-11-06T14:22:38Z</time>
      </trkpt>
      <trkpt lat="46.50435" lon="5.32193">
        <ele>215</ele>
        <time>2021-11-06T14:22:40Z</time>
      </trkpt>
      <trkpt lat="46.50433" lon="5.32193">
        <ele>214.8</ele>
        <time>2021-11-06T14:22:41Z</time>
      </trkpt>
      <trkpt lat="46.50429" lon="5.322">
        <ele>214.6</ele>
        <time>2021-11-06T14:22:43Z</time>
      </trkpt>
      <trkpt lat="46.5043" lon="5.32228">
        <ele>214.4</ele>
        <time>2021-11-06T14:22:47Z</time>
      </trkpt>
      <trkpt lat="46.50431" lon="5.32273">
        <ele>214.4</ele>
        <time>2021-11-06T14:22:52Z</time>
      </trkpt>
      <trkpt lat="46.5044" lon="5.32326">
        <ele>215.2</ele>
        <time>2021-11-06T14:22:58Z</time>
      </trkpt>
      <trkpt lat="46.50442" lon="5.32335">
        <ele>215.4</ele>
        <time>2021-11-06T14:22:59Z</time>
      </trkpt>
      <trkpt lat="46.50456" lon="5.324">
        <ele>215.8</ele>
        <time>2021-11-06T14:23:06Z</time>
      </trkpt>
      <trkpt lat="46.50463" lon="5.32436">
        <ele>215.6</ele>
        <time>2021-11-06T14:23:10Z</time>
      </trkpt>
      <trkpt lat="46.50467" lon="5.32474">
        <ele>215.6</ele>
        <time>2021-11-06T14:23:14Z</time>
      </trkpt>
      <trkpt lat="46.50473" lon="5.32555">
        <ele>215.8</ele>
        <time>2021-11-06T14:23:23Z</time>
      </trkpt>
      <trkpt lat="46.50474" lon="5.32574">
        <ele>216</ele>
        <time>2021-11-06T14:23:25Z</time>
      </trkpt>
      <trkpt lat="46.50475" lon="5.32627">
        <ele>216.4</ele>
        <time>2021-11-06T14:23:31Z</time>
      </trkpt>
      <trkpt lat="46.50475" lon="5.32663">
        <ele>217</ele>
        <time>2021-11-06T14:23:35Z</time>
      </trkpt>
      <trkpt lat="46.50474" lon="5.32697">
        <ele>217.4</ele>
        <time>2021-11-06T14:23:39Z</time>
      </trkpt>
      <trkpt lat="46.50473" lon="5.32738">
        <ele>218</ele>
        <time>2021-11-06T14:23:44Z</time>
      </trkpt>
      <trkpt lat="46.50473" lon="5.32779">
        <ele>218.4</ele>
        <time>2021-11-06T14:23:49Z</time>
      </trkpt>
      <trkpt lat="46.50472" lon="5.32814">
        <ele>218.6</ele>
        <time>2021-11-06T14:23:53Z</time>
      </trkpt>
      <trkpt lat="46.50471" lon="5.32882">
        <ele>218.8</ele>
        <time>2021-11-06T14:24:01Z</time>
      </trkpt>
      <trkpt lat="46.50471" lon="5.32912">
        <ele>219.6</ele>
        <time>2021-11-06T14:24:05Z</time>
      </trkpt>
      <trkpt lat="46.5047" lon="5.32933">
        <ele>220.2</ele>
        <time>2021-11-06T14:24:08Z</time>
      </trkpt>
      <trkpt lat="46.5047" lon="5.32948">
        <ele>220.8</ele>
        <time>2021-11-06T14:24:10Z</time>
      </trkpt>
      <trkpt lat="46.5047" lon="5.32979">
        <ele>222</ele>
        <time>2021-11-06T14:24:14Z</time>
      </trkpt>
      <trkpt lat="46.50469" lon="5.32993">
        <ele>222.2</ele>
        <time>2021-11-06T14:24:16Z</time>
      </trkpt>
      <trkpt lat="46.50469" lon="5.33008">
        <ele>222.8</ele>
        <time>2021-11-06T14:24:18Z</time>
      </trkpt>
      <trkpt lat="46.50468" lon="5.33042">
        <ele>224.2</ele>
        <time>2021-11-06T14:24:23Z</time>
      </trkpt>
      <trkpt lat="46.50467" lon="5.33047">
        <ele>224.4</ele>
        <time>2021-11-06T14:24:24Z</time>
      </trkpt>
      <trkpt lat="46.50467" lon="5.33072">
        <ele>225.2</ele>
        <time>2021-11-06T14:24:28Z</time>
      </trkpt>
      <trkpt lat="46.50467" lon="5.3309">
        <ele>226</ele>
        <time>2021-11-06T14:24:31Z</time>
      </trkpt>
      <trkpt lat="46.50467" lon="5.33096">
        <ele>226.4</ele>
        <time>2021-11-06T14:24:32Z</time>
      </trkpt>
      <trkpt lat="46.50465" lon="5.33115">
        <ele>227.8</ele>
        <time>2021-11-06T14:24:36Z</time>
      </trkpt>
      <trkpt lat="46.50465" lon="5.33121">
        <ele>228.2</ele>
        <time>2021-11-06T14:24:37Z</time>
      </trkpt>
      <trkpt lat="46.50464" lon="5.33142">
        <ele>229.2</ele>
        <time>2021-11-06T14:24:41Z</time>
      </trkpt>
      <trkpt lat="46.50463" lon="5.33161">
        <ele>230.2</ele>
        <time>2021-11-06T14:24:44Z</time>
      </trkpt>
      <trkpt lat="46.50464" lon="5.33205">
        <ele>231.2</ele>
        <time>2021-11-06T14:24:49Z</time>
      </trkpt>
      <trkpt lat="46.50464" lon="5.33214">
        <ele>231.6</ele>
        <time>2021-11-06T14:24:50Z</time>
      </trkpt>
      <trkpt lat="46.50463" lon="5.33274">
        <ele>232.2</ele>
        <time>2021-11-06T14:24:56Z</time>
      </trkpt>
      <trkpt lat="46.50461" lon="5.33316">
        <ele>232.2</ele>
        <time>2021-11-06T14:25:00Z</time>
      </trkpt>
      <trkpt lat="46.5046" lon="5.33325">
        <ele>232.2</ele>
        <time>2021-11-06T14:25:01Z</time>
      </trkpt>
      <trkpt lat="46.5046" lon="5.33338">
        <ele>232</ele>
        <time>2021-11-06T14:25:02Z</time>
      </trkpt>
      <trkpt lat="46.50458" lon="5.33369">
        <ele>232</ele>
        <time>2021-11-06T14:25:05Z</time>
      </trkpt>
      <trkpt lat="46.50447" lon="5.33408">
        <ele>231.6</ele>
        <time>2021-11-06T14:25:09Z</time>
      </trkpt>
      <trkpt lat="46.50444" lon="5.33415">
        <ele>231.6</ele>
        <time>2021-11-06T14:25:10Z</time>
      </trkpt>
      <trkpt lat="46.50431" lon="5.33438">
        <ele>231.6</ele>
        <time>2021-11-06T14:25:13Z</time>
      </trkpt>
      <trkpt lat="46.50422" lon="5.33449">
        <ele>231.6</ele>
        <time>2021-11-06T14:25:15Z</time>
      </trkpt>
      <trkpt lat="46.50416" lon="5.33455">
        <ele>231.6</ele>
        <time>2021-11-06T14:25:16Z</time>
      </trkpt>
      <trkpt lat="46.50391" lon="5.33481">
        <ele>232.2</ele>
        <time>2021-11-06T14:25:21Z</time>
      </trkpt>
      <trkpt lat="46.50369" lon="5.33501">
        <ele>232.6</ele>
        <time>2021-11-06T14:25:25Z</time>
      </trkpt>
      <trkpt lat="46.50359" lon="5.33512">
        <ele>233.2</ele>
        <time>2021-11-06T14:25:27Z</time>
      </trkpt>
      <trkpt lat="46.50338" lon="5.33532">
        <ele>233.8</ele>
        <time>2021-11-06T14:25:31Z</time>
      </trkpt>
      <trkpt lat="46.50326" lon="5.33544">
        <ele>234</ele>
        <time>2021-11-06T14:25:33Z</time>
      </trkpt>
      <trkpt lat="46.5029" lon="5.33586">
        <ele>234.4</ele>
        <time>2021-11-06T14:25:40Z</time>
      </trkpt>
      <trkpt lat="46.50261" lon="5.33619">
        <ele>235</ele>
        <time>2021-11-06T14:25:45Z</time>
      </trkpt>
      <trkpt lat="46.50236" lon="5.33647">
        <ele>235.4</ele>
        <time>2021-11-06T14:25:50Z</time>
      </trkpt>
      <trkpt lat="46.50199" lon="5.33688">
        <ele>235.8</ele>
        <time>2021-11-06T14:25:57Z</time>
      </trkpt>
      <trkpt lat="46.50194" lon="5.33694">
        <ele>236</ele>
        <time>2021-11-06T14:25:58Z</time>
      </trkpt>
      <trkpt lat="46.50156" lon="5.33733">
        <ele>236.4</ele>
        <time>2021-11-06T14:26:05Z</time>
      </trkpt>
      <trkpt lat="46.50119" lon="5.33772">
        <ele>236</ele>
        <time>2021-11-06T14:26:11Z</time>
      </trkpt>
      <trkpt lat="46.50071" lon="5.33824">
        <ele>235.8</ele>
        <time>2021-11-06T14:26:19Z</time>
      </trkpt>
      <trkpt lat="46.50066" lon="5.33829">
        <ele>235.8</ele>
        <time>2021-11-06T14:26:20Z</time>
      </trkpt>
      <trkpt lat="46.50034" lon="5.33863">
        <ele>236.6</ele>
        <time>2021-11-06T14:26:26Z</time>
      </trkpt>
      <trkpt lat="46.50025" lon="5.33873">
        <ele>236.8</ele>
        <time>2021-11-06T14:26:28Z</time>
      </trkpt>
      <trkpt lat="46.50005" lon="5.33896">
        <ele>237.4</ele>
        <time>2021-11-06T14:26:32Z</time>
      </trkpt>
      <trkpt lat="46.49979" lon="5.33923">
        <ele>238</ele>
        <time>2021-11-06T14:26:37Z</time>
      </trkpt>
      <trkpt lat="46.49967" lon="5.33937">
        <ele>238.2</ele>
        <time>2021-11-06T14:26:39Z</time>
      </trkpt>
      <trkpt lat="46.49932" lon="5.33975">
        <ele>238.2</ele>
        <time>2021-11-06T14:26:45Z</time>
      </trkpt>
      <trkpt lat="46.49893" lon="5.34018">
        <ele>237.2</ele>
        <time>2021-11-06T14:26:51Z</time>
      </trkpt>
      <trkpt lat="46.4988" lon="5.34033">
        <ele>236.8</ele>
        <time>2021-11-06T14:26:53Z</time>
      </trkpt>
      <trkpt lat="46.49843" lon="5.34082">
        <ele>235.8</ele>
        <time>2021-11-06T14:26:59Z</time>
      </trkpt>
      <trkpt lat="46.49806" lon="5.34141">
        <ele>235.4</ele>
        <time>2021-11-06T14:27:06Z</time>
      </trkpt>
      <trkpt lat="46.49801" lon="5.3415">
        <ele>235.4</ele>
        <time>2021-11-06T14:27:07Z</time>
      </trkpt>
      <trkpt lat="46.49765" lon="5.3421">
        <ele>235.4</ele>
        <time>2021-11-06T14:27:14Z</time>
      </trkpt>
      <trkpt lat="46.49755" lon="5.34225">
        <ele>235.4</ele>
        <time>2021-11-06T14:27:16Z</time>
      </trkpt>
      <trkpt lat="46.49735" lon="5.34259">
        <ele>235.4</ele>
        <time>2021-11-06T14:27:20Z</time>
      </trkpt>
      <trkpt lat="46.49724" lon="5.34279">
        <ele>235.4</ele>
        <time>2021-11-06T14:27:22Z</time>
      </trkpt>
      <trkpt lat="46.49704" lon="5.34324">
        <ele>235.2</ele>
        <time>2021-11-06T14:27:27Z</time>
      </trkpt>
      <trkpt lat="46.49686" lon="5.34387">
        <ele>235</ele>
        <time>2021-11-06T14:27:33Z</time>
      </trkpt>
      <trkpt lat="46.49675" lon="5.34425">
        <ele>234.4</ele>
        <time>2021-11-06T14:27:36Z</time>
      </trkpt>
      <trkpt lat="46.4966" lon="5.34485">
        <ele>233.2</ele>
        <time>2021-11-06T14:27:41Z</time>
      </trkpt>
      <trkpt lat="46.49643" lon="5.34559">
        <ele>231.8</ele>
        <time>2021-11-06T14:27:47Z</time>
      </trkpt>
      <trkpt lat="46.49641" lon="5.34571">
        <ele>231.4</ele>
        <time>2021-11-06T14:27:48Z</time>
      </trkpt>
      <trkpt lat="46.49631" lon="5.34642">
        <ele>230.6</ele>
        <time>2021-11-06T14:27:54Z</time>
      </trkpt>
      <trkpt lat="46.4963" lon="5.34652">
        <ele>230.6</ele>
        <time>2021-11-06T14:27:55Z</time>
      </trkpt>
      <trkpt lat="46.49625" lon="5.34706">
        <ele>231</ele>
        <time>2021-11-06T14:28:01Z</time>
      </trkpt>
      <trkpt lat="46.49623" lon="5.34722">
        <ele>231.8</ele>
        <time>2021-11-06T14:28:03Z</time>
      </trkpt>
      <trkpt lat="46.49621" lon="5.34737">
        <ele>232.4</ele>
        <time>2021-11-06T14:28:05Z</time>
      </trkpt>
      <trkpt lat="46.4962" lon="5.34752">
        <ele>232.8</ele>
        <time>2021-11-06T14:28:07Z</time>
      </trkpt>
      <trkpt lat="46.49622" lon="5.34784">
        <ele>233.8</ele>
        <time>2021-11-06T14:28:11Z</time>
      </trkpt>
      <trkpt lat="46.49623" lon="5.34791">
        <ele>234</ele>
        <time>2021-11-06T14:28:12Z</time>
      </trkpt>
      <trkpt lat="46.49623" lon="5.34799">
        <ele>234.4</ele>
        <time>2021-11-06T14:28:13Z</time>
      </trkpt>
      <trkpt lat="46.49627" lon="5.34829">
        <ele>235.2</ele>
        <time>2021-11-06T14:28:17Z</time>
      </trkpt>
      <trkpt lat="46.49633" lon="5.34851">
        <ele>236.2</ele>
        <time>2021-11-06T14:28:20Z</time>
      </trkpt>
      <trkpt lat="46.49634" lon="5.34859">
        <ele>236.6</ele>
        <time>2021-11-06T14:28:21Z</time>
      </trkpt>
      <trkpt lat="46.49635" lon="5.34867">
        <ele>236.6</ele>
        <time>2021-11-06T14:28:22Z</time>
      </trkpt>
      <trkpt lat="46.49643" lon="5.34898">
        <ele>237.6</ele>
        <time>2021-11-06T14:28:26Z</time>
      </trkpt>
      <trkpt lat="46.49645" lon="5.34906">
        <ele>237.8</ele>
        <time>2021-11-06T14:28:27Z</time>
      </trkpt>
      <trkpt lat="46.4966" lon="5.34975">
        <ele>238</ele>
        <time>2021-11-06T14:28:35Z</time>
      </trkpt>
      <trkpt lat="46.49671" lon="5.35034">
        <ele>237.6</ele>
        <time>2021-11-06T14:28:41Z</time>
      </trkpt>
      <trkpt lat="46.49686" lon="5.35106">
        <ele>236.8</ele>
        <time>2021-11-06T14:28:48Z</time>
      </trkpt>
      <trkpt lat="46.49689" lon="5.35119">
        <ele>236.6</ele>
        <time>2021-11-06T14:28:49Z</time>
      </trkpt>
      <trkpt lat="46.49702" lon="5.35191">
        <ele>235.6</ele>
        <time>2021-11-06T14:28:56Z</time>
      </trkpt>
      <trkpt lat="46.49713" lon="5.35247">
        <ele>236</ele>
        <time>2021-11-06T14:29:02Z</time>
      </trkpt>
      <trkpt lat="46.49728" lon="5.35316">
        <ele>235.8</ele>
        <time>2021-11-06T14:29:09Z</time>
      </trkpt>
      <trkpt lat="46.4973" lon="5.35327">
        <ele>235.8</ele>
        <time>2021-11-06T14:29:10Z</time>
      </trkpt>
      <trkpt lat="46.49731" lon="5.3535">
        <ele>235.8</ele>
        <time>2021-11-06T14:29:12Z</time>
      </trkpt>
      <trkpt lat="46.49731" lon="5.35373">
        <ele>235.4</ele>
        <time>2021-11-06T14:29:14Z</time>
      </trkpt>
      <trkpt lat="46.4973" lon="5.35393">
        <ele>235.2</ele>
        <time>2021-11-06T14:29:16Z</time>
      </trkpt>
      <trkpt lat="46.49725" lon="5.35434">
        <ele>235.2</ele>
        <time>2021-11-06T14:29:20Z</time>
      </trkpt>
      <trkpt lat="46.49717" lon="5.355">
        <ele>235.8</ele>
        <time>2021-11-06T14:29:27Z</time>
      </trkpt>
      <trkpt lat="46.49712" lon="5.35545">
        <ele>236.6</ele>
        <time>2021-11-06T14:29:32Z</time>
      </trkpt>
      <trkpt lat="46.49706" lon="5.3559">
        <ele>236.8</ele>
        <time>2021-11-06T14:29:37Z</time>
      </trkpt>
      <trkpt lat="46.497" lon="5.35631">
        <ele>237.2</ele>
        <time>2021-11-06T14:29:42Z</time>
      </trkpt>
      <trkpt lat="46.49697" lon="5.35638">
        <ele>237.4</ele>
        <time>2021-11-06T14:29:43Z</time>
      </trkpt>
      <trkpt lat="46.49693" lon="5.35642">
        <ele>237.4</ele>
        <time>2021-11-06T14:29:44Z</time>
      </trkpt>
      <trkpt lat="46.49683" lon="5.35644">
        <ele>237.4</ele>
        <time>2021-11-06T14:29:46Z</time>
      </trkpt>
      <trkpt lat="46.49654" lon="5.35636">
        <ele>237.6</ele>
        <time>2021-11-06T14:29:51Z</time>
      </trkpt>
      <trkpt lat="46.49648" lon="5.35634">
        <ele>237.6</ele>
        <time>2021-11-06T14:29:52Z</time>
      </trkpt>
      <trkpt lat="46.49611" lon="5.35621">
        <ele>238.2</ele>
        <time>2021-11-06T14:29:58Z</time>
      </trkpt>
      <trkpt lat="46.49586" lon="5.35612">
        <ele>238.8</ele>
        <time>2021-11-06T14:30:02Z</time>
      </trkpt>
      <trkpt lat="46.49543" lon="5.35596">
        <ele>239.8</ele>
        <time>2021-11-06T14:30:09Z</time>
      </trkpt>
      <trkpt lat="46.49537" lon="5.35593">
        <ele>239.8</ele>
        <time>2021-11-06T14:30:10Z</time>
      </trkpt>
      <trkpt lat="46.49531" lon="5.35591">
        <ele>240</ele>
        <time>2021-11-06T14:30:11Z</time>
      </trkpt>
      <trkpt lat="46.49501" lon="5.35578">
        <ele>240.8</ele>
        <time>2021-11-06T14:30:16Z</time>
      </trkpt>
      <trkpt lat="46.49464" lon="5.35563">
        <ele>241.6</ele>
        <time>2021-11-06T14:30:22Z</time>
      </trkpt>
      <trkpt lat="46.49438" lon="5.35551">
        <ele>241.8</ele>
        <time>2021-11-06T14:30:26Z</time>
      </trkpt>
      <trkpt lat="46.49412" lon="5.3554">
        <ele>242.2</ele>
        <time>2021-11-06T14:30:30Z</time>
      </trkpt>
      <trkpt lat="46.49406" lon="5.35538">
        <ele>242.4</ele>
        <time>2021-11-06T14:30:31Z</time>
      </trkpt>
      <trkpt lat="46.4936" lon="5.3553">
        <ele>242.8</ele>
        <time>2021-11-06T14:30:38Z</time>
      </trkpt>
      <trkpt lat="46.49347" lon="5.3553">
        <ele>243.2</ele>
        <time>2021-11-06T14:30:40Z</time>
      </trkpt>
      <trkpt lat="46.49323" lon="5.35531">
        <ele>243.6</ele>
        <time>2021-11-06T14:30:44Z</time>
      </trkpt>
      <trkpt lat="46.49287" lon="5.35532">
        <ele>244.2</ele>
        <time>2021-11-06T14:30:50Z</time>
      </trkpt>
      <trkpt lat="46.4928" lon="5.35533">
        <ele>244.4</ele>
        <time>2021-11-06T14:30:51Z</time>
      </trkpt>
      <trkpt lat="46.49234" lon="5.35536">
        <ele>245</ele>
        <time>2021-11-06T14:30:58Z</time>
      </trkpt>
      <trkpt lat="46.4918" lon="5.35537">
        <ele>245.2</ele>
        <time>2021-11-06T14:31:06Z</time>
      </trkpt>
      <trkpt lat="46.4914" lon="5.3554">
        <ele>245</ele>
        <time>2021-11-06T14:31:11Z</time>
      </trkpt>
      <trkpt lat="46.49088" lon="5.35547">
        <ele>243.6</ele>
        <time>2021-11-06T14:31:17Z</time>
      </trkpt>
      <trkpt lat="46.49072" lon="5.35547">
        <ele>243</ele>
        <time>2021-11-06T14:31:19Z</time>
      </trkpt>
      <trkpt lat="46.49019" lon="5.35549">
        <ele>242</ele>
        <time>2021-11-06T14:31:25Z</time>
      </trkpt>
      <trkpt lat="46.4901" lon="5.3555">
        <ele>241.6</ele>
        <time>2021-11-06T14:31:26Z</time>
      </trkpt>
      <trkpt lat="46.48961" lon="5.35554">
        <ele>240.6</ele>
        <time>2021-11-06T14:31:32Z</time>
      </trkpt>
      <trkpt lat="46.48939" lon="5.35555">
        <ele>240.8</ele>
        <time>2021-11-06T14:31:35Z</time>
      </trkpt>
      <trkpt lat="46.48901" lon="5.35555">
        <ele>241</ele>
        <time>2021-11-06T14:31:41Z</time>
      </trkpt>
      <trkpt lat="46.48871" lon="5.35557">
        <ele>242</ele>
        <time>2021-11-06T14:31:46Z</time>
      </trkpt>
      <trkpt lat="46.48866" lon="5.35558">
        <ele>242.2</ele>
        <time>2021-11-06T14:31:47Z</time>
      </trkpt>
      <trkpt lat="46.4885" lon="5.3556">
        <ele>242.6</ele>
        <time>2021-11-06T14:31:50Z</time>
      </trkpt>
      <trkpt lat="46.48841" lon="5.35565">
        <ele>242.8</ele>
        <time>2021-11-06T14:31:52Z</time>
      </trkpt>
      <trkpt lat="46.48833" lon="5.35572">
        <ele>243</ele>
        <time>2021-11-06T14:31:54Z</time>
      </trkpt>
      <trkpt lat="46.48826" lon="5.35585">
        <ele>243</ele>
        <time>2021-11-06T14:31:56Z</time>
      </trkpt>
      <trkpt lat="46.48822" lon="5.35592">
        <ele>243.2</ele>
        <time>2021-11-06T14:31:57Z</time>
      </trkpt>
      <trkpt lat="46.48807" lon="5.35625">
        <ele>243.2</ele>
        <time>2021-11-06T14:32:01Z</time>
      </trkpt>
      <trkpt lat="46.48781" lon="5.35683">
        <ele>243.4</ele>
        <time>2021-11-06T14:32:08Z</time>
      </trkpt>
      <trkpt lat="46.4875" lon="5.35757">
        <ele>243.6</ele>
        <time>2021-11-06T14:32:16Z</time>
      </trkpt>
      <trkpt lat="46.48747" lon="5.35764">
        <ele>243.6</ele>
        <time>2021-11-06T14:32:17Z</time>
      </trkpt>
      <trkpt lat="46.48726" lon="5.35815">
        <ele>243.6</ele>
        <time>2021-11-06T14:32:23Z</time>
      </trkpt>
      <trkpt lat="46.48712" lon="5.35847">
        <ele>244</ele>
        <time>2021-11-06T14:32:27Z</time>
      </trkpt>
      <trkpt lat="46.48705" lon="5.35864">
        <ele>244.2</ele>
        <time>2021-11-06T14:32:29Z</time>
      </trkpt>
      <trkpt lat="46.48695" lon="5.35886">
        <ele>244.6</ele>
        <time>2021-11-06T14:32:32Z</time>
      </trkpt>
      <trkpt lat="46.4869" lon="5.35901">
        <ele>244.8</ele>
        <time>2021-11-06T14:32:34Z</time>
      </trkpt>
      <trkpt lat="46.48688" lon="5.35909">
        <ele>244.8</ele>
        <time>2021-11-06T14:32:35Z</time>
      </trkpt>
      <trkpt lat="46.48684" lon="5.35932">
        <ele>245.2</ele>
        <time>2021-11-06T14:32:38Z</time>
      </trkpt>
      <trkpt lat="46.48677" lon="5.35979">
        <ele>246.4</ele>
        <time>2021-11-06T14:32:43Z</time>
      </trkpt>
      <trkpt lat="46.48667" lon="5.36034">
        <ele>246.8</ele>
        <time>2021-11-06T14:32:49Z</time>
      </trkpt>
      <trkpt lat="46.48656" lon="5.36089">
        <ele>246.4</ele>
        <time>2021-11-06T14:32:54Z</time>
      </trkpt>
      <trkpt lat="46.48645" lon="5.36146">
        <ele>245.4</ele>
        <time>2021-11-06T14:32:59Z</time>
      </trkpt>
      <trkpt lat="46.48644" lon="5.36157">
        <ele>245.4</ele>
        <time>2021-11-06T14:33:00Z</time>
      </trkpt>
      <trkpt lat="46.48638" lon="5.3623">
        <ele>245.2</ele>
        <time>2021-11-06T14:33:07Z</time>
      </trkpt>
      <trkpt lat="46.4863" lon="5.36288">
        <ele>245.6</ele>
        <time>2021-11-06T14:33:13Z</time>
      </trkpt>
      <trkpt lat="46.48628" lon="5.36296">
        <ele>245.6</ele>
        <time>2021-11-06T14:33:14Z</time>
      </trkpt>
      <trkpt lat="46.48622" lon="5.36308">
        <ele>245.8</ele>
        <time>2021-11-06T14:33:16Z</time>
      </trkpt>
      <trkpt lat="46.48611" lon="5.36318">
        <ele>246.2</ele>
        <time>2021-11-06T14:33:18Z</time>
      </trkpt>
      <trkpt lat="46.48606" lon="5.3632">
        <ele>246.4</ele>
        <time>2021-11-06T14:33:19Z</time>
      </trkpt>
      <trkpt lat="46.48577" lon="5.36324">
        <ele>247.8</ele>
        <time>2021-11-06T14:33:24Z</time>
      </trkpt>
      <trkpt lat="46.48567" lon="5.36326">
        <ele>248.6</ele>
        <time>2021-11-06T14:33:26Z</time>
      </trkpt>
      <trkpt lat="46.48555" lon="5.36327">
        <ele>249</ele>
        <time>2021-11-06T14:33:28Z</time>
      </trkpt>
      <trkpt lat="46.48533" lon="5.36331">
        <ele>250.2</ele>
        <time>2021-11-06T14:33:32Z</time>
      </trkpt>
      <trkpt lat="46.48528" lon="5.36332">
        <ele>250.4</ele>
        <time>2021-11-06T14:33:33Z</time>
      </trkpt>
      <trkpt lat="46.48489" lon="5.36339">
        <ele>251.2</ele>
        <time>2021-11-06T14:33:40Z</time>
      </trkpt>
      <trkpt lat="46.48463" lon="5.36343">
        <ele>251.6</ele>
        <time>2021-11-06T14:33:44Z</time>
      </trkpt>
      <trkpt lat="46.4842" lon="5.36354">
        <ele>252</ele>
        <time>2021-11-06T14:33:51Z</time>
      </trkpt>
      <trkpt lat="46.4839" lon="5.36377">
        <ele>252.2</ele>
        <time>2021-11-06T14:33:56Z</time>
      </trkpt>
      <trkpt lat="46.48384" lon="5.36382">
        <ele>252.2</ele>
        <time>2021-11-06T14:33:57Z</time>
      </trkpt>
      <trkpt lat="46.48344" lon="5.36426">
        <ele>252.8</ele>
        <time>2021-11-06T14:34:05Z</time>
      </trkpt>
      <trkpt lat="46.48324" lon="5.36448">
        <ele>253.4</ele>
        <time>2021-11-06T14:34:09Z</time>
      </trkpt>
      <trkpt lat="46.483" lon="5.36474">
        <ele>254.8</ele>
        <time>2021-11-06T14:34:14Z</time>
      </trkpt>
      <trkpt lat="46.48295" lon="5.36479">
        <ele>254.8</ele>
        <time>2021-11-06T14:34:15Z</time>
      </trkpt>
      <trkpt lat="46.48277" lon="5.36499">
        <ele>256</ele>
        <time>2021-11-06T14:34:19Z</time>
      </trkpt>
      <trkpt lat="46.48259" lon="5.36521">
        <ele>256.6</ele>
        <time>2021-11-06T14:34:23Z</time>
      </trkpt>
      <trkpt lat="46.48241" lon="5.3654">
        <ele>257</ele>
        <time>2021-11-06T14:34:27Z</time>
      </trkpt>
      <trkpt lat="46.48228" lon="5.36552">
        <ele>257.4</ele>
        <time>2021-11-06T14:34:30Z</time>
      </trkpt>
      <trkpt lat="46.48223" lon="5.36556">
        <ele>257.4</ele>
        <time>2021-11-06T14:34:31Z</time>
      </trkpt>
      <trkpt lat="46.48212" lon="5.36556">
        <ele>257.8</ele>
        <time>2021-11-06T14:34:33Z</time>
      </trkpt>
      <trkpt lat="46.48202" lon="5.36554">
        <ele>258</ele>
        <time>2021-11-06T14:34:35Z</time>
      </trkpt>
      <trkpt lat="46.48197" lon="5.36557">
        <ele>258.2</ele>
        <time>2021-11-06T14:34:36Z</time>
      </trkpt>
      <trkpt lat="46.48192" lon="5.36561">
        <ele>258.2</ele>
        <time>2021-11-06T14:34:37Z</time>
      </trkpt>
      <trkpt lat="46.48188" lon="5.36575">
        <ele>258.4</ele>
        <time>2021-11-06T14:34:39Z</time>
      </trkpt>
      <trkpt lat="46.4819" lon="5.36591">
        <ele>258.6</ele>
        <time>2021-11-06T14:34:41Z</time>
      </trkpt>
      <trkpt lat="46.48194" lon="5.36597">
        <ele>258.6</ele>
        <time>2021-11-06T14:34:42Z</time>
      </trkpt>
      <trkpt lat="46.48198" lon="5.366">
        <ele>258.6</ele>
        <time>2021-11-06T14:34:43Z</time>
      </trkpt>
      <trkpt lat="46.4821" lon="5.36601">
        <ele>258.8</ele>
        <time>2021-11-06T14:34:45Z</time>
      </trkpt>
      <trkpt lat="46.48218" lon="5.36592">
        <ele>259</ele>
        <time>2021-11-06T14:34:47Z</time>
      </trkpt>
      <trkpt lat="46.4822" lon="5.36585">
        <ele>259.2</ele>
        <time>2021-11-06T14:34:48Z</time>
      </trkpt>
      <trkpt lat="46.4822" lon="5.36576">
        <ele>259.2</ele>
        <time>2021-11-06T14:34:49Z</time>
      </trkpt>
      <trkpt lat="46.48214" lon="5.36563">
        <ele>259.4</ele>
        <time>2021-11-06T14:34:51Z</time>
      </trkpt>
      <trkpt lat="46.48204" lon="5.36557">
        <ele>259.4</ele>
        <time>2021-11-06T14:34:53Z</time>
      </trkpt>
      <trkpt lat="46.48199" lon="5.36559">
        <ele>259.4</ele>
        <time>2021-11-06T14:34:54Z</time>
      </trkpt>
      <trkpt lat="46.48195" lon="5.36564">
        <ele>259.2</ele>
        <time>2021-11-06T14:34:55Z</time>
      </trkpt>
      <trkpt lat="46.48189" lon="5.36577">
        <ele>259</ele>
        <time>2021-11-06T14:34:57Z</time>
      </trkpt>
      <trkpt lat="46.48183" lon="5.36595">
        <ele>259</ele>
        <time>2021-11-06T14:34:59Z</time>
      </trkpt>
      <trkpt lat="46.48175" lon="5.36607">
        <ele>259.2</ele>
        <time>2021-11-06T14:35:01Z</time>
      </trkpt>
      <trkpt lat="46.4817" lon="5.36614">
        <ele>259.2</ele>
        <time>2021-11-06T14:35:02Z</time>
      </trkpt>
      <trkpt lat="46.48157" lon="5.36629">
        <ele>259.4</ele>
        <time>2021-11-06T14:35:05Z</time>
      </trkpt>
      <trkpt lat="46.48144" lon="5.36652">
        <ele>259.8</ele>
        <time>2021-11-06T14:35:09Z</time>
      </trkpt>
      <trkpt lat="46.48119" lon="5.36677">
        <ele>260.2</ele>
        <time>2021-11-06T14:35:14Z</time>
      </trkpt>
      <trkpt lat="46.48115" lon="5.3668">
        <ele>260.2</ele>
        <time>2021-11-06T14:35:15Z</time>
      </trkpt>
      <trkpt lat="46.48109" lon="5.3669">
        <ele>260.4</ele>
        <time>2021-11-06T14:35:17Z</time>
      </trkpt>
      <trkpt lat="46.48109" lon="5.36694">
        <ele>260.6</ele>
        <time>2021-11-06T14:35:18Z</time>
      </trkpt>
      <trkpt lat="46.48109" lon="5.36702">
        <ele>260.8</ele>
        <time>2021-11-06T14:35:19Z</time>
      </trkpt>
      <trkpt lat="46.48114" lon="5.3671">
        <ele>261</ele>
        <time>2021-11-06T14:35:21Z</time>
      </trkpt>
      <trkpt lat="46.48118" lon="5.36713">
        <ele>261.4</ele>
        <time>2021-11-06T14:35:22Z</time>
      </trkpt>
      <trkpt lat="46.48136" lon="5.36729">
        <ele>262.6</ele>
        <time>2021-11-06T14:35:27Z</time>
      </trkpt>
      <trkpt lat="46.48145" lon="5.36735">
        <ele>262.8</ele>
        <time>2021-11-06T14:35:29Z</time>
      </trkpt>
      <trkpt lat="46.48163" lon="5.36749">
        <ele>263.6</ele>
        <time>2021-11-06T14:35:34Z</time>
      </trkpt>
      <trkpt lat="46.48178" lon="5.3676">
        <ele>264.8</ele>
        <time>2021-11-06T14:35:38Z</time>
      </trkpt>
      <trkpt lat="46.48183" lon="5.36764">
        <ele>265</ele>
        <time>2021-11-06T14:35:39Z</time>
      </trkpt>
      <trkpt lat="46.48193" lon="5.36773">
        <ele>266</ele>
        <time>2021-11-06T14:35:42Z</time>
      </trkpt>
      <trkpt lat="46.4821" lon="5.36788">
        <ele>267.4</ele>
        <time>2021-11-06T14:35:47Z</time>
      </trkpt>
      <trkpt lat="46.48216" lon="5.36793">
        <ele>268</ele>
        <time>2021-11-06T14:35:49Z</time>
      </trkpt>
      <trkpt lat="46.48222" lon="5.36797">
        <ele>268.6</ele>
        <time>2021-11-06T14:35:51Z</time>
      </trkpt>
      <trkpt lat="46.48237" lon="5.36811">
        <ele>269.6</ele>
        <time>2021-11-06T14:35:56Z</time>
      </trkpt>
      <trkpt lat="46.48244" lon="5.36817">
        <ele>270</ele>
        <time>2021-11-06T14:35:58Z</time>
      </trkpt>
      <trkpt lat="46.48256" lon="5.36827">
        <ele>270.8</ele>
        <time>2021-11-06T14:36:02Z</time>
      </trkpt>
    </trkseg>
  </trk>
</gpx>